<?xml version="1.0" encoding="UTF-8"?>
<gpx version="1.1" creator="https://www.youtrack.es" xsi:schemaLocation="http://www.topografix.com/GPX/1/1 http://www.topografix.com/GPX/1/1/gpx.xsd http://www.garmin.com/xmlschemas/GpxExtensions/v3 http://www.garmin.com/xmlschemas/GpxExtensionsv3.xsd http://www.garmin.com/xmlschemas/TrackPointExtension/v1 http://www.garmin.com/xmlschemas/TrackPointExtensionv1.xsd" xmlns:gpxtpx="http://www.garmin.com/xmlschemas/TrackPointExtension/v1" xmlns:gpxx="http://www.garmin.com/xmlschemas/GpxExtensions/v3" xmlns:xsi="http://www.w3.org/2001/XMLSchema-instance">
  <metadata>
    <link href="https://www.youtrack.es">
      <text>YouTrack.es</text>
    </link>
    <time>2026-05-10T21:15:29Z</time>
  </metadata>
  <trk>
    <src>https://www.youtrack.es</src>
    <link href="https://www.youtrack.es/ruta/7360-ascensio-a-la-pica-d-estats">
      <text>YouTrack.es</text>
    </link>
    <trkseg>
      <trkpt lat="42.623778" lon="1.383437">
        <ele>1780</ele>
        <time>2019-08-05T02:44:32.000Z</time>
      </trkpt>
      <trkpt lat="42.62378" lon="1.383459">
        <ele>1824</ele>
        <time>2019-08-05T02:44:34.000Z</time>
      </trkpt>
      <trkpt lat="42.623779" lon="1.383509">
        <ele>1824</ele>
        <time>2019-08-05T02:44:37.000Z</time>
      </trkpt>
      <trkpt lat="42.6238" lon="1.383654">
        <ele>1825</ele>
        <time>2019-08-05T02:44:44.000Z</time>
      </trkpt>
      <trkpt lat="42.623754" lon="1.383806">
        <ele>1826</ele>
        <time>2019-08-05T02:44:48.000Z</time>
      </trkpt>
      <trkpt lat="42.623762" lon="1.383973">
        <ele>1826</ele>
        <time>2019-08-05T02:44:56.000Z</time>
      </trkpt>
      <trkpt lat="42.62373" lon="1.384116">
        <ele>1827</ele>
        <time>2019-08-05T02:45:02.000Z</time>
      </trkpt>
      <trkpt lat="42.623653" lon="1.384226">
        <ele>1828</ele>
        <time>2019-08-05T02:45:09.000Z</time>
      </trkpt>
      <trkpt lat="42.62358" lon="1.38434">
        <ele>1831</ele>
        <time>2019-08-05T02:45:19.000Z</time>
      </trkpt>
      <trkpt lat="42.623575" lon="1.384386">
        <ele>1832.56310583089</ele>
        <time>2019-08-05T02:45:24.000Z</time>
      </trkpt>
      <trkpt lat="42.623529" lon="1.384514">
        <ele>1836</ele>
        <time>2019-08-05T02:45:38.000Z</time>
      </trkpt>
      <trkpt lat="42.623537" lon="1.384668">
        <ele>1837</ele>
        <time>2019-08-05T02:45:49.000Z</time>
      </trkpt>
      <trkpt lat="42.623543" lon="1.38483">
        <ele>1838</ele>
        <time>2019-08-05T02:45:58.000Z</time>
      </trkpt>
      <trkpt lat="42.623525" lon="1.384994">
        <ele>1838</ele>
        <time>2019-08-05T02:46:07.000Z</time>
      </trkpt>
      <trkpt lat="42.62349" lon="1.385146">
        <ele>1840</ele>
        <time>2019-08-05T02:46:17.000Z</time>
      </trkpt>
      <trkpt lat="42.623435" lon="1.385278">
        <ele>1841</ele>
        <time>2019-08-05T02:46:25.000Z</time>
      </trkpt>
      <trkpt lat="42.623353" lon="1.385428">
        <ele>1841</ele>
        <time>2019-08-05T02:46:33.000Z</time>
      </trkpt>
      <trkpt lat="42.623254" lon="1.385494">
        <ele>1842</ele>
        <time>2019-08-05T02:46:38.000Z</time>
      </trkpt>
      <trkpt lat="42.623144" lon="1.385564">
        <ele>1843.54716707724</ele>
        <time>2019-08-05T02:46:46.000Z</time>
      </trkpt>
      <trkpt lat="42.623103" lon="1.385586">
        <ele>1844</ele>
        <time>2019-08-05T02:46:49.000Z</time>
      </trkpt>
      <trkpt lat="42.623063" lon="1.385598">
        <ele>1845</ele>
        <time>2019-08-05T02:46:52.000Z</time>
      </trkpt>
      <trkpt lat="42.623014" lon="1.385603">
        <ele>1845</ele>
        <time>2019-08-05T02:46:56.000Z</time>
      </trkpt>
      <trkpt lat="42.622958" lon="1.38562">
        <ele>1845</ele>
        <time>2019-08-05T02:47:01.000Z</time>
      </trkpt>
      <trkpt lat="42.622906" lon="1.385652">
        <ele>1846</ele>
        <time>2019-08-05T02:47:05.000Z</time>
      </trkpt>
      <trkpt lat="42.622867" lon="1.385678">
        <ele>1847</ele>
        <time>2019-08-05T02:47:08.000Z</time>
      </trkpt>
      <trkpt lat="42.622757" lon="1.385742">
        <ele>1848</ele>
        <time>2019-08-05T02:47:16.000Z</time>
      </trkpt>
      <trkpt lat="42.622661" lon="1.385828">
        <ele>1850</ele>
        <time>2019-08-05T02:47:24.000Z</time>
      </trkpt>
      <trkpt lat="42.622557" lon="1.385918">
        <ele>1851</ele>
        <time>2019-08-05T02:47:35.000Z</time>
      </trkpt>
      <trkpt lat="42.622445" lon="1.385978">
        <ele>1852</ele>
        <time>2019-08-05T02:47:42.000Z</time>
      </trkpt>
      <trkpt lat="42.622339" lon="1.386026">
        <ele>1854</ele>
        <time>2019-08-05T02:47:49.000Z</time>
      </trkpt>
      <trkpt lat="42.622298" lon="1.386052">
        <ele>1854</ele>
        <time>2019-08-05T02:47:52.000Z</time>
      </trkpt>
      <trkpt lat="42.622253" lon="1.386088">
        <ele>1855</ele>
        <time>2019-08-05T02:47:55.000Z</time>
      </trkpt>
      <trkpt lat="42.622214" lon="1.386116">
        <ele>1855</ele>
        <time>2019-08-05T02:47:58.000Z</time>
      </trkpt>
      <trkpt lat="42.622177" lon="1.386133">
        <ele>1856</ele>
        <time>2019-08-05T02:48:01.000Z</time>
      </trkpt>
      <trkpt lat="42.622137" lon="1.386142">
        <ele>1856</ele>
        <time>2019-08-05T02:48:04.000Z</time>
      </trkpt>
      <trkpt lat="42.622101" lon="1.386154">
        <ele>1856</ele>
        <time>2019-08-05T02:48:07.000Z</time>
      </trkpt>
      <trkpt lat="42.621998" lon="1.386232">
        <ele>1858</ele>
        <time>2019-08-05T02:48:15.000Z</time>
      </trkpt>
      <trkpt lat="42.621887" lon="1.386263">
        <ele>1860</ele>
        <time>2019-08-05T02:48:23.000Z</time>
      </trkpt>
      <trkpt lat="42.621786" lon="1.386197">
        <ele>1861</ele>
        <time>2019-08-05T02:48:31.000Z</time>
      </trkpt>
      <trkpt lat="42.621764" lon="1.386196">
        <ele>1861</ele>
        <time>2019-08-05T02:48:33.000Z</time>
      </trkpt>
      <trkpt lat="42.621751" lon="1.386197">
        <ele>1861</ele>
        <time>2019-08-05T02:48:34.000Z</time>
      </trkpt>
      <trkpt lat="42.621677" lon="1.386238">
        <ele>1862</ele>
        <time>2019-08-05T02:48:41.000Z</time>
      </trkpt>
      <trkpt lat="42.621564" lon="1.386275">
        <ele>1863</ele>
        <time>2019-08-05T02:48:50.000Z</time>
      </trkpt>
      <trkpt lat="42.621494" lon="1.3864">
        <ele>1862</ele>
        <time>2019-08-05T02:48:59.000Z</time>
      </trkpt>
      <trkpt lat="42.621566" lon="1.386511">
        <ele>1860</ele>
        <time>2019-08-05T02:49:08.000Z</time>
      </trkpt>
      <trkpt lat="42.621664" lon="1.386598">
        <ele>1860</ele>
        <time>2019-08-05T02:49:16.000Z</time>
      </trkpt>
      <trkpt lat="42.621752" lon="1.386697">
        <ele>1862</ele>
        <time>2019-08-05T02:49:25.000Z</time>
      </trkpt>
      <trkpt lat="42.621844" lon="1.386775">
        <ele>1862</ele>
        <time>2019-08-05T02:49:31.000Z</time>
      </trkpt>
      <trkpt lat="42.621862" lon="1.386922">
        <ele>1864.50434647107</ele>
        <time>2019-08-05T02:49:40.000Z</time>
      </trkpt>
      <trkpt lat="42.62193" lon="1.387034">
        <ele>1867.55339323218</ele>
        <time>2019-08-05T02:49:56.000Z</time>
      </trkpt>
      <trkpt lat="42.622046" lon="1.387031">
        <ele>1869</ele>
        <time>2019-08-05T02:50:07.000Z</time>
      </trkpt>
      <trkpt lat="42.622137" lon="1.387112">
        <ele>1870.5</ele>
        <time>2019-08-05T02:50:17.000Z</time>
      </trkpt>
      <trkpt lat="42.622227" lon="1.387214">
        <ele>1871</ele>
        <time>2019-08-05T02:50:28.000Z</time>
      </trkpt>
      <trkpt lat="42.622294" lon="1.387333">
        <ele>1872</ele>
        <time>2019-08-05T02:50:36.000Z</time>
      </trkpt>
      <trkpt lat="42.622329" lon="1.387478">
        <ele>1873</ele>
        <time>2019-08-05T02:50:44.000Z</time>
      </trkpt>
      <trkpt lat="42.622416" lon="1.387582">
        <ele>1874</ele>
        <time>2019-08-05T02:50:55.000Z</time>
      </trkpt>
      <trkpt lat="42.622505" lon="1.38768">
        <ele>1874</ele>
        <time>2019-08-05T02:51:08.000Z</time>
      </trkpt>
      <trkpt lat="42.622613" lon="1.387723">
        <ele>1874</ele>
        <time>2019-08-05T02:51:16.000Z</time>
      </trkpt>
      <trkpt lat="42.622721" lon="1.387791">
        <ele>1874</ele>
        <time>2019-08-05T02:51:25.000Z</time>
      </trkpt>
      <trkpt lat="42.62282" lon="1.387856">
        <ele>1875</ele>
        <time>2019-08-05T02:51:35.000Z</time>
      </trkpt>
      <trkpt lat="42.622926" lon="1.387911">
        <ele>1875</ele>
        <time>2019-08-05T02:51:42.000Z</time>
      </trkpt>
      <trkpt lat="42.623027" lon="1.387987">
        <ele>1876.5500032</ele>
        <time>2019-08-05T02:51:50.000Z</time>
      </trkpt>
      <trkpt lat="42.623134" lon="1.388037">
        <ele>1879</ele>
        <time>2019-08-05T02:51:59.000Z</time>
      </trkpt>
      <trkpt lat="42.623237" lon="1.388075">
        <ele>1880</ele>
        <time>2019-08-05T02:52:06.000Z</time>
      </trkpt>
      <trkpt lat="42.623338" lon="1.388122">
        <ele>1883</ele>
        <time>2019-08-05T02:52:18.000Z</time>
      </trkpt>
      <trkpt lat="42.623437" lon="1.3882">
        <ele>1883</ele>
        <time>2019-08-05T02:52:25.000Z</time>
      </trkpt>
      <trkpt lat="42.623541" lon="1.388279">
        <ele>1886</ele>
        <time>2019-08-05T02:52:35.000Z</time>
      </trkpt>
      <trkpt lat="42.623593" lon="1.388417">
        <ele>1890</ele>
        <time>2019-08-05T02:52:48.000Z</time>
      </trkpt>
      <trkpt lat="42.623662" lon="1.38839">
        <ele>1890</ele>
        <time>2019-08-05T02:52:57.000Z</time>
      </trkpt>
      <trkpt lat="42.623701" lon="1.388377">
        <ele>1891</ele>
        <time>2019-08-05T02:53:02.000Z</time>
      </trkpt>
      <trkpt lat="42.623809" lon="1.388361">
        <ele>1892</ele>
        <time>2019-08-05T02:53:12.000Z</time>
      </trkpt>
      <trkpt lat="42.623891" lon="1.388391">
        <ele>1895</ele>
        <time>2019-08-05T02:53:18.000Z</time>
      </trkpt>
      <trkpt lat="42.623979" lon="1.388468">
        <ele>1897.55788948921</ele>
        <time>2019-08-05T02:53:29.000Z</time>
      </trkpt>
      <trkpt lat="42.624023" lon="1.388472">
        <ele>1898</ele>
        <time>2019-08-05T02:53:32.000Z</time>
      </trkpt>
      <trkpt lat="42.62406" lon="1.388485">
        <ele>1898.50926222222</ele>
        <time>2019-08-05T02:53:35.000Z</time>
      </trkpt>
      <trkpt lat="42.624104" lon="1.388499">
        <ele>1899</ele>
        <time>2019-08-05T02:53:39.000Z</time>
      </trkpt>
      <trkpt lat="42.624144" lon="1.388505">
        <ele>1899.50459157311</ele>
        <time>2019-08-05T02:53:43.000Z</time>
      </trkpt>
      <trkpt lat="42.624253" lon="1.388521">
        <ele>1902</ele>
        <time>2019-08-05T02:53:53.000Z</time>
      </trkpt>
      <trkpt lat="42.624324" lon="1.388594">
        <ele>1905</ele>
        <time>2019-08-05T02:54:03.000Z</time>
      </trkpt>
      <trkpt lat="42.624363" lon="1.388598">
        <ele>1905</ele>
        <time>2019-08-05T02:54:07.000Z</time>
      </trkpt>
      <trkpt lat="42.624405" lon="1.388583">
        <ele>1906</ele>
        <time>2019-08-05T02:54:11.000Z</time>
      </trkpt>
      <trkpt lat="42.624448" lon="1.388573">
        <ele>1906</ele>
        <time>2019-08-05T02:54:15.000Z</time>
      </trkpt>
      <trkpt lat="42.624487" lon="1.388555">
        <ele>1906.55445720224</ele>
        <time>2019-08-05T02:54:20.000Z</time>
      </trkpt>
      <trkpt lat="42.624525" lon="1.388556">
        <ele>1907</ele>
        <time>2019-08-05T02:54:23.000Z</time>
      </trkpt>
      <trkpt lat="42.624563" lon="1.388553">
        <ele>1907</ele>
        <time>2019-08-05T02:54:26.000Z</time>
      </trkpt>
      <trkpt lat="42.624608" lon="1.388575">
        <ele>1907</ele>
        <time>2019-08-05T02:54:29.000Z</time>
      </trkpt>
      <trkpt lat="42.62465" lon="1.388608">
        <ele>1907</ele>
        <time>2019-08-05T02:54:32.000Z</time>
      </trkpt>
      <trkpt lat="42.624689" lon="1.388634">
        <ele>1907</ele>
        <time>2019-08-05T02:54:35.000Z</time>
      </trkpt>
      <trkpt lat="42.62473" lon="1.388643">
        <ele>1908</ele>
        <time>2019-08-05T02:54:39.000Z</time>
      </trkpt>
      <trkpt lat="42.624772" lon="1.388627">
        <ele>1908</ele>
        <time>2019-08-05T02:54:43.000Z</time>
      </trkpt>
      <trkpt lat="42.624801" lon="1.388591">
        <ele>1909</ele>
        <time>2019-08-05T02:54:49.000Z</time>
      </trkpt>
      <trkpt lat="42.624839" lon="1.388568">
        <ele>1910.45669680202</ele>
        <time>2019-08-05T02:54:53.000Z</time>
      </trkpt>
      <trkpt lat="42.624877" lon="1.388551">
        <ele>1911.48888541237</ele>
        <time>2019-08-05T02:54:58.000Z</time>
      </trkpt>
      <trkpt lat="42.624896" lon="1.388501">
        <ele>1913.47008434803</ele>
        <time>2019-08-05T02:55:02.000Z</time>
      </trkpt>
      <trkpt lat="42.624914" lon="1.388449">
        <ele>1914</ele>
        <time>2019-08-05T02:55:06.000Z</time>
      </trkpt>
      <trkpt lat="42.624934" lon="1.38839">
        <ele>1914</ele>
        <time>2019-08-05T02:55:10.000Z</time>
      </trkpt>
      <trkpt lat="42.624948" lon="1.38834">
        <ele>1914.51886781061</ele>
        <time>2019-08-05T02:55:14.000Z</time>
      </trkpt>
      <trkpt lat="42.62496" lon="1.388281">
        <ele>1916</ele>
        <time>2019-08-05T02:55:18.000Z</time>
      </trkpt>
      <trkpt lat="42.624976" lon="1.388229">
        <ele>1916</ele>
        <time>2019-08-05T02:55:22.000Z</time>
      </trkpt>
      <trkpt lat="42.624992" lon="1.388185">
        <ele>1917</ele>
        <time>2019-08-05T02:55:27.000Z</time>
      </trkpt>
      <trkpt lat="42.625012" lon="1.388141">
        <ele>1918</ele>
        <time>2019-08-05T02:55:31.000Z</time>
      </trkpt>
      <trkpt lat="42.625036" lon="1.388106">
        <ele>1918</ele>
        <time>2019-08-05T02:55:36.000Z</time>
      </trkpt>
      <trkpt lat="42.62507" lon="1.388131">
        <ele>1919</ele>
        <time>2019-08-05T02:55:49.000Z</time>
      </trkpt>
      <trkpt lat="42.625099" lon="1.38818">
        <ele>1920</ele>
        <time>2019-08-05T02:55:53.000Z</time>
      </trkpt>
      <trkpt lat="42.625134" lon="1.388205">
        <ele>1921.56250666667</ele>
        <time>2019-08-05T02:55:56.000Z</time>
      </trkpt>
      <trkpt lat="42.625162" lon="1.388243">
        <ele>1922.48192585282</ele>
        <time>2019-08-05T02:56:00.000Z</time>
      </trkpt>
      <trkpt lat="42.625168" lon="1.388288">
        <ele>1924</ele>
        <time>2019-08-05T02:56:04.000Z</time>
      </trkpt>
      <trkpt lat="42.625185" lon="1.388336">
        <ele>1924</ele>
        <time>2019-08-05T02:56:08.000Z</time>
      </trkpt>
      <trkpt lat="42.625193" lon="1.388438">
        <ele>1926</ele>
        <time>2019-08-05T02:56:17.000Z</time>
      </trkpt>
      <trkpt lat="42.625194" lon="1.388491">
        <ele>1928</ele>
        <time>2019-08-05T02:56:22.000Z</time>
      </trkpt>
      <trkpt lat="42.625214" lon="1.388533">
        <ele>1930</ele>
        <time>2019-08-05T02:56:27.000Z</time>
      </trkpt>
      <trkpt lat="42.625283" lon="1.388658">
        <ele>1933.51886781061</ele>
        <time>2019-08-05T02:56:43.000Z</time>
      </trkpt>
      <trkpt lat="42.625325" lon="1.388792">
        <ele>1937</ele>
        <time>2019-08-05T02:56:56.000Z</time>
      </trkpt>
      <trkpt lat="42.625327" lon="1.38894">
        <ele>1938</ele>
        <time>2019-08-05T02:57:07.000Z</time>
      </trkpt>
      <trkpt lat="42.62537" lon="1.389065">
        <ele>1940</ele>
        <time>2019-08-05T02:57:18.000Z</time>
      </trkpt>
      <trkpt lat="42.625422" lon="1.38919">
        <ele>1943</ele>
        <time>2019-08-05T02:57:32.000Z</time>
      </trkpt>
      <trkpt lat="42.625497" lon="1.38929">
        <ele>1946.52381416781</ele>
        <time>2019-08-05T02:57:46.000Z</time>
      </trkpt>
      <trkpt lat="42.625582" lon="1.3893">
        <ele>1949</ele>
        <time>2019-08-05T02:58:00.000Z</time>
      </trkpt>
      <trkpt lat="42.62558" lon="1.389241">
        <ele>1950</ele>
        <time>2019-08-05T02:58:04.000Z</time>
      </trkpt>
      <trkpt lat="42.625591" lon="1.38919">
        <ele>1952</ele>
        <time>2019-08-05T02:58:08.000Z</time>
      </trkpt>
      <trkpt lat="42.625604" lon="1.38914">
        <ele>1953</ele>
        <time>2019-08-05T02:58:12.000Z</time>
      </trkpt>
      <trkpt lat="42.625605" lon="1.389079">
        <ele>1954</ele>
        <time>2019-08-05T02:58:16.000Z</time>
      </trkpt>
      <trkpt lat="42.625609" lon="1.389051">
        <ele>1954</ele>
        <time>2019-08-05T02:58:18.000Z</time>
      </trkpt>
      <trkpt lat="42.625613" lon="1.389024">
        <ele>1954</ele>
        <time>2019-08-05T02:58:20.000Z</time>
      </trkpt>
      <trkpt lat="42.625627" lon="1.388966">
        <ele>1955</ele>
        <time>2019-08-05T02:58:24.000Z</time>
      </trkpt>
      <trkpt lat="42.62565" lon="1.388913">
        <ele>1956</ele>
        <time>2019-08-05T02:58:28.000Z</time>
      </trkpt>
      <trkpt lat="42.625671" lon="1.388867">
        <ele>1957</ele>
        <time>2019-08-05T02:58:32.000Z</time>
      </trkpt>
      <trkpt lat="42.625687" lon="1.388825">
        <ele>1957</ele>
        <time>2019-08-05T02:58:36.000Z</time>
      </trkpt>
      <trkpt lat="42.625717" lon="1.388782">
        <ele>1957</ele>
        <time>2019-08-05T02:58:40.000Z</time>
      </trkpt>
      <trkpt lat="42.625809" lon="1.388855">
        <ele>1961</ele>
        <time>2019-08-05T02:58:55.000Z</time>
      </trkpt>
      <trkpt lat="42.625819" lon="1.389013">
        <ele>1961.5100032</ele>
        <time>2019-08-05T02:59:03.000Z</time>
      </trkpt>
      <trkpt lat="42.625833" lon="1.38917">
        <ele>1962</ele>
        <time>2019-08-05T02:59:10.000Z</time>
      </trkpt>
      <trkpt lat="42.625884" lon="1.389306">
        <ele>1962</ele>
        <time>2019-08-05T02:59:19.000Z</time>
      </trkpt>
      <trkpt lat="42.625893" lon="1.38926">
        <ele>1964</ele>
        <time>2019-08-05T02:59:26.000Z</time>
      </trkpt>
      <trkpt lat="42.625885" lon="1.389212">
        <ele>1964</ele>
        <time>2019-08-05T02:59:31.000Z</time>
      </trkpt>
      <trkpt lat="42.625882" lon="1.389163">
        <ele>1965.34782447386</ele>
        <time>2019-08-05T02:59:35.000Z</time>
      </trkpt>
      <trkpt lat="42.625881" lon="1.389105">
        <ele>1967</ele>
        <time>2019-08-05T02:59:40.000Z</time>
      </trkpt>
      <trkpt lat="42.625899" lon="1.389055">
        <ele>1968</ele>
        <time>2019-08-05T02:59:45.000Z</time>
      </trkpt>
      <trkpt lat="42.62591" lon="1.389001">
        <ele>1970</ele>
        <time>2019-08-05T02:59:50.000Z</time>
      </trkpt>
      <trkpt lat="42.62592" lon="1.388949">
        <ele>1971</ele>
        <time>2019-08-05T02:59:54.000Z</time>
      </trkpt>
      <trkpt lat="42.625961" lon="1.388937">
        <ele>1972</ele>
        <time>2019-08-05T03:00:00.000Z</time>
      </trkpt>
      <trkpt lat="42.625989" lon="1.388977">
        <ele>1973</ele>
        <time>2019-08-05T03:00:05.000Z</time>
      </trkpt>
      <trkpt lat="42.626066" lon="1.389081">
        <ele>1975.43396568172</ele>
        <time>2019-08-05T03:00:16.000Z</time>
      </trkpt>
      <trkpt lat="42.6261" lon="1.389102">
        <ele>1977</ele>
        <time>2019-08-05T03:00:23.000Z</time>
      </trkpt>
      <trkpt lat="42.626127" lon="1.389053">
        <ele>1979</ele>
        <time>2019-08-05T03:00:28.000Z</time>
      </trkpt>
      <trkpt lat="42.62615" lon="1.38901">
        <ele>1979</ele>
        <time>2019-08-05T03:00:33.000Z</time>
      </trkpt>
      <trkpt lat="42.62615" lon="1.388958">
        <ele>1980.48672987393</ele>
        <time>2019-08-05T03:00:40.000Z</time>
      </trkpt>
      <trkpt lat="42.626168" lon="1.388917">
        <ele>1982</ele>
        <time>2019-08-05T03:00:44.000Z</time>
      </trkpt>
      <trkpt lat="42.626162" lon="1.388866">
        <ele>1983</ele>
        <time>2019-08-05T03:00:49.000Z</time>
      </trkpt>
      <trkpt lat="42.626152" lon="1.388817">
        <ele>1983</ele>
        <time>2019-08-05T03:00:52.000Z</time>
      </trkpt>
      <trkpt lat="42.626169" lon="1.388768">
        <ele>1983</ele>
        <time>2019-08-05T03:00:56.000Z</time>
      </trkpt>
      <trkpt lat="42.626182" lon="1.388726">
        <ele>1985</ele>
        <time>2019-08-05T03:01:03.000Z</time>
      </trkpt>
      <trkpt lat="42.626203" lon="1.388678">
        <ele>1986</ele>
        <time>2019-08-05T03:01:07.000Z</time>
      </trkpt>
      <trkpt lat="42.626213" lon="1.388634">
        <ele>1988</ele>
        <time>2019-08-05T03:01:15.000Z</time>
      </trkpt>
      <trkpt lat="42.62624" lon="1.388582">
        <ele>1988</ele>
        <time>2019-08-05T03:01:19.000Z</time>
      </trkpt>
      <trkpt lat="42.626261" lon="1.388538">
        <ele>1988.39394135292</ele>
        <time>2019-08-05T03:01:22.000Z</time>
      </trkpt>
      <trkpt lat="42.626271" lon="1.38849">
        <ele>1989</ele>
        <time>2019-08-05T03:01:25.000Z</time>
      </trkpt>
      <trkpt lat="42.626285" lon="1.38844">
        <ele>1989</ele>
        <time>2019-08-05T03:01:28.000Z</time>
      </trkpt>
      <trkpt lat="42.626323" lon="1.388436">
        <ele>1989.54205495675</ele>
        <time>2019-08-05T03:01:32.000Z</time>
      </trkpt>
      <trkpt lat="42.626348" lon="1.388472">
        <ele>1990.42857142857</ele>
        <time>2019-08-05T03:01:38.000Z</time>
      </trkpt>
      <trkpt lat="42.626345" lon="1.388538">
        <ele>1991</ele>
        <time>2019-08-05T03:01:43.000Z</time>
      </trkpt>
      <trkpt lat="42.626371" lon="1.38868">
        <ele>1994</ele>
        <time>2019-08-05T03:01:56.000Z</time>
      </trkpt>
      <trkpt lat="42.626429" lon="1.388806">
        <ele>1998.52940881198</ele>
        <time>2019-08-05T03:02:11.000Z</time>
      </trkpt>
      <trkpt lat="42.626481" lon="1.388933">
        <ele>2000</ele>
        <time>2019-08-05T03:02:22.000Z</time>
      </trkpt>
      <trkpt lat="42.626549" lon="1.389052">
        <ele>2002</ele>
        <time>2019-08-05T03:02:33.000Z</time>
      </trkpt>
      <trkpt lat="42.626629" lon="1.38915">
        <ele>2004</ele>
        <time>2019-08-05T03:02:44.000Z</time>
      </trkpt>
      <trkpt lat="42.626679" lon="1.389278">
        <ele>2008</ele>
        <time>2019-08-05T03:02:59.000Z</time>
      </trkpt>
      <trkpt lat="42.62666" lon="1.389333">
        <ele>2008.34745679977</ele>
        <time>2019-08-05T03:03:06.000Z</time>
      </trkpt>
      <trkpt lat="42.626664" lon="1.389386">
        <ele>2010</ele>
        <time>2019-08-05T03:03:11.000Z</time>
      </trkpt>
      <trkpt lat="42.626666" lon="1.389433">
        <ele>2011</ele>
        <time>2019-08-05T03:03:16.000Z</time>
      </trkpt>
      <trkpt lat="42.62672" lon="1.38954">
        <ele>2015</ele>
        <time>2019-08-05T03:03:31.000Z</time>
      </trkpt>
      <trkpt lat="42.626748" lon="1.389494">
        <ele>2015</ele>
        <time>2019-08-05T03:03:36.000Z</time>
      </trkpt>
      <trkpt lat="42.626776" lon="1.389454">
        <ele>2015.42452784621</ele>
        <time>2019-08-05T03:03:40.000Z</time>
      </trkpt>
      <trkpt lat="42.626814" lon="1.389461">
        <ele>2017</ele>
        <time>2019-08-05T03:03:48.000Z</time>
      </trkpt>
      <trkpt lat="42.62685" lon="1.38949">
        <ele>2017.4201723155</ele>
        <time>2019-08-05T03:03:53.000Z</time>
      </trkpt>
      <trkpt lat="42.626944" lon="1.389559">
        <ele>2020</ele>
        <time>2019-08-05T03:04:05.000Z</time>
      </trkpt>
      <trkpt lat="42.627048" lon="1.389604">
        <ele>2021</ele>
        <time>2019-08-05T03:04:14.000Z</time>
      </trkpt>
      <trkpt lat="42.627124" lon="1.3897">
        <ele>2027</ele>
        <time>2019-08-05T03:04:32.000Z</time>
      </trkpt>
      <trkpt lat="42.627148" lon="1.389668">
        <ele>2029</ele>
        <time>2019-08-05T03:04:49.000Z</time>
      </trkpt>
      <trkpt lat="42.627233" lon="1.389758">
        <ele>2035</ele>
        <time>2019-08-05T03:05:13.000Z</time>
      </trkpt>
      <trkpt lat="42.627321" lon="1.389838">
        <ele>2038.30863924401</ele>
        <time>2019-08-05T03:05:29.000Z</time>
      </trkpt>
      <trkpt lat="42.627382" lon="1.389958">
        <ele>2042</ele>
        <time>2019-08-05T03:05:46.000Z</time>
      </trkpt>
      <trkpt lat="42.627474" lon="1.390014">
        <ele>2047</ele>
        <time>2019-08-05T03:06:08.000Z</time>
      </trkpt>
      <trkpt lat="42.627535" lon="1.390072">
        <ele>2049</ele>
        <time>2019-08-05T03:06:18.000Z</time>
      </trkpt>
      <trkpt lat="42.627643" lon="1.390091">
        <ele>2054</ele>
        <time>2019-08-05T03:06:33.000Z</time>
      </trkpt>
      <trkpt lat="42.627708" lon="1.39019">
        <ele>2057</ele>
        <time>2019-08-05T03:06:53.000Z</time>
      </trkpt>
      <trkpt lat="42.627738" lon="1.390239">
        <ele>2059</ele>
        <time>2019-08-05T03:07:04.000Z</time>
      </trkpt>
      <trkpt lat="42.627824" lon="1.390332">
        <ele>2061</ele>
        <time>2019-08-05T03:07:22.000Z</time>
      </trkpt>
      <trkpt lat="42.627904" lon="1.390453">
        <ele>2059</ele>
        <time>2019-08-05T03:07:39.000Z</time>
      </trkpt>
      <trkpt lat="42.627953" lon="1.390587">
        <ele>2059</ele>
        <time>2019-08-05T03:07:50.000Z</time>
      </trkpt>
      <trkpt lat="42.628012" lon="1.39071">
        <ele>2063</ele>
        <time>2019-08-05T03:08:07.000Z</time>
      </trkpt>
      <trkpt lat="42.62812" lon="1.390756">
        <ele>2067</ele>
        <time>2019-08-05T03:08:19.000Z</time>
      </trkpt>
      <trkpt lat="42.628156" lon="1.390784">
        <ele>2069.40403909806</ele>
        <time>2019-08-05T03:08:36.000Z</time>
      </trkpt>
      <trkpt lat="42.628224" lon="1.3908">
        <ele>2075</ele>
        <time>2019-08-05T03:09:06.000Z</time>
      </trkpt>
      <trkpt lat="42.628257" lon="1.390824">
        <ele>2076</ele>
        <time>2019-08-05T03:09:14.000Z</time>
      </trkpt>
      <trkpt lat="42.628327" lon="1.39091">
        <ele>2082</ele>
        <time>2019-08-05T03:09:36.000Z</time>
      </trkpt>
      <trkpt lat="42.628372" lon="1.39104">
        <ele>2085.45044858046</ele>
        <time>2019-08-05T03:09:50.000Z</time>
      </trkpt>
      <trkpt lat="42.628417" lon="1.391158">
        <ele>2087</ele>
        <time>2019-08-05T03:10:04.000Z</time>
      </trkpt>
      <trkpt lat="42.6285" lon="1.39125">
        <ele>2090</ele>
        <time>2019-08-05T03:10:17.000Z</time>
      </trkpt>
      <trkpt lat="42.628508" lon="1.391298">
        <ele>2091</ele>
        <time>2019-08-05T03:10:23.000Z</time>
      </trkpt>
      <trkpt lat="42.62852" lon="1.391358">
        <ele>2090</ele>
        <time>2019-08-05T03:10:32.000Z</time>
      </trkpt>
      <trkpt lat="42.628527" lon="1.391408">
        <ele>2089</ele>
        <time>2019-08-05T03:10:40.000Z</time>
      </trkpt>
      <trkpt lat="42.628583" lon="1.391544">
        <ele>2086</ele>
        <time>2019-08-05T03:10:52.000Z</time>
      </trkpt>
      <trkpt lat="42.628673" lon="1.391631">
        <ele>2086</ele>
        <time>2019-08-05T03:11:02.000Z</time>
      </trkpt>
      <trkpt lat="42.628763" lon="1.3917">
        <ele>2081.51613080819</ele>
        <time>2019-08-05T03:11:17.000Z</time>
      </trkpt>
      <trkpt lat="42.628873" lon="1.391711">
        <ele>2082</ele>
        <time>2019-08-05T03:11:36.000Z</time>
      </trkpt>
      <trkpt lat="42.628979" lon="1.391739">
        <ele>2080</ele>
        <time>2019-08-05T03:12:03.000Z</time>
      </trkpt>
      <trkpt lat="42.629086" lon="1.391765">
        <ele>2082</ele>
        <time>2019-08-05T03:12:29.000Z</time>
      </trkpt>
      <trkpt lat="42.629155" lon="1.391878">
        <ele>2083</ele>
        <time>2019-08-05T03:12:59.000Z</time>
      </trkpt>
      <trkpt lat="42.629164" lon="1.392018">
        <ele>2080</ele>
        <time>2019-08-05T03:13:21.000Z</time>
      </trkpt>
      <trkpt lat="42.62924" lon="1.392131">
        <ele>2080.56779624246</ele>
        <time>2019-08-05T03:13:44.000Z</time>
      </trkpt>
      <trkpt lat="42.629258" lon="1.392214">
        <ele>2079.74074074074</ele>
        <time>2019-08-05T03:14:00.000Z</time>
      </trkpt>
      <trkpt lat="42.629247" lon="1.392273">
        <ele>2080</ele>
        <time>2019-08-05T03:14:19.000Z</time>
      </trkpt>
      <trkpt lat="42.629333" lon="1.392273">
        <ele>2081</ele>
        <time>2019-08-05T03:14:44.000Z</time>
      </trkpt>
      <trkpt lat="42.629297" lon="1.392239">
        <ele>2081</ele>
        <time>2019-08-05T03:15:13.000Z</time>
      </trkpt>
      <trkpt lat="42.629347" lon="1.392299">
        <ele>2083</ele>
        <time>2019-08-05T03:15:28.000Z</time>
      </trkpt>
      <trkpt lat="42.629384" lon="1.3923">
        <ele>2084</ele>
        <time>2019-08-05T03:15:37.000Z</time>
      </trkpt>
      <trkpt lat="42.629389" lon="1.392255">
        <ele>2086</ele>
        <time>2019-08-05T03:15:57.000Z</time>
      </trkpt>
      <trkpt lat="42.629424" lon="1.3923">
        <ele>2087</ele>
        <time>2019-08-05T03:16:20.000Z</time>
      </trkpt>
      <trkpt lat="42.62952" lon="1.39238">
        <ele>2088</ele>
        <time>2019-08-05T03:16:46.000Z</time>
      </trkpt>
      <trkpt lat="42.629583" lon="1.392496">
        <ele>2086</ele>
        <time>2019-08-05T03:17:56.000Z</time>
      </trkpt>
      <trkpt lat="42.629562" lon="1.39264">
        <ele>2085.46341044613</ele>
        <time>2019-08-05T03:18:37.000Z</time>
      </trkpt>
      <trkpt lat="42.629657" lon="1.392715">
        <ele>2085</ele>
        <time>2019-08-05T03:26:34.000Z</time>
      </trkpt>
      <trkpt lat="42.629713" lon="1.392835">
        <ele>2090</ele>
        <time>2019-08-05T03:29:38.000Z</time>
      </trkpt>
      <trkpt lat="42.629703" lon="1.392969">
        <ele>2094</ele>
        <time>2019-08-05T03:30:40.000Z</time>
      </trkpt>
      <trkpt lat="42.629738" lon="1.393098">
        <ele>2099</ele>
        <time>2019-08-05T03:31:16.000Z</time>
      </trkpt>
      <trkpt lat="42.629778" lon="1.392956">
        <ele>2096</ele>
        <time>2019-08-05T03:31:56.000Z</time>
      </trkpt>
      <trkpt lat="42.629824" lon="1.393088">
        <ele>2095</ele>
        <time>2019-08-05T03:32:22.000Z</time>
      </trkpt>
      <trkpt lat="42.629811" lon="1.393237">
        <ele>2096</ele>
        <time>2019-08-05T03:33:01.000Z</time>
      </trkpt>
      <trkpt lat="42.62979" lon="1.393376">
        <ele>2097</ele>
        <time>2019-08-05T03:33:16.000Z</time>
      </trkpt>
      <trkpt lat="42.629858" lon="1.393498">
        <ele>2096</ele>
        <time>2019-08-05T03:33:33.000Z</time>
      </trkpt>
      <trkpt lat="42.629876" lon="1.393644">
        <ele>2097</ele>
        <time>2019-08-05T03:34:10.000Z</time>
      </trkpt>
      <trkpt lat="42.629925" lon="1.393793">
        <ele>2098</ele>
        <time>2019-08-05T03:34:25.000Z</time>
      </trkpt>
      <trkpt lat="42.629944" lon="1.393944">
        <ele>2100</ele>
        <time>2019-08-05T03:34:51.000Z</time>
      </trkpt>
      <trkpt lat="42.62998" lon="1.394088">
        <ele>2102</ele>
        <time>2019-08-05T03:35:16.000Z</time>
      </trkpt>
      <trkpt lat="42.630023" lon="1.394232">
        <ele>2103.54285574966</ele>
        <time>2019-08-05T03:35:27.000Z</time>
      </trkpt>
      <trkpt lat="42.630125" lon="1.394277">
        <ele>2106</ele>
        <time>2019-08-05T03:36:32.000Z</time>
      </trkpt>
      <trkpt lat="42.630202" lon="1.394379">
        <ele>2110</ele>
        <time>2019-08-05T03:37:02.000Z</time>
      </trkpt>
      <trkpt lat="42.630239" lon="1.3944">
        <ele>2110</ele>
        <time>2019-08-05T03:37:14.000Z</time>
      </trkpt>
      <trkpt lat="42.630235" lon="1.394351">
        <ele>2110</ele>
        <time>2019-08-05T03:37:18.000Z</time>
      </trkpt>
      <trkpt lat="42.630239" lon="1.394284">
        <ele>2111</ele>
        <time>2019-08-05T03:37:23.000Z</time>
      </trkpt>
      <trkpt lat="42.630259" lon="1.39425">
        <ele>2113.916672</ele>
        <time>2019-08-05T03:37:29.000Z</time>
      </trkpt>
      <trkpt lat="42.630285" lon="1.394294">
        <ele>2114.81035034483</ele>
        <time>2019-08-05T03:37:38.000Z</time>
      </trkpt>
      <trkpt lat="42.630321" lon="1.394313">
        <ele>2117</ele>
        <time>2019-08-05T03:37:49.000Z</time>
      </trkpt>
      <trkpt lat="42.630343" lon="1.394359">
        <ele>2120</ele>
        <time>2019-08-05T03:38:02.000Z</time>
      </trkpt>
      <trkpt lat="42.630372" lon="1.394377">
        <ele>2122</ele>
        <time>2019-08-05T03:38:08.000Z</time>
      </trkpt>
      <trkpt lat="42.630407" lon="1.394388">
        <ele>2123</ele>
        <time>2019-08-05T03:38:13.000Z</time>
      </trkpt>
      <trkpt lat="42.630415" lon="1.394441">
        <ele>2122</ele>
        <time>2019-08-05T03:38:20.000Z</time>
      </trkpt>
      <trkpt lat="42.630424" lon="1.394486">
        <ele>2120</ele>
        <time>2019-08-05T03:38:25.000Z</time>
      </trkpt>
      <trkpt lat="42.630477" lon="1.394531">
        <ele>2119</ele>
        <time>2019-08-05T03:38:33.000Z</time>
      </trkpt>
      <trkpt lat="42.630519" lon="1.39453">
        <ele>2119</ele>
        <time>2019-08-05T03:38:41.000Z</time>
      </trkpt>
      <trkpt lat="42.630553" lon="1.394562">
        <ele>2118</ele>
        <time>2019-08-05T03:38:52.000Z</time>
      </trkpt>
      <trkpt lat="42.630575" lon="1.394641">
        <ele>2121</ele>
        <time>2019-08-05T03:39:21.000Z</time>
      </trkpt>
      <trkpt lat="42.630596" lon="1.394595">
        <ele>2120.22535109701</ele>
        <time>2019-08-05T03:39:30.000Z</time>
      </trkpt>
      <trkpt lat="42.630631" lon="1.394595">
        <ele>2121</ele>
        <time>2019-08-05T03:39:34.000Z</time>
      </trkpt>
      <trkpt lat="42.630667" lon="1.394604">
        <ele>2122.5500032</ele>
        <time>2019-08-05T03:39:39.000Z</time>
      </trkpt>
      <trkpt lat="42.630691" lon="1.394589">
        <ele>2124</ele>
        <time>2019-08-05T03:39:43.000Z</time>
      </trkpt>
      <trkpt lat="42.630739" lon="1.394536">
        <ele>2125</ele>
        <time>2019-08-05T03:39:52.000Z</time>
      </trkpt>
      <trkpt lat="42.630776" lon="1.394496">
        <ele>2126</ele>
        <time>2019-08-05T03:39:58.000Z</time>
      </trkpt>
      <trkpt lat="42.630819" lon="1.39448">
        <ele>2126</ele>
        <time>2019-08-05T03:40:02.000Z</time>
      </trkpt>
      <trkpt lat="42.630922" lon="1.394547">
        <ele>2129</ele>
        <time>2019-08-05T03:40:20.000Z</time>
      </trkpt>
      <trkpt lat="42.631026" lon="1.394595">
        <ele>2132</ele>
        <time>2019-08-05T03:40:40.000Z</time>
      </trkpt>
      <trkpt lat="42.631034" lon="1.394731">
        <ele>2138</ele>
        <time>2019-08-05T03:41:01.000Z</time>
      </trkpt>
      <trkpt lat="42.630992" lon="1.394703">
        <ele>2139</ele>
        <time>2019-08-05T03:41:11.000Z</time>
      </trkpt>
      <trkpt lat="42.630962" lon="1.394727">
        <ele>2139.49523960454</ele>
        <time>2019-08-05T03:41:34.000Z</time>
      </trkpt>
      <trkpt lat="42.63092" lon="1.394738">
        <ele>2138</ele>
        <time>2019-08-05T03:41:41.000Z</time>
      </trkpt>
      <trkpt lat="42.63088" lon="1.394799">
        <ele>2137</ele>
        <time>2019-08-05T03:41:51.000Z</time>
      </trkpt>
      <trkpt lat="42.630835" lon="1.394941">
        <ele>2137.40277333333</ele>
        <time>2019-08-05T03:42:40.000Z</time>
      </trkpt>
      <trkpt lat="42.630828" lon="1.395083">
        <ele>2139</ele>
        <time>2019-08-05T03:43:11.000Z</time>
      </trkpt>
      <trkpt lat="42.630837" lon="1.395155">
        <ele>2142</ele>
        <time>2019-08-05T03:43:33.000Z</time>
      </trkpt>
      <trkpt lat="42.630905" lon="1.395273">
        <ele>2143</ele>
        <time>2019-08-05T03:43:56.000Z</time>
      </trkpt>
      <trkpt lat="42.631006" lon="1.395183">
        <ele>2146</ele>
        <time>2019-08-05T03:44:13.000Z</time>
      </trkpt>
      <trkpt lat="42.631106" lon="1.395111">
        <ele>2148</ele>
        <time>2019-08-05T03:44:23.000Z</time>
      </trkpt>
      <trkpt lat="42.631211" lon="1.395187">
        <ele>2151</ele>
        <time>2019-08-05T03:44:35.000Z</time>
      </trkpt>
      <trkpt lat="42.631257" lon="1.395321">
        <ele>2155</ele>
        <time>2019-08-05T03:44:51.000Z</time>
      </trkpt>
      <trkpt lat="42.631227" lon="1.39546">
        <ele>2157</ele>
        <time>2019-08-05T03:45:15.000Z</time>
      </trkpt>
      <trkpt lat="42.631177" lon="1.395591">
        <ele>2158</ele>
        <time>2019-08-05T03:45:36.000Z</time>
      </trkpt>
      <trkpt lat="42.631169" lon="1.39573">
        <ele>2163</ele>
        <time>2019-08-05T03:45:56.000Z</time>
      </trkpt>
      <trkpt lat="42.631252" lon="1.395809">
        <ele>2167</ele>
        <time>2019-08-05T03:46:25.000Z</time>
      </trkpt>
      <trkpt lat="42.631294" lon="1.39573">
        <ele>2171</ele>
        <time>2019-08-05T03:46:45.000Z</time>
      </trkpt>
      <trkpt lat="42.631324" lon="1.395696">
        <ele>2171</ele>
        <time>2019-08-05T03:46:54.000Z</time>
      </trkpt>
      <trkpt lat="42.631324" lon="1.395645">
        <ele>2170</ele>
        <time>2019-08-05T03:47:05.000Z</time>
      </trkpt>
      <trkpt lat="42.631328" lon="1.395598">
        <ele>2168.61537956612</ele>
        <time>2019-08-05T03:47:10.000Z</time>
      </trkpt>
      <trkpt lat="42.631356" lon="1.395572">
        <ele>2166</ele>
        <time>2019-08-05T03:47:19.000Z</time>
      </trkpt>
      <trkpt lat="42.631439" lon="1.39551">
        <ele>2165.51685554852</ele>
        <time>2019-08-05T03:47:28.000Z</time>
      </trkpt>
      <trkpt lat="42.631544" lon="1.395464">
        <ele>2167</ele>
        <time>2019-08-05T03:47:37.000Z</time>
      </trkpt>
      <trkpt lat="42.631651" lon="1.395503">
        <ele>2170</ele>
        <time>2019-08-05T03:47:56.000Z</time>
      </trkpt>
      <trkpt lat="42.631683" lon="1.395454">
        <ele>2171</ele>
        <time>2019-08-05T03:48:07.000Z</time>
      </trkpt>
      <trkpt lat="42.631719" lon="1.395439">
        <ele>2171.5377360769</ele>
        <time>2019-08-05T03:48:12.000Z</time>
      </trkpt>
      <trkpt lat="42.631806" lon="1.395504">
        <ele>2177</ele>
        <time>2019-08-05T03:48:34.000Z</time>
      </trkpt>
      <trkpt lat="42.631904" lon="1.395529">
        <ele>2181</ele>
        <time>2019-08-05T03:48:58.000Z</time>
      </trkpt>
      <trkpt lat="42.632012" lon="1.395537">
        <ele>2184</ele>
        <time>2019-08-05T03:50:00.000Z</time>
      </trkpt>
      <trkpt lat="42.632123" lon="1.39553">
        <ele>2185</ele>
        <time>2019-08-05T03:50:17.000Z</time>
      </trkpt>
      <trkpt lat="42.632226" lon="1.395612">
        <ele>2190.20987342172</ele>
        <time>2019-08-05T03:50:40.000Z</time>
      </trkpt>
      <trkpt lat="42.632245" lon="1.395742">
        <ele>2195</ele>
        <time>2019-08-05T03:51:06.000Z</time>
      </trkpt>
      <trkpt lat="42.632277" lon="1.395888">
        <ele>2198</ele>
        <time>2019-08-05T03:51:18.000Z</time>
      </trkpt>
      <trkpt lat="42.63232" lon="1.396024">
        <ele>2201.39506328914</ele>
        <time>2019-08-05T03:51:37.000Z</time>
      </trkpt>
      <trkpt lat="42.632306" lon="1.396184">
        <ele>2206</ele>
        <time>2019-08-05T03:51:55.000Z</time>
      </trkpt>
      <trkpt lat="42.632339" lon="1.396312">
        <ele>2209</ele>
        <time>2019-08-05T03:52:10.000Z</time>
      </trkpt>
      <trkpt lat="42.632356" lon="1.39645">
        <ele>2215.4499968</ele>
        <time>2019-08-05T03:52:40.000Z</time>
      </trkpt>
      <trkpt lat="42.632461" lon="1.396477">
        <ele>2217</ele>
        <time>2019-08-05T03:52:53.000Z</time>
      </trkpt>
      <trkpt lat="42.632515" lon="1.396604">
        <ele>2218.47787179574</ele>
        <time>2019-08-05T03:53:11.000Z</time>
      </trkpt>
      <trkpt lat="42.632576" lon="1.396672">
        <ele>2221</ele>
        <time>2019-08-05T03:53:24.000Z</time>
      </trkpt>
      <trkpt lat="42.632625" lon="1.39675">
        <ele>2222</ele>
        <time>2019-08-05T03:53:34.000Z</time>
      </trkpt>
      <trkpt lat="42.632638" lon="1.396804">
        <ele>2222</ele>
        <time>2019-08-05T03:53:38.000Z</time>
      </trkpt>
      <trkpt lat="42.632705" lon="1.39691">
        <ele>2225</ele>
        <time>2019-08-05T03:53:56.000Z</time>
      </trkpt>
      <trkpt lat="42.63278" lon="1.397013">
        <ele>2228</ele>
        <time>2019-08-05T03:54:19.000Z</time>
      </trkpt>
      <trkpt lat="42.632793" lon="1.396948">
        <ele>2229</ele>
        <time>2019-08-05T03:54:33.000Z</time>
      </trkpt>
      <trkpt lat="42.632862" lon="1.397061">
        <ele>2230</ele>
        <time>2019-08-05T03:55:11.000Z</time>
      </trkpt>
      <trkpt lat="42.632913" lon="1.397201">
        <ele>2231</ele>
        <time>2019-08-05T03:55:27.000Z</time>
      </trkpt>
      <trkpt lat="42.632975" lon="1.397311">
        <ele>2235</ele>
        <time>2019-08-05T03:55:52.000Z</time>
      </trkpt>
      <trkpt lat="42.633054" lon="1.397418">
        <ele>2237</ele>
        <time>2019-08-05T03:56:07.000Z</time>
      </trkpt>
      <trkpt lat="42.633122" lon="1.397522">
        <ele>2242</ele>
        <time>2019-08-05T03:56:22.000Z</time>
      </trkpt>
      <trkpt lat="42.633132" lon="1.397572">
        <ele>2244</ele>
        <time>2019-08-05T03:56:28.000Z</time>
      </trkpt>
      <trkpt lat="42.633196" lon="1.397685">
        <ele>2248</ele>
        <time>2019-08-05T03:56:50.000Z</time>
      </trkpt>
      <trkpt lat="42.633222" lon="1.397822">
        <ele>2253</ele>
        <time>2019-08-05T03:57:17.000Z</time>
      </trkpt>
      <trkpt lat="42.633268" lon="1.39796">
        <ele>2254</ele>
        <time>2019-08-05T03:57:28.000Z</time>
      </trkpt>
      <trkpt lat="42.633245" lon="1.398096">
        <ele>2258</ele>
        <time>2019-08-05T03:57:44.000Z</time>
      </trkpt>
      <trkpt lat="42.633264" lon="1.398231">
        <ele>2263</ele>
        <time>2019-08-05T03:58:18.000Z</time>
      </trkpt>
      <trkpt lat="42.633329" lon="1.39835">
        <ele>2262</ele>
        <time>2019-08-05T03:58:48.000Z</time>
      </trkpt>
      <trkpt lat="42.633349" lon="1.398494">
        <ele>2268</ele>
        <time>2019-08-05T03:59:28.000Z</time>
      </trkpt>
      <trkpt lat="42.633378" lon="1.39862">
        <ele>2272</ele>
        <time>2019-08-05T03:59:59.000Z</time>
      </trkpt>
      <trkpt lat="42.633435" lon="1.398744">
        <ele>2273</ele>
        <time>2019-08-05T04:00:12.000Z</time>
      </trkpt>
      <trkpt lat="42.633542" lon="1.398741">
        <ele>2271</ele>
        <time>2019-08-05T04:00:49.000Z</time>
      </trkpt>
      <trkpt lat="42.63349" lon="1.39887">
        <ele>2270</ele>
        <time>2019-08-05T04:01:09.000Z</time>
      </trkpt>
      <trkpt lat="42.633425" lon="1.398983">
        <ele>2274</ele>
        <time>2019-08-05T04:02:19.000Z</time>
      </trkpt>
      <trkpt lat="42.633366" lon="1.399072">
        <ele>2280.54717254537</ele>
        <time>2019-08-05T04:03:09.000Z</time>
      </trkpt>
      <trkpt lat="42.633332" lon="1.399186">
        <ele>2287</ele>
        <time>2019-08-05T04:03:45.000Z</time>
      </trkpt>
      <trkpt lat="42.633377" lon="1.399328">
        <ele>2289</ele>
        <time>2019-08-05T04:04:18.000Z</time>
      </trkpt>
      <trkpt lat="42.633407" lon="1.399468">
        <ele>2288</ele>
        <time>2019-08-05T04:04:43.000Z</time>
      </trkpt>
      <trkpt lat="42.633497" lon="1.399572">
        <ele>2281.48077538462</ele>
        <time>2019-08-05T04:05:55.000Z</time>
      </trkpt>
      <trkpt lat="42.633568" lon="1.399688">
        <ele>2279</ele>
        <time>2019-08-05T04:06:43.000Z</time>
      </trkpt>
      <trkpt lat="42.633672" lon="1.39975">
        <ele>2278</ele>
        <time>2019-08-05T04:06:58.000Z</time>
      </trkpt>
      <trkpt lat="42.633746" lon="1.399854">
        <ele>2280</ele>
        <time>2019-08-05T04:07:13.000Z</time>
      </trkpt>
      <trkpt lat="42.63379" lon="1.399713">
        <ele>2278</ele>
        <time>2019-08-05T04:07:44.000Z</time>
      </trkpt>
      <trkpt lat="42.6339" lon="1.399703">
        <ele>2275</ele>
        <time>2019-08-05T04:08:00.000Z</time>
      </trkpt>
      <trkpt lat="42.633988" lon="1.399806">
        <ele>2276</ele>
        <time>2019-08-05T04:08:12.000Z</time>
      </trkpt>
      <trkpt lat="42.634093" lon="1.399836">
        <ele>2278</ele>
        <time>2019-08-05T04:08:28.000Z</time>
      </trkpt>
      <trkpt lat="42.634197" lon="1.399886">
        <ele>2280.42574709148</ele>
        <time>2019-08-05T04:09:04.000Z</time>
      </trkpt>
      <trkpt lat="42.634211" lon="1.400035">
        <ele>2282</ele>
        <time>2019-08-05T04:09:24.000Z</time>
      </trkpt>
      <trkpt lat="42.634174" lon="1.400142">
        <ele>2289</ele>
        <time>2019-08-05T04:10:18.000Z</time>
      </trkpt>
      <trkpt lat="42.63429" lon="1.400165">
        <ele>2294</ele>
        <time>2019-08-05T04:11:47.000Z</time>
      </trkpt>
      <trkpt lat="42.6342" lon="1.400082">
        <ele>2292</ele>
        <time>2019-08-05T04:13:56.000Z</time>
      </trkpt>
      <trkpt lat="42.634292" lon="1.400006">
        <ele>2288</ele>
        <time>2019-08-05T04:15:56.000Z</time>
      </trkpt>
      <trkpt lat="42.634184" lon="1.399978">
        <ele>2289</ele>
        <time>2019-08-05T04:16:25.000Z</time>
      </trkpt>
      <trkpt lat="42.634281" lon="1.399884">
        <ele>2290.01666133333</ele>
        <time>2019-08-05T04:19:59.000Z</time>
      </trkpt>
      <trkpt lat="42.634169" lon="1.399885">
        <ele>2293</ele>
        <time>2019-08-05T04:20:52.000Z</time>
      </trkpt>
      <trkpt lat="42.634182" lon="1.399757">
        <ele>2287</ele>
        <time>2019-08-05T04:25:23.000Z</time>
      </trkpt>
      <trkpt lat="42.634262" lon="1.399851">
        <ele>2282.52808778692</ele>
        <time>2019-08-05T04:26:05.000Z</time>
      </trkpt>
      <trkpt lat="42.634184" lon="1.399779">
        <ele>2275</ele>
        <time>2019-08-05T04:27:39.000Z</time>
      </trkpt>
      <trkpt lat="42.634112" lon="1.399844">
        <ele>2267</ele>
        <time>2019-08-05T04:28:36.000Z</time>
      </trkpt>
      <trkpt lat="42.634011" lon="1.399796">
        <ele>2265</ele>
        <time>2019-08-05T04:28:56.000Z</time>
      </trkpt>
      <trkpt lat="42.633921" lon="1.399876">
        <ele>2265</ele>
        <time>2019-08-05T04:29:04.000Z</time>
      </trkpt>
      <trkpt lat="42.633832" lon="1.399962">
        <ele>2265</ele>
        <time>2019-08-05T04:29:35.000Z</time>
      </trkpt>
      <trkpt lat="42.633741" lon="1.400037">
        <ele>2268</ele>
        <time>2019-08-05T04:29:56.000Z</time>
      </trkpt>
      <trkpt lat="42.633738" lon="1.400141">
        <ele>2271</ele>
        <time>2019-08-05T04:30:29.000Z</time>
      </trkpt>
      <trkpt lat="42.633703" lon="1.400276">
        <ele>2273.66666666667</ele>
        <time>2019-08-05T04:31:06.000Z</time>
      </trkpt>
      <trkpt lat="42.633778" lon="1.400288">
        <ele>2277.45263342271</ele>
        <time>2019-08-05T04:31:43.000Z</time>
      </trkpt>
      <trkpt lat="42.633889" lon="1.400281">
        <ele>2282</ele>
        <time>2019-08-05T04:32:28.000Z</time>
      </trkpt>
      <trkpt lat="42.633996" lon="1.400258">
        <ele>2284</ele>
        <time>2019-08-05T04:32:48.000Z</time>
      </trkpt>
      <trkpt lat="42.63409" lon="1.400338">
        <ele>2285</ele>
        <time>2019-08-05T04:33:04.000Z</time>
      </trkpt>
      <trkpt lat="42.634124" lon="1.400483">
        <ele>2288.49514719954</ele>
        <time>2019-08-05T04:33:32.000Z</time>
      </trkpt>
      <trkpt lat="42.634218" lon="1.400405">
        <ele>2287.56842587478</ele>
        <time>2019-08-05T04:36:00.000Z</time>
      </trkpt>
      <trkpt lat="42.63432" lon="1.400457">
        <ele>2288</ele>
        <time>2019-08-05T04:36:10.000Z</time>
      </trkpt>
      <trkpt lat="42.63439" lon="1.400539">
        <ele>2294</ele>
        <time>2019-08-05T04:36:40.000Z</time>
      </trkpt>
      <trkpt lat="42.634484" lon="1.400609">
        <ele>2298</ele>
        <time>2019-08-05T04:36:55.000Z</time>
      </trkpt>
      <trkpt lat="42.63445" lon="1.400752">
        <ele>2300</ele>
        <time>2019-08-05T04:37:11.000Z</time>
      </trkpt>
      <trkpt lat="42.634547" lon="1.400824">
        <ele>2301</ele>
        <time>2019-08-05T04:37:28.000Z</time>
      </trkpt>
      <trkpt lat="42.634506" lon="1.400972">
        <ele>2303</ele>
        <time>2019-08-05T04:38:07.000Z</time>
      </trkpt>
      <trkpt lat="42.634594" lon="1.400883">
        <ele>2301</ele>
        <time>2019-08-05T04:38:51.000Z</time>
      </trkpt>
      <trkpt lat="42.634596" lon="1.401044">
        <ele>2298.58974022351</ele>
        <time>2019-08-05T04:39:07.000Z</time>
      </trkpt>
      <trkpt lat="42.634705" lon="1.401099">
        <ele>2299</ele>
        <time>2019-08-05T04:39:21.000Z</time>
      </trkpt>
      <trkpt lat="42.634638" lon="1.401219">
        <ele>2301</ele>
        <time>2019-08-05T04:39:30.000Z</time>
      </trkpt>
      <trkpt lat="42.634742" lon="1.401274">
        <ele>2302.44318545455</ele>
        <time>2019-08-05T04:39:50.000Z</time>
      </trkpt>
      <trkpt lat="42.634771" lon="1.401412">
        <ele>2305</ele>
        <time>2019-08-05T04:40:07.000Z</time>
      </trkpt>
      <trkpt lat="42.63485" lon="1.401508">
        <ele>2307</ele>
        <time>2019-08-05T04:40:32.000Z</time>
      </trkpt>
      <trkpt lat="42.634962" lon="1.401563">
        <ele>2309.25424133293</ele>
        <time>2019-08-05T04:41:12.000Z</time>
      </trkpt>
      <trkpt lat="42.635047" lon="1.40166">
        <ele>2309.53332954077</ele>
        <time>2019-08-05T04:41:25.000Z</time>
      </trkpt>
      <trkpt lat="42.635161" lon="1.401681">
        <ele>2310</ele>
        <time>2019-08-05T04:41:45.000Z</time>
      </trkpt>
      <trkpt lat="42.63528" lon="1.401682">
        <ele>2311</ele>
        <time>2019-08-05T04:41:51.000Z</time>
      </trkpt>
      <trkpt lat="42.635232" lon="1.401816">
        <ele>2310</ele>
        <time>2019-08-05T04:42:26.000Z</time>
      </trkpt>
      <trkpt lat="42.63534" lon="1.401892">
        <ele>2310</ele>
        <time>2019-08-05T04:42:48.000Z</time>
      </trkpt>
      <trkpt lat="42.635426" lon="1.401794">
        <ele>2312</ele>
        <time>2019-08-05T04:43:13.000Z</time>
      </trkpt>
      <trkpt lat="42.635531" lon="1.401857">
        <ele>2311</ele>
        <time>2019-08-05T04:43:25.000Z</time>
      </trkpt>
      <trkpt lat="42.63561" lon="1.401972">
        <ele>2309</ele>
        <time>2019-08-05T04:43:50.000Z</time>
      </trkpt>
      <trkpt lat="42.63563" lon="1.402113">
        <ele>2314</ele>
        <time>2019-08-05T04:44:14.000Z</time>
      </trkpt>
      <trkpt lat="42.635761" lon="1.402163">
        <ele>2316.5</ele>
        <time>2019-08-05T04:44:30.000Z</time>
      </trkpt>
      <trkpt lat="42.635848" lon="1.402263">
        <ele>2316.5</ele>
        <time>2019-08-05T04:44:46.000Z</time>
      </trkpt>
      <trkpt lat="42.635922" lon="1.40238">
        <ele>2316</ele>
        <time>2019-08-05T04:45:16.000Z</time>
      </trkpt>
      <trkpt lat="42.635994" lon="1.402494">
        <ele>2318</ele>
        <time>2019-08-05T04:45:36.000Z</time>
      </trkpt>
      <trkpt lat="42.636058" lon="1.402617">
        <ele>2321</ele>
        <time>2019-08-05T04:45:53.000Z</time>
      </trkpt>
      <trkpt lat="42.636066" lon="1.402759">
        <ele>2325.90089716091</ele>
        <time>2019-08-05T04:46:10.000Z</time>
      </trkpt>
      <trkpt lat="42.636173" lon="1.402813">
        <ele>2328</ele>
        <time>2019-08-05T04:46:36.000Z</time>
      </trkpt>
      <trkpt lat="42.63609" lon="1.402888">
        <ele>2334</ele>
        <time>2019-08-05T04:47:03.000Z</time>
      </trkpt>
      <trkpt lat="42.636225" lon="1.402586">
        <ele>2336</ele>
        <time>2019-08-05T04:47:32.000Z</time>
      </trkpt>
      <trkpt lat="42.636194" lon="1.402821">
        <ele>2336</ele>
        <time>2019-08-05T04:47:33.000Z</time>
      </trkpt>
      <trkpt lat="42.636242" lon="1.402634">
        <ele>2336</ele>
        <time>2019-08-05T04:47:35.000Z</time>
      </trkpt>
      <trkpt lat="42.636214" lon="1.402848">
        <ele>2336</ele>
        <time>2019-08-05T04:47:36.000Z</time>
      </trkpt>
      <trkpt lat="42.636204" lon="1.403967">
        <ele>2342</ele>
        <time>2019-08-05T04:48:55.000Z</time>
      </trkpt>
      <trkpt lat="42.636152" lon="1.4038">
        <ele>2342</ele>
        <time>2019-08-05T04:48:58.000Z</time>
      </trkpt>
      <trkpt lat="42.636193" lon="1.403645">
        <ele>2343</ele>
        <time>2019-08-05T04:49:09.000Z</time>
      </trkpt>
      <trkpt lat="42.636196" lon="1.403579">
        <ele>2343.5</ele>
        <time>2019-08-05T04:49:14.000Z</time>
      </trkpt>
      <trkpt lat="42.636229" lon="1.403559">
        <ele>2342.5</ele>
        <time>2019-08-05T04:49:23.000Z</time>
      </trkpt>
      <trkpt lat="42.636263" lon="1.403572">
        <ele>2342</ele>
        <time>2019-08-05T04:49:27.000Z</time>
      </trkpt>
      <trkpt lat="42.636301" lon="1.403563">
        <ele>2343</ele>
        <time>2019-08-05T04:49:31.000Z</time>
      </trkpt>
      <trkpt lat="42.636343" lon="1.40356">
        <ele>2343</ele>
        <time>2019-08-05T04:49:40.000Z</time>
      </trkpt>
      <trkpt lat="42.636366" lon="1.403584">
        <ele>2346</ele>
        <time>2019-08-05T04:50:56.000Z</time>
      </trkpt>
      <trkpt lat="42.636392" lon="1.403563">
        <ele>2348</ele>
        <time>2019-08-05T04:51:29.000Z</time>
      </trkpt>
      <trkpt lat="42.636435" lon="1.403564">
        <ele>2348</ele>
        <time>2019-08-05T04:51:38.000Z</time>
      </trkpt>
      <trkpt lat="42.636462" lon="1.403603">
        <ele>2347</ele>
        <time>2019-08-05T04:51:43.000Z</time>
      </trkpt>
      <trkpt lat="42.636491" lon="1.403642">
        <ele>2349</ele>
        <time>2019-08-05T04:51:48.000Z</time>
      </trkpt>
      <trkpt lat="42.636527" lon="1.403648">
        <ele>2349</ele>
        <time>2019-08-05T04:51:53.000Z</time>
      </trkpt>
      <trkpt lat="42.636527" lon="1.403699">
        <ele>2350</ele>
        <time>2019-08-05T04:52:01.000Z</time>
      </trkpt>
      <trkpt lat="42.636564" lon="1.403749">
        <ele>2351</ele>
        <time>2019-08-05T04:52:09.000Z</time>
      </trkpt>
      <trkpt lat="42.636553" lon="1.403737">
        <ele>2355</ele>
        <time>2019-08-05T04:52:55.000Z</time>
      </trkpt>
      <trkpt lat="42.63657" lon="1.403789">
        <ele>2354</ele>
        <time>2019-08-05T04:53:23.000Z</time>
      </trkpt>
      <trkpt lat="42.636588" lon="1.403833">
        <ele>2356</ele>
        <time>2019-08-05T04:53:27.000Z</time>
      </trkpt>
      <trkpt lat="42.636621" lon="1.403865">
        <ele>2357</ele>
        <time>2019-08-05T04:53:33.000Z</time>
      </trkpt>
      <trkpt lat="42.63665" lon="1.403893">
        <ele>2356</ele>
        <time>2019-08-05T04:53:37.000Z</time>
      </trkpt>
      <trkpt lat="42.636676" lon="1.403933">
        <ele>2356</ele>
        <time>2019-08-05T04:53:42.000Z</time>
      </trkpt>
      <trkpt lat="42.636672" lon="1.403981">
        <ele>2358</ele>
        <time>2019-08-05T04:53:48.000Z</time>
      </trkpt>
      <trkpt lat="42.63667" lon="1.404042">
        <ele>2357</ele>
        <time>2019-08-05T04:53:54.000Z</time>
      </trkpt>
      <trkpt lat="42.636698" lon="1.404094">
        <ele>2358</ele>
        <time>2019-08-05T04:53:58.000Z</time>
      </trkpt>
      <trkpt lat="42.636714" lon="1.404141">
        <ele>2360</ele>
        <time>2019-08-05T04:54:03.000Z</time>
      </trkpt>
      <trkpt lat="42.63671" lon="1.404189">
        <ele>2359</ele>
        <time>2019-08-05T04:54:09.000Z</time>
      </trkpt>
      <trkpt lat="42.63675" lon="1.404202">
        <ele>2359</ele>
        <time>2019-08-05T04:54:29.000Z</time>
      </trkpt>
      <trkpt lat="42.636777" lon="1.404236">
        <ele>2358</ele>
        <time>2019-08-05T04:54:32.000Z</time>
      </trkpt>
      <trkpt lat="42.636784" lon="1.404291">
        <ele>2358</ele>
        <time>2019-08-05T04:54:42.000Z</time>
      </trkpt>
      <trkpt lat="42.636795" lon="1.404342">
        <ele>2360</ele>
        <time>2019-08-05T04:54:52.000Z</time>
      </trkpt>
      <trkpt lat="42.636806" lon="1.404398">
        <ele>2359</ele>
        <time>2019-08-05T04:54:57.000Z</time>
      </trkpt>
      <trkpt lat="42.636814" lon="1.404439">
        <ele>2361</ele>
        <time>2019-08-05T04:55:17.000Z</time>
      </trkpt>
      <trkpt lat="42.636806" lon="1.404484">
        <ele>2362.4347826087</ele>
        <time>2019-08-05T04:55:22.000Z</time>
      </trkpt>
      <trkpt lat="42.636805" lon="1.404533">
        <ele>2364</ele>
        <time>2019-08-05T04:55:35.000Z</time>
      </trkpt>
      <trkpt lat="42.636776" lon="1.404565">
        <ele>2364</ele>
        <time>2019-08-05T04:55:40.000Z</time>
      </trkpt>
      <trkpt lat="42.636755" lon="1.404603">
        <ele>2366.72290420085</ele>
        <time>2019-08-05T04:55:46.000Z</time>
      </trkpt>
      <trkpt lat="42.636747" lon="1.40465">
        <ele>2367.4700032</ele>
        <time>2019-08-05T04:55:54.000Z</time>
      </trkpt>
      <trkpt lat="42.636765" lon="1.404686">
        <ele>2369</ele>
        <time>2019-08-05T04:56:01.000Z</time>
      </trkpt>
      <trkpt lat="42.636788" lon="1.404727">
        <ele>2370</ele>
        <time>2019-08-05T04:56:06.000Z</time>
      </trkpt>
      <trkpt lat="42.636764" lon="1.404766">
        <ele>2371</ele>
        <time>2019-08-05T04:56:22.000Z</time>
      </trkpt>
      <trkpt lat="42.636762" lon="1.404813">
        <ele>2373</ele>
        <time>2019-08-05T04:56:28.000Z</time>
      </trkpt>
      <trkpt lat="42.63679" lon="1.404841">
        <ele>2374</ele>
        <time>2019-08-05T04:56:33.000Z</time>
      </trkpt>
      <trkpt lat="42.636751" lon="1.404842">
        <ele>2375</ele>
        <time>2019-08-05T04:56:40.000Z</time>
      </trkpt>
      <trkpt lat="42.636731" lon="1.404873">
        <ele>2377</ele>
        <time>2019-08-05T04:56:46.000Z</time>
      </trkpt>
      <trkpt lat="42.636733" lon="1.404931">
        <ele>2379</ele>
        <time>2019-08-05T04:56:54.000Z</time>
      </trkpt>
      <trkpt lat="42.636729" lon="1.404986">
        <ele>2379</ele>
        <time>2019-08-05T04:57:03.000Z</time>
      </trkpt>
      <trkpt lat="42.636803" lon="1.405094">
        <ele>2377</ele>
        <time>2019-08-05T04:57:36.000Z</time>
      </trkpt>
      <trkpt lat="42.636831" lon="1.40513">
        <ele>2377</ele>
        <time>2019-08-05T04:57:46.000Z</time>
      </trkpt>
      <trkpt lat="42.636917" lon="1.405222">
        <ele>2377</ele>
        <time>2019-08-05T04:58:20.000Z</time>
      </trkpt>
      <trkpt lat="42.636977" lon="1.405361">
        <ele>2379</ele>
        <time>2019-08-05T04:58:48.000Z</time>
      </trkpt>
      <trkpt lat="42.637101" lon="1.405396">
        <ele>2380</ele>
        <time>2019-08-05T04:58:59.000Z</time>
      </trkpt>
      <trkpt lat="42.637151" lon="1.405523">
        <ele>2377</ele>
        <time>2019-08-05T04:59:34.000Z</time>
      </trkpt>
      <trkpt lat="42.637102" lon="1.405642">
        <ele>2384</ele>
        <time>2019-08-05T04:59:55.000Z</time>
      </trkpt>
      <trkpt lat="42.637146" lon="1.405747">
        <ele>2390</ele>
        <time>2019-08-05T05:00:22.000Z</time>
      </trkpt>
      <trkpt lat="42.637238" lon="1.405827">
        <ele>2392</ele>
        <time>2019-08-05T05:00:50.000Z</time>
      </trkpt>
      <trkpt lat="42.637342" lon="1.405816">
        <ele>2394</ele>
        <time>2019-08-05T05:01:44.000Z</time>
      </trkpt>
      <trkpt lat="42.637445" lon="1.405859">
        <ele>2396</ele>
        <time>2019-08-05T05:01:59.000Z</time>
      </trkpt>
      <trkpt lat="42.637552" lon="1.405894">
        <ele>2397</ele>
        <time>2019-08-05T05:02:18.000Z</time>
      </trkpt>
      <trkpt lat="42.637672" lon="1.405943">
        <ele>2399</ele>
        <time>2019-08-05T05:02:36.000Z</time>
      </trkpt>
      <trkpt lat="42.637711" lon="1.405948">
        <ele>2400</ele>
        <time>2019-08-05T05:02:43.000Z</time>
      </trkpt>
      <trkpt lat="42.637791" lon="1.405845">
        <ele>2397</ele>
        <time>2019-08-05T05:03:01.000Z</time>
      </trkpt>
      <trkpt lat="42.637899" lon="1.405815">
        <ele>2396</ele>
        <time>2019-08-05T05:03:23.000Z</time>
      </trkpt>
      <trkpt lat="42.638007" lon="1.405792">
        <ele>2395</ele>
        <time>2019-08-05T05:04:10.000Z</time>
      </trkpt>
      <trkpt lat="42.6381" lon="1.405884">
        <ele>2396</ele>
        <time>2019-08-05T05:04:26.000Z</time>
      </trkpt>
      <trkpt lat="42.638206" lon="1.405936">
        <ele>2394</ele>
        <time>2019-08-05T05:04:48.000Z</time>
      </trkpt>
      <trkpt lat="42.638272" lon="1.406053">
        <ele>2393</ele>
        <time>2019-08-05T05:05:05.000Z</time>
      </trkpt>
      <trkpt lat="42.638326" lon="1.406181">
        <ele>2393</ele>
        <time>2019-08-05T05:05:19.000Z</time>
      </trkpt>
      <trkpt lat="42.638439" lon="1.406217">
        <ele>2392.5</ele>
        <time>2019-08-05T05:05:34.000Z</time>
      </trkpt>
      <trkpt lat="42.63854" lon="1.406294">
        <ele>2393</ele>
        <time>2019-08-05T05:05:49.000Z</time>
      </trkpt>
      <trkpt lat="42.638633" lon="1.406386">
        <ele>2392</ele>
        <time>2019-08-05T05:06:00.000Z</time>
      </trkpt>
      <trkpt lat="42.638727" lon="1.406457">
        <ele>2390</ele>
        <time>2019-08-05T05:06:16.000Z</time>
      </trkpt>
      <trkpt lat="42.638816" lon="1.406552">
        <ele>2389</ele>
        <time>2019-08-05T05:07:11.000Z</time>
      </trkpt>
      <trkpt lat="42.63891" lon="1.406622">
        <ele>2387</ele>
        <time>2019-08-05T05:07:26.000Z</time>
      </trkpt>
      <trkpt lat="42.638997" lon="1.406714">
        <ele>2385.77586511299</ele>
        <time>2019-08-05T05:07:42.000Z</time>
      </trkpt>
      <trkpt lat="42.639104" lon="1.406763">
        <ele>2385</ele>
        <time>2019-08-05T05:07:54.000Z</time>
      </trkpt>
      <trkpt lat="42.639217" lon="1.406821">
        <ele>2384</ele>
        <time>2019-08-05T05:08:05.000Z</time>
      </trkpt>
      <trkpt lat="42.639328" lon="1.406863">
        <ele>2380</ele>
        <time>2019-08-05T05:08:45.000Z</time>
      </trkpt>
      <trkpt lat="42.639428" lon="1.406818">
        <ele>2375</ele>
        <time>2019-08-05T05:09:14.000Z</time>
      </trkpt>
      <trkpt lat="42.639527" lon="1.406772">
        <ele>2370.51402014499</ele>
        <time>2019-08-05T05:09:33.000Z</time>
      </trkpt>
      <trkpt lat="42.639636" lon="1.406764">
        <ele>2370</ele>
        <time>2019-08-05T05:09:44.000Z</time>
      </trkpt>
      <trkpt lat="42.639726" lon="1.406849">
        <ele>2370</ele>
        <time>2019-08-05T05:09:54.000Z</time>
      </trkpt>
      <trkpt lat="42.63984" lon="1.406859">
        <ele>2369</ele>
        <time>2019-08-05T05:10:14.000Z</time>
      </trkpt>
      <trkpt lat="42.639941" lon="1.406824">
        <ele>2367</ele>
        <time>2019-08-05T05:10:35.000Z</time>
      </trkpt>
      <trkpt lat="42.640059" lon="1.406824">
        <ele>2364.5</ele>
        <time>2019-08-05T05:10:47.000Z</time>
      </trkpt>
      <trkpt lat="42.640159" lon="1.406771">
        <ele>2361</ele>
        <time>2019-08-05T05:11:16.000Z</time>
      </trkpt>
      <trkpt lat="42.64026" lon="1.406721">
        <ele>2357</ele>
        <time>2019-08-05T05:11:50.000Z</time>
      </trkpt>
      <trkpt lat="42.640271" lon="1.406627">
        <ele>2357</ele>
        <time>2019-08-05T05:12:08.000Z</time>
      </trkpt>
      <trkpt lat="42.640386" lon="1.406671">
        <ele>2358</ele>
        <time>2019-08-05T05:12:34.000Z</time>
      </trkpt>
      <trkpt lat="42.640498" lon="1.406707">
        <ele>2358</ele>
        <time>2019-08-05T05:12:45.000Z</time>
      </trkpt>
      <trkpt lat="42.64061" lon="1.406674">
        <ele>2361.52475096951</ele>
        <time>2019-08-05T05:13:08.000Z</time>
      </trkpt>
      <trkpt lat="42.640716" lon="1.406663">
        <ele>2364</ele>
        <time>2019-08-05T05:13:32.000Z</time>
      </trkpt>
      <trkpt lat="42.640801" lon="1.406651">
        <ele>2367</ele>
        <time>2019-08-05T05:14:43.000Z</time>
      </trkpt>
      <trkpt lat="42.640884" lon="1.406555">
        <ele>2372.42856905379</ele>
        <time>2019-08-05T05:15:05.000Z</time>
      </trkpt>
      <trkpt lat="42.640981" lon="1.406485">
        <ele>2374.45055068713</ele>
        <time>2019-08-05T05:15:16.000Z</time>
      </trkpt>
      <trkpt lat="42.641059" lon="1.406384">
        <ele>2377</ele>
        <time>2019-08-05T05:15:32.000Z</time>
      </trkpt>
      <trkpt lat="42.641158" lon="1.40632">
        <ele>2379</ele>
        <time>2019-08-05T05:15:48.000Z</time>
      </trkpt>
      <trkpt lat="42.64127" lon="1.406363">
        <ele>2382</ele>
        <time>2019-08-05T05:16:04.000Z</time>
      </trkpt>
      <trkpt lat="42.641372" lon="1.406428">
        <ele>2382</ele>
        <time>2019-08-05T05:16:15.000Z</time>
      </trkpt>
      <trkpt lat="42.641482" lon="1.406429">
        <ele>2386</ele>
        <time>2019-08-05T05:16:34.000Z</time>
      </trkpt>
      <trkpt lat="42.641583" lon="1.406434">
        <ele>2390</ele>
        <time>2019-08-05T05:16:54.000Z</time>
      </trkpt>
      <trkpt lat="42.641684" lon="1.40638">
        <ele>2392</ele>
        <time>2019-08-05T05:17:06.000Z</time>
      </trkpt>
      <trkpt lat="42.641792" lon="1.406411">
        <ele>2394</ele>
        <time>2019-08-05T05:17:16.000Z</time>
      </trkpt>
      <trkpt lat="42.64186" lon="1.406498">
        <ele>2399</ele>
        <time>2019-08-05T05:17:35.000Z</time>
      </trkpt>
      <trkpt lat="42.641914" lon="1.406541">
        <ele>2403</ele>
        <time>2019-08-05T05:17:51.000Z</time>
      </trkpt>
      <trkpt lat="42.641946" lon="1.406517">
        <ele>2404</ele>
        <time>2019-08-05T05:17:59.000Z</time>
      </trkpt>
      <trkpt lat="42.641939" lon="1.40656">
        <ele>2405.53097495497</ele>
        <time>2019-08-05T05:18:24.000Z</time>
      </trkpt>
      <trkpt lat="42.641966" lon="1.4066">
        <ele>2406</ele>
        <time>2019-08-05T05:18:29.000Z</time>
      </trkpt>
      <trkpt lat="42.641996" lon="1.406632">
        <ele>2407</ele>
        <time>2019-08-05T05:18:33.000Z</time>
      </trkpt>
      <trkpt lat="42.642028" lon="1.406662">
        <ele>2409</ele>
        <time>2019-08-05T05:18:39.000Z</time>
      </trkpt>
      <trkpt lat="42.64207" lon="1.406684">
        <ele>2410.44642285714</ele>
        <time>2019-08-05T05:18:46.000Z</time>
      </trkpt>
      <trkpt lat="42.642119" lon="1.40672">
        <ele>2412</ele>
        <time>2019-08-05T05:18:52.000Z</time>
      </trkpt>
      <trkpt lat="42.642122" lon="1.406718">
        <ele>2416.46846711793</ele>
        <time>2019-08-05T05:19:05.000Z</time>
      </trkpt>
      <trkpt lat="42.642138" lon="1.406675">
        <ele>2418</ele>
        <time>2019-08-05T05:19:13.000Z</time>
      </trkpt>
      <trkpt lat="42.642168" lon="1.406639">
        <ele>2418.50476039546</ele>
        <time>2019-08-05T05:19:20.000Z</time>
      </trkpt>
      <trkpt lat="42.642258" lon="1.406523">
        <ele>2419</ele>
        <time>2019-08-05T05:19:35.000Z</time>
      </trkpt>
      <trkpt lat="42.64236" lon="1.406556">
        <ele>2421</ele>
        <time>2019-08-05T05:19:43.000Z</time>
      </trkpt>
      <trkpt lat="42.642393" lon="1.406521">
        <ele>2423</ele>
        <time>2019-08-05T05:19:51.000Z</time>
      </trkpt>
      <trkpt lat="42.642432" lon="1.406519">
        <ele>2423</ele>
        <time>2019-08-05T05:19:55.000Z</time>
      </trkpt>
      <trkpt lat="42.642464" lon="1.406479">
        <ele>2422.49541435231</ele>
        <time>2019-08-05T05:20:00.000Z</time>
      </trkpt>
      <trkpt lat="42.642501" lon="1.406466">
        <ele>2423</ele>
        <time>2019-08-05T05:20:05.000Z</time>
      </trkpt>
      <trkpt lat="42.642548" lon="1.406439">
        <ele>2423</ele>
        <time>2019-08-05T05:20:08.000Z</time>
      </trkpt>
      <trkpt lat="42.642582" lon="1.406411">
        <ele>2425</ele>
        <time>2019-08-05T05:20:12.000Z</time>
      </trkpt>
      <trkpt lat="42.642603" lon="1.406371">
        <ele>2425</ele>
        <time>2019-08-05T05:20:16.000Z</time>
      </trkpt>
      <trkpt lat="42.642632" lon="1.406339">
        <ele>2426</ele>
        <time>2019-08-05T05:20:20.000Z</time>
      </trkpt>
      <trkpt lat="42.642667" lon="1.406334">
        <ele>2426</ele>
        <time>2019-08-05T05:20:24.000Z</time>
      </trkpt>
      <trkpt lat="42.642711" lon="1.406323">
        <ele>2426</ele>
        <time>2019-08-05T05:20:29.000Z</time>
      </trkpt>
      <trkpt lat="42.642747" lon="1.406269">
        <ele>2427</ele>
        <time>2019-08-05T05:20:34.000Z</time>
      </trkpt>
      <trkpt lat="42.642792" lon="1.406253">
        <ele>2427.52273454545</ele>
        <time>2019-08-05T05:20:38.000Z</time>
      </trkpt>
      <trkpt lat="42.642837" lon="1.406269">
        <ele>2428</ele>
        <time>2019-08-05T05:20:42.000Z</time>
      </trkpt>
      <trkpt lat="42.64288" lon="1.40627">
        <ele>2428</ele>
        <time>2019-08-05T05:20:46.000Z</time>
      </trkpt>
      <trkpt lat="42.64292" lon="1.406272">
        <ele>2428</ele>
        <time>2019-08-05T05:20:49.000Z</time>
      </trkpt>
      <trkpt lat="42.642957" lon="1.406278">
        <ele>2429</ele>
        <time>2019-08-05T05:20:54.000Z</time>
      </trkpt>
      <trkpt lat="42.642997" lon="1.406272">
        <ele>2428</ele>
        <time>2019-08-05T05:20:58.000Z</time>
      </trkpt>
      <trkpt lat="42.643033" lon="1.406269">
        <ele>2428.5</ele>
        <time>2019-08-05T05:21:01.000Z</time>
      </trkpt>
      <trkpt lat="42.643057" lon="1.406222">
        <ele>2428.5500032</ele>
        <time>2019-08-05T05:21:06.000Z</time>
      </trkpt>
      <trkpt lat="42.64309" lon="1.406177">
        <ele>2430</ele>
        <time>2019-08-05T05:21:10.000Z</time>
      </trkpt>
      <trkpt lat="42.643096" lon="1.406126">
        <ele>2431</ele>
        <time>2019-08-05T05:21:13.000Z</time>
      </trkpt>
      <trkpt lat="42.643113" lon="1.406077">
        <ele>2431</ele>
        <time>2019-08-05T05:21:16.000Z</time>
      </trkpt>
      <trkpt lat="42.643145" lon="1.40611">
        <ele>2432</ele>
        <time>2019-08-05T05:21:19.000Z</time>
      </trkpt>
      <trkpt lat="42.64319" lon="1.406133">
        <ele>2432.56</ele>
        <time>2019-08-05T05:21:22.000Z</time>
      </trkpt>
      <trkpt lat="42.643227" lon="1.406176">
        <ele>2433</ele>
        <time>2019-08-05T05:21:25.000Z</time>
      </trkpt>
      <trkpt lat="42.643269" lon="1.406201">
        <ele>2433</ele>
        <time>2019-08-05T05:21:28.000Z</time>
      </trkpt>
      <trkpt lat="42.643307" lon="1.406226">
        <ele>2433</ele>
        <time>2019-08-05T05:21:31.000Z</time>
      </trkpt>
      <trkpt lat="42.64333" lon="1.40626">
        <ele>2436</ele>
        <time>2019-08-05T05:21:41.000Z</time>
      </trkpt>
      <trkpt lat="42.643357" lon="1.406294">
        <ele>2437</ele>
        <time>2019-08-05T05:21:47.000Z</time>
      </trkpt>
      <trkpt lat="42.643392" lon="1.406281">
        <ele>2438</ele>
        <time>2019-08-05T05:21:51.000Z</time>
      </trkpt>
      <trkpt lat="42.643409" lon="1.406228">
        <ele>2438.5500032</ele>
        <time>2019-08-05T05:21:56.000Z</time>
      </trkpt>
      <trkpt lat="42.643431" lon="1.406185">
        <ele>2439</ele>
        <time>2019-08-05T05:21:59.000Z</time>
      </trkpt>
      <trkpt lat="42.643475" lon="1.406203">
        <ele>2439</ele>
        <time>2019-08-05T05:22:02.000Z</time>
      </trkpt>
      <trkpt lat="42.643511" lon="1.406227">
        <ele>2440</ele>
        <time>2019-08-05T05:22:06.000Z</time>
      </trkpt>
      <trkpt lat="42.643542" lon="1.406217">
        <ele>2442</ele>
        <time>2019-08-05T05:22:14.000Z</time>
      </trkpt>
      <trkpt lat="42.643571" lon="1.406182">
        <ele>2441.44554279776</ele>
        <time>2019-08-05T05:22:17.000Z</time>
      </trkpt>
      <trkpt lat="42.643601" lon="1.406136">
        <ele>2441</ele>
        <time>2019-08-05T05:22:20.000Z</time>
      </trkpt>
      <trkpt lat="42.643626" lon="1.406096">
        <ele>2440</ele>
        <time>2019-08-05T05:22:24.000Z</time>
      </trkpt>
      <trkpt lat="42.64364" lon="1.406033">
        <ele>2440</ele>
        <time>2019-08-05T05:22:28.000Z</time>
      </trkpt>
      <trkpt lat="42.643693" lon="1.406012">
        <ele>2439</ele>
        <time>2019-08-05T05:22:33.000Z</time>
      </trkpt>
      <trkpt lat="42.643737" lon="1.40601">
        <ele>2439</ele>
        <time>2019-08-05T05:22:37.000Z</time>
      </trkpt>
      <trkpt lat="42.643779" lon="1.406008">
        <ele>2440</ele>
        <time>2019-08-05T05:22:41.000Z</time>
      </trkpt>
      <trkpt lat="42.643824" lon="1.405982">
        <ele>2440</ele>
        <time>2019-08-05T05:22:47.000Z</time>
      </trkpt>
      <trkpt lat="42.643851" lon="1.406009">
        <ele>2442</ele>
        <time>2019-08-05T05:22:55.000Z</time>
      </trkpt>
      <trkpt lat="42.643893" lon="1.406029">
        <ele>2442</ele>
        <time>2019-08-05T05:22:59.000Z</time>
      </trkpt>
      <trkpt lat="42.643938" lon="1.406028">
        <ele>2443.2337716309</ele>
        <time>2019-08-05T05:23:05.000Z</time>
      </trkpt>
      <trkpt lat="42.643976" lon="1.40603">
        <ele>2445</ele>
        <time>2019-08-05T05:23:15.000Z</time>
      </trkpt>
      <trkpt lat="42.644013" lon="1.40602">
        <ele>2446</ele>
        <time>2019-08-05T05:23:21.000Z</time>
      </trkpt>
      <trkpt lat="42.644047" lon="1.405994">
        <ele>2446</ele>
        <time>2019-08-05T05:23:25.000Z</time>
      </trkpt>
      <trkpt lat="42.644081" lon="1.405968">
        <ele>2445</ele>
        <time>2019-08-05T05:23:34.000Z</time>
      </trkpt>
      <trkpt lat="42.644123" lon="1.405972">
        <ele>2446</ele>
        <time>2019-08-05T05:23:44.000Z</time>
      </trkpt>
      <trkpt lat="42.64417" lon="1.405974">
        <ele>2446.4210512133</ele>
        <time>2019-08-05T05:23:48.000Z</time>
      </trkpt>
      <trkpt lat="42.644205" lon="1.405976">
        <ele>2447</ele>
        <time>2019-08-05T05:23:51.000Z</time>
      </trkpt>
      <trkpt lat="42.644239" lon="1.405944">
        <ele>2447</ele>
        <time>2019-08-05T05:23:56.000Z</time>
      </trkpt>
      <trkpt lat="42.64428" lon="1.405954">
        <ele>2447</ele>
        <time>2019-08-05T05:24:00.000Z</time>
      </trkpt>
      <trkpt lat="42.644315" lon="1.40597">
        <ele>2449</ele>
        <time>2019-08-05T05:24:05.000Z</time>
      </trkpt>
      <trkpt lat="42.644349" lon="1.40596">
        <ele>2449</ele>
        <time>2019-08-05T05:24:08.000Z</time>
      </trkpt>
      <trkpt lat="42.644396" lon="1.405973">
        <ele>2449</ele>
        <time>2019-08-05T05:24:12.000Z</time>
      </trkpt>
      <trkpt lat="42.644438" lon="1.405976">
        <ele>2449</ele>
        <time>2019-08-05T05:24:16.000Z</time>
      </trkpt>
      <trkpt lat="42.644475" lon="1.405984">
        <ele>2449</ele>
        <time>2019-08-05T05:24:20.000Z</time>
      </trkpt>
      <trkpt lat="42.644513" lon="1.406013">
        <ele>2450</ele>
        <time>2019-08-05T05:24:24.000Z</time>
      </trkpt>
      <trkpt lat="42.644555" lon="1.406039">
        <ele>2450</ele>
        <time>2019-08-05T05:24:28.000Z</time>
      </trkpt>
      <trkpt lat="42.644589" lon="1.406073">
        <ele>2450</ele>
        <time>2019-08-05T05:24:31.000Z</time>
      </trkpt>
      <trkpt lat="42.644622" lon="1.406098">
        <ele>2451</ele>
        <time>2019-08-05T05:24:35.000Z</time>
      </trkpt>
      <trkpt lat="42.64456" lon="1.40604">
        <ele>2453</ele>
        <time>2019-08-05T05:25:11.000Z</time>
      </trkpt>
      <trkpt lat="42.644591" lon="1.406087">
        <ele>2453</ele>
        <time>2019-08-05T05:25:31.000Z</time>
      </trkpt>
      <trkpt lat="42.644693" lon="1.406173">
        <ele>2453</ele>
        <time>2019-08-05T05:25:39.000Z</time>
      </trkpt>
      <trkpt lat="42.644767" lon="1.406231">
        <ele>2454</ele>
        <time>2019-08-05T05:25:49.000Z</time>
      </trkpt>
      <trkpt lat="42.644802" lon="1.40624">
        <ele>2453.5294147174</ele>
        <time>2019-08-05T05:25:52.000Z</time>
      </trkpt>
      <trkpt lat="42.644842" lon="1.406252">
        <ele>2453</ele>
        <time>2019-08-05T05:25:56.000Z</time>
      </trkpt>
      <trkpt lat="42.644898" lon="1.406248">
        <ele>2452</ele>
        <time>2019-08-05T05:26:01.000Z</time>
      </trkpt>
      <trkpt lat="42.644939" lon="1.406254">
        <ele>2452</ele>
        <time>2019-08-05T05:26:04.000Z</time>
      </trkpt>
      <trkpt lat="42.64498" lon="1.406254">
        <ele>2451</ele>
        <time>2019-08-05T05:26:07.000Z</time>
      </trkpt>
      <trkpt lat="42.645017" lon="1.406236">
        <ele>2452</ele>
        <time>2019-08-05T05:26:11.000Z</time>
      </trkpt>
      <trkpt lat="42.645057" lon="1.406226">
        <ele>2452.5500032</ele>
        <time>2019-08-05T05:26:15.000Z</time>
      </trkpt>
      <trkpt lat="42.645095" lon="1.40622">
        <ele>2454</ele>
        <time>2019-08-05T05:26:19.000Z</time>
      </trkpt>
      <trkpt lat="42.64513" lon="1.406198">
        <ele>2453</ele>
        <time>2019-08-05T05:26:23.000Z</time>
      </trkpt>
      <trkpt lat="42.645163" lon="1.406172">
        <ele>2453</ele>
        <time>2019-08-05T05:26:37.000Z</time>
      </trkpt>
      <trkpt lat="42.645205" lon="1.406148">
        <ele>2453</ele>
        <time>2019-08-05T05:26:42.000Z</time>
      </trkpt>
      <trkpt lat="42.645247" lon="1.406134">
        <ele>2452.5500032</ele>
        <time>2019-08-05T05:26:46.000Z</time>
      </trkpt>
      <trkpt lat="42.645282" lon="1.406116">
        <ele>2453</ele>
        <time>2019-08-05T05:26:50.000Z</time>
      </trkpt>
      <trkpt lat="42.645318" lon="1.406102">
        <ele>2454</ele>
        <time>2019-08-05T05:26:54.000Z</time>
      </trkpt>
      <trkpt lat="42.64535" lon="1.406066">
        <ele>2454</ele>
        <time>2019-08-05T05:26:58.000Z</time>
      </trkpt>
      <trkpt lat="42.645388" lon="1.406044">
        <ele>2454</ele>
        <time>2019-08-05T05:27:01.000Z</time>
      </trkpt>
      <trkpt lat="42.645426" lon="1.406032">
        <ele>2453</ele>
        <time>2019-08-05T05:27:05.000Z</time>
      </trkpt>
      <trkpt lat="42.645466" lon="1.406004">
        <ele>2455</ele>
        <time>2019-08-05T05:27:35.000Z</time>
      </trkpt>
      <trkpt lat="42.645504" lon="1.405969">
        <ele>2455</ele>
        <time>2019-08-05T05:27:39.000Z</time>
      </trkpt>
      <trkpt lat="42.645538" lon="1.405944">
        <ele>2454</ele>
        <time>2019-08-05T05:27:42.000Z</time>
      </trkpt>
      <trkpt lat="42.645578" lon="1.405934">
        <ele>2455</ele>
        <time>2019-08-05T05:27:46.000Z</time>
      </trkpt>
      <trkpt lat="42.645614" lon="1.405914">
        <ele>2455</ele>
        <time>2019-08-05T05:27:50.000Z</time>
      </trkpt>
      <trkpt lat="42.645648" lon="1.405891">
        <ele>2455</ele>
        <time>2019-08-05T05:27:54.000Z</time>
      </trkpt>
      <trkpt lat="42.645693" lon="1.405883">
        <ele>2455</ele>
        <time>2019-08-05T05:28:08.000Z</time>
      </trkpt>
      <trkpt lat="42.645729" lon="1.405894">
        <ele>2455</ele>
        <time>2019-08-05T05:28:11.000Z</time>
      </trkpt>
      <trkpt lat="42.645773" lon="1.405892">
        <ele>2455</ele>
        <time>2019-08-05T05:28:15.000Z</time>
      </trkpt>
      <trkpt lat="42.645792" lon="1.405944">
        <ele>2455</ele>
        <time>2019-08-05T05:28:29.000Z</time>
      </trkpt>
      <trkpt lat="42.645815" lon="1.405985">
        <ele>2458</ele>
        <time>2019-08-05T05:28:34.000Z</time>
      </trkpt>
      <trkpt lat="42.645848" lon="1.406008">
        <ele>2458</ele>
        <time>2019-08-05T05:28:37.000Z</time>
      </trkpt>
      <trkpt lat="42.645902" lon="1.406051">
        <ele>2460</ele>
        <time>2019-08-05T05:28:47.000Z</time>
      </trkpt>
      <trkpt lat="42.645943" lon="1.406035">
        <ele>2461</ele>
        <time>2019-08-05T05:28:54.000Z</time>
      </trkpt>
      <trkpt lat="42.645988" lon="1.406038">
        <ele>2461</ele>
        <time>2019-08-05T05:28:58.000Z</time>
      </trkpt>
      <trkpt lat="42.646023" lon="1.406028">
        <ele>2461</ele>
        <time>2019-08-05T05:29:03.000Z</time>
      </trkpt>
      <trkpt lat="42.646058" lon="1.406007">
        <ele>2461</ele>
        <time>2019-08-05T05:29:08.000Z</time>
      </trkpt>
      <trkpt lat="42.646094" lon="1.406004">
        <ele>2461</ele>
        <time>2019-08-05T05:29:13.000Z</time>
      </trkpt>
      <trkpt lat="42.646127" lon="1.405974">
        <ele>2461</ele>
        <time>2019-08-05T05:29:21.000Z</time>
      </trkpt>
      <trkpt lat="42.646144" lon="1.405921">
        <ele>2460</ele>
        <time>2019-08-05T05:29:26.000Z</time>
      </trkpt>
      <trkpt lat="42.646173" lon="1.405892">
        <ele>2458</ele>
        <time>2019-08-05T05:29:30.000Z</time>
      </trkpt>
      <trkpt lat="42.646216" lon="1.405877">
        <ele>2458</ele>
        <time>2019-08-05T05:29:34.000Z</time>
      </trkpt>
      <trkpt lat="42.646259" lon="1.405872">
        <ele>2459</ele>
        <time>2019-08-05T05:29:39.000Z</time>
      </trkpt>
      <trkpt lat="42.646297" lon="1.405866">
        <ele>2459</ele>
        <time>2019-08-05T05:29:43.000Z</time>
      </trkpt>
      <trkpt lat="42.646338" lon="1.405875">
        <ele>2460</ele>
        <time>2019-08-05T05:29:48.000Z</time>
      </trkpt>
      <trkpt lat="42.646372" lon="1.405899">
        <ele>2461</ele>
        <time>2019-08-05T05:29:53.000Z</time>
      </trkpt>
      <trkpt lat="42.646406" lon="1.405912">
        <ele>2461</ele>
        <time>2019-08-05T05:29:57.000Z</time>
      </trkpt>
      <trkpt lat="42.646447" lon="1.405906">
        <ele>2461</ele>
        <time>2019-08-05T05:30:03.000Z</time>
      </trkpt>
      <trkpt lat="42.646476" lon="1.405878">
        <ele>2462</ele>
        <time>2019-08-05T05:30:08.000Z</time>
      </trkpt>
      <trkpt lat="42.646514" lon="1.405852">
        <ele>2462</ele>
        <time>2019-08-05T05:30:14.000Z</time>
      </trkpt>
      <trkpt lat="42.646551" lon="1.405862">
        <ele>2464</ele>
        <time>2019-08-05T05:30:19.000Z</time>
      </trkpt>
      <trkpt lat="42.646592" lon="1.40586">
        <ele>2465</ele>
        <time>2019-08-05T05:30:24.000Z</time>
      </trkpt>
      <trkpt lat="42.646629" lon="1.405868">
        <ele>2465</ele>
        <time>2019-08-05T05:30:29.000Z</time>
      </trkpt>
      <trkpt lat="42.646665" lon="1.405852">
        <ele>2465</ele>
        <time>2019-08-05T05:30:34.000Z</time>
      </trkpt>
      <trkpt lat="42.646665" lon="1.405801">
        <ele>2466</ele>
        <time>2019-08-05T05:31:18.000Z</time>
      </trkpt>
      <trkpt lat="42.6467" lon="1.405823">
        <ele>2466</ele>
        <time>2019-08-05T05:32:51.000Z</time>
      </trkpt>
      <trkpt lat="42.646731" lon="1.405861">
        <ele>2467</ele>
        <time>2019-08-05T05:32:56.000Z</time>
      </trkpt>
      <trkpt lat="42.646763" lon="1.405841">
        <ele>2467</ele>
        <time>2019-08-05T05:33:11.000Z</time>
      </trkpt>
      <trkpt lat="42.646799" lon="1.405845">
        <ele>2468</ele>
        <time>2019-08-05T05:33:17.000Z</time>
      </trkpt>
      <trkpt lat="42.646835" lon="1.405837">
        <ele>2468</ele>
        <time>2019-08-05T05:33:24.000Z</time>
      </trkpt>
      <trkpt lat="42.64687" lon="1.405858">
        <ele>2468</ele>
        <time>2019-08-05T05:33:36.000Z</time>
      </trkpt>
      <trkpt lat="42.646899" lon="1.405898">
        <ele>2469</ele>
        <time>2019-08-05T05:33:44.000Z</time>
      </trkpt>
      <trkpt lat="42.646936" lon="1.405919">
        <ele>2469</ele>
        <time>2019-08-05T05:33:49.000Z</time>
      </trkpt>
      <trkpt lat="42.64697" lon="1.405885">
        <ele>2468</ele>
        <time>2019-08-05T05:34:02.000Z</time>
      </trkpt>
      <trkpt lat="42.647006" lon="1.405868">
        <ele>2469</ele>
        <time>2019-08-05T05:34:08.000Z</time>
      </trkpt>
      <trkpt lat="42.647035" lon="1.405897">
        <ele>2470</ele>
        <time>2019-08-05T05:34:13.000Z</time>
      </trkpt>
      <trkpt lat="42.64707" lon="1.405879">
        <ele>2471</ele>
        <time>2019-08-05T05:34:20.000Z</time>
      </trkpt>
      <trkpt lat="42.647107" lon="1.405854">
        <ele>2472</ele>
        <time>2019-08-05T05:34:28.000Z</time>
      </trkpt>
      <trkpt lat="42.647131" lon="1.405816">
        <ele>2472</ele>
        <time>2019-08-05T05:34:35.000Z</time>
      </trkpt>
      <trkpt lat="42.647158" lon="1.405783">
        <ele>2474</ele>
        <time>2019-08-05T05:34:52.000Z</time>
      </trkpt>
      <trkpt lat="42.647193" lon="1.405765">
        <ele>2475</ele>
        <time>2019-08-05T05:34:59.000Z</time>
      </trkpt>
      <trkpt lat="42.647224" lon="1.40574">
        <ele>2475</ele>
        <time>2019-08-05T05:35:04.000Z</time>
      </trkpt>
      <trkpt lat="42.647247" lon="1.405717">
        <ele>2477</ele>
        <time>2019-08-05T05:35:35.000Z</time>
      </trkpt>
      <trkpt lat="42.647282" lon="1.405696">
        <ele>2477</ele>
        <time>2019-08-05T05:37:05.000Z</time>
      </trkpt>
      <trkpt lat="42.647316" lon="1.405677">
        <ele>2477</ele>
        <time>2019-08-05T05:37:23.000Z</time>
      </trkpt>
      <trkpt lat="42.647353" lon="1.405685">
        <ele>2477</ele>
        <time>2019-08-05T05:37:28.000Z</time>
      </trkpt>
      <trkpt lat="42.647396" lon="1.405712">
        <ele>2477</ele>
        <time>2019-08-05T05:37:32.000Z</time>
      </trkpt>
      <trkpt lat="42.647431" lon="1.405744">
        <ele>2478</ele>
        <time>2019-08-05T05:37:35.000Z</time>
      </trkpt>
      <trkpt lat="42.647466" lon="1.405763">
        <ele>2479</ele>
        <time>2019-08-05T05:37:39.000Z</time>
      </trkpt>
      <trkpt lat="42.6475" lon="1.405787">
        <ele>2479</ele>
        <time>2019-08-05T05:37:43.000Z</time>
      </trkpt>
      <trkpt lat="42.647541" lon="1.405789">
        <ele>2479.4499968</ele>
        <time>2019-08-05T05:37:47.000Z</time>
      </trkpt>
      <trkpt lat="42.647582" lon="1.405803">
        <ele>2480</ele>
        <time>2019-08-05T05:37:51.000Z</time>
      </trkpt>
      <trkpt lat="42.647625" lon="1.405817">
        <ele>2480</ele>
        <time>2019-08-05T05:37:55.000Z</time>
      </trkpt>
      <trkpt lat="42.647661" lon="1.405836">
        <ele>2480</ele>
        <time>2019-08-05T05:38:00.000Z</time>
      </trkpt>
      <trkpt lat="42.647696" lon="1.405858">
        <ele>2481</ele>
        <time>2019-08-05T05:38:06.000Z</time>
      </trkpt>
      <trkpt lat="42.647735" lon="1.40588">
        <ele>2482</ele>
        <time>2019-08-05T05:38:11.000Z</time>
      </trkpt>
      <trkpt lat="42.647771" lon="1.405899">
        <ele>2482.23610666667</ele>
        <time>2019-08-05T05:38:15.000Z</time>
      </trkpt>
      <trkpt lat="42.647814" lon="1.405911">
        <ele>2483</ele>
        <time>2019-08-05T05:38:20.000Z</time>
      </trkpt>
      <trkpt lat="42.647852" lon="1.405927">
        <ele>2484</ele>
        <time>2019-08-05T05:38:24.000Z</time>
      </trkpt>
      <trkpt lat="42.647894" lon="1.405934">
        <ele>2484.4499968</ele>
        <time>2019-08-05T05:38:29.000Z</time>
      </trkpt>
      <trkpt lat="42.647925" lon="1.405903">
        <ele>2485</ele>
        <time>2019-08-05T05:38:34.000Z</time>
      </trkpt>
      <trkpt lat="42.647934" lon="1.405841">
        <ele>2485</ele>
        <time>2019-08-05T05:39:10.000Z</time>
      </trkpt>
      <trkpt lat="42.647971" lon="1.405822">
        <ele>2487</ele>
        <time>2019-08-05T05:39:14.000Z</time>
      </trkpt>
      <trkpt lat="42.648004" lon="1.405793">
        <ele>2488</ele>
        <time>2019-08-05T05:39:30.000Z</time>
      </trkpt>
      <trkpt lat="42.648041" lon="1.405763">
        <ele>2488</ele>
        <time>2019-08-05T05:39:35.000Z</time>
      </trkpt>
      <trkpt lat="42.648076" lon="1.405747">
        <ele>2489</ele>
        <time>2019-08-05T05:39:39.000Z</time>
      </trkpt>
      <trkpt lat="42.648103" lon="1.405716">
        <ele>2490</ele>
        <time>2019-08-05T05:39:45.000Z</time>
      </trkpt>
      <trkpt lat="42.648141" lon="1.405732">
        <ele>2491</ele>
        <time>2019-08-05T05:40:03.000Z</time>
      </trkpt>
      <trkpt lat="42.648175" lon="1.405748">
        <ele>2491</ele>
        <time>2019-08-05T05:40:06.000Z</time>
      </trkpt>
      <trkpt lat="42.648215" lon="1.405755">
        <ele>2491</ele>
        <time>2019-08-05T05:40:10.000Z</time>
      </trkpt>
      <trkpt lat="42.648252" lon="1.405779">
        <ele>2491</ele>
        <time>2019-08-05T05:40:14.000Z</time>
      </trkpt>
      <trkpt lat="42.648298" lon="1.405814">
        <ele>2491</ele>
        <time>2019-08-05T05:40:18.000Z</time>
      </trkpt>
      <trkpt lat="42.648338" lon="1.405817">
        <ele>2491</ele>
        <time>2019-08-05T05:40:25.000Z</time>
      </trkpt>
      <trkpt lat="42.64837" lon="1.405784">
        <ele>2490</ele>
        <time>2019-08-05T05:40:29.000Z</time>
      </trkpt>
      <trkpt lat="42.648409" lon="1.405769">
        <ele>2492.4499968</ele>
        <time>2019-08-05T05:40:33.000Z</time>
      </trkpt>
      <trkpt lat="42.648444" lon="1.405781">
        <ele>2493</ele>
        <time>2019-08-05T05:40:41.000Z</time>
      </trkpt>
      <trkpt lat="42.648465" lon="1.405743">
        <ele>2494</ele>
        <time>2019-08-05T05:40:44.000Z</time>
      </trkpt>
      <trkpt lat="42.648485" lon="1.4057">
        <ele>2494</ele>
        <time>2019-08-05T05:40:49.000Z</time>
      </trkpt>
      <trkpt lat="42.648523" lon="1.405692">
        <ele>2494.4499968</ele>
        <time>2019-08-05T05:40:55.000Z</time>
      </trkpt>
      <trkpt lat="42.64856" lon="1.405717">
        <ele>2495</ele>
        <time>2019-08-05T05:41:00.000Z</time>
      </trkpt>
      <trkpt lat="42.648602" lon="1.405729">
        <ele>2495.43801504268</ele>
        <time>2019-08-05T05:41:04.000Z</time>
      </trkpt>
      <trkpt lat="42.648638" lon="1.405744">
        <ele>2496</ele>
        <time>2019-08-05T05:41:07.000Z</time>
      </trkpt>
      <trkpt lat="42.648673" lon="1.405767">
        <ele>2497.35432729618</ele>
        <time>2019-08-05T05:41:11.000Z</time>
      </trkpt>
      <trkpt lat="42.648703" lon="1.405792">
        <ele>2498</ele>
        <time>2019-08-05T05:41:20.000Z</time>
      </trkpt>
      <trkpt lat="42.648744" lon="1.405796">
        <ele>2499</ele>
        <time>2019-08-05T05:41:25.000Z</time>
      </trkpt>
      <trkpt lat="42.648776" lon="1.405812">
        <ele>2500</ele>
        <time>2019-08-05T05:41:29.000Z</time>
      </trkpt>
      <trkpt lat="42.64881" lon="1.40583">
        <ele>2501</ele>
        <time>2019-08-05T05:41:34.000Z</time>
      </trkpt>
      <trkpt lat="42.64884" lon="1.405871">
        <ele>2503</ele>
        <time>2019-08-05T05:41:40.000Z</time>
      </trkpt>
      <trkpt lat="42.648823" lon="1.40582">
        <ele>2504</ele>
        <time>2019-08-05T05:41:48.000Z</time>
      </trkpt>
      <trkpt lat="42.648855" lon="1.405742">
        <ele>2506</ele>
        <time>2019-08-05T05:41:56.000Z</time>
      </trkpt>
      <trkpt lat="42.648932" lon="1.405744">
        <ele>2509</ele>
        <time>2019-08-05T05:42:10.000Z</time>
      </trkpt>
      <trkpt lat="42.648981" lon="1.405768">
        <ele>2510</ele>
        <time>2019-08-05T05:42:15.000Z</time>
      </trkpt>
      <trkpt lat="42.649015" lon="1.405791">
        <ele>2510</ele>
        <time>2019-08-05T05:42:23.000Z</time>
      </trkpt>
      <trkpt lat="42.649049" lon="1.405825">
        <ele>2510</ele>
        <time>2019-08-05T05:42:27.000Z</time>
      </trkpt>
      <trkpt lat="42.649096" lon="1.40584">
        <ele>2510</ele>
        <time>2019-08-05T05:42:32.000Z</time>
      </trkpt>
      <trkpt lat="42.64913" lon="1.405838">
        <ele>2512</ele>
        <time>2019-08-05T05:42:39.000Z</time>
      </trkpt>
      <trkpt lat="42.649139" lon="1.405887">
        <ele>2511.67676872156</ele>
        <time>2019-08-05T05:42:43.000Z</time>
      </trkpt>
      <trkpt lat="42.649159" lon="1.405934">
        <ele>2511</ele>
        <time>2019-08-05T05:42:48.000Z</time>
      </trkpt>
      <trkpt lat="42.64918" lon="1.405979">
        <ele>2511</ele>
        <time>2019-08-05T05:42:52.000Z</time>
      </trkpt>
      <trkpt lat="42.649202" lon="1.406024">
        <ele>2511</ele>
        <time>2019-08-05T05:42:57.000Z</time>
      </trkpt>
      <trkpt lat="42.64924" lon="1.406025">
        <ele>2511</ele>
        <time>2019-08-05T05:43:05.000Z</time>
      </trkpt>
      <trkpt lat="42.649276" lon="1.406045">
        <ele>2512</ele>
        <time>2019-08-05T05:43:09.000Z</time>
      </trkpt>
      <trkpt lat="42.649312" lon="1.406041">
        <ele>2514</ele>
        <time>2019-08-05T05:43:15.000Z</time>
      </trkpt>
      <trkpt lat="42.649344" lon="1.406034">
        <ele>2515</ele>
        <time>2019-08-05T05:43:19.000Z</time>
      </trkpt>
      <trkpt lat="42.649381" lon="1.406023">
        <ele>2515</ele>
        <time>2019-08-05T05:43:26.000Z</time>
      </trkpt>
      <trkpt lat="42.649409" lon="1.405992">
        <ele>2516.56700799662</ele>
        <time>2019-08-05T05:43:35.000Z</time>
      </trkpt>
      <trkpt lat="42.649446" lon="1.405993">
        <ele>2517</ele>
        <time>2019-08-05T05:43:41.000Z</time>
      </trkpt>
      <trkpt lat="42.649481" lon="1.406021">
        <ele>2517.51546541395</ele>
        <time>2019-08-05T05:43:45.000Z</time>
      </trkpt>
      <trkpt lat="42.649514" lon="1.406043">
        <ele>2519</ele>
        <time>2019-08-05T05:43:49.000Z</time>
      </trkpt>
      <trkpt lat="42.649552" lon="1.40607">
        <ele>2519</ele>
        <time>2019-08-05T05:43:53.000Z</time>
      </trkpt>
      <trkpt lat="42.64959" lon="1.406086">
        <ele>2520</ele>
        <time>2019-08-05T05:43:59.000Z</time>
      </trkpt>
      <trkpt lat="42.649627" lon="1.406092">
        <ele>2520</ele>
        <time>2019-08-05T05:44:04.000Z</time>
      </trkpt>
      <trkpt lat="42.649665" lon="1.406106">
        <ele>2522.02221526909</ele>
        <time>2019-08-05T05:44:09.000Z</time>
      </trkpt>
      <trkpt lat="42.649698" lon="1.406098">
        <ele>2524</ele>
        <time>2019-08-05T05:44:14.000Z</time>
      </trkpt>
      <trkpt lat="42.649739" lon="1.406079">
        <ele>2525</ele>
        <time>2019-08-05T05:44:21.000Z</time>
      </trkpt>
      <trkpt lat="42.649776" lon="1.406049">
        <ele>2526</ele>
        <time>2019-08-05T05:44:26.000Z</time>
      </trkpt>
      <trkpt lat="42.649812" lon="1.406032">
        <ele>2528</ele>
        <time>2019-08-05T05:44:32.000Z</time>
      </trkpt>
      <trkpt lat="42.649847" lon="1.406018">
        <ele>2529</ele>
        <time>2019-08-05T05:44:39.000Z</time>
      </trkpt>
      <trkpt lat="42.649879" lon="1.406004">
        <ele>2530</ele>
        <time>2019-08-05T05:44:47.000Z</time>
      </trkpt>
      <trkpt lat="42.649907" lon="1.405966">
        <ele>2532</ele>
        <time>2019-08-05T05:44:55.000Z</time>
      </trkpt>
      <trkpt lat="42.64994" lon="1.40594">
        <ele>2532</ele>
        <time>2019-08-05T05:45:01.000Z</time>
      </trkpt>
      <trkpt lat="42.649974" lon="1.405918">
        <ele>2532.38461033526</ele>
        <time>2019-08-05T05:45:07.000Z</time>
      </trkpt>
      <trkpt lat="42.650008" lon="1.405904">
        <ele>2534</ele>
        <time>2019-08-05T05:45:14.000Z</time>
      </trkpt>
      <trkpt lat="42.650025" lon="1.405866">
        <ele>2535</ele>
        <time>2019-08-05T05:45:24.000Z</time>
      </trkpt>
      <trkpt lat="42.650001" lon="1.405828">
        <ele>2536.85714687597</ele>
        <time>2019-08-05T05:45:29.000Z</time>
      </trkpt>
      <trkpt lat="42.650023" lon="1.405796">
        <ele>2540</ele>
        <time>2019-08-05T05:45:38.000Z</time>
      </trkpt>
      <trkpt lat="42.650061" lon="1.4058">
        <ele>2540</ele>
        <time>2019-08-05T05:45:44.000Z</time>
      </trkpt>
      <trkpt lat="42.650099" lon="1.405788">
        <ele>2541</ele>
        <time>2019-08-05T05:45:56.000Z</time>
      </trkpt>
      <trkpt lat="42.650135" lon="1.405786">
        <ele>2542</ele>
        <time>2019-08-05T05:46:05.000Z</time>
      </trkpt>
      <trkpt lat="42.650171" lon="1.405777">
        <ele>2544</ele>
        <time>2019-08-05T05:46:10.000Z</time>
      </trkpt>
      <trkpt lat="42.650204" lon="1.405764">
        <ele>2546</ele>
        <time>2019-08-05T05:46:16.000Z</time>
      </trkpt>
      <trkpt lat="42.650233" lon="1.405729">
        <ele>2546</ele>
        <time>2019-08-05T05:46:23.000Z</time>
      </trkpt>
      <trkpt lat="42.65027" lon="1.405709">
        <ele>2548</ele>
        <time>2019-08-05T05:46:29.000Z</time>
      </trkpt>
      <trkpt lat="42.650295" lon="1.405684">
        <ele>2549</ele>
        <time>2019-08-05T05:46:35.000Z</time>
      </trkpt>
      <trkpt lat="42.65033" lon="1.405671">
        <ele>2550</ele>
        <time>2019-08-05T05:46:43.000Z</time>
      </trkpt>
      <trkpt lat="42.650367" lon="1.405672">
        <ele>2551</ele>
        <time>2019-08-05T05:46:49.000Z</time>
      </trkpt>
      <trkpt lat="42.650405" lon="1.405674">
        <ele>2551</ele>
        <time>2019-08-05T05:46:54.000Z</time>
      </trkpt>
      <trkpt lat="42.650398" lon="1.405621">
        <ele>2553</ele>
        <time>2019-08-05T05:47:01.000Z</time>
      </trkpt>
      <trkpt lat="42.650369" lon="1.405574">
        <ele>2555</ele>
        <time>2019-08-05T05:47:09.000Z</time>
      </trkpt>
      <trkpt lat="42.650354" lon="1.405524">
        <ele>2557</ele>
        <time>2019-08-05T05:47:19.000Z</time>
      </trkpt>
      <trkpt lat="42.650361" lon="1.405475">
        <ele>2557</ele>
        <time>2019-08-05T05:47:24.000Z</time>
      </trkpt>
      <trkpt lat="42.650383" lon="1.405448">
        <ele>2561</ele>
        <time>2019-08-05T05:47:32.000Z</time>
      </trkpt>
      <trkpt lat="42.650406" lon="1.405399">
        <ele>2562</ele>
        <time>2019-08-05T05:47:41.000Z</time>
      </trkpt>
      <trkpt lat="42.65044" lon="1.405382">
        <ele>2563</ele>
        <time>2019-08-05T05:47:47.000Z</time>
      </trkpt>
      <trkpt lat="42.650451" lon="1.405337">
        <ele>2565</ele>
        <time>2019-08-05T05:47:54.000Z</time>
      </trkpt>
      <trkpt lat="42.65047" lon="1.405293">
        <ele>2566.37333174045</ele>
        <time>2019-08-05T05:48:04.000Z</time>
      </trkpt>
      <trkpt lat="42.650477" lon="1.405249">
        <ele>2569</ele>
        <time>2019-08-05T05:48:15.000Z</time>
      </trkpt>
      <trkpt lat="42.650479" lon="1.405203">
        <ele>2572</ele>
        <time>2019-08-05T05:48:28.000Z</time>
      </trkpt>
      <trkpt lat="42.650477" lon="1.405162">
        <ele>2574</ele>
        <time>2019-08-05T05:48:34.000Z</time>
      </trkpt>
      <trkpt lat="42.650473" lon="1.405115">
        <ele>2576</ele>
        <time>2019-08-05T05:48:44.000Z</time>
      </trkpt>
      <trkpt lat="42.650459" lon="1.405077">
        <ele>2579.44156124807</ele>
        <time>2019-08-05T05:48:57.000Z</time>
      </trkpt>
      <trkpt lat="42.650429" lon="1.405034">
        <ele>2581</ele>
        <time>2019-08-05T05:49:08.000Z</time>
      </trkpt>
      <trkpt lat="42.650415" lon="1.405006">
        <ele>2583</ele>
        <time>2019-08-05T05:49:18.000Z</time>
      </trkpt>
      <trkpt lat="42.65044" lon="1.404966">
        <ele>2585</ele>
        <time>2019-08-05T05:49:35.000Z</time>
      </trkpt>
      <trkpt lat="42.650462" lon="1.404939">
        <ele>2586.36363732532</ele>
        <time>2019-08-05T05:49:40.000Z</time>
      </trkpt>
      <trkpt lat="42.65049" lon="1.404926">
        <ele>2588</ele>
        <time>2019-08-05T05:49:47.000Z</time>
      </trkpt>
      <trkpt lat="42.650503" lon="1.404876">
        <ele>2590</ele>
        <time>2019-08-05T05:49:57.000Z</time>
      </trkpt>
      <trkpt lat="42.650522" lon="1.404839">
        <ele>2593</ele>
        <time>2019-08-05T05:50:16.000Z</time>
      </trkpt>
      <trkpt lat="42.650554" lon="1.404815">
        <ele>2593</ele>
        <time>2019-08-05T05:50:29.000Z</time>
      </trkpt>
      <trkpt lat="42.65058" lon="1.40479">
        <ele>2595</ele>
        <time>2019-08-05T05:50:35.000Z</time>
      </trkpt>
      <trkpt lat="42.650596" lon="1.404745">
        <ele>2596</ele>
        <time>2019-08-05T05:50:43.000Z</time>
      </trkpt>
      <trkpt lat="42.650614" lon="1.404702">
        <ele>2598.4347826087</ele>
        <time>2019-08-05T05:50:53.000Z</time>
      </trkpt>
      <trkpt lat="42.650641" lon="1.404676">
        <ele>2600.18421584479</ele>
        <time>2019-08-05T05:51:14.000Z</time>
      </trkpt>
      <trkpt lat="42.650653" lon="1.404629">
        <ele>2601.51786285714</ele>
        <time>2019-08-05T05:51:21.000Z</time>
      </trkpt>
      <trkpt lat="42.650655" lon="1.404589">
        <ele>2604</ele>
        <time>2019-08-05T05:51:26.000Z</time>
      </trkpt>
      <trkpt lat="42.650655" lon="1.404542">
        <ele>2606</ele>
        <time>2019-08-05T05:51:33.000Z</time>
      </trkpt>
      <trkpt lat="42.650652" lon="1.404492">
        <ele>2607.42353100623</ele>
        <time>2019-08-05T05:51:40.000Z</time>
      </trkpt>
      <trkpt lat="42.650656" lon="1.404467">
        <ele>2609.80374189535</ele>
        <time>2019-08-05T05:52:02.000Z</time>
      </trkpt>
      <trkpt lat="42.65068" lon="1.40442">
        <ele>2611</ele>
        <time>2019-08-05T05:52:10.000Z</time>
      </trkpt>
      <trkpt lat="42.650685" lon="1.404416">
        <ele>2614</ele>
        <time>2019-08-05T05:52:17.000Z</time>
      </trkpt>
      <trkpt lat="42.650707" lon="1.404376">
        <ele>2614</ele>
        <time>2019-08-05T05:52:37.000Z</time>
      </trkpt>
      <trkpt lat="42.650734" lon="1.404347">
        <ele>2615</ele>
        <time>2019-08-05T05:52:44.000Z</time>
      </trkpt>
      <trkpt lat="42.650735" lon="1.404299">
        <ele>2616</ele>
        <time>2019-08-05T05:52:51.000Z</time>
      </trkpt>
      <trkpt lat="42.650749" lon="1.404277">
        <ele>2619</ele>
        <time>2019-08-05T05:53:02.000Z</time>
      </trkpt>
      <trkpt lat="42.650788" lon="1.404264">
        <ele>2619</ele>
        <time>2019-08-05T05:53:08.000Z</time>
      </trkpt>
      <trkpt lat="42.650823" lon="1.40425">
        <ele>2622</ele>
        <time>2019-08-05T05:53:15.000Z</time>
      </trkpt>
      <trkpt lat="42.650846" lon="1.404213">
        <ele>2624</ele>
        <time>2019-08-05T05:53:30.000Z</time>
      </trkpt>
      <trkpt lat="42.650857" lon="1.404164">
        <ele>2625</ele>
        <time>2019-08-05T05:53:41.000Z</time>
      </trkpt>
      <trkpt lat="42.650873" lon="1.404128">
        <ele>2629</ele>
        <time>2019-08-05T05:53:52.000Z</time>
      </trkpt>
      <trkpt lat="42.650897" lon="1.404086">
        <ele>2630</ele>
        <time>2019-08-05T05:54:00.000Z</time>
      </trkpt>
      <trkpt lat="42.650893" lon="1.404036">
        <ele>2630</ele>
        <time>2019-08-05T05:54:04.000Z</time>
      </trkpt>
      <trkpt lat="42.650893" lon="1.404003">
        <ele>2633</ele>
        <time>2019-08-05T05:54:18.000Z</time>
      </trkpt>
      <trkpt lat="42.650922" lon="1.40396">
        <ele>2634</ele>
        <time>2019-08-05T05:54:23.000Z</time>
      </trkpt>
      <trkpt lat="42.650911" lon="1.403913">
        <ele>2636.08474171783</ele>
        <time>2019-08-05T05:54:37.000Z</time>
      </trkpt>
      <trkpt lat="42.650911" lon="1.403865">
        <ele>2637</ele>
        <time>2019-08-05T05:54:40.000Z</time>
      </trkpt>
      <trkpt lat="42.650887" lon="1.403835">
        <ele>2641</ele>
        <time>2019-08-05T05:54:54.000Z</time>
      </trkpt>
      <trkpt lat="42.650878" lon="1.4038">
        <ele>2643</ele>
        <time>2019-08-05T05:55:07.000Z</time>
      </trkpt>
      <trkpt lat="42.650902" lon="1.403762">
        <ele>2644</ele>
        <time>2019-08-05T05:55:15.000Z</time>
      </trkpt>
      <trkpt lat="42.65088" lon="1.403715">
        <ele>2645</ele>
        <time>2019-08-05T05:55:33.000Z</time>
      </trkpt>
      <trkpt lat="42.650858" lon="1.403679">
        <ele>2647</ele>
        <time>2019-08-05T05:55:38.000Z</time>
      </trkpt>
      <trkpt lat="42.650829" lon="1.403673">
        <ele>2649</ele>
        <time>2019-08-05T05:55:45.000Z</time>
      </trkpt>
      <trkpt lat="42.650801" lon="1.403637">
        <ele>2650</ele>
        <time>2019-08-05T05:55:51.000Z</time>
      </trkpt>
      <trkpt lat="42.650775" lon="1.403617">
        <ele>2652</ele>
        <time>2019-08-05T05:56:01.000Z</time>
      </trkpt>
      <trkpt lat="42.650762" lon="1.403587">
        <ele>2655</ele>
        <time>2019-08-05T05:56:23.000Z</time>
      </trkpt>
      <trkpt lat="42.650745" lon="1.403547">
        <ele>2657</ele>
        <time>2019-08-05T05:56:47.000Z</time>
      </trkpt>
      <trkpt lat="42.65072" lon="1.403499">
        <ele>2657</ele>
        <time>2019-08-05T05:56:53.000Z</time>
      </trkpt>
      <trkpt lat="42.650699" lon="1.403454">
        <ele>2657.20779307135</ele>
        <time>2019-08-05T05:56:58.000Z</time>
      </trkpt>
      <trkpt lat="42.65067" lon="1.403424">
        <ele>2659.38666734934</ele>
        <time>2019-08-05T05:57:03.000Z</time>
      </trkpt>
      <trkpt lat="42.650648" lon="1.403391">
        <ele>2661</ele>
        <time>2019-08-05T05:57:12.000Z</time>
      </trkpt>
      <trkpt lat="42.650623" lon="1.403355">
        <ele>2662.45882211213</ele>
        <time>2019-08-05T05:57:18.000Z</time>
      </trkpt>
      <trkpt lat="42.650596" lon="1.403321">
        <ele>2664</ele>
        <time>2019-08-05T05:57:34.000Z</time>
      </trkpt>
      <trkpt lat="42.650578" lon="1.403274">
        <ele>2665</ele>
        <time>2019-08-05T05:57:40.000Z</time>
      </trkpt>
      <trkpt lat="42.650566" lon="1.403225">
        <ele>2667</ele>
        <time>2019-08-05T05:57:49.000Z</time>
      </trkpt>
      <trkpt lat="42.650554" lon="1.403177">
        <ele>2667.44068035623</ele>
        <time>2019-08-05T05:57:56.000Z</time>
      </trkpt>
      <trkpt lat="42.650539" lon="1.40314">
        <ele>2670.54081659309</ele>
        <time>2019-08-05T05:58:04.000Z</time>
      </trkpt>
      <trkpt lat="42.650513" lon="1.403104">
        <ele>2671.36885177103</ele>
        <time>2019-08-05T05:58:11.000Z</time>
      </trkpt>
      <trkpt lat="42.650502" lon="1.403066">
        <ele>2673</ele>
        <time>2019-08-05T05:58:23.000Z</time>
      </trkpt>
      <trkpt lat="42.650503" lon="1.403024">
        <ele>2675</ele>
        <time>2019-08-05T05:58:29.000Z</time>
      </trkpt>
      <trkpt lat="42.650495" lon="1.40298">
        <ele>2678</ele>
        <time>2019-08-05T05:58:38.000Z</time>
      </trkpt>
      <trkpt lat="42.650507" lon="1.402933">
        <ele>2680</ele>
        <time>2019-08-05T05:58:49.000Z</time>
      </trkpt>
      <trkpt lat="42.650489" lon="1.402893">
        <ele>2681</ele>
        <time>2019-08-05T05:59:16.000Z</time>
      </trkpt>
      <trkpt lat="42.650488" lon="1.402866">
        <ele>2684.63414989489</ele>
        <time>2019-08-05T05:59:34.000Z</time>
      </trkpt>
      <trkpt lat="42.650497" lon="1.402815">
        <ele>2685</ele>
        <time>2019-08-05T05:59:41.000Z</time>
      </trkpt>
      <trkpt lat="42.650516" lon="1.402796">
        <ele>2688</ele>
        <time>2019-08-05T05:59:53.000Z</time>
      </trkpt>
      <trkpt lat="42.650511" lon="1.402748">
        <ele>2690</ele>
        <time>2019-08-05T06:00:08.000Z</time>
      </trkpt>
      <trkpt lat="42.650533" lon="1.402705">
        <ele>2692</ele>
        <time>2019-08-05T06:00:16.000Z</time>
      </trkpt>
      <trkpt lat="42.650549" lon="1.402663">
        <ele>2694</ele>
        <time>2019-08-05T06:00:27.000Z</time>
      </trkpt>
      <trkpt lat="42.650566" lon="1.402644">
        <ele>2697</ele>
        <time>2019-08-05T06:00:49.000Z</time>
      </trkpt>
      <trkpt lat="42.650599" lon="1.402665">
        <ele>2698</ele>
        <time>2019-08-05T06:00:53.000Z</time>
      </trkpt>
      <trkpt lat="42.650632" lon="1.402688">
        <ele>2698</ele>
        <time>2019-08-05T06:01:00.000Z</time>
      </trkpt>
      <trkpt lat="42.650674" lon="1.402686">
        <ele>2698</ele>
        <time>2019-08-05T06:01:05.000Z</time>
      </trkpt>
      <trkpt lat="42.650707" lon="1.402652">
        <ele>2701.50908794712</ele>
        <time>2019-08-05T06:01:10.000Z</time>
      </trkpt>
      <trkpt lat="42.65074" lon="1.402625">
        <ele>2702</ele>
        <time>2019-08-05T06:01:15.000Z</time>
      </trkpt>
      <trkpt lat="42.650779" lon="1.402632">
        <ele>2700.63758740958</ele>
        <time>2019-08-05T06:01:59.000Z</time>
      </trkpt>
      <trkpt lat="42.650817" lon="1.40265">
        <ele>2700</ele>
        <time>2019-08-05T06:02:04.000Z</time>
      </trkpt>
      <trkpt lat="42.650844" lon="1.40269">
        <ele>2699</ele>
        <time>2019-08-05T06:02:16.000Z</time>
      </trkpt>
      <trkpt lat="42.650885" lon="1.402711">
        <ele>2699</ele>
        <time>2019-08-05T06:02:21.000Z</time>
      </trkpt>
      <trkpt lat="42.650897" lon="1.40276">
        <ele>2699</ele>
        <time>2019-08-05T06:02:39.000Z</time>
      </trkpt>
      <trkpt lat="42.650908" lon="1.402809">
        <ele>2701</ele>
        <time>2019-08-05T06:02:44.000Z</time>
      </trkpt>
      <trkpt lat="42.650899" lon="1.402863">
        <ele>2701.46739478261</ele>
        <time>2019-08-05T06:02:50.000Z</time>
      </trkpt>
      <trkpt lat="42.650902" lon="1.40291">
        <ele>2704</ele>
        <time>2019-08-05T06:02:56.000Z</time>
      </trkpt>
      <trkpt lat="42.650921" lon="1.402953">
        <ele>2704</ele>
        <time>2019-08-05T06:03:00.000Z</time>
      </trkpt>
      <trkpt lat="42.650949" lon="1.402992">
        <ele>2705</ele>
        <time>2019-08-05T06:03:06.000Z</time>
      </trkpt>
      <trkpt lat="42.650984" lon="1.403011">
        <ele>2706</ele>
        <time>2019-08-05T06:03:19.000Z</time>
      </trkpt>
      <trkpt lat="42.650953" lon="1.402968">
        <ele>2705</ele>
        <time>2019-08-05T06:03:37.000Z</time>
      </trkpt>
      <trkpt lat="42.650925" lon="1.40292">
        <ele>2705</ele>
        <time>2019-08-05T06:03:42.000Z</time>
      </trkpt>
      <trkpt lat="42.650927" lon="1.402868">
        <ele>2703.54761977325</ele>
        <time>2019-08-05T06:03:47.000Z</time>
      </trkpt>
      <trkpt lat="42.650962" lon="1.402877">
        <ele>2702.71910370914</ele>
        <time>2019-08-05T06:04:00.000Z</time>
      </trkpt>
      <trkpt lat="42.650981" lon="1.4029">
        <ele>2700</ele>
        <time>2019-08-05T06:04:10.000Z</time>
      </trkpt>
      <trkpt lat="42.651016" lon="1.402907">
        <ele>2699</ele>
        <time>2019-08-05T06:04:25.000Z</time>
      </trkpt>
      <trkpt lat="42.651054" lon="1.402911">
        <ele>2698</ele>
        <time>2019-08-05T06:04:48.000Z</time>
      </trkpt>
      <trkpt lat="42.651088" lon="1.402923">
        <ele>2696</ele>
        <time>2019-08-05T06:05:03.000Z</time>
      </trkpt>
      <trkpt lat="42.651129" lon="1.402933">
        <ele>2694.72806889505</ele>
        <time>2019-08-05T06:05:09.000Z</time>
      </trkpt>
      <trkpt lat="42.651167" lon="1.402955">
        <ele>2694</ele>
        <time>2019-08-05T06:05:21.000Z</time>
      </trkpt>
      <trkpt lat="42.651213" lon="1.402945">
        <ele>2692.55435130435</ele>
        <time>2019-08-05T06:05:25.000Z</time>
      </trkpt>
      <trkpt lat="42.651251" lon="1.402969">
        <ele>2692.32557897244</ele>
        <time>2019-08-05T06:05:29.000Z</time>
      </trkpt>
      <trkpt lat="42.651292" lon="1.402961">
        <ele>2694</ele>
        <time>2019-08-05T06:05:33.000Z</time>
      </trkpt>
      <trkpt lat="42.651321" lon="1.402933">
        <ele>2695</ele>
        <time>2019-08-05T06:05:40.000Z</time>
      </trkpt>
      <trkpt lat="42.65136" lon="1.402914">
        <ele>2696</ele>
        <time>2019-08-05T06:05:44.000Z</time>
      </trkpt>
      <trkpt lat="42.651388" lon="1.402881">
        <ele>2697</ele>
        <time>2019-08-05T06:05:48.000Z</time>
      </trkpt>
      <trkpt lat="42.651424" lon="1.402842">
        <ele>2697</ele>
        <time>2019-08-05T06:05:53.000Z</time>
      </trkpt>
      <trkpt lat="42.651445" lon="1.402799">
        <ele>2697.4499968</ele>
        <time>2019-08-05T06:05:59.000Z</time>
      </trkpt>
      <trkpt lat="42.651464" lon="1.402753">
        <ele>2697.5</ele>
        <time>2019-08-05T06:06:04.000Z</time>
      </trkpt>
      <trkpt lat="42.651488" lon="1.402712">
        <ele>2699</ele>
        <time>2019-08-05T06:06:09.000Z</time>
      </trkpt>
      <trkpt lat="42.651503" lon="1.402663">
        <ele>2700</ele>
        <time>2019-08-05T06:06:16.000Z</time>
      </trkpt>
      <trkpt lat="42.651527" lon="1.402619">
        <ele>2701.42622125231</ele>
        <time>2019-08-05T06:06:24.000Z</time>
      </trkpt>
      <trkpt lat="42.651535" lon="1.402578">
        <ele>2703</ele>
        <time>2019-08-05T06:06:29.000Z</time>
      </trkpt>
      <trkpt lat="42.651549" lon="1.402528">
        <ele>2705</ele>
        <time>2019-08-05T06:06:35.000Z</time>
      </trkpt>
      <trkpt lat="42.651566" lon="1.402509">
        <ele>2708</ele>
        <time>2019-08-05T06:06:44.000Z</time>
      </trkpt>
      <trkpt lat="42.651578" lon="1.40246">
        <ele>2708</ele>
        <time>2019-08-05T06:06:56.000Z</time>
      </trkpt>
      <trkpt lat="42.651614" lon="1.402447">
        <ele>2709.41964571429</ele>
        <time>2019-08-05T06:07:01.000Z</time>
      </trkpt>
      <trkpt lat="42.651649" lon="1.40244">
        <ele>2711</ele>
        <time>2019-08-05T06:07:08.000Z</time>
      </trkpt>
      <trkpt lat="42.651684" lon="1.402418">
        <ele>2712</ele>
        <time>2019-08-05T06:07:15.000Z</time>
      </trkpt>
      <trkpt lat="42.651714" lon="1.40239">
        <ele>2714</ele>
        <time>2019-08-05T06:07:27.000Z</time>
      </trkpt>
      <trkpt lat="42.651756" lon="1.402382">
        <ele>2715</ele>
        <time>2019-08-05T06:07:33.000Z</time>
      </trkpt>
      <trkpt lat="42.651789" lon="1.402404">
        <ele>2716</ele>
        <time>2019-08-05T06:07:38.000Z</time>
      </trkpt>
      <trkpt lat="42.651822" lon="1.402432">
        <ele>2717.48386919181</ele>
        <time>2019-08-05T06:07:45.000Z</time>
      </trkpt>
      <trkpt lat="42.65185" lon="1.402472">
        <ele>2718.5377360769</ele>
        <time>2019-08-05T06:07:55.000Z</time>
      </trkpt>
      <trkpt lat="42.651873" lon="1.402505">
        <ele>2721</ele>
        <time>2019-08-05T06:08:01.000Z</time>
      </trkpt>
      <trkpt lat="42.65188" lon="1.402535">
        <ele>2724</ele>
        <time>2019-08-05T06:08:14.000Z</time>
      </trkpt>
      <trkpt lat="42.651915" lon="1.402547">
        <ele>2725</ele>
        <time>2019-08-05T06:08:22.000Z</time>
      </trkpt>
      <trkpt lat="42.651951" lon="1.402558">
        <ele>2728</ele>
        <time>2019-08-05T06:08:35.000Z</time>
      </trkpt>
      <trkpt lat="42.651977" lon="1.402579">
        <ele>2730</ele>
        <time>2019-08-05T06:08:46.000Z</time>
      </trkpt>
      <trkpt lat="42.651986" lon="1.402632">
        <ele>2732</ele>
        <time>2019-08-05T06:08:53.000Z</time>
      </trkpt>
      <trkpt lat="42.652004" lon="1.402673">
        <ele>2732.88171658225</ele>
        <time>2019-08-05T06:09:01.000Z</time>
      </trkpt>
      <trkpt lat="42.652032" lon="1.402661">
        <ele>2735.36486603359</ele>
        <time>2019-08-05T06:09:17.000Z</time>
      </trkpt>
      <trkpt lat="42.652064" lon="1.402641">
        <ele>2737</ele>
        <time>2019-08-05T06:09:24.000Z</time>
      </trkpt>
      <trkpt lat="42.652061" lon="1.402593">
        <ele>2738</ele>
        <time>2019-08-05T06:09:33.000Z</time>
      </trkpt>
      <trkpt lat="42.652091" lon="1.402552">
        <ele>2737.29487347796</ele>
        <time>2019-08-05T06:09:55.000Z</time>
      </trkpt>
      <trkpt lat="42.652114" lon="1.402515">
        <ele>2739</ele>
        <time>2019-08-05T06:10:02.000Z</time>
      </trkpt>
      <trkpt lat="42.652137" lon="1.402474">
        <ele>2739</ele>
        <time>2019-08-05T06:10:06.000Z</time>
      </trkpt>
      <trkpt lat="42.652123" lon="1.402422">
        <ele>2740</ele>
        <time>2019-08-05T06:10:22.000Z</time>
      </trkpt>
      <trkpt lat="42.65213" lon="1.402369">
        <ele>2740</ele>
        <time>2019-08-05T06:10:27.000Z</time>
      </trkpt>
      <trkpt lat="42.65216" lon="1.402336">
        <ele>2740</ele>
        <time>2019-08-05T06:10:34.000Z</time>
      </trkpt>
      <trkpt lat="42.652168" lon="1.402295">
        <ele>2742</ele>
        <time>2019-08-05T06:10:43.000Z</time>
      </trkpt>
      <trkpt lat="42.65219" lon="1.402255">
        <ele>2743</ele>
        <time>2019-08-05T06:10:51.000Z</time>
      </trkpt>
      <trkpt lat="42.652227" lon="1.402274">
        <ele>2744</ele>
        <time>2019-08-05T06:11:05.000Z</time>
      </trkpt>
      <trkpt lat="42.652225" lon="1.402318">
        <ele>2746</ele>
        <time>2019-08-05T06:11:18.000Z</time>
      </trkpt>
      <trkpt lat="42.652248" lon="1.402356">
        <ele>2747</ele>
        <time>2019-08-05T06:11:30.000Z</time>
      </trkpt>
      <trkpt lat="42.652264" lon="1.40232">
        <ele>2749</ele>
        <time>2019-08-05T06:11:43.000Z</time>
      </trkpt>
      <trkpt lat="42.6523" lon="1.402308">
        <ele>2751</ele>
        <time>2019-08-05T06:11:54.000Z</time>
      </trkpt>
      <trkpt lat="42.652333" lon="1.402318">
        <ele>2752</ele>
        <time>2019-08-05T06:12:10.000Z</time>
      </trkpt>
      <trkpt lat="42.652358" lon="1.402279">
        <ele>2755</ele>
        <time>2019-08-05T06:12:14.000Z</time>
      </trkpt>
      <trkpt lat="42.65238" lon="1.40224">
        <ele>2756</ele>
        <time>2019-08-05T06:12:20.000Z</time>
      </trkpt>
      <trkpt lat="42.652385" lon="1.402197">
        <ele>2757</ele>
        <time>2019-08-05T06:13:42.000Z</time>
      </trkpt>
      <trkpt lat="42.652388" lon="1.402138">
        <ele>2757</ele>
        <time>2019-08-05T06:13:46.000Z</time>
      </trkpt>
      <trkpt lat="42.652405" lon="1.402118">
        <ele>2760</ele>
        <time>2019-08-05T06:14:26.000Z</time>
      </trkpt>
      <trkpt lat="42.65238" lon="1.402082">
        <ele>2760</ele>
        <time>2019-08-05T06:15:12.000Z</time>
      </trkpt>
      <trkpt lat="42.652363" lon="1.402036">
        <ele>2760</ele>
        <time>2019-08-05T06:15:16.000Z</time>
      </trkpt>
      <trkpt lat="42.652364" lon="1.401985">
        <ele>2759</ele>
        <time>2019-08-05T06:16:09.000Z</time>
      </trkpt>
      <trkpt lat="42.652347" lon="1.401935">
        <ele>2758</ele>
        <time>2019-08-05T06:16:14.000Z</time>
      </trkpt>
      <trkpt lat="42.652338" lon="1.401882">
        <ele>2757.50458564769</ele>
        <time>2019-08-05T06:16:18.000Z</time>
      </trkpt>
      <trkpt lat="42.652326" lon="1.401827">
        <ele>2758</ele>
        <time>2019-08-05T06:16:22.000Z</time>
      </trkpt>
      <trkpt lat="42.652328" lon="1.401777">
        <ele>2759</ele>
        <time>2019-08-05T06:16:28.000Z</time>
      </trkpt>
      <trkpt lat="42.652349" lon="1.401815">
        <ele>2761</ele>
        <time>2019-08-05T06:17:20.000Z</time>
      </trkpt>
      <trkpt lat="42.652379" lon="1.401841">
        <ele>2762</ele>
        <time>2019-08-05T06:17:34.000Z</time>
      </trkpt>
      <trkpt lat="42.652396" lon="1.401882">
        <ele>2763</ele>
        <time>2019-08-05T06:17:48.000Z</time>
      </trkpt>
      <trkpt lat="42.652422" lon="1.401908">
        <ele>2766</ele>
        <time>2019-08-05T06:17:55.000Z</time>
      </trkpt>
      <trkpt lat="42.652436" lon="1.401954">
        <ele>2766.39822838436</ele>
        <time>2019-08-05T06:18:05.000Z</time>
      </trkpt>
      <trkpt lat="42.652452" lon="1.401998">
        <ele>2769</ele>
        <time>2019-08-05T06:18:10.000Z</time>
      </trkpt>
      <trkpt lat="42.65248" lon="1.402028">
        <ele>2769</ele>
        <time>2019-08-05T06:18:15.000Z</time>
      </trkpt>
      <trkpt lat="42.652513" lon="1.402046">
        <ele>2771</ele>
        <time>2019-08-05T06:18:20.000Z</time>
      </trkpt>
      <trkpt lat="42.652551" lon="1.402042">
        <ele>2770</ele>
        <time>2019-08-05T06:19:14.000Z</time>
      </trkpt>
      <trkpt lat="42.652581" lon="1.402016">
        <ele>2769</ele>
        <time>2019-08-05T06:19:24.000Z</time>
      </trkpt>
      <trkpt lat="42.652582" lon="1.401975">
        <ele>2767</ele>
        <time>2019-08-05T06:19:49.000Z</time>
      </trkpt>
      <trkpt lat="42.652574" lon="1.401926">
        <ele>2766</ele>
        <time>2019-08-05T06:20:02.000Z</time>
      </trkpt>
      <trkpt lat="42.652572" lon="1.401881">
        <ele>2764</ele>
        <time>2019-08-05T06:20:11.000Z</time>
      </trkpt>
      <trkpt lat="42.6526" lon="1.401915">
        <ele>2764</ele>
        <time>2019-08-05T06:20:23.000Z</time>
      </trkpt>
      <trkpt lat="42.652637" lon="1.401922">
        <ele>2764</ele>
        <time>2019-08-05T06:20:31.000Z</time>
      </trkpt>
      <trkpt lat="42.652668" lon="1.401951">
        <ele>2764</ele>
        <time>2019-08-05T06:21:45.000Z</time>
      </trkpt>
      <trkpt lat="42.65267" lon="1.401992">
        <ele>2767</ele>
        <time>2019-08-05T06:22:27.000Z</time>
      </trkpt>
      <trkpt lat="42.652695" lon="1.402025">
        <ele>2768</ele>
        <time>2019-08-05T06:22:37.000Z</time>
      </trkpt>
      <trkpt lat="42.652733" lon="1.402031">
        <ele>2767</ele>
        <time>2019-08-05T06:23:19.000Z</time>
      </trkpt>
      <trkpt lat="42.652768" lon="1.402024">
        <ele>2766</ele>
        <time>2019-08-05T06:23:29.000Z</time>
      </trkpt>
      <trkpt lat="42.652782" lon="1.401978">
        <ele>2766</ele>
        <time>2019-08-05T06:24:03.000Z</time>
      </trkpt>
      <trkpt lat="42.65281" lon="1.402033">
        <ele>2767</ele>
        <time>2019-08-05T06:24:25.000Z</time>
      </trkpt>
      <trkpt lat="42.652893" lon="1.402039">
        <ele>2766</ele>
        <time>2019-08-05T06:25:38.000Z</time>
      </trkpt>
      <trkpt lat="42.652916" lon="1.402078">
        <ele>2766</ele>
        <time>2019-08-05T06:27:02.000Z</time>
      </trkpt>
      <trkpt lat="42.652907" lon="1.402035">
        <ele>2763</ele>
        <time>2019-08-05T06:27:59.000Z</time>
      </trkpt>
      <trkpt lat="42.652939" lon="1.402016">
        <ele>2762</ele>
        <time>2019-08-05T06:28:07.000Z</time>
      </trkpt>
      <trkpt lat="42.652941" lon="1.401967">
        <ele>2761</ele>
        <time>2019-08-05T06:28:35.000Z</time>
      </trkpt>
      <trkpt lat="42.652966" lon="1.401931">
        <ele>2759</ele>
        <time>2019-08-05T06:29:14.000Z</time>
      </trkpt>
      <trkpt lat="42.65301" lon="1.401923">
        <ele>2758</ele>
        <time>2019-08-05T06:29:28.000Z</time>
      </trkpt>
      <trkpt lat="42.653053" lon="1.401931">
        <ele>2760</ele>
        <time>2019-08-05T06:29:33.000Z</time>
      </trkpt>
      <trkpt lat="42.653086" lon="1.401953">
        <ele>2760</ele>
        <time>2019-08-05T06:29:37.000Z</time>
      </trkpt>
      <trkpt lat="42.653128" lon="1.401983">
        <ele>2761</ele>
        <time>2019-08-05T06:29:48.000Z</time>
      </trkpt>
      <trkpt lat="42.653224" lon="1.402048">
        <ele>2761</ele>
        <time>2019-08-05T06:30:06.000Z</time>
      </trkpt>
      <trkpt lat="42.653286" lon="1.402098">
        <ele>2763</ele>
        <time>2019-08-05T06:30:16.000Z</time>
      </trkpt>
      <trkpt lat="42.653322" lon="1.402098">
        <ele>2763</ele>
        <time>2019-08-05T06:30:24.000Z</time>
      </trkpt>
      <trkpt lat="42.653358" lon="1.402113">
        <ele>2764</ele>
        <time>2019-08-05T06:30:29.000Z</time>
      </trkpt>
      <trkpt lat="42.653388" lon="1.4021">
        <ele>2766.4957278983</ele>
        <time>2019-08-05T06:30:35.000Z</time>
      </trkpt>
      <trkpt lat="42.653422" lon="1.402056">
        <ele>2766.70491218499</ele>
        <time>2019-08-05T06:30:41.000Z</time>
      </trkpt>
      <trkpt lat="42.653458" lon="1.402046">
        <ele>2766</ele>
        <time>2019-08-05T06:30:45.000Z</time>
      </trkpt>
      <trkpt lat="42.653494" lon="1.402036">
        <ele>2767</ele>
        <time>2019-08-05T06:30:50.000Z</time>
      </trkpt>
      <trkpt lat="42.653528" lon="1.401997">
        <ele>2768</ele>
        <time>2019-08-05T06:31:02.000Z</time>
      </trkpt>
      <trkpt lat="42.653563" lon="1.401975">
        <ele>2768</ele>
        <time>2019-08-05T06:31:07.000Z</time>
      </trkpt>
      <trkpt lat="42.653602" lon="1.401964">
        <ele>2768</ele>
        <time>2019-08-05T06:31:11.000Z</time>
      </trkpt>
      <trkpt lat="42.653642" lon="1.40194">
        <ele>2768</ele>
        <time>2019-08-05T06:31:20.000Z</time>
      </trkpt>
      <trkpt lat="42.653672" lon="1.401902">
        <ele>2768</ele>
        <time>2019-08-05T06:31:24.000Z</time>
      </trkpt>
      <trkpt lat="42.653702" lon="1.401873">
        <ele>2770</ele>
        <time>2019-08-05T06:31:31.000Z</time>
      </trkpt>
      <trkpt lat="42.653727" lon="1.401845">
        <ele>2771</ele>
        <time>2019-08-05T06:31:36.000Z</time>
      </trkpt>
      <trkpt lat="42.653751" lon="1.401777">
        <ele>2772</ele>
        <time>2019-08-05T06:31:42.000Z</time>
      </trkpt>
      <trkpt lat="42.653752" lon="1.401723">
        <ele>2773</ele>
        <time>2019-08-05T06:31:58.000Z</time>
      </trkpt>
      <trkpt lat="42.653782" lon="1.401688">
        <ele>2774</ele>
        <time>2019-08-05T06:32:03.000Z</time>
      </trkpt>
      <trkpt lat="42.653793" lon="1.401635">
        <ele>2775</ele>
        <time>2019-08-05T06:32:10.000Z</time>
      </trkpt>
      <trkpt lat="42.653816" lon="1.401598">
        <ele>2777</ele>
        <time>2019-08-05T06:32:18.000Z</time>
      </trkpt>
      <trkpt lat="42.653854" lon="1.401572">
        <ele>2777.28168887126</ele>
        <time>2019-08-05T06:32:24.000Z</time>
      </trkpt>
      <trkpt lat="42.6539" lon="1.401535">
        <ele>2778.48912695652</ele>
        <time>2019-08-05T06:32:31.000Z</time>
      </trkpt>
      <trkpt lat="42.653957" lon="1.401504">
        <ele>2780</ele>
        <time>2019-08-05T06:32:39.000Z</time>
      </trkpt>
      <trkpt lat="42.653997" lon="1.401474">
        <ele>2781</ele>
        <time>2019-08-05T06:32:44.000Z</time>
      </trkpt>
      <trkpt lat="42.654036" lon="1.401471">
        <ele>2783</ele>
        <time>2019-08-05T06:32:59.000Z</time>
      </trkpt>
      <trkpt lat="42.654059" lon="1.401498">
        <ele>2784.49073777778</ele>
        <time>2019-08-05T06:33:17.000Z</time>
      </trkpt>
      <trkpt lat="42.654094" lon="1.401493">
        <ele>2785</ele>
        <time>2019-08-05T06:34:02.000Z</time>
      </trkpt>
      <trkpt lat="42.654122" lon="1.401516">
        <ele>2788</ele>
        <time>2019-08-05T06:34:23.000Z</time>
      </trkpt>
      <trkpt lat="42.654129" lon="1.40156">
        <ele>2790</ele>
        <time>2019-08-05T06:34:42.000Z</time>
      </trkpt>
      <trkpt lat="42.654149" lon="1.401595">
        <ele>2792</ele>
        <time>2019-08-05T06:34:57.000Z</time>
      </trkpt>
      <trkpt lat="42.654185" lon="1.401586">
        <ele>2791.29487347796</ele>
        <time>2019-08-05T06:35:42.000Z</time>
      </trkpt>
      <trkpt lat="42.654184" lon="1.401532">
        <ele>2792</ele>
        <time>2019-08-05T06:36:04.000Z</time>
      </trkpt>
      <trkpt lat="42.654175" lon="1.401485">
        <ele>2791.59406128812</ele>
        <time>2019-08-05T06:36:14.000Z</time>
      </trkpt>
      <trkpt lat="42.654177" lon="1.40143">
        <ele>2790</ele>
        <time>2019-08-05T06:36:19.000Z</time>
      </trkpt>
      <trkpt lat="42.654188" lon="1.401391">
        <ele>2789</ele>
        <time>2019-08-05T06:36:23.000Z</time>
      </trkpt>
      <trkpt lat="42.654202" lon="1.401338">
        <ele>2789</ele>
        <time>2019-08-05T06:36:29.000Z</time>
      </trkpt>
      <trkpt lat="42.654229" lon="1.401371">
        <ele>2788.474992</ele>
        <time>2019-08-05T06:36:55.000Z</time>
      </trkpt>
      <trkpt lat="42.654228" lon="1.401417">
        <ele>2790.382607631</ele>
        <time>2019-08-05T06:37:05.000Z</time>
      </trkpt>
      <trkpt lat="42.65424" lon="1.401454">
        <ele>2793</ele>
        <time>2019-08-05T06:37:45.000Z</time>
      </trkpt>
      <trkpt lat="42.654264" lon="1.401491">
        <ele>2794</ele>
        <time>2019-08-05T06:38:03.000Z</time>
      </trkpt>
      <trkpt lat="42.654237" lon="1.401453">
        <ele>2794</ele>
        <time>2019-08-05T06:40:06.000Z</time>
      </trkpt>
      <trkpt lat="42.654218" lon="1.401407">
        <ele>2792</ele>
        <time>2019-08-05T06:40:20.000Z</time>
      </trkpt>
      <trkpt lat="42.654198" lon="1.40136">
        <ele>2790</ele>
        <time>2019-08-05T06:40:31.000Z</time>
      </trkpt>
      <trkpt lat="42.65418" lon="1.401318">
        <ele>2789</ele>
        <time>2019-08-05T06:40:35.000Z</time>
      </trkpt>
      <trkpt lat="42.654166" lon="1.401274">
        <ele>2789</ele>
        <time>2019-08-05T06:40:39.000Z</time>
      </trkpt>
      <trkpt lat="42.654163" lon="1.401227">
        <ele>2787</ele>
        <time>2019-08-05T06:40:47.000Z</time>
      </trkpt>
      <trkpt lat="42.654169" lon="1.401284">
        <ele>2787</ele>
        <time>2019-08-05T06:41:02.000Z</time>
      </trkpt>
      <trkpt lat="42.654188" lon="1.401328">
        <ele>2788</ele>
        <time>2019-08-05T06:41:07.000Z</time>
      </trkpt>
      <trkpt lat="42.654227" lon="1.401313">
        <ele>2788</ele>
        <time>2019-08-05T06:41:18.000Z</time>
      </trkpt>
      <trkpt lat="42.65427" lon="1.401296">
        <ele>2788</ele>
        <time>2019-08-05T06:41:36.000Z</time>
      </trkpt>
      <trkpt lat="42.654311" lon="1.401281">
        <ele>2788.96226437878</ele>
        <time>2019-08-05T06:41:41.000Z</time>
      </trkpt>
      <trkpt lat="42.654343" lon="1.401249">
        <ele>2790</ele>
        <time>2019-08-05T06:41:47.000Z</time>
      </trkpt>
      <trkpt lat="42.654379" lon="1.401234">
        <ele>2790</ele>
        <time>2019-08-05T06:41:51.000Z</time>
      </trkpt>
      <trkpt lat="42.654416" lon="1.401213">
        <ele>2790</ele>
        <time>2019-08-05T06:41:55.000Z</time>
      </trkpt>
      <trkpt lat="42.654456" lon="1.401189">
        <ele>2791</ele>
        <time>2019-08-05T06:41:59.000Z</time>
      </trkpt>
      <trkpt lat="42.654499" lon="1.401174">
        <ele>2791</ele>
        <time>2019-08-05T06:42:03.000Z</time>
      </trkpt>
      <trkpt lat="42.654528" lon="1.401144">
        <ele>2791</ele>
        <time>2019-08-05T06:42:15.000Z</time>
      </trkpt>
      <trkpt lat="42.654563" lon="1.401114">
        <ele>2791</ele>
        <time>2019-08-05T06:42:19.000Z</time>
      </trkpt>
      <trkpt lat="42.654604" lon="1.401102">
        <ele>2791</ele>
        <time>2019-08-05T06:42:23.000Z</time>
      </trkpt>
      <trkpt lat="42.65464" lon="1.401102">
        <ele>2792</ele>
        <time>2019-08-05T06:42:27.000Z</time>
      </trkpt>
      <trkpt lat="42.654681" lon="1.401093">
        <ele>2793</ele>
        <time>2019-08-05T06:42:31.000Z</time>
      </trkpt>
      <trkpt lat="42.654718" lon="1.401119">
        <ele>2794</ele>
        <time>2019-08-05T06:42:36.000Z</time>
      </trkpt>
      <trkpt lat="42.654733" lon="1.401171">
        <ele>2796</ele>
        <time>2019-08-05T06:42:40.000Z</time>
      </trkpt>
      <trkpt lat="42.654741" lon="1.401221">
        <ele>2797</ele>
        <time>2019-08-05T06:42:44.000Z</time>
      </trkpt>
      <trkpt lat="42.654758" lon="1.401265">
        <ele>2797.48672436057</ele>
        <time>2019-08-05T06:42:49.000Z</time>
      </trkpt>
      <trkpt lat="42.654764" lon="1.401306">
        <ele>2799.41111047901</ele>
        <time>2019-08-05T06:42:58.000Z</time>
      </trkpt>
      <trkpt lat="42.654774" lon="1.401352">
        <ele>2800</ele>
        <time>2019-08-05T06:43:04.000Z</time>
      </trkpt>
      <trkpt lat="42.654778" lon="1.40141">
        <ele>2801</ele>
        <time>2019-08-05T06:43:11.000Z</time>
      </trkpt>
      <trkpt lat="42.654791" lon="1.401457">
        <ele>2802</ele>
        <time>2019-08-05T06:43:17.000Z</time>
      </trkpt>
      <trkpt lat="42.654823" lon="1.401499">
        <ele>2803.4774732181</ele>
        <time>2019-08-05T06:43:25.000Z</time>
      </trkpt>
      <trkpt lat="42.654844" lon="1.40153">
        <ele>2805</ele>
        <time>2019-08-05T06:43:34.000Z</time>
      </trkpt>
      <trkpt lat="42.654875" lon="1.401555">
        <ele>2805</ele>
        <time>2019-08-05T06:43:49.000Z</time>
      </trkpt>
      <trkpt lat="42.654905" lon="1.40158">
        <ele>2806</ele>
        <time>2019-08-05T06:43:53.000Z</time>
      </trkpt>
      <trkpt lat="42.654936" lon="1.401611">
        <ele>2809</ele>
        <time>2019-08-05T06:43:59.000Z</time>
      </trkpt>
      <trkpt lat="42.654958" lon="1.401627">
        <ele>2811</ele>
        <time>2019-08-05T06:44:45.000Z</time>
      </trkpt>
      <trkpt lat="42.654979" lon="1.401658">
        <ele>2814</ele>
        <time>2019-08-05T06:45:05.000Z</time>
      </trkpt>
      <trkpt lat="42.65501" lon="1.401681">
        <ele>2815</ele>
        <time>2019-08-05T06:45:18.000Z</time>
      </trkpt>
      <trkpt lat="42.655032" lon="1.401638">
        <ele>2814</ele>
        <time>2019-08-05T06:45:31.000Z</time>
      </trkpt>
      <trkpt lat="42.655064" lon="1.401665">
        <ele>2813.44318545455</ele>
        <time>2019-08-05T06:45:36.000Z</time>
      </trkpt>
      <trkpt lat="42.655093" lon="1.401679">
        <ele>2816</ele>
        <time>2019-08-05T06:45:43.000Z</time>
      </trkpt>
      <trkpt lat="42.655125" lon="1.401678">
        <ele>2817</ele>
        <time>2019-08-05T06:46:02.000Z</time>
      </trkpt>
      <trkpt lat="42.655159" lon="1.401702">
        <ele>2817</ele>
        <time>2019-08-05T06:46:06.000Z</time>
      </trkpt>
      <trkpt lat="42.655197" lon="1.401732">
        <ele>2817</ele>
        <time>2019-08-05T06:46:11.000Z</time>
      </trkpt>
      <trkpt lat="42.655247" lon="1.401752">
        <ele>2817</ele>
        <time>2019-08-05T06:46:16.000Z</time>
      </trkpt>
      <trkpt lat="42.655289" lon="1.401776">
        <ele>2817</ele>
        <time>2019-08-05T06:46:20.000Z</time>
      </trkpt>
      <trkpt lat="42.655327" lon="1.401794">
        <ele>2817</ele>
        <time>2019-08-05T06:46:24.000Z</time>
      </trkpt>
      <trkpt lat="42.655367" lon="1.401808">
        <ele>2820</ele>
        <time>2019-08-05T06:46:32.000Z</time>
      </trkpt>
      <trkpt lat="42.655398" lon="1.401833">
        <ele>2820.35483870968</ele>
        <time>2019-08-05T06:46:36.000Z</time>
      </trkpt>
      <trkpt lat="42.655434" lon="1.401841">
        <ele>2821</ele>
        <time>2019-08-05T06:46:43.000Z</time>
      </trkpt>
      <trkpt lat="42.655469" lon="1.401826">
        <ele>2820</ele>
        <time>2019-08-05T06:46:53.000Z</time>
      </trkpt>
      <trkpt lat="42.655506" lon="1.401829">
        <ele>2821</ele>
        <time>2019-08-05T06:47:10.000Z</time>
      </trkpt>
      <trkpt lat="42.655545" lon="1.401823">
        <ele>2822.36000273066</ele>
        <time>2019-08-05T06:47:27.000Z</time>
      </trkpt>
      <trkpt lat="42.655576" lon="1.401813">
        <ele>2824.43564494462</ele>
        <time>2019-08-05T06:47:33.000Z</time>
      </trkpt>
      <trkpt lat="42.655611" lon="1.401792">
        <ele>2825</ele>
        <time>2019-08-05T06:47:39.000Z</time>
      </trkpt>
      <trkpt lat="42.655648" lon="1.401787">
        <ele>2825.39081051656</ele>
        <time>2019-08-05T06:47:43.000Z</time>
      </trkpt>
      <trkpt lat="42.655683" lon="1.401785">
        <ele>2827</ele>
        <time>2019-08-05T06:47:49.000Z</time>
      </trkpt>
      <trkpt lat="42.655717" lon="1.401797">
        <ele>2828</ele>
        <time>2019-08-05T06:47:55.000Z</time>
      </trkpt>
      <trkpt lat="42.655748" lon="1.401821">
        <ele>2829</ele>
        <time>2019-08-05T06:48:01.000Z</time>
      </trkpt>
      <trkpt lat="42.655777" lon="1.401853">
        <ele>2829</ele>
        <time>2019-08-05T06:48:10.000Z</time>
      </trkpt>
      <trkpt lat="42.655796" lon="1.401899">
        <ele>2826</ele>
        <time>2019-08-05T06:48:19.000Z</time>
      </trkpt>
      <trkpt lat="42.655816" lon="1.401939">
        <ele>2826</ele>
        <time>2019-08-05T06:48:23.000Z</time>
      </trkpt>
      <trkpt lat="42.655848" lon="1.401965">
        <ele>2826</ele>
        <time>2019-08-05T06:48:27.000Z</time>
      </trkpt>
      <trkpt lat="42.655883" lon="1.401977">
        <ele>2827</ele>
        <time>2019-08-05T06:48:32.000Z</time>
      </trkpt>
      <trkpt lat="42.655914" lon="1.402003">
        <ele>2826.29334061508</ele>
        <time>2019-08-05T06:49:14.000Z</time>
      </trkpt>
      <trkpt lat="42.655938" lon="1.402044">
        <ele>2827</ele>
        <time>2019-08-05T06:49:18.000Z</time>
      </trkpt>
      <trkpt lat="42.655945" lon="1.402102">
        <ele>2827</ele>
        <time>2019-08-05T06:49:34.000Z</time>
      </trkpt>
      <trkpt lat="42.65596" lon="1.402145">
        <ele>2826.50926222222</ele>
        <time>2019-08-05T06:49:37.000Z</time>
      </trkpt>
      <trkpt lat="42.655999" lon="1.402157">
        <ele>2826</ele>
        <time>2019-08-05T06:49:45.000Z</time>
      </trkpt>
      <trkpt lat="42.65603" lon="1.40218">
        <ele>2825</ele>
        <time>2019-08-05T06:49:50.000Z</time>
      </trkpt>
      <trkpt lat="42.656089" lon="1.402313">
        <ele>2822</ele>
        <time>2019-08-05T06:50:06.000Z</time>
      </trkpt>
      <trkpt lat="42.65612" lon="1.402463">
        <ele>2825</ele>
        <time>2019-08-05T06:50:16.000Z</time>
      </trkpt>
      <trkpt lat="42.656168" lon="1.402516">
        <ele>2825</ele>
        <time>2019-08-05T06:50:25.000Z</time>
      </trkpt>
      <trkpt lat="42.656201" lon="1.402671">
        <ele>2823</ele>
        <time>2019-08-05T06:50:39.000Z</time>
      </trkpt>
      <trkpt lat="42.656235" lon="1.402706">
        <ele>2822</ele>
        <time>2019-08-05T06:50:47.000Z</time>
      </trkpt>
      <trkpt lat="42.65628" lon="1.402706">
        <ele>2821</ele>
        <time>2019-08-05T06:50:50.000Z</time>
      </trkpt>
      <trkpt lat="42.656313" lon="1.402696">
        <ele>2820</ele>
        <time>2019-08-05T06:50:53.000Z</time>
      </trkpt>
      <trkpt lat="42.656338" lon="1.402738">
        <ele>2819</ele>
        <time>2019-08-05T06:50:57.000Z</time>
      </trkpt>
      <trkpt lat="42.656355" lon="1.402784">
        <ele>2819</ele>
        <time>2019-08-05T06:51:01.000Z</time>
      </trkpt>
      <trkpt lat="42.656464" lon="1.402825">
        <ele>2819</ele>
        <time>2019-08-05T06:51:08.000Z</time>
      </trkpt>
      <trkpt lat="42.656501" lon="1.402804">
        <ele>2819</ele>
        <time>2019-08-05T06:51:13.000Z</time>
      </trkpt>
      <trkpt lat="42.656546" lon="1.402827">
        <ele>2819</ele>
        <time>2019-08-05T06:51:18.000Z</time>
      </trkpt>
      <trkpt lat="42.656586" lon="1.402881">
        <ele>2819</ele>
        <time>2019-08-05T06:51:22.000Z</time>
      </trkpt>
      <trkpt lat="42.656627" lon="1.402909">
        <ele>2819.52884923077</ele>
        <time>2019-08-05T06:51:28.000Z</time>
      </trkpt>
      <trkpt lat="42.65665" lon="1.402939">
        <ele>2821</ele>
        <time>2019-08-05T06:51:36.000Z</time>
      </trkpt>
      <trkpt lat="42.656658" lon="1.402996">
        <ele>2821</ele>
        <time>2019-08-05T06:51:40.000Z</time>
      </trkpt>
      <trkpt lat="42.656678" lon="1.403046">
        <ele>2823</ele>
        <time>2019-08-05T06:51:44.000Z</time>
      </trkpt>
      <trkpt lat="42.656711" lon="1.403069">
        <ele>2823</ele>
        <time>2019-08-05T06:51:47.000Z</time>
      </trkpt>
      <trkpt lat="42.656735" lon="1.403119">
        <ele>2823</ele>
        <time>2019-08-05T06:51:51.000Z</time>
      </trkpt>
      <trkpt lat="42.656754" lon="1.403164">
        <ele>2823</ele>
        <time>2019-08-05T06:51:55.000Z</time>
      </trkpt>
      <trkpt lat="42.656794" lon="1.403174">
        <ele>2822</ele>
        <time>2019-08-05T06:52:03.000Z</time>
      </trkpt>
      <trkpt lat="42.656822" lon="1.403194">
        <ele>2821</ele>
        <time>2019-08-05T06:52:19.000Z</time>
      </trkpt>
      <trkpt lat="42.656833" lon="1.403248">
        <ele>2821</ele>
        <time>2019-08-05T06:52:23.000Z</time>
      </trkpt>
      <trkpt lat="42.656841" lon="1.403302">
        <ele>2822</ele>
        <time>2019-08-05T06:52:30.000Z</time>
      </trkpt>
      <trkpt lat="42.656848" lon="1.403354">
        <ele>2822</ele>
        <time>2019-08-05T06:52:35.000Z</time>
      </trkpt>
      <trkpt lat="42.656885" lon="1.403375">
        <ele>2824</ele>
        <time>2019-08-05T06:53:14.000Z</time>
      </trkpt>
      <trkpt lat="42.656904" lon="1.403433">
        <ele>2824</ele>
        <time>2019-08-05T06:53:31.000Z</time>
      </trkpt>
      <trkpt lat="42.656927" lon="1.403475">
        <ele>2826</ele>
        <time>2019-08-05T06:53:49.000Z</time>
      </trkpt>
      <trkpt lat="42.65696" lon="1.403457">
        <ele>2825</ele>
        <time>2019-08-05T06:54:08.000Z</time>
      </trkpt>
      <trkpt lat="42.656992" lon="1.403483">
        <ele>2826</ele>
        <time>2019-08-05T06:54:18.000Z</time>
      </trkpt>
      <trkpt lat="42.65703" lon="1.403465">
        <ele>2827</ele>
        <time>2019-08-05T06:54:24.000Z</time>
      </trkpt>
      <trkpt lat="42.65705" lon="1.403431">
        <ele>2829</ele>
        <time>2019-08-05T06:54:30.000Z</time>
      </trkpt>
      <trkpt lat="42.657079" lon="1.403453">
        <ele>2830</ele>
        <time>2019-08-05T06:54:34.000Z</time>
      </trkpt>
      <trkpt lat="42.657103" lon="1.403498">
        <ele>2830</ele>
        <time>2019-08-05T06:54:39.000Z</time>
      </trkpt>
      <trkpt lat="42.657123" lon="1.403542">
        <ele>2832</ele>
        <time>2019-08-05T06:54:45.000Z</time>
      </trkpt>
      <trkpt lat="42.65715" lon="1.403562">
        <ele>2833</ele>
        <time>2019-08-05T06:55:40.000Z</time>
      </trkpt>
      <trkpt lat="42.657184" lon="1.403548">
        <ele>2834</ele>
        <time>2019-08-05T06:55:51.000Z</time>
      </trkpt>
      <trkpt lat="42.657206" lon="1.403584">
        <ele>2837</ele>
        <time>2019-08-05T06:55:57.000Z</time>
      </trkpt>
      <trkpt lat="42.657235" lon="1.403604">
        <ele>2839.43103524375</ele>
        <time>2019-08-05T06:56:07.000Z</time>
      </trkpt>
      <trkpt lat="42.657268" lon="1.403598">
        <ele>2841</ele>
        <time>2019-08-05T06:56:13.000Z</time>
      </trkpt>
      <trkpt lat="42.657299" lon="1.403584">
        <ele>2844</ele>
        <time>2019-08-05T06:56:25.000Z</time>
      </trkpt>
      <trkpt lat="42.657322" lon="1.4036">
        <ele>2846</ele>
        <time>2019-08-05T06:56:35.000Z</time>
      </trkpt>
      <trkpt lat="42.657359" lon="1.403604">
        <ele>2848.46153846154</ele>
        <time>2019-08-05T06:56:43.000Z</time>
      </trkpt>
      <trkpt lat="42.657389" lon="1.403574">
        <ele>2848</ele>
        <time>2019-08-05T06:56:48.000Z</time>
      </trkpt>
      <trkpt lat="42.657419" lon="1.40355">
        <ele>2850.38596274547</ele>
        <time>2019-08-05T06:56:54.000Z</time>
      </trkpt>
      <trkpt lat="42.657454" lon="1.403553">
        <ele>2851</ele>
        <time>2019-08-05T06:57:02.000Z</time>
      </trkpt>
      <trkpt lat="42.657482" lon="1.403581">
        <ele>2853</ele>
        <time>2019-08-05T06:57:11.000Z</time>
      </trkpt>
      <trkpt lat="42.657493" lon="1.40362">
        <ele>2855</ele>
        <time>2019-08-05T06:57:26.000Z</time>
      </trkpt>
      <trkpt lat="42.657513" lon="1.403656">
        <ele>2857.54639025613</ele>
        <time>2019-08-05T06:57:54.000Z</time>
      </trkpt>
      <trkpt lat="42.657552" lon="1.403666">
        <ele>2862</ele>
        <time>2019-08-05T06:58:21.000Z</time>
      </trkpt>
      <trkpt lat="42.657571" lon="1.40369">
        <ele>2863</ele>
        <time>2019-08-05T06:58:25.000Z</time>
      </trkpt>
      <trkpt lat="42.657588" lon="1.40374">
        <ele>2864</ele>
        <time>2019-08-05T06:58:30.000Z</time>
      </trkpt>
      <trkpt lat="42.657607" lon="1.40378">
        <ele>2866</ele>
        <time>2019-08-05T06:58:35.000Z</time>
      </trkpt>
      <trkpt lat="42.657616" lon="1.403748">
        <ele>2868</ele>
        <time>2019-08-05T06:58:59.000Z</time>
      </trkpt>
      <trkpt lat="42.657643" lon="1.403716">
        <ele>2869</ele>
        <time>2019-08-05T06:59:26.000Z</time>
      </trkpt>
      <trkpt lat="42.657671" lon="1.403757">
        <ele>2872</ele>
        <time>2019-08-05T06:59:34.000Z</time>
      </trkpt>
      <trkpt lat="42.657708" lon="1.403769">
        <ele>2874</ele>
        <time>2019-08-05T06:59:39.000Z</time>
      </trkpt>
      <trkpt lat="42.657717" lon="1.403798">
        <ele>2875.63094857143</ele>
        <time>2019-08-05T06:59:43.000Z</time>
      </trkpt>
      <trkpt lat="42.657752" lon="1.403786">
        <ele>2877.40000301173</ele>
        <time>2019-08-05T06:59:51.000Z</time>
      </trkpt>
      <trkpt lat="42.657785" lon="1.403773">
        <ele>2879</ele>
        <time>2019-08-05T06:59:56.000Z</time>
      </trkpt>
      <trkpt lat="42.657792" lon="1.403713">
        <ele>2880</ele>
        <time>2019-08-05T07:00:07.000Z</time>
      </trkpt>
      <trkpt lat="42.657816" lon="1.403664">
        <ele>2880</ele>
        <time>2019-08-05T07:00:47.000Z</time>
      </trkpt>
      <trkpt lat="42.657838" lon="1.403605">
        <ele>2881</ele>
        <time>2019-08-05T07:00:55.000Z</time>
      </trkpt>
      <trkpt lat="42.657868" lon="1.403584">
        <ele>2884</ele>
        <time>2019-08-05T07:01:00.000Z</time>
      </trkpt>
      <trkpt lat="42.657907" lon="1.40359">
        <ele>2886.40707513508</ele>
        <time>2019-08-05T07:01:07.000Z</time>
      </trkpt>
      <trkpt lat="42.657932" lon="1.403624">
        <ele>2888</ele>
        <time>2019-08-05T07:01:13.000Z</time>
      </trkpt>
      <trkpt lat="42.657974" lon="1.40363">
        <ele>2890</ele>
        <time>2019-08-05T07:01:19.000Z</time>
      </trkpt>
      <trkpt lat="42.658011" lon="1.403634">
        <ele>2890</ele>
        <time>2019-08-05T07:01:23.000Z</time>
      </trkpt>
      <trkpt lat="42.658034" lon="1.403658">
        <ele>2893</ele>
        <time>2019-08-05T07:01:29.000Z</time>
      </trkpt>
      <trkpt lat="42.658062" lon="1.403694">
        <ele>2894.47321142857</ele>
        <time>2019-08-05T07:01:35.000Z</time>
      </trkpt>
      <trkpt lat="42.658093" lon="1.403712">
        <ele>2897.46153846154</ele>
        <time>2019-08-05T07:01:41.000Z</time>
      </trkpt>
      <trkpt lat="42.658128" lon="1.40374">
        <ele>2898</ele>
        <time>2019-08-05T07:01:48.000Z</time>
      </trkpt>
      <trkpt lat="42.658164" lon="1.403754">
        <ele>2900</ele>
        <time>2019-08-05T07:01:56.000Z</time>
      </trkpt>
      <trkpt lat="42.658193" lon="1.403752">
        <ele>2903.16394233796</ele>
        <time>2019-08-05T07:02:21.000Z</time>
      </trkpt>
      <trkpt lat="42.658209" lon="1.403793">
        <ele>2905</ele>
        <time>2019-08-05T07:02:29.000Z</time>
      </trkpt>
      <trkpt lat="42.658242" lon="1.40381">
        <ele>2907</ele>
        <time>2019-08-05T07:02:37.000Z</time>
      </trkpt>
      <trkpt lat="42.658273" lon="1.403807">
        <ele>2909</ele>
        <time>2019-08-05T07:02:47.000Z</time>
      </trkpt>
      <trkpt lat="42.658297" lon="1.403761">
        <ele>2907.24637331651</ele>
        <time>2019-08-05T07:02:52.000Z</time>
      </trkpt>
      <trkpt lat="42.658304" lon="1.403711">
        <ele>2909</ele>
        <time>2019-08-05T07:02:56.000Z</time>
      </trkpt>
      <trkpt lat="42.658316" lon="1.40366">
        <ele>2909</ele>
        <time>2019-08-05T07:03:00.000Z</time>
      </trkpt>
      <trkpt lat="42.658326" lon="1.403612">
        <ele>2911.27907184426</ele>
        <time>2019-08-05T07:03:07.000Z</time>
      </trkpt>
      <trkpt lat="42.65836" lon="1.403594">
        <ele>2912</ele>
        <time>2019-08-05T07:03:15.000Z</time>
      </trkpt>
      <trkpt lat="42.658393" lon="1.403591">
        <ele>2915.01785142857</ele>
        <time>2019-08-05T07:03:31.000Z</time>
      </trkpt>
      <trkpt lat="42.658424" lon="1.40357">
        <ele>2917</ele>
        <time>2019-08-05T07:03:38.000Z</time>
      </trkpt>
      <trkpt lat="42.658443" lon="1.403537">
        <ele>2918</ele>
        <time>2019-08-05T07:03:43.000Z</time>
      </trkpt>
      <trkpt lat="42.658473" lon="1.403505">
        <ele>2918</ele>
        <time>2019-08-05T07:03:56.000Z</time>
      </trkpt>
      <trkpt lat="42.658505" lon="1.403486">
        <ele>2919</ele>
        <time>2019-08-05T07:04:04.000Z</time>
      </trkpt>
      <trkpt lat="42.658536" lon="1.403467">
        <ele>2922</ele>
        <time>2019-08-05T07:04:14.000Z</time>
      </trkpt>
      <trkpt lat="42.658565" lon="1.403448">
        <ele>2925</ele>
        <time>2019-08-05T07:04:36.000Z</time>
      </trkpt>
      <trkpt lat="42.658589" lon="1.403439">
        <ele>2927</ele>
        <time>2019-08-05T07:04:46.000Z</time>
      </trkpt>
      <trkpt lat="42.658625" lon="1.403455">
        <ele>2929.02804028997</ele>
        <time>2019-08-05T07:04:57.000Z</time>
      </trkpt>
      <trkpt lat="42.65864" lon="1.403496">
        <ele>2931</ele>
        <time>2019-08-05T07:05:25.000Z</time>
      </trkpt>
      <trkpt lat="42.658666" lon="1.403476">
        <ele>2934</ele>
        <time>2019-08-05T07:05:48.000Z</time>
      </trkpt>
      <trkpt lat="42.658687" lon="1.403444">
        <ele>2935</ele>
        <time>2019-08-05T07:05:58.000Z</time>
      </trkpt>
      <trkpt lat="42.658706" lon="1.403409">
        <ele>2939</ele>
        <time>2019-08-05T07:06:10.000Z</time>
      </trkpt>
      <trkpt lat="42.658735" lon="1.40338">
        <ele>2940</ele>
        <time>2019-08-05T07:06:26.000Z</time>
      </trkpt>
      <trkpt lat="42.658758" lon="1.403339">
        <ele>2941</ele>
        <time>2019-08-05T07:06:37.000Z</time>
      </trkpt>
      <trkpt lat="42.658781" lon="1.403318">
        <ele>2944</ele>
        <time>2019-08-05T07:07:19.000Z</time>
      </trkpt>
      <trkpt lat="42.658812" lon="1.403306">
        <ele>2945.5531952558</ele>
        <time>2019-08-05T07:08:02.000Z</time>
      </trkpt>
      <trkpt lat="42.658844" lon="1.403275">
        <ele>2945.06210794953</ele>
        <time>2019-08-05T07:08:30.000Z</time>
      </trkpt>
      <trkpt lat="42.65887" lon="1.403242">
        <ele>2945</ele>
        <time>2019-08-05T07:08:44.000Z</time>
      </trkpt>
      <trkpt lat="42.658895" lon="1.403215">
        <ele>2947</ele>
        <time>2019-08-05T07:10:03.000Z</time>
      </trkpt>
      <trkpt lat="42.658932" lon="1.4032">
        <ele>2946</ele>
        <time>2019-08-05T07:11:35.000Z</time>
      </trkpt>
      <trkpt lat="42.658962" lon="1.403165">
        <ele>2945</ele>
        <time>2019-08-05T07:11:42.000Z</time>
      </trkpt>
      <trkpt lat="42.658991" lon="1.403169">
        <ele>2943</ele>
        <time>2019-08-05T07:12:08.000Z</time>
      </trkpt>
      <trkpt lat="42.659024" lon="1.403181">
        <ele>2941</ele>
        <time>2019-08-05T07:12:28.000Z</time>
      </trkpt>
      <trkpt lat="42.659068" lon="1.403183">
        <ele>2940.71621808621</ele>
        <time>2019-08-05T07:12:37.000Z</time>
      </trkpt>
      <trkpt lat="42.659102" lon="1.40318">
        <ele>2939</ele>
        <time>2019-08-05T07:12:46.000Z</time>
      </trkpt>
      <trkpt lat="42.659133" lon="1.403195">
        <ele>2936.5</ele>
        <time>2019-08-05T07:12:50.000Z</time>
      </trkpt>
      <trkpt lat="42.659165" lon="1.403217">
        <ele>2935.50943692415</ele>
        <time>2019-08-05T07:13:00.000Z</time>
      </trkpt>
      <trkpt lat="42.659194" lon="1.403226">
        <ele>2932.48113218939</ele>
        <time>2019-08-05T07:13:25.000Z</time>
      </trkpt>
      <trkpt lat="42.659228" lon="1.403204">
        <ele>2932</ele>
        <time>2019-08-05T07:13:35.000Z</time>
      </trkpt>
      <trkpt lat="42.659269" lon="1.403209">
        <ele>2930.38461033526</ele>
        <time>2019-08-05T07:13:41.000Z</time>
      </trkpt>
      <trkpt lat="42.659293" lon="1.403249">
        <ele>2928.48453458605</ele>
        <time>2019-08-05T07:13:45.000Z</time>
      </trkpt>
      <trkpt lat="42.659322" lon="1.403283">
        <ele>2928</ele>
        <time>2019-08-05T07:13:49.000Z</time>
      </trkpt>
      <trkpt lat="42.659355" lon="1.403314">
        <ele>2927</ele>
        <time>2019-08-05T07:13:54.000Z</time>
      </trkpt>
      <trkpt lat="42.659386" lon="1.40332">
        <ele>2925</ele>
        <time>2019-08-05T07:14:01.000Z</time>
      </trkpt>
      <trkpt lat="42.659432" lon="1.40333">
        <ele>2925</ele>
        <time>2019-08-05T07:14:04.000Z</time>
      </trkpt>
      <trkpt lat="42.659466" lon="1.403347">
        <ele>2924.46666504127</ele>
        <time>2019-08-05T07:14:08.000Z</time>
      </trkpt>
      <trkpt lat="42.659504" lon="1.403356">
        <ele>2925</ele>
        <time>2019-08-05T07:14:11.000Z</time>
      </trkpt>
      <trkpt lat="42.659548" lon="1.40336">
        <ele>2924</ele>
        <time>2019-08-05T07:14:16.000Z</time>
      </trkpt>
      <trkpt lat="42.659587" lon="1.403351">
        <ele>2924</ele>
        <time>2019-08-05T07:14:19.000Z</time>
      </trkpt>
      <trkpt lat="42.659632" lon="1.403341">
        <ele>2924</ele>
        <time>2019-08-05T07:14:23.000Z</time>
      </trkpt>
      <trkpt lat="42.659675" lon="1.403342">
        <ele>2922.5</ele>
        <time>2019-08-05T07:14:27.000Z</time>
      </trkpt>
      <trkpt lat="42.659712" lon="1.403356">
        <ele>2922</ele>
        <time>2019-08-05T07:14:31.000Z</time>
      </trkpt>
      <trkpt lat="42.659754" lon="1.403363">
        <ele>2921.42000102399</ele>
        <time>2019-08-05T07:14:35.000Z</time>
      </trkpt>
      <trkpt lat="42.659794" lon="1.403356">
        <ele>2924</ele>
        <time>2019-08-05T07:14:39.000Z</time>
      </trkpt>
      <trkpt lat="42.659829" lon="1.403347">
        <ele>2924</ele>
        <time>2019-08-05T07:14:42.000Z</time>
      </trkpt>
      <trkpt lat="42.659865" lon="1.403354">
        <ele>2922</ele>
        <time>2019-08-05T07:14:47.000Z</time>
      </trkpt>
      <trkpt lat="42.659904" lon="1.403367">
        <ele>2923</ele>
        <time>2019-08-05T07:14:51.000Z</time>
      </trkpt>
      <trkpt lat="42.659943" lon="1.403386">
        <ele>2923</ele>
        <time>2019-08-05T07:14:55.000Z</time>
      </trkpt>
      <trkpt lat="42.659976" lon="1.403395">
        <ele>2925</ele>
        <time>2019-08-05T07:14:59.000Z</time>
      </trkpt>
      <trkpt lat="42.660018" lon="1.403399">
        <ele>2925</ele>
        <time>2019-08-05T07:15:06.000Z</time>
      </trkpt>
      <trkpt lat="42.660054" lon="1.403404">
        <ele>2926</ele>
        <time>2019-08-05T07:15:10.000Z</time>
      </trkpt>
      <trkpt lat="42.660094" lon="1.403404">
        <ele>2926</ele>
        <time>2019-08-05T07:15:17.000Z</time>
      </trkpt>
      <trkpt lat="42.660138" lon="1.403415">
        <ele>2928</ele>
        <time>2019-08-05T07:15:23.000Z</time>
      </trkpt>
      <trkpt lat="42.660158" lon="1.403374">
        <ele>2928</ele>
        <time>2019-08-05T07:16:49.000Z</time>
      </trkpt>
      <trkpt lat="42.660188" lon="1.403342">
        <ele>2928</ele>
        <time>2019-08-05T07:16:53.000Z</time>
      </trkpt>
      <trkpt lat="42.660228" lon="1.403336">
        <ele>2928</ele>
        <time>2019-08-05T07:16:59.000Z</time>
      </trkpt>
      <trkpt lat="42.66026" lon="1.403308">
        <ele>2928</ele>
        <time>2019-08-05T07:17:24.000Z</time>
      </trkpt>
      <trkpt lat="42.660289" lon="1.403282">
        <ele>2927</ele>
        <time>2019-08-05T07:17:28.000Z</time>
      </trkpt>
      <trkpt lat="42.660326" lon="1.403269">
        <ele>2926</ele>
        <time>2019-08-05T07:17:33.000Z</time>
      </trkpt>
      <trkpt lat="42.660365" lon="1.403265">
        <ele>2927</ele>
        <time>2019-08-05T07:17:37.000Z</time>
      </trkpt>
      <trkpt lat="42.660402" lon="1.403249">
        <ele>2928</ele>
        <time>2019-08-05T07:17:42.000Z</time>
      </trkpt>
      <trkpt lat="42.660417" lon="1.403204">
        <ele>2927</ele>
        <time>2019-08-05T07:17:45.000Z</time>
      </trkpt>
      <trkpt lat="42.66045" lon="1.403166">
        <ele>2927</ele>
        <time>2019-08-05T07:17:48.000Z</time>
      </trkpt>
      <trkpt lat="42.66048" lon="1.403128">
        <ele>2928</ele>
        <time>2019-08-05T07:17:51.000Z</time>
      </trkpt>
      <trkpt lat="42.66051" lon="1.403103">
        <ele>2928</ele>
        <time>2019-08-05T07:17:54.000Z</time>
      </trkpt>
      <trkpt lat="42.66055" lon="1.403104">
        <ele>2930</ele>
        <time>2019-08-05T07:17:58.000Z</time>
      </trkpt>
      <trkpt lat="42.660585" lon="1.403087">
        <ele>2929</ele>
        <time>2019-08-05T07:18:05.000Z</time>
      </trkpt>
      <trkpt lat="42.660609" lon="1.403084">
        <ele>2931.62856724897</ele>
        <time>2019-08-05T07:18:10.000Z</time>
      </trkpt>
      <trkpt lat="42.660619" lon="1.403078">
        <ele>2928</ele>
        <time>2019-08-05T07:18:14.000Z</time>
      </trkpt>
      <trkpt lat="42.660641" lon="1.403037">
        <ele>2930</ele>
        <time>2019-08-05T07:18:21.000Z</time>
      </trkpt>
      <trkpt lat="42.660662" lon="1.402999">
        <ele>2930.59254954552</ele>
        <time>2019-08-05T07:18:29.000Z</time>
      </trkpt>
      <trkpt lat="42.660672" lon="1.402959">
        <ele>2929</ele>
        <time>2019-08-05T07:18:33.000Z</time>
      </trkpt>
      <trkpt lat="42.660698" lon="1.402909">
        <ele>2928.59097309984</ele>
        <time>2019-08-05T07:18:38.000Z</time>
      </trkpt>
      <trkpt lat="42.660726" lon="1.402873">
        <ele>2928</ele>
        <time>2019-08-05T07:18:46.000Z</time>
      </trkpt>
      <trkpt lat="42.660747" lon="1.402823">
        <ele>2928</ele>
        <time>2019-08-05T07:18:50.000Z</time>
      </trkpt>
      <trkpt lat="42.660774" lon="1.402779">
        <ele>2927</ele>
        <time>2019-08-05T07:18:55.000Z</time>
      </trkpt>
      <trkpt lat="42.660791" lon="1.402737">
        <ele>2927</ele>
        <time>2019-08-05T07:18:58.000Z</time>
      </trkpt>
      <trkpt lat="42.660793" lon="1.402675">
        <ele>2928</ele>
        <time>2019-08-05T07:19:04.000Z</time>
      </trkpt>
      <trkpt lat="42.660811" lon="1.40262">
        <ele>2924</ele>
        <time>2019-08-05T07:19:08.000Z</time>
      </trkpt>
      <trkpt lat="42.660814" lon="1.40256">
        <ele>2926</ele>
        <time>2019-08-05T07:19:12.000Z</time>
      </trkpt>
      <trkpt lat="42.660829" lon="1.402511">
        <ele>2925</ele>
        <time>2019-08-05T07:19:16.000Z</time>
      </trkpt>
      <trkpt lat="42.660848" lon="1.402471">
        <ele>2924.4300032</ele>
        <time>2019-08-05T07:19:20.000Z</time>
      </trkpt>
      <trkpt lat="42.660876" lon="1.402423">
        <ele>2926.5299968</ele>
        <time>2019-08-05T07:19:26.000Z</time>
      </trkpt>
      <trkpt lat="42.660891" lon="1.402376">
        <ele>2927</ele>
        <time>2019-08-05T07:19:30.000Z</time>
      </trkpt>
      <trkpt lat="42.660912" lon="1.40233">
        <ele>2928</ele>
        <time>2019-08-05T07:19:36.000Z</time>
      </trkpt>
      <trkpt lat="42.660939" lon="1.402291">
        <ele>2928</ele>
        <time>2019-08-05T07:19:42.000Z</time>
      </trkpt>
      <trkpt lat="42.660967" lon="1.402256">
        <ele>2931</ele>
        <time>2019-08-05T07:19:54.000Z</time>
      </trkpt>
      <trkpt lat="42.66096" lon="1.402205">
        <ele>2931</ele>
        <time>2019-08-05T07:20:00.000Z</time>
      </trkpt>
      <trkpt lat="42.661" lon="1.402213">
        <ele>2931.41644409235</ele>
        <time>2019-08-05T07:20:09.000Z</time>
      </trkpt>
      <trkpt lat="42.661031" lon="1.40219">
        <ele>2934</ele>
        <time>2019-08-05T07:20:20.000Z</time>
      </trkpt>
      <trkpt lat="42.661076" lon="1.402167">
        <ele>2935.31526859731</ele>
        <time>2019-08-05T07:20:37.000Z</time>
      </trkpt>
      <trkpt lat="42.661099" lon="1.402193">
        <ele>2938</ele>
        <time>2019-08-05T07:20:50.000Z</time>
      </trkpt>
      <trkpt lat="42.661126" lon="1.402212">
        <ele>2939</ele>
        <time>2019-08-05T07:21:07.000Z</time>
      </trkpt>
      <trkpt lat="42.661164" lon="1.402205">
        <ele>2942</ele>
        <time>2019-08-05T07:21:18.000Z</time>
      </trkpt>
      <trkpt lat="42.661195" lon="1.402215">
        <ele>2944</ele>
        <time>2019-08-05T07:21:26.000Z</time>
      </trkpt>
      <trkpt lat="42.661226" lon="1.402215">
        <ele>2946</ele>
        <time>2019-08-05T07:21:35.000Z</time>
      </trkpt>
      <trkpt lat="42.661247" lon="1.402229">
        <ele>2948</ele>
        <time>2019-08-05T07:21:42.000Z</time>
      </trkpt>
      <trkpt lat="42.661278" lon="1.402214">
        <ele>2950</ele>
        <time>2019-08-05T07:21:53.000Z</time>
      </trkpt>
      <trkpt lat="42.661313" lon="1.402233">
        <ele>2950</ele>
        <time>2019-08-05T07:22:06.000Z</time>
      </trkpt>
      <trkpt lat="42.661343" lon="1.402253">
        <ele>2954</ele>
        <time>2019-08-05T07:22:15.000Z</time>
      </trkpt>
      <trkpt lat="42.661369" lon="1.402281">
        <ele>2955</ele>
        <time>2019-08-05T07:22:23.000Z</time>
      </trkpt>
      <trkpt lat="42.661395" lon="1.402314">
        <ele>2956</ele>
        <time>2019-08-05T07:22:30.000Z</time>
      </trkpt>
      <trkpt lat="42.661417" lon="1.402346">
        <ele>2958</ele>
        <time>2019-08-05T07:22:37.000Z</time>
      </trkpt>
      <trkpt lat="42.661449" lon="1.402348">
        <ele>2960</ele>
        <time>2019-08-05T07:22:46.000Z</time>
      </trkpt>
      <trkpt lat="42.661478" lon="1.402315">
        <ele>2961</ele>
        <time>2019-08-05T07:22:57.000Z</time>
      </trkpt>
      <trkpt lat="42.661495" lon="1.40228">
        <ele>2964</ele>
        <time>2019-08-05T07:23:05.000Z</time>
      </trkpt>
      <trkpt lat="42.661527" lon="1.402276">
        <ele>2965</ele>
        <time>2019-08-05T07:23:13.000Z</time>
      </trkpt>
      <trkpt lat="42.661554" lon="1.402256">
        <ele>2968</ele>
        <time>2019-08-05T07:23:20.000Z</time>
      </trkpt>
      <trkpt lat="42.661588" lon="1.402243">
        <ele>2970</ele>
        <time>2019-08-05T07:23:43.000Z</time>
      </trkpt>
      <trkpt lat="42.661611" lon="1.402213">
        <ele>2971</ele>
        <time>2019-08-05T07:23:51.000Z</time>
      </trkpt>
      <trkpt lat="42.661637" lon="1.402187">
        <ele>2973</ele>
        <time>2019-08-05T07:23:59.000Z</time>
      </trkpt>
      <trkpt lat="42.661671" lon="1.402168">
        <ele>2973</ele>
        <time>2019-08-05T07:24:07.000Z</time>
      </trkpt>
      <trkpt lat="42.661691" lon="1.402129">
        <ele>2976</ele>
        <time>2019-08-05T07:24:16.000Z</time>
      </trkpt>
      <trkpt lat="42.661714" lon="1.402101">
        <ele>2977</ele>
        <time>2019-08-05T07:24:21.000Z</time>
      </trkpt>
      <trkpt lat="42.661751" lon="1.402081">
        <ele>2977</ele>
        <time>2019-08-05T07:24:28.000Z</time>
      </trkpt>
      <trkpt lat="42.661786" lon="1.4021">
        <ele>2977.97143762724</ele>
        <time>2019-08-05T07:24:35.000Z</time>
      </trkpt>
      <trkpt lat="42.661805" lon="1.402134">
        <ele>2980</ele>
        <time>2019-08-05T07:24:46.000Z</time>
      </trkpt>
      <trkpt lat="42.661837" lon="1.402155">
        <ele>2981</ele>
        <time>2019-08-05T07:24:52.000Z</time>
      </trkpt>
      <trkpt lat="42.661871" lon="1.40217">
        <ele>2982</ele>
        <time>2019-08-05T07:25:00.000Z</time>
      </trkpt>
      <trkpt lat="42.661904" lon="1.402172">
        <ele>2984</ele>
        <time>2019-08-05T07:25:08.000Z</time>
      </trkpt>
      <trkpt lat="42.661943" lon="1.402172">
        <ele>2986</ele>
        <time>2019-08-05T07:25:18.000Z</time>
      </trkpt>
      <trkpt lat="42.661974" lon="1.40215">
        <ele>2987</ele>
        <time>2019-08-05T07:25:25.000Z</time>
      </trkpt>
      <trkpt lat="42.662008" lon="1.40212">
        <ele>2989</ele>
        <time>2019-08-05T07:25:37.000Z</time>
      </trkpt>
      <trkpt lat="42.662035" lon="1.40209">
        <ele>2991</ele>
        <time>2019-08-05T07:25:43.000Z</time>
      </trkpt>
      <trkpt lat="42.662079" lon="1.402086">
        <ele>2992</ele>
        <time>2019-08-05T07:25:50.000Z</time>
      </trkpt>
      <trkpt lat="42.662104" lon="1.40205">
        <ele>2993</ele>
        <time>2019-08-05T07:25:56.000Z</time>
      </trkpt>
      <trkpt lat="42.662134" lon="1.402022">
        <ele>2993.43877591004</ele>
        <time>2019-08-05T07:26:01.000Z</time>
      </trkpt>
      <trkpt lat="42.662168" lon="1.402009">
        <ele>2995</ele>
        <time>2019-08-05T07:26:09.000Z</time>
      </trkpt>
      <trkpt lat="42.662201" lon="1.40199">
        <ele>2996</ele>
        <time>2019-08-05T07:26:14.000Z</time>
      </trkpt>
      <trkpt lat="42.662222" lon="1.401945">
        <ele>2997</ele>
        <time>2019-08-05T07:26:19.000Z</time>
      </trkpt>
      <trkpt lat="42.662246" lon="1.401906">
        <ele>2998</ele>
        <time>2019-08-05T07:26:26.000Z</time>
      </trkpt>
      <trkpt lat="42.662271" lon="1.401864">
        <ele>2998</ele>
        <time>2019-08-05T07:26:40.000Z</time>
      </trkpt>
      <trkpt lat="42.662301" lon="1.401838">
        <ele>3000</ele>
        <time>2019-08-05T07:26:57.000Z</time>
      </trkpt>
      <trkpt lat="42.662333" lon="1.401809">
        <ele>3000</ele>
        <time>2019-08-05T07:27:10.000Z</time>
      </trkpt>
      <trkpt lat="42.662369" lon="1.401792">
        <ele>3000</ele>
        <time>2019-08-05T07:27:16.000Z</time>
      </trkpt>
      <trkpt lat="42.662407" lon="1.401783">
        <ele>3000</ele>
        <time>2019-08-05T07:27:26.000Z</time>
      </trkpt>
      <trkpt lat="42.662443" lon="1.401767">
        <ele>3000</ele>
        <time>2019-08-05T07:27:47.000Z</time>
      </trkpt>
      <trkpt lat="42.662482" lon="1.401754">
        <ele>3002</ele>
        <time>2019-08-05T07:28:36.000Z</time>
      </trkpt>
      <trkpt lat="42.662518" lon="1.40174">
        <ele>3003</ele>
        <time>2019-08-05T07:28:40.000Z</time>
      </trkpt>
      <trkpt lat="42.662538" lon="1.401724">
        <ele>3005</ele>
        <time>2019-08-05T07:29:04.000Z</time>
      </trkpt>
      <trkpt lat="42.662542" lon="1.401717">
        <ele>3001</ele>
        <time>2019-08-05T07:30:23.000Z</time>
      </trkpt>
      <trkpt lat="42.662566" lon="1.401683">
        <ele>3002</ele>
        <time>2019-08-05T07:30:43.000Z</time>
      </trkpt>
      <trkpt lat="42.662592" lon="1.401647">
        <ele>3001</ele>
        <time>2019-08-05T07:31:13.000Z</time>
      </trkpt>
      <trkpt lat="42.662606" lon="1.401621">
        <ele>2998</ele>
        <time>2019-08-05T07:31:26.000Z</time>
      </trkpt>
      <trkpt lat="42.662636" lon="1.40161">
        <ele>2999.59090820937</ele>
        <time>2019-08-05T07:31:36.000Z</time>
      </trkpt>
      <trkpt lat="42.662671" lon="1.401602">
        <ele>2999</ele>
        <time>2019-08-05T07:31:44.000Z</time>
      </trkpt>
      <trkpt lat="42.66271" lon="1.401611">
        <ele>2999</ele>
        <time>2019-08-05T07:31:56.000Z</time>
      </trkpt>
      <trkpt lat="42.662718" lon="1.401562">
        <ele>2998.47572357057</ele>
        <time>2019-08-05T07:32:36.000Z</time>
      </trkpt>
      <trkpt lat="42.662741" lon="1.401548">
        <ele>2996</ele>
        <time>2019-08-05T07:32:45.000Z</time>
      </trkpt>
      <trkpt lat="42.662761" lon="1.401504">
        <ele>2996</ele>
        <time>2019-08-05T07:33:12.000Z</time>
      </trkpt>
      <trkpt lat="42.662798" lon="1.40148">
        <ele>2995</ele>
        <time>2019-08-05T07:33:18.000Z</time>
      </trkpt>
      <trkpt lat="42.662831" lon="1.401499">
        <ele>2995</ele>
        <time>2019-08-05T07:33:23.000Z</time>
      </trkpt>
      <trkpt lat="42.662868" lon="1.40148">
        <ele>2994.52726997684</ele>
        <time>2019-08-05T07:33:36.000Z</time>
      </trkpt>
      <trkpt lat="42.662891" lon="1.401432">
        <ele>2994</ele>
        <time>2019-08-05T07:33:43.000Z</time>
      </trkpt>
      <trkpt lat="42.662907" lon="1.401384">
        <ele>2990.5500032</ele>
        <time>2019-08-05T07:33:48.000Z</time>
      </trkpt>
      <trkpt lat="42.662944" lon="1.401379">
        <ele>2990</ele>
        <time>2019-08-05T07:33:52.000Z</time>
      </trkpt>
      <trkpt lat="42.662978" lon="1.401357">
        <ele>2987</ele>
        <time>2019-08-05T07:33:56.000Z</time>
      </trkpt>
      <trkpt lat="42.663002" lon="1.401316">
        <ele>2987</ele>
        <time>2019-08-05T07:34:02.000Z</time>
      </trkpt>
      <trkpt lat="42.663026" lon="1.401291">
        <ele>2984.166656</ele>
        <time>2019-08-05T07:34:21.000Z</time>
      </trkpt>
      <trkpt lat="42.663056" lon="1.401274">
        <ele>2983</ele>
        <time>2019-08-05T07:34:27.000Z</time>
      </trkpt>
      <trkpt lat="42.663088" lon="1.401243">
        <ele>2983</ele>
        <time>2019-08-05T07:34:34.000Z</time>
      </trkpt>
      <trkpt lat="42.66312" lon="1.401247">
        <ele>2981</ele>
        <time>2019-08-05T07:34:44.000Z</time>
      </trkpt>
      <trkpt lat="42.66316" lon="1.401238">
        <ele>2982</ele>
        <time>2019-08-05T07:34:49.000Z</time>
      </trkpt>
      <trkpt lat="42.663196" lon="1.401222">
        <ele>2981</ele>
        <time>2019-08-05T07:34:53.000Z</time>
      </trkpt>
      <trkpt lat="42.663236" lon="1.401226">
        <ele>2983</ele>
        <time>2019-08-05T07:35:01.000Z</time>
      </trkpt>
      <trkpt lat="42.663274" lon="1.401224">
        <ele>2982</ele>
        <time>2019-08-05T07:35:05.000Z</time>
      </trkpt>
      <trkpt lat="42.663312" lon="1.401202">
        <ele>2983</ele>
        <time>2019-08-05T07:35:10.000Z</time>
      </trkpt>
      <trkpt lat="42.663346" lon="1.401184">
        <ele>2983</ele>
        <time>2019-08-05T07:35:14.000Z</time>
      </trkpt>
      <trkpt lat="42.663382" lon="1.40118">
        <ele>2984.38157473684</ele>
        <time>2019-08-05T07:35:20.000Z</time>
      </trkpt>
      <trkpt lat="42.663412" lon="1.401154">
        <ele>2985</ele>
        <time>2019-08-05T07:35:25.000Z</time>
      </trkpt>
      <trkpt lat="42.663444" lon="1.401126">
        <ele>2985</ele>
        <time>2019-08-05T07:35:30.000Z</time>
      </trkpt>
      <trkpt lat="42.66348" lon="1.401088">
        <ele>2988</ele>
        <time>2019-08-05T07:35:36.000Z</time>
      </trkpt>
      <trkpt lat="42.663506" lon="1.401054">
        <ele>2989</ele>
        <time>2019-08-05T07:35:40.000Z</time>
      </trkpt>
      <trkpt lat="42.663538" lon="1.401072">
        <ele>2990</ele>
        <time>2019-08-05T07:35:45.000Z</time>
      </trkpt>
      <trkpt lat="42.663564" lon="1.401106">
        <ele>2990.41572823633</ele>
        <time>2019-08-05T07:35:50.000Z</time>
      </trkpt>
      <trkpt lat="42.663598" lon="1.401094">
        <ele>2993</ele>
        <time>2019-08-05T07:35:57.000Z</time>
      </trkpt>
      <trkpt lat="42.663634" lon="1.401093">
        <ele>2993</ele>
        <time>2019-08-05T07:36:04.000Z</time>
      </trkpt>
      <trkpt lat="42.663669" lon="1.401066">
        <ele>2994</ele>
        <time>2019-08-05T07:36:10.000Z</time>
      </trkpt>
      <trkpt lat="42.663704" lon="1.401057">
        <ele>2995</ele>
        <time>2019-08-05T07:36:15.000Z</time>
      </trkpt>
      <trkpt lat="42.663724" lon="1.401011">
        <ele>2996</ele>
        <time>2019-08-05T07:36:20.000Z</time>
      </trkpt>
      <trkpt lat="42.66374" lon="1.400967">
        <ele>2996</ele>
        <time>2019-08-05T07:36:25.000Z</time>
      </trkpt>
      <trkpt lat="42.66377" lon="1.400932">
        <ele>2996.24999529412</ele>
        <time>2019-08-05T07:36:29.000Z</time>
      </trkpt>
      <trkpt lat="42.663813" lon="1.400927">
        <ele>2997</ele>
        <time>2019-08-05T07:36:35.000Z</time>
      </trkpt>
      <trkpt lat="42.663838" lon="1.400903">
        <ele>2999.22728727273</ele>
        <time>2019-08-05T07:36:52.000Z</time>
      </trkpt>
      <trkpt lat="42.663852" lon="1.400858">
        <ele>3000</ele>
        <time>2019-08-05T07:37:00.000Z</time>
      </trkpt>
      <trkpt lat="42.663873" lon="1.400817">
        <ele>2998</ele>
        <time>2019-08-05T07:37:04.000Z</time>
      </trkpt>
      <trkpt lat="42.663908" lon="1.400792">
        <ele>3000</ele>
        <time>2019-08-05T07:37:08.000Z</time>
      </trkpt>
      <trkpt lat="42.663928" lon="1.400749">
        <ele>3001</ele>
        <time>2019-08-05T07:37:12.000Z</time>
      </trkpt>
      <trkpt lat="42.66395" lon="1.400696">
        <ele>3001</ele>
        <time>2019-08-05T07:37:16.000Z</time>
      </trkpt>
      <trkpt lat="42.663969" lon="1.400645">
        <ele>3000</ele>
        <time>2019-08-05T07:37:26.000Z</time>
      </trkpt>
      <trkpt lat="42.663986" lon="1.4006">
        <ele>3000</ele>
        <time>2019-08-05T07:37:30.000Z</time>
      </trkpt>
      <trkpt lat="42.66401" lon="1.400562">
        <ele>3000</ele>
        <time>2019-08-05T07:37:34.000Z</time>
      </trkpt>
      <trkpt lat="42.664033" lon="1.400506">
        <ele>3001</ele>
        <time>2019-08-05T07:37:39.000Z</time>
      </trkpt>
      <trkpt lat="42.664055" lon="1.400466">
        <ele>3002</ele>
        <time>2019-08-05T07:37:43.000Z</time>
      </trkpt>
      <trkpt lat="42.664075" lon="1.400423">
        <ele>3002</ele>
        <time>2019-08-05T07:37:52.000Z</time>
      </trkpt>
      <trkpt lat="42.664088" lon="1.400376">
        <ele>3004</ele>
        <time>2019-08-05T07:37:56.000Z</time>
      </trkpt>
      <trkpt lat="42.664114" lon="1.400349">
        <ele>3005.70588943937</ele>
        <time>2019-08-05T07:38:08.000Z</time>
      </trkpt>
      <trkpt lat="42.664139" lon="1.400315">
        <ele>3007</ele>
        <time>2019-08-05T07:38:13.000Z</time>
      </trkpt>
      <trkpt lat="42.664162" lon="1.400281">
        <ele>3010</ele>
        <time>2019-08-05T07:38:18.000Z</time>
      </trkpt>
      <trkpt lat="42.664195" lon="1.400253">
        <ele>3011.43038610477</ele>
        <time>2019-08-05T07:38:25.000Z</time>
      </trkpt>
      <trkpt lat="42.664201" lon="1.400198">
        <ele>3012</ele>
        <time>2019-08-05T07:38:29.000Z</time>
      </trkpt>
      <trkpt lat="42.664222" lon="1.400153">
        <ele>3012.16666666667</ele>
        <time>2019-08-05T07:38:35.000Z</time>
      </trkpt>
      <trkpt lat="42.664241" lon="1.400109">
        <ele>3013</ele>
        <time>2019-08-05T07:38:39.000Z</time>
      </trkpt>
      <trkpt lat="42.664257" lon="1.400061">
        <ele>3013</ele>
        <time>2019-08-05T07:38:43.000Z</time>
      </trkpt>
      <trkpt lat="42.664276" lon="1.400019">
        <ele>3013</ele>
        <time>2019-08-05T07:38:47.000Z</time>
      </trkpt>
      <trkpt lat="42.664298" lon="1.39999">
        <ele>3014.46739478261</ele>
        <time>2019-08-05T07:39:18.000Z</time>
      </trkpt>
      <trkpt lat="42.664329" lon="1.399962">
        <ele>3014</ele>
        <time>2019-08-05T07:39:23.000Z</time>
      </trkpt>
      <trkpt lat="42.664365" lon="1.399952">
        <ele>3016.53125333333</ele>
        <time>2019-08-05T07:39:29.000Z</time>
      </trkpt>
      <trkpt lat="42.664399" lon="1.399941">
        <ele>3018</ele>
        <time>2019-08-05T07:39:39.000Z</time>
      </trkpt>
      <trkpt lat="42.664424" lon="1.399966">
        <ele>3019</ele>
        <time>2019-08-05T07:39:44.000Z</time>
      </trkpt>
      <trkpt lat="42.664455" lon="1.399959">
        <ele>3022</ele>
        <time>2019-08-05T07:39:56.000Z</time>
      </trkpt>
      <trkpt lat="42.664492" lon="1.399954">
        <ele>3023.55339323218</ele>
        <time>2019-08-05T07:40:14.000Z</time>
      </trkpt>
      <trkpt lat="42.664502" lon="1.399913">
        <ele>3025.5</ele>
        <time>2019-08-05T07:40:40.000Z</time>
      </trkpt>
      <trkpt lat="42.664518" lon="1.39987">
        <ele>3027</ele>
        <time>2019-08-05T07:40:50.000Z</time>
      </trkpt>
      <trkpt lat="42.664526" lon="1.399822">
        <ele>3027</ele>
        <time>2019-08-05T07:41:00.000Z</time>
      </trkpt>
      <trkpt lat="42.664597" lon="1.399746">
        <ele>3034</ele>
        <time>2019-08-05T07:42:00.000Z</time>
      </trkpt>
      <trkpt lat="42.664693" lon="1.399722">
        <ele>3039</ele>
        <time>2019-08-05T07:42:37.000Z</time>
      </trkpt>
      <trkpt lat="42.664717" lon="1.39979">
        <ele>3042</ele>
        <time>2019-08-05T07:43:09.000Z</time>
      </trkpt>
      <trkpt lat="42.664796" lon="1.399866">
        <ele>3049</ele>
        <time>2019-08-05T07:44:10.000Z</time>
      </trkpt>
      <trkpt lat="42.664877" lon="1.39984">
        <ele>3056</ele>
        <time>2019-08-05T07:45:52.000Z</time>
      </trkpt>
      <trkpt lat="42.664956" lon="1.399883">
        <ele>3064</ele>
        <time>2019-08-05T07:47:19.000Z</time>
      </trkpt>
      <trkpt lat="42.665045" lon="1.399899">
        <ele>3070.27691459404</ele>
        <time>2019-08-05T07:48:18.000Z</time>
      </trkpt>
      <trkpt lat="42.665112" lon="1.399941">
        <ele>3078</ele>
        <time>2019-08-05T07:50:14.000Z</time>
      </trkpt>
      <trkpt lat="42.665209" lon="1.399951">
        <ele>3084</ele>
        <time>2019-08-05T07:51:35.000Z</time>
      </trkpt>
      <trkpt lat="42.665304" lon="1.399932">
        <ele>3090</ele>
        <time>2019-08-05T07:52:52.000Z</time>
      </trkpt>
      <trkpt lat="42.665389" lon="1.400014">
        <ele>3097</ele>
        <time>2019-08-05T07:53:45.000Z</time>
      </trkpt>
      <trkpt lat="42.665425" lon="1.40001">
        <ele>3098.17757255305</ele>
        <time>2019-08-05T07:53:54.000Z</time>
      </trkpt>
      <trkpt lat="42.665405" lon="1.399964">
        <ele>3099</ele>
        <time>2019-08-05T07:54:26.000Z</time>
      </trkpt>
      <trkpt lat="42.665395" lon="1.399917">
        <ele>3100</ele>
        <time>2019-08-05T07:54:45.000Z</time>
      </trkpt>
      <trkpt lat="42.66541" lon="1.399902">
        <ele>3104</ele>
        <time>2019-08-05T07:54:59.000Z</time>
      </trkpt>
      <trkpt lat="42.665436" lon="1.399876">
        <ele>3107</ele>
        <time>2019-08-05T07:55:23.000Z</time>
      </trkpt>
      <trkpt lat="42.665464" lon="1.399872">
        <ele>3110</ele>
        <time>2019-08-05T07:57:23.000Z</time>
      </trkpt>
      <trkpt lat="42.665491" lon="1.399849">
        <ele>3111</ele>
        <time>2019-08-05T07:59:02.000Z</time>
      </trkpt>
      <trkpt lat="42.665514" lon="1.3998">
        <ele>3110</ele>
        <time>2019-08-05T07:59:19.000Z</time>
      </trkpt>
      <trkpt lat="42.665525" lon="1.399755">
        <ele>3110.52892701865</ele>
        <time>2019-08-05T07:59:27.000Z</time>
      </trkpt>
      <trkpt lat="42.665547" lon="1.399718">
        <ele>3110</ele>
        <time>2019-08-05T07:59:37.000Z</time>
      </trkpt>
      <trkpt lat="42.66556" lon="1.39967">
        <ele>3109</ele>
        <time>2019-08-05T07:59:46.000Z</time>
      </trkpt>
      <trkpt lat="42.665582" lon="1.399631">
        <ele>3109</ele>
        <time>2019-08-05T08:00:18.000Z</time>
      </trkpt>
      <trkpt lat="42.665594" lon="1.399598">
        <ele>3107</ele>
        <time>2019-08-05T08:00:39.000Z</time>
      </trkpt>
      <trkpt lat="42.66562" lon="1.399554">
        <ele>3106.8484930763</ele>
        <time>2019-08-05T08:01:06.000Z</time>
      </trkpt>
      <trkpt lat="42.665638" lon="1.399514">
        <ele>3105</ele>
        <time>2019-08-05T08:01:17.000Z</time>
      </trkpt>
      <trkpt lat="42.665656" lon="1.399471">
        <ele>3103</ele>
        <time>2019-08-05T08:01:43.000Z</time>
      </trkpt>
      <trkpt lat="42.665672" lon="1.399431">
        <ele>3100.6292157455</ele>
        <time>2019-08-05T08:02:18.000Z</time>
      </trkpt>
      <trkpt lat="42.665688" lon="1.399381">
        <ele>3100</ele>
        <time>2019-08-05T08:02:24.000Z</time>
      </trkpt>
      <trkpt lat="42.665699" lon="1.399348">
        <ele>3098</ele>
        <time>2019-08-05T08:02:43.000Z</time>
      </trkpt>
      <trkpt lat="42.665726" lon="1.399312">
        <ele>3097</ele>
        <time>2019-08-05T08:03:05.000Z</time>
      </trkpt>
      <trkpt lat="42.665758" lon="1.399291">
        <ele>3095.59740346094</ele>
        <time>2019-08-05T08:03:10.000Z</time>
      </trkpt>
      <trkpt lat="42.665787" lon="1.399264">
        <ele>3095</ele>
        <time>2019-08-05T08:03:25.000Z</time>
      </trkpt>
      <trkpt lat="42.665815" lon="1.399226">
        <ele>3096</ele>
        <time>2019-08-05T08:03:53.000Z</time>
      </trkpt>
      <trkpt lat="42.665826" lon="1.399183">
        <ele>3094</ele>
        <time>2019-08-05T08:04:06.000Z</time>
      </trkpt>
      <trkpt lat="42.665852" lon="1.39915">
        <ele>3093</ele>
        <time>2019-08-05T08:04:29.000Z</time>
      </trkpt>
      <trkpt lat="42.665875" lon="1.399109">
        <ele>3092</ele>
        <time>2019-08-05T08:04:37.000Z</time>
      </trkpt>
      <trkpt lat="42.665905" lon="1.399077">
        <ele>3092</ele>
        <time>2019-08-05T08:04:44.000Z</time>
      </trkpt>
      <trkpt lat="42.665938" lon="1.399062">
        <ele>3093</ele>
        <time>2019-08-05T08:04:58.000Z</time>
      </trkpt>
      <trkpt lat="42.665948" lon="1.399016">
        <ele>3092</ele>
        <time>2019-08-05T08:05:26.000Z</time>
      </trkpt>
      <trkpt lat="42.665977" lon="1.398982">
        <ele>3093</ele>
        <time>2019-08-05T08:05:35.000Z</time>
      </trkpt>
      <trkpt lat="42.666005" lon="1.39895">
        <ele>3093</ele>
        <time>2019-08-05T08:05:42.000Z</time>
      </trkpt>
      <trkpt lat="42.666034" lon="1.398905">
        <ele>3093</ele>
        <time>2019-08-05T08:05:47.000Z</time>
      </trkpt>
      <trkpt lat="42.666072" lon="1.398887">
        <ele>3094</ele>
        <time>2019-08-05T08:05:54.000Z</time>
      </trkpt>
      <trkpt lat="42.666085" lon="1.398849">
        <ele>3096</ele>
        <time>2019-08-05T08:06:03.000Z</time>
      </trkpt>
      <trkpt lat="42.666118" lon="1.398825">
        <ele>3098</ele>
        <time>2019-08-05T08:06:16.000Z</time>
      </trkpt>
      <trkpt lat="42.666138" lon="1.398785">
        <ele>3098</ele>
        <time>2019-08-05T08:06:25.000Z</time>
      </trkpt>
      <trkpt lat="42.666161" lon="1.398751">
        <ele>3100</ele>
        <time>2019-08-05T08:06:36.000Z</time>
      </trkpt>
      <trkpt lat="42.666167" lon="1.398709">
        <ele>3096</ele>
        <time>2019-08-05T08:07:10.000Z</time>
      </trkpt>
      <trkpt lat="42.666203" lon="1.398664">
        <ele>3099</ele>
        <time>2019-08-05T08:07:32.000Z</time>
      </trkpt>
      <trkpt lat="42.666226" lon="1.398629">
        <ele>3100</ele>
        <time>2019-08-05T08:08:12.000Z</time>
      </trkpt>
      <trkpt lat="42.666246" lon="1.398621">
        <ele>3103</ele>
        <time>2019-08-05T08:12:43.000Z</time>
      </trkpt>
      <trkpt lat="42.666257" lon="1.398631">
        <ele>3107</ele>
        <time>2019-08-05T08:13:50.000Z</time>
      </trkpt>
      <trkpt lat="42.666294" lon="1.398606">
        <ele>3107</ele>
        <time>2019-08-05T08:14:27.000Z</time>
      </trkpt>
      <trkpt lat="42.666315" lon="1.398571">
        <ele>3110</ele>
        <time>2019-08-05T08:15:43.000Z</time>
      </trkpt>
      <trkpt lat="42.666352" lon="1.39853">
        <ele>3111</ele>
        <time>2019-08-05T08:16:53.000Z</time>
      </trkpt>
      <trkpt lat="42.666348" lon="1.398488">
        <ele>3113</ele>
        <time>2019-08-05T08:17:47.000Z</time>
      </trkpt>
      <trkpt lat="42.666358" lon="1.398456">
        <ele>3116</ele>
        <time>2019-08-05T08:19:03.000Z</time>
      </trkpt>
      <trkpt lat="42.66638" lon="1.398417">
        <ele>3116</ele>
        <time>2019-08-05T08:21:01.000Z</time>
      </trkpt>
      <trkpt lat="42.666392" lon="1.39836">
        <ele>3117</ele>
        <time>2019-08-05T08:24:07.000Z</time>
      </trkpt>
      <trkpt lat="42.666383" lon="1.39842">
        <ele>3116</ele>
        <time>2019-08-05T08:24:24.000Z</time>
      </trkpt>
      <trkpt lat="42.666404" lon="1.398408">
        <ele>3119</ele>
        <time>2019-08-05T08:31:19.000Z</time>
      </trkpt>
      <trkpt lat="42.666432" lon="1.398393">
        <ele>3122</ele>
        <time>2019-08-05T08:31:56.000Z</time>
      </trkpt>
      <trkpt lat="42.666459" lon="1.398355">
        <ele>3123</ele>
        <time>2019-08-05T08:32:07.000Z</time>
      </trkpt>
      <trkpt lat="42.666492" lon="1.398321">
        <ele>3125</ele>
        <time>2019-08-05T08:32:18.000Z</time>
      </trkpt>
      <trkpt lat="42.666516" lon="1.398292">
        <ele>3129</ele>
        <time>2019-08-05T08:32:37.000Z</time>
      </trkpt>
      <trkpt lat="42.666538" lon="1.39826">
        <ele>3131</ele>
        <time>2019-08-05T08:32:56.000Z</time>
      </trkpt>
      <trkpt lat="42.666559" lon="1.39823">
        <ele>3133</ele>
        <time>2019-08-05T08:33:16.000Z</time>
      </trkpt>
      <trkpt lat="42.666587" lon="1.398192">
        <ele>3134</ele>
        <time>2019-08-05T08:33:22.000Z</time>
      </trkpt>
      <trkpt lat="42.666615" lon="1.398156">
        <ele>3134</ele>
        <time>2019-08-05T08:33:26.000Z</time>
      </trkpt>
      <trkpt lat="42.666648" lon="1.398112">
        <ele>3136</ele>
        <time>2019-08-05T08:33:32.000Z</time>
      </trkpt>
      <trkpt lat="42.666677" lon="1.398071">
        <ele>3136</ele>
        <time>2019-08-05T08:33:36.000Z</time>
      </trkpt>
      <trkpt lat="42.666707" lon="1.398033">
        <ele>3137</ele>
        <time>2019-08-05T08:33:41.000Z</time>
      </trkpt>
      <trkpt lat="42.666744" lon="1.398032">
        <ele>3137</ele>
        <time>2019-08-05T08:33:45.000Z</time>
      </trkpt>
      <trkpt lat="42.666783" lon="1.398015">
        <ele>3138</ele>
        <time>2019-08-05T08:33:50.000Z</time>
      </trkpt>
      <trkpt lat="42.666813" lon="1.397991">
        <ele>3140.1000064</ele>
        <time>2019-08-05T08:33:54.000Z</time>
      </trkpt>
      <trkpt lat="42.666846" lon="1.397963">
        <ele>3141</ele>
        <time>2019-08-05T08:34:01.000Z</time>
      </trkpt>
      <trkpt lat="42.666882" lon="1.397947">
        <ele>3141</ele>
        <time>2019-08-05T08:34:07.000Z</time>
      </trkpt>
      <trkpt lat="42.66692" lon="1.397946">
        <ele>3141</ele>
        <time>2019-08-05T08:34:14.000Z</time>
      </trkpt>
      <trkpt lat="42.666939" lon="1.397906">
        <ele>3142</ele>
        <time>2019-08-05T08:35:06.000Z</time>
      </trkpt>
      <trkpt lat="42.666929" lon="1.397923">
        <ele>3143.00188206461</ele>
        <time>2019-08-05T08:36:45.000Z</time>
      </trkpt>
      <trkpt lat="42.667032" lon="1.39786">
        <ele>3143.99915631204</ele>
        <time>2019-08-05T08:44:26.000Z</time>
      </trkpt>
      <trkpt lat="42.667036" lon="1.397855">
        <ele>3144.83333333333</ele>
        <time>2019-08-05T08:44:27.000Z</time>
      </trkpt>
      <trkpt lat="42.667058" lon="1.397829">
        <ele>3146</ele>
        <time>2019-08-05T08:46:44.000Z</time>
      </trkpt>
      <trkpt lat="42.66705" lon="1.397828">
        <ele>3149</ele>
        <time>2019-08-05T08:48:41.000Z</time>
      </trkpt>
      <trkpt lat="42.66705" lon="1.397828">
        <ele>3149</ele>
        <time>2019-08-05T08:48:42.000Z</time>
      </trkpt>
      <trkpt lat="42.667056" lon="1.397824">
        <ele>3151</ele>
        <time>2019-08-05T08:49:14.000Z</time>
      </trkpt>
      <trkpt lat="42.667075" lon="1.3978">
        <ele>3147</ele>
        <time>2019-08-05T08:49:52.000Z</time>
      </trkpt>
      <trkpt lat="42.667097" lon="1.397773">
        <ele>3145</ele>
        <time>2019-08-05T08:50:50.000Z</time>
      </trkpt>
      <trkpt lat="42.667135" lon="1.397758">
        <ele>3144.58823529412</ele>
        <time>2019-08-05T08:50:54.000Z</time>
      </trkpt>
      <trkpt lat="42.667168" lon="1.397733">
        <ele>3144</ele>
        <time>2019-08-05T08:50:57.000Z</time>
      </trkpt>
      <trkpt lat="42.667203" lon="1.397701">
        <ele>3141.4777779358</ele>
        <time>2019-08-05T08:51:02.000Z</time>
      </trkpt>
      <trkpt lat="42.667237" lon="1.397684">
        <ele>3140</ele>
        <time>2019-08-05T08:51:12.000Z</time>
      </trkpt>
      <trkpt lat="42.667253" lon="1.397654">
        <ele>3138</ele>
        <time>2019-08-05T08:51:23.000Z</time>
      </trkpt>
      <trkpt lat="42.667273" lon="1.397695">
        <ele>3136</ele>
        <time>2019-08-05T08:51:38.000Z</time>
      </trkpt>
      <trkpt lat="42.667299" lon="1.397694">
        <ele>3135</ele>
        <time>2019-08-05T08:51:42.000Z</time>
      </trkpt>
      <trkpt lat="42.667333" lon="1.397695">
        <ele>3132</ele>
        <time>2019-08-05T08:51:49.000Z</time>
      </trkpt>
      <trkpt lat="42.667334" lon="1.397744">
        <ele>3130</ele>
        <time>2019-08-05T08:51:57.000Z</time>
      </trkpt>
      <trkpt lat="42.667352" lon="1.397749">
        <ele>3128</ele>
        <time>2019-08-05T08:52:04.000Z</time>
      </trkpt>
      <trkpt lat="42.667396" lon="1.397758">
        <ele>3125.41025304408</ele>
        <time>2019-08-05T08:52:11.000Z</time>
      </trkpt>
      <trkpt lat="42.667451" lon="1.397706">
        <ele>3122</ele>
        <time>2019-08-05T08:52:21.000Z</time>
      </trkpt>
      <trkpt lat="42.667461" lon="1.39766">
        <ele>3121</ele>
        <time>2019-08-05T08:52:28.000Z</time>
      </trkpt>
      <trkpt lat="42.667479" lon="1.397611">
        <ele>3120.49484699331</ele>
        <time>2019-08-05T08:52:34.000Z</time>
      </trkpt>
      <trkpt lat="42.667498" lon="1.39757">
        <ele>3119.5</ele>
        <time>2019-08-05T08:52:40.000Z</time>
      </trkpt>
      <trkpt lat="42.667535" lon="1.397544">
        <ele>3118</ele>
        <time>2019-08-05T08:52:44.000Z</time>
      </trkpt>
      <trkpt lat="42.667566" lon="1.397536">
        <ele>3117</ele>
        <time>2019-08-05T08:52:49.000Z</time>
      </trkpt>
      <trkpt lat="42.667603" lon="1.397544">
        <ele>3116</ele>
        <time>2019-08-05T08:52:56.000Z</time>
      </trkpt>
      <trkpt lat="42.667639" lon="1.397557">
        <ele>3114.58242021015</ele>
        <time>2019-08-05T08:53:03.000Z</time>
      </trkpt>
      <trkpt lat="42.667666" lon="1.397516">
        <ele>3113</ele>
        <time>2019-08-05T08:53:11.000Z</time>
      </trkpt>
      <trkpt lat="42.667672" lon="1.397454">
        <ele>3111</ele>
        <time>2019-08-05T08:53:14.000Z</time>
      </trkpt>
      <trkpt lat="42.667675" lon="1.397396">
        <ele>3107</ele>
        <time>2019-08-05T08:53:16.000Z</time>
      </trkpt>
      <trkpt lat="42.667685" lon="1.397371">
        <ele>3107</ele>
        <time>2019-08-05T08:53:17.000Z</time>
      </trkpt>
      <trkpt lat="42.667715" lon="1.39734">
        <ele>3108.53487229862</ele>
        <time>2019-08-05T08:53:19.000Z</time>
      </trkpt>
      <trkpt lat="42.667727" lon="1.397298">
        <ele>3110</ele>
        <time>2019-08-05T08:53:22.000Z</time>
      </trkpt>
      <trkpt lat="42.667765" lon="1.397279">
        <ele>3111</ele>
        <time>2019-08-05T08:53:26.000Z</time>
      </trkpt>
      <trkpt lat="42.667796" lon="1.397251">
        <ele>3111</ele>
        <time>2019-08-05T08:53:31.000Z</time>
      </trkpt>
      <trkpt lat="42.66783" lon="1.397222">
        <ele>3110</ele>
        <time>2019-08-05T08:53:36.000Z</time>
      </trkpt>
      <trkpt lat="42.667841" lon="1.397169">
        <ele>3111</ele>
        <time>2019-08-05T08:53:41.000Z</time>
      </trkpt>
      <trkpt lat="42.667863" lon="1.39713">
        <ele>3111</ele>
        <time>2019-08-05T08:53:44.000Z</time>
      </trkpt>
      <trkpt lat="42.667878" lon="1.397088">
        <ele>3112</ele>
        <time>2019-08-05T08:53:48.000Z</time>
      </trkpt>
      <trkpt lat="42.667905" lon="1.397051">
        <ele>3113</ele>
        <time>2019-08-05T08:53:54.000Z</time>
      </trkpt>
      <trkpt lat="42.667919" lon="1.397007">
        <ele>3115</ele>
        <time>2019-08-05T08:54:05.000Z</time>
      </trkpt>
      <trkpt lat="42.667952" lon="1.396985">
        <ele>3115</ele>
        <time>2019-08-05T08:54:09.000Z</time>
      </trkpt>
      <trkpt lat="42.667986" lon="1.396959">
        <ele>3117</ele>
        <time>2019-08-05T08:54:14.000Z</time>
      </trkpt>
      <trkpt lat="42.668005" lon="1.396917">
        <ele>3118</ele>
        <time>2019-08-05T08:54:19.000Z</time>
      </trkpt>
      <trkpt lat="42.668021" lon="1.396895">
        <ele>3121</ele>
        <time>2019-08-05T08:54:43.000Z</time>
      </trkpt>
      <trkpt lat="42.668045" lon="1.396854">
        <ele>3121</ele>
        <time>2019-08-05T08:55:13.000Z</time>
      </trkpt>
      <trkpt lat="42.66805" lon="1.396835">
        <ele>3125</ele>
        <time>2019-08-05T08:57:17.000Z</time>
      </trkpt>
      <trkpt lat="42.668031" lon="1.396886">
        <ele>3125</ele>
        <time>2019-08-05T08:58:23.000Z</time>
      </trkpt>
      <trkpt lat="42.66801" lon="1.396935">
        <ele>3125</ele>
        <time>2019-08-05T08:58:27.000Z</time>
      </trkpt>
      <trkpt lat="42.667981" lon="1.396973">
        <ele>3123.57479918161</ele>
        <time>2019-08-05T08:58:30.000Z</time>
      </trkpt>
      <trkpt lat="42.66795" lon="1.396995">
        <ele>3121</ele>
        <time>2019-08-05T08:58:33.000Z</time>
      </trkpt>
      <trkpt lat="42.66793" lon="1.39701">
        <ele>3119</ele>
        <time>2019-08-05T08:58:38.000Z</time>
      </trkpt>
      <trkpt lat="42.667906" lon="1.397063">
        <ele>3118</ele>
        <time>2019-08-05T08:58:43.000Z</time>
      </trkpt>
      <trkpt lat="42.66788" lon="1.397098">
        <ele>3117</ele>
        <time>2019-08-05T08:58:46.000Z</time>
      </trkpt>
      <trkpt lat="42.667851" lon="1.397145">
        <ele>3116</ele>
        <time>2019-08-05T08:58:49.000Z</time>
      </trkpt>
      <trkpt lat="42.667826" lon="1.397199">
        <ele>3115.00917129537</ele>
        <time>2019-08-05T08:58:52.000Z</time>
      </trkpt>
      <trkpt lat="42.667812" lon="1.397244">
        <ele>3113</ele>
        <time>2019-08-05T08:58:55.000Z</time>
      </trkpt>
      <trkpt lat="42.667793" lon="1.397298">
        <ele>3110</ele>
        <time>2019-08-05T08:58:58.000Z</time>
      </trkpt>
      <trkpt lat="42.667775" lon="1.397337">
        <ele>3108</ele>
        <time>2019-08-05T08:59:00.000Z</time>
      </trkpt>
      <trkpt lat="42.66775" lon="1.397377">
        <ele>3106</ele>
        <time>2019-08-05T08:59:02.000Z</time>
      </trkpt>
      <trkpt lat="42.667727" lon="1.39741">
        <ele>3106</ele>
        <time>2019-08-05T08:59:04.000Z</time>
      </trkpt>
      <trkpt lat="42.667713" lon="1.397457">
        <ele>3104</ele>
        <time>2019-08-05T08:59:07.000Z</time>
      </trkpt>
      <trkpt lat="42.667726" lon="1.397508">
        <ele>3103</ele>
        <time>2019-08-05T08:59:10.000Z</time>
      </trkpt>
      <trkpt lat="42.667753" lon="1.397539">
        <ele>3100</ele>
        <time>2019-08-05T08:59:13.000Z</time>
      </trkpt>
      <trkpt lat="42.667783" lon="1.397543">
        <ele>3096.3663219527</ele>
        <time>2019-08-05T08:59:15.000Z</time>
      </trkpt>
      <trkpt lat="42.66781" lon="1.397555">
        <ele>3094.50494886385</ele>
        <time>2019-08-05T08:59:17.000Z</time>
      </trkpt>
      <trkpt lat="42.667828" lon="1.3976">
        <ele>3092.97675180092</ele>
        <time>2019-08-05T08:59:19.000Z</time>
      </trkpt>
      <trkpt lat="42.667864" lon="1.397593">
        <ele>3091</ele>
        <time>2019-08-05T08:59:22.000Z</time>
      </trkpt>
      <trkpt lat="42.667902" lon="1.397618">
        <ele>3089.46535117735</ele>
        <time>2019-08-05T08:59:25.000Z</time>
      </trkpt>
      <trkpt lat="42.667888" lon="1.397682">
        <ele>3089</ele>
        <time>2019-08-05T08:59:28.000Z</time>
      </trkpt>
      <trkpt lat="42.667882" lon="1.397744">
        <ele>3085</ele>
        <time>2019-08-05T08:59:31.000Z</time>
      </trkpt>
      <trkpt lat="42.667877" lon="1.397789">
        <ele>3084.47368421053</ele>
        <time>2019-08-05T08:59:33.000Z</time>
      </trkpt>
      <trkpt lat="42.667968" lon="1.397826">
        <ele>3076.48864</ele>
        <time>2019-08-05T08:59:41.000Z</time>
      </trkpt>
      <trkpt lat="42.667972" lon="1.397878">
        <ele>3074.45715644086</ele>
        <time>2019-08-05T08:59:43.000Z</time>
      </trkpt>
      <trkpt lat="42.667972" lon="1.397937">
        <ele>3072.51110763454</ele>
        <time>2019-08-05T08:59:45.000Z</time>
      </trkpt>
      <trkpt lat="42.667976" lon="1.397993">
        <ele>3070</ele>
        <time>2019-08-05T08:59:48.000Z</time>
      </trkpt>
      <trkpt lat="42.667976" lon="1.398062">
        <ele>3068</ele>
        <time>2019-08-05T08:59:51.000Z</time>
      </trkpt>
      <trkpt lat="42.667983" lon="1.398114">
        <ele>3065.94380923617</ele>
        <time>2019-08-05T08:59:54.000Z</time>
      </trkpt>
      <trkpt lat="42.667974" lon="1.398166">
        <ele>3064.48888541237</ele>
        <time>2019-08-05T08:59:56.000Z</time>
      </trkpt>
      <trkpt lat="42.668023" lon="1.398269">
        <ele>3058</ele>
        <time>2019-08-05T09:00:02.000Z</time>
      </trkpt>
      <trkpt lat="42.668034" lon="1.398319">
        <ele>3056.42424751758</ele>
        <time>2019-08-05T09:00:04.000Z</time>
      </trkpt>
      <trkpt lat="42.668042" lon="1.398358">
        <ele>3053</ele>
        <time>2019-08-05T09:00:07.000Z</time>
      </trkpt>
      <trkpt lat="42.668049" lon="1.398404">
        <ele>3048.45631236874</ele>
        <time>2019-08-05T09:00:11.000Z</time>
      </trkpt>
      <trkpt lat="42.668075" lon="1.398408">
        <ele>3046</ele>
        <time>2019-08-05T09:00:15.000Z</time>
      </trkpt>
      <trkpt lat="42.668114" lon="1.398468">
        <ele>3044</ele>
        <time>2019-08-05T09:00:18.000Z</time>
      </trkpt>
      <trkpt lat="42.668129" lon="1.398508">
        <ele>3044</ele>
        <time>2019-08-05T09:00:19.000Z</time>
      </trkpt>
      <trkpt lat="42.668148" lon="1.398582">
        <ele>3042</ele>
        <time>2019-08-05T09:00:21.000Z</time>
      </trkpt>
      <trkpt lat="42.668163" lon="1.398649">
        <ele>3041</ele>
        <time>2019-08-05T09:00:23.000Z</time>
      </trkpt>
      <trkpt lat="42.668174" lon="1.398709">
        <ele>3040.05263157895</ele>
        <time>2019-08-05T09:00:25.000Z</time>
      </trkpt>
      <trkpt lat="42.668215" lon="1.398849">
        <ele>3036</ele>
        <time>2019-08-05T09:00:30.000Z</time>
      </trkpt>
      <trkpt lat="42.668286" lon="1.398965">
        <ele>3034</ele>
        <time>2019-08-05T09:00:36.000Z</time>
      </trkpt>
      <trkpt lat="42.668372" lon="1.399027">
        <ele>3030</ele>
        <time>2019-08-05T09:00:44.000Z</time>
      </trkpt>
      <trkpt lat="42.668411" lon="1.399045">
        <ele>3025</ele>
        <time>2019-08-05T09:00:48.000Z</time>
      </trkpt>
      <trkpt lat="42.668465" lon="1.399088">
        <ele>3024.42574709148</ele>
        <time>2019-08-05T09:00:54.000Z</time>
      </trkpt>
      <trkpt lat="42.668452" lon="1.399173">
        <ele>3022.46667045923</ele>
        <time>2019-08-05T09:00:57.000Z</time>
      </trkpt>
      <trkpt lat="42.668405" lon="1.399299">
        <ele>3019</ele>
        <time>2019-08-05T09:01:02.000Z</time>
      </trkpt>
      <trkpt lat="42.668401" lon="1.39941">
        <ele>3017</ele>
        <time>2019-08-05T09:01:06.000Z</time>
      </trkpt>
      <trkpt lat="42.668387" lon="1.399561">
        <ele>3015.42000102399</ele>
        <time>2019-08-05T09:01:11.000Z</time>
      </trkpt>
      <trkpt lat="42.668374" lon="1.399708">
        <ele>3013.83999795197</ele>
        <time>2019-08-05T09:01:16.000Z</time>
      </trkpt>
      <trkpt lat="42.668379" lon="1.39986">
        <ele>3009</ele>
        <time>2019-08-05T09:01:21.000Z</time>
      </trkpt>
      <trkpt lat="42.668351" lon="1.400016">
        <ele>3008</ele>
        <time>2019-08-05T09:01:27.000Z</time>
      </trkpt>
      <trkpt lat="42.668402" lon="1.400137">
        <ele>3003.41999897599</ele>
        <time>2019-08-05T09:01:32.000Z</time>
      </trkpt>
      <trkpt lat="42.668498" lon="1.40022">
        <ele>3004</ele>
        <time>2019-08-05T09:01:37.000Z</time>
      </trkpt>
      <trkpt lat="42.668537" lon="1.400263">
        <ele>3004</ele>
        <time>2019-08-05T09:01:40.000Z</time>
      </trkpt>
      <trkpt lat="42.668588" lon="1.400297">
        <ele>3003.4411761015</ele>
        <time>2019-08-05T09:01:43.000Z</time>
      </trkpt>
      <trkpt lat="42.668629" lon="1.400326">
        <ele>3003</ele>
        <time>2019-08-05T09:01:45.000Z</time>
      </trkpt>
      <trkpt lat="42.668668" lon="1.400359">
        <ele>3003</ele>
        <time>2019-08-05T09:01:47.000Z</time>
      </trkpt>
      <trkpt lat="42.668698" lon="1.400389">
        <ele>3003</ele>
        <time>2019-08-05T09:01:49.000Z</time>
      </trkpt>
      <trkpt lat="42.668745" lon="1.400427">
        <ele>3003</ele>
        <time>2019-08-05T09:01:52.000Z</time>
      </trkpt>
      <trkpt lat="42.668793" lon="1.400449">
        <ele>3001</ele>
        <time>2019-08-05T09:01:55.000Z</time>
      </trkpt>
      <trkpt lat="42.668842" lon="1.400456">
        <ele>3001</ele>
        <time>2019-08-05T09:01:58.000Z</time>
      </trkpt>
      <trkpt lat="42.668878" lon="1.400458">
        <ele>3000.69892369522</ele>
        <time>2019-08-05T09:02:00.000Z</time>
      </trkpt>
      <trkpt lat="42.668996" lon="1.400452">
        <ele>2999</ele>
        <time>2019-08-05T09:02:08.000Z</time>
      </trkpt>
      <trkpt lat="42.669042" lon="1.40046">
        <ele>2999</ele>
        <time>2019-08-05T09:02:11.000Z</time>
      </trkpt>
      <trkpt lat="42.669047" lon="1.40051">
        <ele>2998.48275659134</ele>
        <time>2019-08-05T09:02:14.000Z</time>
      </trkpt>
      <trkpt lat="42.669054" lon="1.400577">
        <ele>2998</ele>
        <time>2019-08-05T09:02:17.000Z</time>
      </trkpt>
      <trkpt lat="42.669059" lon="1.40067">
        <ele>2998</ele>
        <time>2019-08-05T09:02:20.000Z</time>
      </trkpt>
      <trkpt lat="42.669062" lon="1.400726">
        <ele>2997.52475096951</ele>
        <time>2019-08-05T09:02:22.000Z</time>
      </trkpt>
      <trkpt lat="42.669064" lon="1.400778">
        <ele>2996.41999897599</ele>
        <time>2019-08-05T09:02:24.000Z</time>
      </trkpt>
      <trkpt lat="42.669136" lon="1.400894">
        <ele>2992.43299200338</ele>
        <time>2019-08-05T09:02:31.000Z</time>
      </trkpt>
      <trkpt lat="42.669225" lon="1.401006">
        <ele>2987.57533622065</ele>
        <time>2019-08-05T09:02:38.000Z</time>
      </trkpt>
      <trkpt lat="42.669303" lon="1.401123">
        <ele>2987</ele>
        <time>2019-08-05T09:02:44.000Z</time>
      </trkpt>
      <trkpt lat="42.669379" lon="1.401241">
        <ele>2983.41999897599</ele>
        <time>2019-08-05T09:02:50.000Z</time>
      </trkpt>
      <trkpt lat="42.669475" lon="1.401288">
        <ele>2981</ele>
        <time>2019-08-05T09:02:57.000Z</time>
      </trkpt>
      <trkpt lat="42.669557" lon="1.401383">
        <ele>2978</ele>
        <time>2019-08-05T09:03:03.000Z</time>
      </trkpt>
      <trkpt lat="42.669636" lon="1.401496">
        <ele>2975</ele>
        <time>2019-08-05T09:03:10.000Z</time>
      </trkpt>
      <trkpt lat="42.669714" lon="1.401601">
        <ele>2973</ele>
        <time>2019-08-05T09:03:17.000Z</time>
      </trkpt>
      <trkpt lat="42.669781" lon="1.401713">
        <ele>2971</ele>
        <time>2019-08-05T09:03:22.000Z</time>
      </trkpt>
      <trkpt lat="42.66986" lon="1.401804">
        <ele>2967</ele>
        <time>2019-08-05T09:04:13.000Z</time>
      </trkpt>
      <trkpt lat="42.669951" lon="1.40189">
        <ele>2962</ele>
        <time>2019-08-05T09:04:21.000Z</time>
      </trkpt>
      <trkpt lat="42.670057" lon="1.401961">
        <ele>2959</ele>
        <time>2019-08-05T09:04:30.000Z</time>
      </trkpt>
      <trkpt lat="42.670142" lon="1.402048">
        <ele>2957.44615657277</ele>
        <time>2019-08-05T09:04:37.000Z</time>
      </trkpt>
      <trkpt lat="42.670247" lon="1.402083">
        <ele>2951</ele>
        <time>2019-08-05T09:04:50.000Z</time>
      </trkpt>
      <trkpt lat="42.670365" lon="1.402065">
        <ele>2950</ele>
        <time>2019-08-05T09:04:58.000Z</time>
      </trkpt>
      <trkpt lat="42.670488" lon="1.402102">
        <ele>2949</ele>
        <time>2019-08-05T09:05:05.000Z</time>
      </trkpt>
      <trkpt lat="42.670611" lon="1.402144">
        <ele>2949</ele>
        <time>2019-08-05T09:05:12.000Z</time>
      </trkpt>
      <trkpt lat="42.670719" lon="1.40216">
        <ele>2949</ele>
        <time>2019-08-05T09:05:17.000Z</time>
      </trkpt>
      <trkpt lat="42.670815" lon="1.402241">
        <ele>2949</ele>
        <time>2019-08-05T09:05:23.000Z</time>
      </trkpt>
      <trkpt lat="42.670919" lon="1.402308">
        <ele>2952.27396899986</ele>
        <time>2019-08-05T09:05:33.000Z</time>
      </trkpt>
      <trkpt lat="42.67096" lon="1.402328">
        <ele>2955.57999897601</ele>
        <time>2019-08-05T09:05:39.000Z</time>
      </trkpt>
      <trkpt lat="42.67098" lon="1.402365">
        <ele>2959.41333583643</ele>
        <time>2019-08-05T09:05:48.000Z</time>
      </trkpt>
      <trkpt lat="42.670984" lon="1.402411">
        <ele>2961.55768615385</ele>
        <time>2019-08-05T09:05:54.000Z</time>
      </trkpt>
      <trkpt lat="42.671016" lon="1.402385">
        <ele>2963</ele>
        <time>2019-08-05T09:06:01.000Z</time>
      </trkpt>
      <trkpt lat="42.67105" lon="1.402393">
        <ele>2963</ele>
        <time>2019-08-05T09:06:09.000Z</time>
      </trkpt>
      <trkpt lat="42.671089" lon="1.402414">
        <ele>2964</ele>
        <time>2019-08-05T09:06:17.000Z</time>
      </trkpt>
      <trkpt lat="42.67111" lon="1.402461">
        <ele>2966</ele>
        <time>2019-08-05T09:06:24.000Z</time>
      </trkpt>
      <trkpt lat="42.671118" lon="1.402512">
        <ele>2968</ele>
        <time>2019-08-05T09:06:31.000Z</time>
      </trkpt>
      <trkpt lat="42.671137" lon="1.402532">
        <ele>2970</ele>
        <time>2019-08-05T09:06:39.000Z</time>
      </trkpt>
      <trkpt lat="42.671165" lon="1.402515">
        <ele>2972</ele>
        <time>2019-08-05T09:06:48.000Z</time>
      </trkpt>
      <trkpt lat="42.6712" lon="1.402532">
        <ele>2974.52273454545</ele>
        <time>2019-08-05T09:06:56.000Z</time>
      </trkpt>
      <trkpt lat="42.671229" lon="1.402529">
        <ele>2976</ele>
        <time>2019-08-05T09:07:05.000Z</time>
      </trkpt>
      <trkpt lat="42.671258" lon="1.402504">
        <ele>2977.55237654058</ele>
        <time>2019-08-05T09:07:12.000Z</time>
      </trkpt>
      <trkpt lat="42.67129" lon="1.402522">
        <ele>2980</ele>
        <time>2019-08-05T09:07:19.000Z</time>
      </trkpt>
      <trkpt lat="42.671318" lon="1.402555">
        <ele>2980</ele>
        <time>2019-08-05T09:07:24.000Z</time>
      </trkpt>
      <trkpt lat="42.671345" lon="1.40258">
        <ele>2984.01176080835</ele>
        <time>2019-08-05T09:07:29.000Z</time>
      </trkpt>
      <trkpt lat="42.671381" lon="1.402598">
        <ele>2986</ele>
        <time>2019-08-05T09:07:41.000Z</time>
      </trkpt>
      <trkpt lat="42.67141" lon="1.40258">
        <ele>2987</ele>
        <time>2019-08-05T09:07:47.000Z</time>
      </trkpt>
      <trkpt lat="42.671442" lon="1.402564">
        <ele>2990</ele>
        <time>2019-08-05T09:07:58.000Z</time>
      </trkpt>
      <trkpt lat="42.67148" lon="1.402574">
        <ele>2991</ele>
        <time>2019-08-05T09:08:03.000Z</time>
      </trkpt>
      <trkpt lat="42.671521" lon="1.402577">
        <ele>2993</ele>
        <time>2019-08-05T09:08:09.000Z</time>
      </trkpt>
      <trkpt lat="42.671557" lon="1.402594">
        <ele>2993</ele>
        <time>2019-08-05T09:08:14.000Z</time>
      </trkpt>
      <trkpt lat="42.671591" lon="1.402602">
        <ele>2995</ele>
        <time>2019-08-05T09:08:20.000Z</time>
      </trkpt>
      <trkpt lat="42.671633" lon="1.402611">
        <ele>2996.55237654058</ele>
        <time>2019-08-05T09:08:26.000Z</time>
      </trkpt>
      <trkpt lat="42.671658" lon="1.402631">
        <ele>2998</ele>
        <time>2019-08-05T09:08:32.000Z</time>
      </trkpt>
      <trkpt lat="42.671696" lon="1.402639">
        <ele>2999.50435198789</ele>
        <time>2019-08-05T09:08:37.000Z</time>
      </trkpt>
      <trkpt lat="42.671698" lon="1.402612">
        <ele>3002</ele>
        <time>2019-08-05T09:08:43.000Z</time>
      </trkpt>
      <trkpt lat="42.671727" lon="1.402631">
        <ele>3004</ele>
        <time>2019-08-05T09:08:52.000Z</time>
      </trkpt>
      <trkpt lat="42.671726" lon="1.402671">
        <ele>3006</ele>
        <time>2019-08-05T09:08:56.000Z</time>
      </trkpt>
      <trkpt lat="42.671732" lon="1.402717">
        <ele>3008.56250666667</ele>
        <time>2019-08-05T09:09:06.000Z</time>
      </trkpt>
      <trkpt lat="42.671746" lon="1.40276">
        <ele>3010</ele>
        <time>2019-08-05T09:09:12.000Z</time>
      </trkpt>
      <trkpt lat="42.671764" lon="1.402798">
        <ele>3012</ele>
        <time>2019-08-05T09:09:17.000Z</time>
      </trkpt>
      <trkpt lat="42.67178" lon="1.402847">
        <ele>3013</ele>
        <time>2019-08-05T09:09:24.000Z</time>
      </trkpt>
      <trkpt lat="42.671784" lon="1.402897">
        <ele>3014.58000102401</ele>
        <time>2019-08-05T09:09:30.000Z</time>
      </trkpt>
      <trkpt lat="42.671764" lon="1.402926">
        <ele>3017.36567100022</ele>
        <time>2019-08-05T09:09:35.000Z</time>
      </trkpt>
      <trkpt lat="42.671752" lon="1.402981">
        <ele>3019</ele>
        <time>2019-08-05T09:09:42.000Z</time>
      </trkpt>
      <trkpt lat="42.67174" lon="1.403028">
        <ele>3020.58000102401</ele>
        <time>2019-08-05T09:09:46.000Z</time>
      </trkpt>
      <trkpt lat="42.671738" lon="1.40308">
        <ele>3022.83335111111</ele>
        <time>2019-08-05T09:09:50.000Z</time>
      </trkpt>
      <trkpt lat="42.671746" lon="1.403122">
        <ele>3023.84000204797</ele>
        <time>2019-08-05T09:09:53.000Z</time>
      </trkpt>
      <trkpt lat="42.67175" lon="1.40316">
        <ele>3021</ele>
        <time>2019-08-05T09:09:56.000Z</time>
      </trkpt>
      <trkpt lat="42.671752" lon="1.403215">
        <ele>3020.57575992656</ele>
        <time>2019-08-05T09:10:00.000Z</time>
      </trkpt>
      <trkpt lat="42.671746" lon="1.403265">
        <ele>3023</ele>
        <time>2019-08-05T09:10:04.000Z</time>
      </trkpt>
      <trkpt lat="42.671746" lon="1.403331">
        <ele>3023</ele>
        <time>2019-08-05T09:10:08.000Z</time>
      </trkpt>
      <trkpt lat="42.671756" lon="1.403384">
        <ele>3024</ele>
        <time>2019-08-05T09:10:12.000Z</time>
      </trkpt>
      <trkpt lat="42.671768" lon="1.403435">
        <ele>3024</ele>
        <time>2019-08-05T09:10:16.000Z</time>
      </trkpt>
      <trkpt lat="42.671767" lon="1.403487">
        <ele>3025</ele>
        <time>2019-08-05T09:10:20.000Z</time>
      </trkpt>
      <trkpt lat="42.671767" lon="1.403543">
        <ele>3027</ele>
        <time>2019-08-05T09:10:25.000Z</time>
      </trkpt>
      <trkpt lat="42.671757" lon="1.403579">
        <ele>3029</ele>
        <time>2019-08-05T09:10:30.000Z</time>
      </trkpt>
      <trkpt lat="42.671758" lon="1.403627">
        <ele>3028</ele>
        <time>2019-08-05T09:10:35.000Z</time>
      </trkpt>
      <trkpt lat="42.671765" lon="1.403676">
        <ele>3030.41665777778</ele>
        <time>2019-08-05T09:10:41.000Z</time>
      </trkpt>
      <trkpt lat="42.671783" lon="1.403717">
        <ele>3032</ele>
        <time>2019-08-05T09:10:46.000Z</time>
      </trkpt>
      <trkpt lat="42.671793" lon="1.403762">
        <ele>3033</ele>
        <time>2019-08-05T09:10:51.000Z</time>
      </trkpt>
      <trkpt lat="42.671806" lon="1.403804">
        <ele>3035</ele>
        <time>2019-08-05T09:10:58.000Z</time>
      </trkpt>
      <trkpt lat="42.671823" lon="1.403848">
        <ele>3037</ele>
        <time>2019-08-05T09:11:03.000Z</time>
      </trkpt>
      <trkpt lat="42.671835" lon="1.403892">
        <ele>3038</ele>
        <time>2019-08-05T09:11:08.000Z</time>
      </trkpt>
      <trkpt lat="42.671838" lon="1.403943">
        <ele>3039</ele>
        <time>2019-08-05T09:11:14.000Z</time>
      </trkpt>
      <trkpt lat="42.67184" lon="1.403991">
        <ele>3040</ele>
        <time>2019-08-05T09:11:20.000Z</time>
      </trkpt>
      <trkpt lat="42.67186" lon="1.404037">
        <ele>3043</ele>
        <time>2019-08-05T09:11:27.000Z</time>
      </trkpt>
      <trkpt lat="42.671879" lon="1.404074">
        <ele>3044</ele>
        <time>2019-08-05T09:11:32.000Z</time>
      </trkpt>
      <trkpt lat="42.671856" lon="1.404111">
        <ele>3045.50588040417</ele>
        <time>2019-08-05T09:11:39.000Z</time>
      </trkpt>
      <trkpt lat="42.671862" lon="1.404165">
        <ele>3046</ele>
        <time>2019-08-05T09:11:46.000Z</time>
      </trkpt>
      <trkpt lat="42.671854" lon="1.404209">
        <ele>3049</ele>
        <time>2019-08-05T09:11:53.000Z</time>
      </trkpt>
      <trkpt lat="42.671854" lon="1.404258">
        <ele>3049</ele>
        <time>2019-08-05T09:12:02.000Z</time>
      </trkpt>
      <trkpt lat="42.671868" lon="1.404298">
        <ele>3051</ele>
        <time>2019-08-05T09:12:09.000Z</time>
      </trkpt>
      <trkpt lat="42.671892" lon="1.404337">
        <ele>3052</ele>
        <time>2019-08-05T09:12:16.000Z</time>
      </trkpt>
      <trkpt lat="42.671922" lon="1.404376">
        <ele>3055</ele>
        <time>2019-08-05T09:12:21.000Z</time>
      </trkpt>
      <trkpt lat="42.671942" lon="1.404422">
        <ele>3055</ele>
        <time>2019-08-05T09:12:26.000Z</time>
      </trkpt>
      <trkpt lat="42.67196" lon="1.404475">
        <ele>3055</ele>
        <time>2019-08-05T09:12:31.000Z</time>
      </trkpt>
      <trkpt lat="42.671972" lon="1.404518">
        <ele>3057</ele>
        <time>2019-08-05T09:12:37.000Z</time>
      </trkpt>
      <trkpt lat="42.671984" lon="1.404575">
        <ele>3059</ele>
        <time>2019-08-05T09:12:43.000Z</time>
      </trkpt>
      <trkpt lat="42.67199" lon="1.404626">
        <ele>3059</ele>
        <time>2019-08-05T09:12:47.000Z</time>
      </trkpt>
      <trkpt lat="42.67197" lon="1.404671">
        <ele>3060.55238199727</ele>
        <time>2019-08-05T09:12:53.000Z</time>
      </trkpt>
      <trkpt lat="42.671975" lon="1.404728">
        <ele>3061</ele>
        <time>2019-08-05T09:12:57.000Z</time>
      </trkpt>
      <trkpt lat="42.671974" lon="1.404781">
        <ele>3061</ele>
        <time>2019-08-05T09:13:00.000Z</time>
      </trkpt>
      <trkpt lat="42.671973" lon="1.404837">
        <ele>3061</ele>
        <time>2019-08-05T09:13:04.000Z</time>
      </trkpt>
      <trkpt lat="42.671971" lon="1.404894">
        <ele>3062</ele>
        <time>2019-08-05T09:13:08.000Z</time>
      </trkpt>
      <trkpt lat="42.671977" lon="1.404941">
        <ele>3062</ele>
        <time>2019-08-05T09:13:11.000Z</time>
      </trkpt>
      <trkpt lat="42.671979" lon="1.405004">
        <ele>3062</ele>
        <time>2019-08-05T09:13:15.000Z</time>
      </trkpt>
      <trkpt lat="42.671986" lon="1.405059">
        <ele>3063</ele>
        <time>2019-08-05T09:13:19.000Z</time>
      </trkpt>
      <trkpt lat="42.671979" lon="1.405118">
        <ele>3064</ele>
        <time>2019-08-05T09:13:25.000Z</time>
      </trkpt>
      <trkpt lat="42.671974" lon="1.405172">
        <ele>3064</ele>
        <time>2019-08-05T09:13:41.000Z</time>
      </trkpt>
      <trkpt lat="42.671978" lon="1.405219">
        <ele>3063.324992</ele>
        <time>2019-08-05T09:13:46.000Z</time>
      </trkpt>
      <trkpt lat="42.671989" lon="1.405273">
        <ele>3064</ele>
        <time>2019-08-05T09:13:51.000Z</time>
      </trkpt>
      <trkpt lat="42.671988" lon="1.405331">
        <ele>3062</ele>
        <time>2019-08-05T09:13:54.000Z</time>
      </trkpt>
      <trkpt lat="42.671998" lon="1.405395">
        <ele>3061</ele>
        <time>2019-08-05T09:13:57.000Z</time>
      </trkpt>
      <trkpt lat="42.672005" lon="1.40545">
        <ele>3061.75590360717</ele>
        <time>2019-08-05T09:14:01.000Z</time>
      </trkpt>
      <trkpt lat="42.671994" lon="1.405488">
        <ele>3063</ele>
        <time>2019-08-05T09:14:04.000Z</time>
      </trkpt>
      <trkpt lat="42.671992" lon="1.405546">
        <ele>3063</ele>
        <time>2019-08-05T09:14:08.000Z</time>
      </trkpt>
      <trkpt lat="42.671979" lon="1.405604">
        <ele>3064</ele>
        <time>2019-08-05T09:14:13.000Z</time>
      </trkpt>
      <trkpt lat="42.671979" lon="1.405652">
        <ele>3066.49038769231</ele>
        <time>2019-08-05T09:14:16.000Z</time>
      </trkpt>
      <trkpt lat="42.671967" lon="1.405702">
        <ele>3067.95889954586</ele>
        <time>2019-08-05T09:14:23.000Z</time>
      </trkpt>
      <trkpt lat="42.67197" lon="1.405756">
        <ele>3067</ele>
        <time>2019-08-05T09:14:26.000Z</time>
      </trkpt>
      <trkpt lat="42.67196" lon="1.405814">
        <ele>3067</ele>
        <time>2019-08-05T09:14:30.000Z</time>
      </trkpt>
      <trkpt lat="42.67194" lon="1.405866">
        <ele>3067</ele>
        <time>2019-08-05T09:14:34.000Z</time>
      </trkpt>
      <trkpt lat="42.671938" lon="1.405922">
        <ele>3067</ele>
        <time>2019-08-05T09:14:38.000Z</time>
      </trkpt>
      <trkpt lat="42.671927" lon="1.405986">
        <ele>3068</ele>
        <time>2019-08-05T09:14:42.000Z</time>
      </trkpt>
      <trkpt lat="42.671923" lon="1.406036">
        <ele>3070</ele>
        <time>2019-08-05T09:14:45.000Z</time>
      </trkpt>
      <trkpt lat="42.671915" lon="1.406098">
        <ele>3069.49038769231</ele>
        <time>2019-08-05T09:14:49.000Z</time>
      </trkpt>
      <trkpt lat="42.671913" lon="1.40615">
        <ele>3069.2533365191</ele>
        <time>2019-08-05T09:14:53.000Z</time>
      </trkpt>
      <trkpt lat="42.671909" lon="1.4062">
        <ele>3071</ele>
        <time>2019-08-05T09:14:57.000Z</time>
      </trkpt>
      <trkpt lat="42.671923" lon="1.406241">
        <ele>3072</ele>
        <time>2019-08-05T09:15:14.000Z</time>
      </trkpt>
      <trkpt lat="42.671935" lon="1.406298">
        <ele>3072</ele>
        <time>2019-08-05T09:15:26.000Z</time>
      </trkpt>
      <trkpt lat="42.671953" lon="1.406342">
        <ele>3073</ele>
        <time>2019-08-05T09:15:31.000Z</time>
      </trkpt>
      <trkpt lat="42.67196" lon="1.406356">
        <ele>3069</ele>
        <time>2019-08-05T09:15:43.000Z</time>
      </trkpt>
      <trkpt lat="42.67192" lon="1.406362">
        <ele>3070</ele>
        <time>2019-08-05T09:15:54.000Z</time>
      </trkpt>
      <trkpt lat="42.671884" lon="1.406374">
        <ele>3072</ele>
        <time>2019-08-05T09:16:00.000Z</time>
      </trkpt>
      <trkpt lat="42.671868" lon="1.406333">
        <ele>3073</ele>
        <time>2019-08-05T09:16:07.000Z</time>
      </trkpt>
      <trkpt lat="42.671871" lon="1.406297">
        <ele>3077</ele>
        <time>2019-08-05T09:16:59.000Z</time>
      </trkpt>
      <trkpt lat="42.671871" lon="1.406346">
        <ele>3079</ele>
        <time>2019-08-05T09:17:33.000Z</time>
      </trkpt>
      <trkpt lat="42.671892" lon="1.406355">
        <ele>3082</ele>
        <time>2019-08-05T09:20:01.000Z</time>
      </trkpt>
      <trkpt lat="42.671892" lon="1.406355">
        <ele>3087</ele>
        <time>2019-08-05T09:22:07.000Z</time>
      </trkpt>
      <trkpt lat="42.671889" lon="1.406356">
        <ele>3091</ele>
        <time>2019-08-05T09:26:42.000Z</time>
      </trkpt>
      <trkpt lat="42.671931" lon="1.40635">
        <ele>3092</ele>
        <time>2019-08-05T09:28:21.000Z</time>
      </trkpt>
      <trkpt lat="42.671938" lon="1.406298">
        <ele>3091</ele>
        <time>2019-08-05T09:28:25.000Z</time>
      </trkpt>
      <trkpt lat="42.671922" lon="1.406238">
        <ele>3090</ele>
        <time>2019-08-05T09:28:28.000Z</time>
      </trkpt>
      <trkpt lat="42.671912" lon="1.406178">
        <ele>3090</ele>
        <time>2019-08-05T09:28:31.000Z</time>
      </trkpt>
      <trkpt lat="42.671906" lon="1.40612">
        <ele>3090</ele>
        <time>2019-08-05T09:28:34.000Z</time>
      </trkpt>
      <trkpt lat="42.671909" lon="1.406061">
        <ele>3090</ele>
        <time>2019-08-05T09:28:37.000Z</time>
      </trkpt>
      <trkpt lat="42.671915" lon="1.406005">
        <ele>3090</ele>
        <time>2019-08-05T09:28:42.000Z</time>
      </trkpt>
      <trkpt lat="42.671924" lon="1.405954">
        <ele>3090</ele>
        <time>2019-08-05T09:29:01.000Z</time>
      </trkpt>
      <trkpt lat="42.671929" lon="1.405905">
        <ele>3090</ele>
        <time>2019-08-05T09:29:04.000Z</time>
      </trkpt>
      <trkpt lat="42.671933" lon="1.405852">
        <ele>3090</ele>
        <time>2019-08-05T09:29:11.000Z</time>
      </trkpt>
      <trkpt lat="42.671921" lon="1.405794">
        <ele>3090</ele>
        <time>2019-08-05T09:29:14.000Z</time>
      </trkpt>
      <trkpt lat="42.671922" lon="1.405727">
        <ele>3090</ele>
        <time>2019-08-05T09:29:17.000Z</time>
      </trkpt>
      <trkpt lat="42.671938" lon="1.405685">
        <ele>3087</ele>
        <time>2019-08-05T09:29:22.000Z</time>
      </trkpt>
      <trkpt lat="42.671959" lon="1.40564">
        <ele>3087</ele>
        <time>2019-08-05T09:29:28.000Z</time>
      </trkpt>
      <trkpt lat="42.67196" lon="1.405591">
        <ele>3085.62318437309</ele>
        <time>2019-08-05T09:29:33.000Z</time>
      </trkpt>
      <trkpt lat="42.67197" lon="1.405541">
        <ele>3085</ele>
        <time>2019-08-05T09:29:39.000Z</time>
      </trkpt>
      <trkpt lat="42.671972" lon="1.405482">
        <ele>3085</ele>
        <time>2019-08-05T09:29:44.000Z</time>
      </trkpt>
      <trkpt lat="42.671989" lon="1.405426">
        <ele>3084</ele>
        <time>2019-08-05T09:29:50.000Z</time>
      </trkpt>
      <trkpt lat="42.671976" lon="1.405368">
        <ele>3082.50909387109</ele>
        <time>2019-08-05T09:29:55.000Z</time>
      </trkpt>
      <trkpt lat="42.671974" lon="1.405315">
        <ele>3082</ele>
        <time>2019-08-05T09:29:59.000Z</time>
      </trkpt>
      <trkpt lat="42.671967" lon="1.405263">
        <ele>3083</ele>
        <time>2019-08-05T09:30:05.000Z</time>
      </trkpt>
      <trkpt lat="42.671977" lon="1.405217">
        <ele>3084</ele>
        <time>2019-08-05T09:30:10.000Z</time>
      </trkpt>
      <trkpt lat="42.671956" lon="1.405158">
        <ele>3086</ele>
        <time>2019-08-05T09:30:16.000Z</time>
      </trkpt>
      <trkpt lat="42.671954" lon="1.405097">
        <ele>3086</ele>
        <time>2019-08-05T09:30:19.000Z</time>
      </trkpt>
      <trkpt lat="42.671953" lon="1.40504">
        <ele>3086</ele>
        <time>2019-08-05T09:30:22.000Z</time>
      </trkpt>
      <trkpt lat="42.671944" lon="1.404971">
        <ele>3085</ele>
        <time>2019-08-05T09:30:25.000Z</time>
      </trkpt>
      <trkpt lat="42.671939" lon="1.404919">
        <ele>3084.55340010936</ele>
        <time>2019-08-05T09:30:27.000Z</time>
      </trkpt>
      <trkpt lat="42.671941" lon="1.404866">
        <ele>3084</ele>
        <time>2019-08-05T09:30:29.000Z</time>
      </trkpt>
      <trkpt lat="42.671947" lon="1.404796">
        <ele>3084</ele>
        <time>2019-08-05T09:30:32.000Z</time>
      </trkpt>
      <trkpt lat="42.67194" lon="1.404693">
        <ele>3084</ele>
        <time>2019-08-05T09:30:37.000Z</time>
      </trkpt>
      <trkpt lat="42.67196" lon="1.404641">
        <ele>3083</ele>
        <time>2019-08-05T09:30:41.000Z</time>
      </trkpt>
      <trkpt lat="42.671949" lon="1.404585">
        <ele>3082</ele>
        <time>2019-08-05T09:30:46.000Z</time>
      </trkpt>
      <trkpt lat="42.671938" lon="1.404538">
        <ele>3081</ele>
        <time>2019-08-05T09:30:51.000Z</time>
      </trkpt>
      <trkpt lat="42.671921" lon="1.404469">
        <ele>3081</ele>
        <time>2019-08-05T09:30:55.000Z</time>
      </trkpt>
      <trkpt lat="42.671907" lon="1.404411">
        <ele>3080</ele>
        <time>2019-08-05T09:30:58.000Z</time>
      </trkpt>
      <trkpt lat="42.671895" lon="1.404368">
        <ele>3079</ele>
        <time>2019-08-05T09:31:02.000Z</time>
      </trkpt>
      <trkpt lat="42.671878" lon="1.40432">
        <ele>3078</ele>
        <time>2019-08-05T09:31:05.000Z</time>
      </trkpt>
      <trkpt lat="42.671857" lon="1.404268">
        <ele>3078</ele>
        <time>2019-08-05T09:31:08.000Z</time>
      </trkpt>
      <trkpt lat="42.671821" lon="1.404235">
        <ele>3077</ele>
        <time>2019-08-05T09:31:12.000Z</time>
      </trkpt>
      <trkpt lat="42.671813" lon="1.404202">
        <ele>3074.56435505538</ele>
        <time>2019-08-05T09:31:15.000Z</time>
      </trkpt>
      <trkpt lat="42.671794" lon="1.404157">
        <ele>3074</ele>
        <time>2019-08-05T09:31:18.000Z</time>
      </trkpt>
      <trkpt lat="42.671797" lon="1.404104">
        <ele>3073.6588260097</ele>
        <time>2019-08-05T09:31:21.000Z</time>
      </trkpt>
      <trkpt lat="42.671782" lon="1.404046">
        <ele>3071</ele>
        <time>2019-08-05T09:31:24.000Z</time>
      </trkpt>
      <trkpt lat="42.671752" lon="1.403988">
        <ele>3069.84483139124</ele>
        <time>2019-08-05T09:31:27.000Z</time>
      </trkpt>
      <trkpt lat="42.67174" lon="1.403923">
        <ele>3068.76811486662</ele>
        <time>2019-08-05T09:31:30.000Z</time>
      </trkpt>
      <trkpt lat="42.671728" lon="1.403877">
        <ele>3068</ele>
        <time>2019-08-05T09:31:32.000Z</time>
      </trkpt>
      <trkpt lat="42.671712" lon="1.403832">
        <ele>3066</ele>
        <time>2019-08-05T09:31:34.000Z</time>
      </trkpt>
      <trkpt lat="42.671696" lon="1.403779">
        <ele>3064.4700032</ele>
        <time>2019-08-05T09:31:37.000Z</time>
      </trkpt>
      <trkpt lat="42.671679" lon="1.403732">
        <ele>3063</ele>
        <time>2019-08-05T09:31:40.000Z</time>
      </trkpt>
      <trkpt lat="42.671633" lon="1.403599">
        <ele>3059</ele>
        <time>2019-08-05T09:31:48.000Z</time>
      </trkpt>
      <trkpt lat="42.671631" lon="1.403524">
        <ele>3057.53534857261</ele>
        <time>2019-08-05T09:31:52.000Z</time>
      </trkpt>
      <trkpt lat="42.67163" lon="1.403468">
        <ele>3057</ele>
        <time>2019-08-05T09:31:54.000Z</time>
      </trkpt>
      <trkpt lat="42.671613" lon="1.403295">
        <ele>3055.63889777778</ele>
        <time>2019-08-05T09:32:00.000Z</time>
      </trkpt>
      <trkpt lat="42.671626" lon="1.403145">
        <ele>3055</ele>
        <time>2019-08-05T09:32:06.000Z</time>
      </trkpt>
      <trkpt lat="42.671619" lon="1.40305">
        <ele>3053.64865425863</ele>
        <time>2019-08-05T09:32:10.000Z</time>
      </trkpt>
      <trkpt lat="42.671625" lon="1.402996">
        <ele>3053</ele>
        <time>2019-08-05T09:32:12.000Z</time>
      </trkpt>
      <trkpt lat="42.671643" lon="1.402929">
        <ele>3053</ele>
        <time>2019-08-05T09:32:15.000Z</time>
      </trkpt>
      <trkpt lat="42.671668" lon="1.40287">
        <ele>3052.4700032</ele>
        <time>2019-08-05T09:32:18.000Z</time>
      </trkpt>
      <trkpt lat="42.671671" lon="1.402822">
        <ele>3051</ele>
        <time>2019-08-05T09:32:21.000Z</time>
      </trkpt>
      <trkpt lat="42.67164" lon="1.402779">
        <ele>3049</ele>
        <time>2019-08-05T09:32:25.000Z</time>
      </trkpt>
      <trkpt lat="42.67161" lon="1.402734">
        <ele>3046</ele>
        <time>2019-08-05T09:32:29.000Z</time>
      </trkpt>
      <trkpt lat="42.671602" lon="1.402639">
        <ele>3044.76470588235</ele>
        <time>2019-08-05T09:32:34.000Z</time>
      </trkpt>
      <trkpt lat="42.671571" lon="1.402588">
        <ele>3043</ele>
        <time>2019-08-05T09:32:39.000Z</time>
      </trkpt>
      <trkpt lat="42.671541" lon="1.402553">
        <ele>3042</ele>
        <time>2019-08-05T09:32:42.000Z</time>
      </trkpt>
      <trkpt lat="42.6715" lon="1.402545">
        <ele>3041</ele>
        <time>2019-08-05T09:32:45.000Z</time>
      </trkpt>
      <trkpt lat="42.671461" lon="1.402517">
        <ele>3039.50467736919</ele>
        <time>2019-08-05T09:32:48.000Z</time>
      </trkpt>
      <trkpt lat="42.671372" lon="1.402489">
        <ele>3038</ele>
        <time>2019-08-05T09:32:54.000Z</time>
      </trkpt>
      <trkpt lat="42.671255" lon="1.402495">
        <ele>3034</ele>
        <time>2019-08-05T09:33:02.000Z</time>
      </trkpt>
      <trkpt lat="42.67119" lon="1.40253">
        <ele>3031.1886828907</ele>
        <time>2019-08-05T09:33:08.000Z</time>
      </trkpt>
      <trkpt lat="42.671179" lon="1.402502">
        <ele>3029.47726545455</ele>
        <time>2019-08-05T09:33:12.000Z</time>
      </trkpt>
      <trkpt lat="42.671144" lon="1.402486">
        <ele>3029</ele>
        <time>2019-08-05T09:33:17.000Z</time>
      </trkpt>
      <trkpt lat="42.671108" lon="1.402503">
        <ele>3028</ele>
        <time>2019-08-05T09:33:21.000Z</time>
      </trkpt>
      <trkpt lat="42.671082" lon="1.402516">
        <ele>3025.4622639231</ele>
        <time>2019-08-05T09:33:25.000Z</time>
      </trkpt>
      <trkpt lat="42.671069" lon="1.402546">
        <ele>3022</ele>
        <time>2019-08-05T09:33:31.000Z</time>
      </trkpt>
      <trkpt lat="42.671073" lon="1.402598">
        <ele>3021</ele>
        <time>2019-08-05T09:33:34.000Z</time>
      </trkpt>
      <trkpt lat="42.671035" lon="1.402581">
        <ele>3019</ele>
        <time>2019-08-05T09:33:38.000Z</time>
      </trkpt>
      <trkpt lat="42.671024" lon="1.402532">
        <ele>3019</ele>
        <time>2019-08-05T09:33:40.000Z</time>
      </trkpt>
      <trkpt lat="42.671008" lon="1.402484">
        <ele>3017.93457586162</ele>
        <time>2019-08-05T09:33:42.000Z</time>
      </trkpt>
      <trkpt lat="42.670998" lon="1.402444">
        <ele>3015.90385230769</ele>
        <time>2019-08-05T09:33:44.000Z</time>
      </trkpt>
      <trkpt lat="42.670982" lon="1.402413">
        <ele>3014</ele>
        <time>2019-08-05T09:33:48.000Z</time>
      </trkpt>
      <trkpt lat="42.670944" lon="1.402425">
        <ele>3010</ele>
        <time>2019-08-05T09:33:55.000Z</time>
      </trkpt>
      <trkpt lat="42.670918" lon="1.402377">
        <ele>3008</ele>
        <time>2019-08-05T09:33:59.000Z</time>
      </trkpt>
      <trkpt lat="42.670916" lon="1.402325">
        <ele>3007</ele>
        <time>2019-08-05T09:34:01.000Z</time>
      </trkpt>
      <trkpt lat="42.670887" lon="1.402293">
        <ele>3007</ele>
        <time>2019-08-05T09:34:05.000Z</time>
      </trkpt>
      <trkpt lat="42.67085" lon="1.402293">
        <ele>3006.45631236874</ele>
        <time>2019-08-05T09:34:08.000Z</time>
      </trkpt>
      <trkpt lat="42.670834" lon="1.402221">
        <ele>3005</ele>
        <time>2019-08-05T09:34:11.000Z</time>
      </trkpt>
      <trkpt lat="42.670804" lon="1.402237">
        <ele>3003</ele>
        <time>2019-08-05T09:34:15.000Z</time>
      </trkpt>
      <trkpt lat="42.670764" lon="1.402208">
        <ele>3001.37837510595</ele>
        <time>2019-08-05T09:34:18.000Z</time>
      </trkpt>
      <trkpt lat="42.670755" lon="1.402157">
        <ele>3000</ele>
        <time>2019-08-05T09:34:20.000Z</time>
      </trkpt>
      <trkpt lat="42.670758" lon="1.402094">
        <ele>2997.45263342271</ele>
        <time>2019-08-05T09:34:23.000Z</time>
      </trkpt>
      <trkpt lat="42.67073" lon="1.402037">
        <ele>2997</ele>
        <time>2019-08-05T09:34:26.000Z</time>
      </trkpt>
      <trkpt lat="42.670722" lon="1.401981">
        <ele>2996</ele>
        <time>2019-08-05T09:34:28.000Z</time>
      </trkpt>
      <trkpt lat="42.670688" lon="1.401931">
        <ele>2995</ele>
        <time>2019-08-05T09:34:31.000Z</time>
      </trkpt>
      <trkpt lat="42.670714" lon="1.401818">
        <ele>2990.92928901129</ele>
        <time>2019-08-05T09:34:39.000Z</time>
      </trkpt>
      <trkpt lat="42.67074" lon="1.401664">
        <ele>2988.55101747603</ele>
        <time>2019-08-05T09:34:45.000Z</time>
      </trkpt>
      <trkpt lat="42.670765" lon="1.401622">
        <ele>2981</ele>
        <time>2019-08-05T09:35:00.000Z</time>
      </trkpt>
      <trkpt lat="42.670802" lon="1.401494">
        <ele>2978</ele>
        <time>2019-08-05T09:35:07.000Z</time>
      </trkpt>
      <trkpt lat="42.670745" lon="1.401386">
        <ele>2970</ele>
        <time>2019-08-05T09:35:22.000Z</time>
      </trkpt>
      <trkpt lat="42.670705" lon="1.401232">
        <ele>2968</ele>
        <time>2019-08-05T09:35:27.000Z</time>
      </trkpt>
      <trkpt lat="42.670689" lon="1.401018">
        <ele>2963</ele>
        <time>2019-08-05T09:35:43.000Z</time>
      </trkpt>
      <trkpt lat="42.670669" lon="1.400871">
        <ele>2958</ele>
        <time>2019-08-05T09:35:49.000Z</time>
      </trkpt>
      <trkpt lat="42.670684" lon="1.400723">
        <ele>2954</ele>
        <time>2019-08-05T09:36:00.000Z</time>
      </trkpt>
      <trkpt lat="42.670776" lon="1.400625">
        <ele>2953</ele>
        <time>2019-08-05T09:36:08.000Z</time>
      </trkpt>
      <trkpt lat="42.670874" lon="1.400538">
        <ele>2951</ele>
        <time>2019-08-05T09:36:14.000Z</time>
      </trkpt>
      <trkpt lat="42.670965" lon="1.400454">
        <ele>2946.4700032</ele>
        <time>2019-08-05T09:36:23.000Z</time>
      </trkpt>
      <trkpt lat="42.671039" lon="1.400328">
        <ele>2945</ele>
        <time>2019-08-05T09:36:31.000Z</time>
      </trkpt>
      <trkpt lat="42.671077" lon="1.400184">
        <ele>2939.46153846154</ele>
        <time>2019-08-05T09:36:42.000Z</time>
      </trkpt>
      <trkpt lat="42.671144" lon="1.400054">
        <ele>2938.17460736707</ele>
        <time>2019-08-05T09:36:49.000Z</time>
      </trkpt>
      <trkpt lat="42.671196" lon="1.399932">
        <ele>2933.5222220642</ele>
        <time>2019-08-05T09:36:58.000Z</time>
      </trkpt>
      <trkpt lat="42.671219" lon="1.399821">
        <ele>2927</ele>
        <time>2019-08-05T09:37:38.000Z</time>
      </trkpt>
      <trkpt lat="42.671264" lon="1.399686">
        <ele>2924</ele>
        <time>2019-08-05T09:37:47.000Z</time>
      </trkpt>
      <trkpt lat="42.671276" lon="1.399516">
        <ele>2922.56565473728</ele>
        <time>2019-08-05T09:37:55.000Z</time>
      </trkpt>
      <trkpt lat="42.671292" lon="1.399369">
        <ele>2920</ele>
        <time>2019-08-05T09:38:05.000Z</time>
      </trkpt>
      <trkpt lat="42.671352" lon="1.399234">
        <ele>2917</ele>
        <time>2019-08-05T09:38:14.000Z</time>
      </trkpt>
      <trkpt lat="42.671392" lon="1.399082">
        <ele>2916.66233356052</ele>
        <time>2019-08-05T09:38:21.000Z</time>
      </trkpt>
      <trkpt lat="42.671394" lon="1.398928">
        <ele>2915</ele>
        <time>2019-08-05T09:38:30.000Z</time>
      </trkpt>
      <trkpt lat="42.671357" lon="1.398772">
        <ele>2908</ele>
        <time>2019-08-05T09:38:47.000Z</time>
      </trkpt>
      <trkpt lat="42.671356" lon="1.398627">
        <ele>2905</ele>
        <time>2019-08-05T09:39:03.000Z</time>
      </trkpt>
      <trkpt lat="42.671267" lon="1.398527">
        <ele>2905</ele>
        <time>2019-08-05T09:39:33.000Z</time>
      </trkpt>
      <trkpt lat="42.671311" lon="1.398391">
        <ele>2904</ele>
        <time>2019-08-05T09:40:11.000Z</time>
      </trkpt>
      <trkpt lat="42.671335" lon="1.398253">
        <ele>2898</ele>
        <time>2019-08-05T09:40:24.000Z</time>
      </trkpt>
      <trkpt lat="42.671441" lon="1.39824">
        <ele>2896</ele>
        <time>2019-08-05T09:40:40.000Z</time>
      </trkpt>
      <trkpt lat="42.671439" lon="1.398085">
        <ele>2892.75324157191</ele>
        <time>2019-08-05T09:40:54.000Z</time>
      </trkpt>
      <trkpt lat="42.671491" lon="1.397964">
        <ele>2887</ele>
        <time>2019-08-05T09:41:08.000Z</time>
      </trkpt>
      <trkpt lat="42.671447" lon="1.397828">
        <ele>2886</ele>
        <time>2019-08-05T09:41:22.000Z</time>
      </trkpt>
      <trkpt lat="42.671417" lon="1.397683">
        <ele>2882</ele>
        <time>2019-08-05T09:41:34.000Z</time>
      </trkpt>
      <trkpt lat="42.671343" lon="1.397575">
        <ele>2881</ele>
        <time>2019-08-05T09:41:50.000Z</time>
      </trkpt>
      <trkpt lat="42.671312" lon="1.39743">
        <ele>2879</ele>
        <time>2019-08-05T09:42:03.000Z</time>
      </trkpt>
      <trkpt lat="42.671265" lon="1.397274">
        <ele>2876</ele>
        <time>2019-08-05T09:42:14.000Z</time>
      </trkpt>
      <trkpt lat="42.671235" lon="1.397128">
        <ele>2877</ele>
        <time>2019-08-05T09:42:21.000Z</time>
      </trkpt>
      <trkpt lat="42.671209" lon="1.396982">
        <ele>2880</ele>
        <time>2019-08-05T09:42:33.000Z</time>
      </trkpt>
      <trkpt lat="42.671231" lon="1.396828">
        <ele>2880</ele>
        <time>2019-08-05T09:42:46.000Z</time>
      </trkpt>
      <trkpt lat="42.671186" lon="1.396682">
        <ele>2879</ele>
        <time>2019-08-05T09:42:54.000Z</time>
      </trkpt>
      <trkpt lat="42.671154" lon="1.39653">
        <ele>2877</ele>
        <time>2019-08-05T09:43:04.000Z</time>
      </trkpt>
      <trkpt lat="42.671188" lon="1.396396">
        <ele>2873</ele>
        <time>2019-08-05T09:43:15.000Z</time>
      </trkpt>
      <trkpt lat="42.671196" lon="1.396245">
        <ele>2869</ele>
        <time>2019-08-05T09:43:29.000Z</time>
      </trkpt>
      <trkpt lat="42.671189" lon="1.396098">
        <ele>2865.0200064</ele>
        <time>2019-08-05T09:43:38.000Z</time>
      </trkpt>
      <trkpt lat="42.6712" lon="1.395917">
        <ele>2862</ele>
        <time>2019-08-05T09:43:45.000Z</time>
      </trkpt>
      <trkpt lat="42.671191" lon="1.395771">
        <ele>2859</ele>
        <time>2019-08-05T09:43:52.000Z</time>
      </trkpt>
      <trkpt lat="42.671186" lon="1.395632">
        <ele>2855</ele>
        <time>2019-08-05T09:43:59.000Z</time>
      </trkpt>
      <trkpt lat="42.671195" lon="1.395473">
        <ele>2853.325024</ele>
        <time>2019-08-05T09:44:08.000Z</time>
      </trkpt>
      <trkpt lat="42.671195" lon="1.395338">
        <ele>2848</ele>
        <time>2019-08-05T09:44:17.000Z</time>
      </trkpt>
      <trkpt lat="42.671194" lon="1.395172">
        <ele>2844.69812346037</ele>
        <time>2019-08-05T09:44:23.000Z</time>
      </trkpt>
      <trkpt lat="42.671178" lon="1.395029">
        <ele>2842</ele>
        <time>2019-08-05T09:44:30.000Z</time>
      </trkpt>
      <trkpt lat="42.67117" lon="1.394868">
        <ele>2839</ele>
        <time>2019-08-05T09:44:38.000Z</time>
      </trkpt>
      <trkpt lat="42.671157" lon="1.394713">
        <ele>2835</ele>
        <time>2019-08-05T09:44:47.000Z</time>
      </trkpt>
      <trkpt lat="42.671139" lon="1.394557">
        <ele>2836</ele>
        <time>2019-08-05T09:44:55.000Z</time>
      </trkpt>
      <trkpt lat="42.671139" lon="1.394409">
        <ele>2831.46788872318</ele>
        <time>2019-08-05T09:45:13.000Z</time>
      </trkpt>
      <trkpt lat="42.671116" lon="1.394267">
        <ele>2826.79569478089</ele>
        <time>2019-08-05T09:46:32.000Z</time>
      </trkpt>
      <trkpt lat="42.671222" lon="1.394175">
        <ele>2825</ele>
        <time>2019-08-05T09:46:57.000Z</time>
      </trkpt>
      <trkpt lat="42.671305" lon="1.394272">
        <ele>2824</ele>
        <time>2019-08-05T09:47:08.000Z</time>
      </trkpt>
      <trkpt lat="42.671243" lon="1.394387">
        <ele>2828</ele>
        <time>2019-08-05T09:47:31.000Z</time>
      </trkpt>
      <trkpt lat="42.671148" lon="1.394305">
        <ele>2828</ele>
        <time>2019-08-05T09:47:43.000Z</time>
      </trkpt>
      <trkpt lat="42.671121" lon="1.394194">
        <ele>2819</ele>
        <time>2019-08-05T09:49:12.000Z</time>
      </trkpt>
      <trkpt lat="42.671241" lon="1.394193">
        <ele>2816</ele>
        <time>2019-08-05T09:50:09.000Z</time>
      </trkpt>
      <trkpt lat="42.67125" lon="1.394062">
        <ele>2809</ele>
        <time>2019-08-05T09:50:47.000Z</time>
      </trkpt>
      <trkpt lat="42.671174" lon="1.393965">
        <ele>2806</ele>
        <time>2019-08-05T09:51:17.000Z</time>
      </trkpt>
      <trkpt lat="42.671145" lon="1.393823">
        <ele>2809</ele>
        <time>2019-08-05T09:51:26.000Z</time>
      </trkpt>
      <trkpt lat="42.671099" lon="1.393689">
        <ele>2809</ele>
        <time>2019-08-05T09:51:38.000Z</time>
      </trkpt>
      <trkpt lat="42.67105" lon="1.393545">
        <ele>2810</ele>
        <time>2019-08-05T09:51:52.000Z</time>
      </trkpt>
      <trkpt lat="42.670973" lon="1.393437">
        <ele>2809.8600064</ele>
        <time>2019-08-05T09:52:04.000Z</time>
      </trkpt>
      <trkpt lat="42.670891" lon="1.39331">
        <ele>2810</ele>
        <time>2019-08-05T09:52:14.000Z</time>
      </trkpt>
      <trkpt lat="42.670809" lon="1.393192">
        <ele>2813</ele>
        <time>2019-08-05T09:52:28.000Z</time>
      </trkpt>
      <trkpt lat="42.670735" lon="1.393092">
        <ele>2816</ele>
        <time>2019-08-05T09:52:54.000Z</time>
      </trkpt>
      <trkpt lat="42.670647" lon="1.393042">
        <ele>2823</ele>
        <time>2019-08-05T09:53:31.000Z</time>
      </trkpt>
      <trkpt lat="42.67056" lon="1.392961">
        <ele>2827.38666075025</ele>
        <time>2019-08-05T09:53:50.000Z</time>
      </trkpt>
      <trkpt lat="42.670481" lon="1.392884">
        <ele>2833</ele>
        <time>2019-08-05T09:54:16.000Z</time>
      </trkpt>
      <trkpt lat="42.670369" lon="1.392885">
        <ele>2836</ele>
        <time>2019-08-05T09:54:38.000Z</time>
      </trkpt>
      <trkpt lat="42.670316" lon="1.392752">
        <ele>2838</ele>
        <time>2019-08-05T09:54:54.000Z</time>
      </trkpt>
      <trkpt lat="42.670416" lon="1.392802">
        <ele>2840</ele>
        <time>2019-08-05T09:55:22.000Z</time>
      </trkpt>
      <trkpt lat="42.670317" lon="1.39274">
        <ele>2840</ele>
        <time>2019-08-05T09:55:34.000Z</time>
      </trkpt>
      <trkpt lat="42.670266" lon="1.392697">
        <ele>2842</ele>
        <time>2019-08-05T09:55:39.000Z</time>
      </trkpt>
      <trkpt lat="42.670211" lon="1.392569">
        <ele>2844</ele>
        <time>2019-08-05T09:56:05.000Z</time>
      </trkpt>
      <trkpt lat="42.670142" lon="1.392461">
        <ele>2849</ele>
        <time>2019-08-05T09:56:22.000Z</time>
      </trkpt>
      <trkpt lat="42.670117" lon="1.392367">
        <ele>2850</ele>
        <time>2019-08-05T09:56:37.000Z</time>
      </trkpt>
      <trkpt lat="42.670026" lon="1.392382">
        <ele>2855</ele>
        <time>2019-08-05T09:56:57.000Z</time>
      </trkpt>
      <trkpt lat="42.670037" lon="1.392359">
        <ele>2859</ele>
        <time>2019-08-05T09:57:26.000Z</time>
      </trkpt>
      <trkpt lat="42.669956" lon="1.392382">
        <ele>2861</ele>
        <time>2019-08-05T09:57:46.000Z</time>
      </trkpt>
      <trkpt lat="42.669959" lon="1.392226">
        <ele>2861.53398203035</ele>
        <time>2019-08-05T09:58:31.000Z</time>
      </trkpt>
      <trkpt lat="42.669903" lon="1.392106">
        <ele>2865</ele>
        <time>2019-08-05T09:58:55.000Z</time>
      </trkpt>
      <trkpt lat="42.669913" lon="1.392063">
        <ele>2868.33333333333</ele>
        <time>2019-08-05T09:59:07.000Z</time>
      </trkpt>
      <trkpt lat="42.669808" lon="1.391999">
        <ele>2871</ele>
        <time>2019-08-05T09:59:33.000Z</time>
      </trkpt>
      <trkpt lat="42.669796" lon="1.391951">
        <ele>2872.47560994646</ele>
        <time>2019-08-05T10:00:09.000Z</time>
      </trkpt>
      <trkpt lat="42.669783" lon="1.391898">
        <ele>2874</ele>
        <time>2019-08-05T10:00:16.000Z</time>
      </trkpt>
      <trkpt lat="42.669841" lon="1.391872">
        <ele>2873</ele>
        <time>2019-08-05T10:01:07.000Z</time>
      </trkpt>
      <trkpt lat="42.66988" lon="1.391871">
        <ele>2872</ele>
        <time>2019-08-05T10:01:11.000Z</time>
      </trkpt>
      <trkpt lat="42.669849" lon="1.391719">
        <ele>2868.43877591004</ele>
        <time>2019-08-05T10:01:25.000Z</time>
      </trkpt>
      <trkpt lat="42.669948" lon="1.391793">
        <ele>2867</ele>
        <time>2019-08-05T10:01:54.000Z</time>
      </trkpt>
      <trkpt lat="42.669943" lon="1.391838">
        <ele>2869</ele>
        <time>2019-08-05T10:02:07.000Z</time>
      </trkpt>
      <trkpt lat="42.66991" lon="1.391876">
        <ele>2869</ele>
        <time>2019-08-05T10:02:12.000Z</time>
      </trkpt>
      <trkpt lat="42.669874" lon="1.391881">
        <ele>2871</ele>
        <time>2019-08-05T10:02:18.000Z</time>
      </trkpt>
      <trkpt lat="42.669849" lon="1.391916">
        <ele>2871</ele>
        <time>2019-08-05T10:02:25.000Z</time>
      </trkpt>
      <trkpt lat="42.66975" lon="1.391861">
        <ele>2872</ele>
        <time>2019-08-05T10:02:58.000Z</time>
      </trkpt>
      <trkpt lat="42.669722" lon="1.391764">
        <ele>2865</ele>
        <time>2019-08-05T10:03:55.000Z</time>
      </trkpt>
      <trkpt lat="42.669636" lon="1.39167">
        <ele>2867</ele>
        <time>2019-08-05T10:04:09.000Z</time>
      </trkpt>
      <trkpt lat="42.669576" lon="1.391582">
        <ele>2870</ele>
        <time>2019-08-05T10:04:25.000Z</time>
      </trkpt>
      <trkpt lat="42.669536" lon="1.391571">
        <ele>2870</ele>
        <time>2019-08-05T10:04:57.000Z</time>
      </trkpt>
      <trkpt lat="42.66952" lon="1.391524">
        <ele>2871</ele>
        <time>2019-08-05T10:05:03.000Z</time>
      </trkpt>
      <trkpt lat="42.669495" lon="1.391468">
        <ele>2871.50476039546</ele>
        <time>2019-08-05T10:05:09.000Z</time>
      </trkpt>
      <trkpt lat="42.669475" lon="1.391366">
        <ele>2872</ele>
        <time>2019-08-05T10:05:19.000Z</time>
      </trkpt>
      <trkpt lat="42.669458" lon="1.391321">
        <ele>2872.537037476</ele>
        <time>2019-08-05T10:05:24.000Z</time>
      </trkpt>
      <trkpt lat="42.669442" lon="1.391282">
        <ele>2875</ele>
        <time>2019-08-05T10:05:33.000Z</time>
      </trkpt>
      <trkpt lat="42.669424" lon="1.391216">
        <ele>2876</ele>
        <time>2019-08-05T10:05:44.000Z</time>
      </trkpt>
      <trkpt lat="42.669398" lon="1.391183">
        <ele>2877.43137525569</ele>
        <time>2019-08-05T10:05:50.000Z</time>
      </trkpt>
      <trkpt lat="42.669333" lon="1.391127">
        <ele>2881</ele>
        <time>2019-08-05T10:06:11.000Z</time>
      </trkpt>
      <trkpt lat="42.669226" lon="1.39116">
        <ele>2884</ele>
        <time>2019-08-05T10:06:39.000Z</time>
      </trkpt>
      <trkpt lat="42.66924" lon="1.391089">
        <ele>2886</ele>
        <time>2019-08-05T10:06:52.000Z</time>
      </trkpt>
      <trkpt lat="42.669182" lon="1.39101">
        <ele>2889</ele>
        <time>2019-08-05T10:07:13.000Z</time>
      </trkpt>
      <trkpt lat="42.669156" lon="1.39091">
        <ele>2891</ele>
        <time>2019-08-05T10:07:32.000Z</time>
      </trkpt>
      <trkpt lat="42.669144" lon="1.39086">
        <ele>2893</ele>
        <time>2019-08-05T10:07:44.000Z</time>
      </trkpt>
      <trkpt lat="42.66907" lon="1.39076">
        <ele>2897</ele>
        <time>2019-08-05T10:08:29.000Z</time>
      </trkpt>
      <trkpt lat="42.669052" lon="1.390651">
        <ele>2902</ele>
        <time>2019-08-05T10:09:04.000Z</time>
      </trkpt>
      <trkpt lat="42.669075" lon="1.390595">
        <ele>2904</ele>
        <time>2019-08-05T10:10:02.000Z</time>
      </trkpt>
      <trkpt lat="42.669017" lon="1.390559">
        <ele>2908.01123239994</ele>
        <time>2019-08-05T10:10:21.000Z</time>
      </trkpt>
      <trkpt lat="42.669027" lon="1.390503">
        <ele>2911</ele>
        <time>2019-08-05T10:11:01.000Z</time>
      </trkpt>
      <trkpt lat="42.66905" lon="1.390459">
        <ele>2912.25842777426</ele>
        <time>2019-08-05T10:11:23.000Z</time>
      </trkpt>
      <trkpt lat="42.669093" lon="1.390328">
        <ele>2916</ele>
        <time>2019-08-05T10:11:39.000Z</time>
      </trkpt>
      <trkpt lat="42.669022" lon="1.390251">
        <ele>2919.21687434458</ele>
        <time>2019-08-05T10:12:25.000Z</time>
      </trkpt>
      <trkpt lat="42.668979" lon="1.390133">
        <ele>2926</ele>
        <time>2019-08-05T10:12:46.000Z</time>
      </trkpt>
      <trkpt lat="42.668905" lon="1.390024">
        <ele>2927</ele>
        <time>2019-08-05T10:13:28.000Z</time>
      </trkpt>
      <trkpt lat="42.668853" lon="1.38992">
        <ele>2931</ele>
        <time>2019-08-05T10:13:48.000Z</time>
      </trkpt>
      <trkpt lat="42.668826" lon="1.389834">
        <ele>2932</ele>
        <time>2019-08-05T10:14:00.000Z</time>
      </trkpt>
      <trkpt lat="42.668779" lon="1.389765">
        <ele>2934</ele>
        <time>2019-08-05T10:14:23.000Z</time>
      </trkpt>
      <trkpt lat="42.668694" lon="1.389664">
        <ele>2936</ele>
        <time>2019-08-05T10:14:42.000Z</time>
      </trkpt>
      <trkpt lat="42.668628" lon="1.389574">
        <ele>2942</ele>
        <time>2019-08-05T10:15:12.000Z</time>
      </trkpt>
      <trkpt lat="42.668622" lon="1.389527">
        <ele>2943.50561619997</ele>
        <time>2019-08-05T10:15:51.000Z</time>
      </trkpt>
      <trkpt lat="42.668628" lon="1.389468">
        <ele>2947</ele>
        <time>2019-08-05T10:16:26.000Z</time>
      </trkpt>
      <trkpt lat="42.668565" lon="1.389452">
        <ele>2947</ele>
        <time>2019-08-05T10:17:02.000Z</time>
      </trkpt>
      <trkpt lat="42.668547" lon="1.389404">
        <ele>2951</ele>
        <time>2019-08-05T10:17:33.000Z</time>
      </trkpt>
      <trkpt lat="42.668532" lon="1.389351">
        <ele>2952</ele>
        <time>2019-08-05T10:18:19.000Z</time>
      </trkpt>
      <trkpt lat="42.668526" lon="1.389323">
        <ele>2955</ele>
        <time>2019-08-05T10:18:58.000Z</time>
      </trkpt>
      <trkpt lat="42.668494" lon="1.389304">
        <ele>2957</ele>
        <time>2019-08-05T10:19:19.000Z</time>
      </trkpt>
      <trkpt lat="42.668461" lon="1.389317">
        <ele>2958</ele>
        <time>2019-08-05T10:19:43.000Z</time>
      </trkpt>
      <trkpt lat="42.668416" lon="1.389339">
        <ele>2958</ele>
        <time>2019-08-05T10:20:10.000Z</time>
      </trkpt>
      <trkpt lat="42.668382" lon="1.389376">
        <ele>2958</ele>
        <time>2019-08-05T10:20:24.000Z</time>
      </trkpt>
      <trkpt lat="42.668346" lon="1.389403">
        <ele>2958</ele>
        <time>2019-08-05T10:20:44.000Z</time>
      </trkpt>
      <trkpt lat="42.668331" lon="1.389332">
        <ele>2960</ele>
        <time>2019-08-05T10:21:41.000Z</time>
      </trkpt>
      <trkpt lat="42.668351" lon="1.389289">
        <ele>2963</ele>
        <time>2019-08-05T10:23:23.000Z</time>
      </trkpt>
      <trkpt lat="42.66835" lon="1.389245">
        <ele>2965</ele>
        <time>2019-08-05T10:24:23.000Z</time>
      </trkpt>
      <trkpt lat="42.668368" lon="1.3892">
        <ele>2965.55670211924</ele>
        <time>2019-08-05T10:24:56.000Z</time>
      </trkpt>
      <trkpt lat="42.668352" lon="1.38916">
        <ele>2963</ele>
        <time>2019-08-05T10:27:48.000Z</time>
      </trkpt>
      <trkpt lat="42.668386" lon="1.389119">
        <ele>2964</ele>
        <time>2019-08-05T10:28:20.000Z</time>
      </trkpt>
      <trkpt lat="42.668398" lon="1.389071">
        <ele>2966</ele>
        <time>2019-08-05T10:28:51.000Z</time>
      </trkpt>
      <trkpt lat="42.668423" lon="1.389034">
        <ele>2967</ele>
        <time>2019-08-05T10:29:29.000Z</time>
      </trkpt>
      <trkpt lat="42.668423" lon="1.389">
        <ele>2971</ele>
        <time>2019-08-05T10:30:08.000Z</time>
      </trkpt>
      <trkpt lat="42.668438" lon="1.388936">
        <ele>2973</ele>
        <time>2019-08-05T10:30:57.000Z</time>
      </trkpt>
      <trkpt lat="42.668462" lon="1.388895">
        <ele>2973</ele>
        <time>2019-08-05T10:31:33.000Z</time>
      </trkpt>
      <trkpt lat="42.668459" lon="1.388851">
        <ele>2975</ele>
        <time>2019-08-05T10:31:47.000Z</time>
      </trkpt>
      <trkpt lat="42.668465" lon="1.388818">
        <ele>2979</ele>
        <time>2019-08-05T10:32:21.000Z</time>
      </trkpt>
      <trkpt lat="42.668478" lon="1.388748">
        <ele>2981</ele>
        <time>2019-08-05T10:32:38.000Z</time>
      </trkpt>
      <trkpt lat="42.66848" lon="1.388697">
        <ele>2982</ele>
        <time>2019-08-05T10:32:47.000Z</time>
      </trkpt>
      <trkpt lat="42.668461" lon="1.388658">
        <ele>2983.51064177458</ele>
        <time>2019-08-05T10:32:59.000Z</time>
      </trkpt>
      <trkpt lat="42.668435" lon="1.388631">
        <ele>2985</ele>
        <time>2019-08-05T10:33:05.000Z</time>
      </trkpt>
      <trkpt lat="42.668405" lon="1.388605">
        <ele>2986.32500266667</ele>
        <time>2019-08-05T10:33:11.000Z</time>
      </trkpt>
      <trkpt lat="42.668367" lon="1.388601">
        <ele>2988</ele>
        <time>2019-08-05T10:33:26.000Z</time>
      </trkpt>
      <trkpt lat="42.668387" lon="1.388555">
        <ele>2987</ele>
        <time>2019-08-05T10:33:48.000Z</time>
      </trkpt>
      <trkpt lat="42.668454" lon="1.38844">
        <ele>2989</ele>
        <time>2019-08-05T10:34:08.000Z</time>
      </trkpt>
      <trkpt lat="42.668489" lon="1.388379">
        <ele>2994</ele>
        <time>2019-08-05T10:34:19.000Z</time>
      </trkpt>
      <trkpt lat="42.668526" lon="1.388318">
        <ele>2996</ele>
        <time>2019-08-05T10:34:59.000Z</time>
      </trkpt>
      <trkpt lat="42.668538" lon="1.388249">
        <ele>2998</ele>
        <time>2019-08-05T10:35:07.000Z</time>
      </trkpt>
      <trkpt lat="42.668548" lon="1.388206">
        <ele>3000</ele>
        <time>2019-08-05T10:35:30.000Z</time>
      </trkpt>
      <trkpt lat="42.668545" lon="1.388174">
        <ele>3003</ele>
        <time>2019-08-05T10:35:44.000Z</time>
      </trkpt>
      <trkpt lat="42.668566" lon="1.388131">
        <ele>3004</ele>
        <time>2019-08-05T10:35:56.000Z</time>
      </trkpt>
      <trkpt lat="42.668534" lon="1.388107">
        <ele>3005</ele>
        <time>2019-08-05T10:36:23.000Z</time>
      </trkpt>
      <trkpt lat="42.668498" lon="1.388091">
        <ele>3007</ele>
        <time>2019-08-05T10:36:46.000Z</time>
      </trkpt>
      <trkpt lat="42.668462" lon="1.388088">
        <ele>3009</ele>
        <time>2019-08-05T10:37:01.000Z</time>
      </trkpt>
      <trkpt lat="42.668438" lon="1.388051">
        <ele>3013</ele>
        <time>2019-08-05T10:37:32.000Z</time>
      </trkpt>
      <trkpt lat="42.668415" lon="1.388018">
        <ele>3015</ele>
        <time>2019-08-05T10:38:11.000Z</time>
      </trkpt>
      <trkpt lat="42.668396" lon="1.387982">
        <ele>3017</ele>
        <time>2019-08-05T10:38:27.000Z</time>
      </trkpt>
      <trkpt lat="42.668395" lon="1.387938">
        <ele>3020</ele>
        <time>2019-08-05T10:38:50.000Z</time>
      </trkpt>
      <trkpt lat="42.668401" lon="1.387894">
        <ele>3021</ele>
        <time>2019-08-05T10:39:10.000Z</time>
      </trkpt>
      <trkpt lat="42.668416" lon="1.387866">
        <ele>3026</ele>
        <time>2019-08-05T10:40:06.000Z</time>
      </trkpt>
      <trkpt lat="42.668429" lon="1.387822">
        <ele>3027</ele>
        <time>2019-08-05T10:41:07.000Z</time>
      </trkpt>
      <trkpt lat="42.66843" lon="1.387787">
        <ele>3030</ele>
        <time>2019-08-05T10:41:41.000Z</time>
      </trkpt>
      <trkpt lat="42.668452" lon="1.38775">
        <ele>3031</ele>
        <time>2019-08-05T10:42:01.000Z</time>
      </trkpt>
      <trkpt lat="42.668468" lon="1.387712">
        <ele>3033</ele>
        <time>2019-08-05T10:42:24.000Z</time>
      </trkpt>
      <trkpt lat="42.668476" lon="1.387678">
        <ele>3036</ele>
        <time>2019-08-05T10:43:54.000Z</time>
      </trkpt>
      <trkpt lat="42.668489" lon="1.38763">
        <ele>3037.13559248492</ele>
        <time>2019-08-05T10:44:05.000Z</time>
      </trkpt>
      <trkpt lat="42.668501" lon="1.387654">
        <ele>3041</ele>
        <time>2019-08-05T10:45:14.000Z</time>
      </trkpt>
      <trkpt lat="42.668525" lon="1.387624">
        <ele>3044</ele>
        <time>2019-08-05T10:45:53.000Z</time>
      </trkpt>
      <trkpt lat="42.668538" lon="1.387576">
        <ele>3044</ele>
        <time>2019-08-05T10:46:18.000Z</time>
      </trkpt>
      <trkpt lat="42.668551" lon="1.387546">
        <ele>3048</ele>
        <time>2019-08-05T10:46:55.000Z</time>
      </trkpt>
      <trkpt lat="42.668592" lon="1.387562">
        <ele>3049</ele>
        <time>2019-08-05T10:47:40.000Z</time>
      </trkpt>
      <trkpt lat="42.668631" lon="1.38754">
        <ele>3048</ele>
        <time>2019-08-05T10:47:45.000Z</time>
      </trkpt>
      <trkpt lat="42.668656" lon="1.387516">
        <ele>3050.76744012979</ele>
        <time>2019-08-05T10:47:49.000Z</time>
      </trkpt>
      <trkpt lat="42.66869" lon="1.387516">
        <ele>3053</ele>
        <time>2019-08-05T10:47:54.000Z</time>
      </trkpt>
      <trkpt lat="42.66868" lon="1.387475">
        <ele>3055</ele>
        <time>2019-08-05T10:48:34.000Z</time>
      </trkpt>
      <trkpt lat="42.668675" lon="1.387458">
        <ele>3059</ele>
        <time>2019-08-05T10:50:34.000Z</time>
      </trkpt>
      <trkpt lat="42.668677" lon="1.387456">
        <ele>3062.44185908058</ele>
        <time>2019-08-05T10:52:11.000Z</time>
      </trkpt>
      <trkpt lat="42.668675" lon="1.387441">
        <ele>3066</ele>
        <time>2019-08-05T10:54:13.000Z</time>
      </trkpt>
      <trkpt lat="42.66866" lon="1.387399">
        <ele>3064.04762112082</ele>
        <time>2019-08-05T10:54:44.000Z</time>
      </trkpt>
      <trkpt lat="42.66865" lon="1.387349">
        <ele>3063</ele>
        <time>2019-08-05T10:54:58.000Z</time>
      </trkpt>
      <trkpt lat="42.668642" lon="1.387318">
        <ele>3061</ele>
        <time>2019-08-05T10:55:09.000Z</time>
      </trkpt>
      <trkpt lat="42.668604" lon="1.387302">
        <ele>3059</ele>
        <time>2019-08-05T10:55:34.000Z</time>
      </trkpt>
      <trkpt lat="42.668584" lon="1.387259">
        <ele>3058.52173913044</ele>
        <time>2019-08-05T10:55:39.000Z</time>
      </trkpt>
      <trkpt lat="42.668571" lon="1.387208">
        <ele>3058.5054928052</ele>
        <time>2019-08-05T10:55:45.000Z</time>
      </trkpt>
      <trkpt lat="42.668538" lon="1.387181">
        <ele>3057.91836681382</ele>
        <time>2019-08-05T10:56:01.000Z</time>
      </trkpt>
      <trkpt lat="42.668515" lon="1.387146">
        <ele>3060</ele>
        <time>2019-08-05T10:56:18.000Z</time>
      </trkpt>
      <trkpt lat="42.66849" lon="1.387118">
        <ele>3058</ele>
        <time>2019-08-05T10:56:40.000Z</time>
      </trkpt>
      <trkpt lat="42.668466" lon="1.387074">
        <ele>3057</ele>
        <time>2019-08-05T10:56:58.000Z</time>
      </trkpt>
      <trkpt lat="42.66844" lon="1.387039">
        <ele>3056</ele>
        <time>2019-08-05T10:57:09.000Z</time>
      </trkpt>
      <trkpt lat="42.668416" lon="1.386995">
        <ele>3056</ele>
        <time>2019-08-05T10:57:14.000Z</time>
      </trkpt>
      <trkpt lat="42.668386" lon="1.386953">
        <ele>3055</ele>
        <time>2019-08-05T10:57:38.000Z</time>
      </trkpt>
      <trkpt lat="42.668363" lon="1.386917">
        <ele>3054</ele>
        <time>2019-08-05T10:57:42.000Z</time>
      </trkpt>
      <trkpt lat="42.668327" lon="1.386892">
        <ele>3053</ele>
        <time>2019-08-05T10:57:51.000Z</time>
      </trkpt>
      <trkpt lat="42.668299" lon="1.386853">
        <ele>3052</ele>
        <time>2019-08-05T10:57:56.000Z</time>
      </trkpt>
      <trkpt lat="42.668288" lon="1.386802">
        <ele>3051.625</ele>
        <time>2019-08-05T10:58:05.000Z</time>
      </trkpt>
      <trkpt lat="42.668257" lon="1.386763">
        <ele>3052</ele>
        <time>2019-08-05T10:58:17.000Z</time>
      </trkpt>
      <trkpt lat="42.668226" lon="1.386723">
        <ele>3051.50485280046</ele>
        <time>2019-08-05T10:58:23.000Z</time>
      </trkpt>
      <trkpt lat="42.6682" lon="1.386686">
        <ele>3052</ele>
        <time>2019-08-05T10:58:29.000Z</time>
      </trkpt>
      <trkpt lat="42.66817" lon="1.386656">
        <ele>3051</ele>
        <time>2019-08-05T10:58:38.000Z</time>
      </trkpt>
      <trkpt lat="42.668154" lon="1.386627">
        <ele>3048</ele>
        <time>2019-08-05T10:58:53.000Z</time>
      </trkpt>
      <trkpt lat="42.668116" lon="1.386624">
        <ele>3047</ele>
        <time>2019-08-05T10:59:21.000Z</time>
      </trkpt>
      <trkpt lat="42.668082" lon="1.386645">
        <ele>3049</ele>
        <time>2019-08-05T10:59:31.000Z</time>
      </trkpt>
      <trkpt lat="42.668052" lon="1.38663">
        <ele>3046.53488718223</ele>
        <time>2019-08-05T10:59:54.000Z</time>
      </trkpt>
      <trkpt lat="42.668028" lon="1.386592">
        <ele>3045</ele>
        <time>2019-08-05T11:00:00.000Z</time>
      </trkpt>
      <trkpt lat="42.668002" lon="1.38656">
        <ele>3044</ele>
        <time>2019-08-05T11:00:34.000Z</time>
      </trkpt>
      <trkpt lat="42.667989" lon="1.386513">
        <ele>3044</ele>
        <time>2019-08-05T11:01:01.000Z</time>
      </trkpt>
      <trkpt lat="42.667985" lon="1.386468">
        <ele>3046</ele>
        <time>2019-08-05T11:01:24.000Z</time>
      </trkpt>
      <trkpt lat="42.667972" lon="1.386423">
        <ele>3047</ele>
        <time>2019-08-05T11:01:47.000Z</time>
      </trkpt>
      <trkpt lat="42.667952" lon="1.38638">
        <ele>3047</ele>
        <time>2019-08-05T11:01:59.000Z</time>
      </trkpt>
      <trkpt lat="42.667929" lon="1.386348">
        <ele>3049</ele>
        <time>2019-08-05T11:02:22.000Z</time>
      </trkpt>
      <trkpt lat="42.667896" lon="1.386339">
        <ele>3047</ele>
        <time>2019-08-05T11:02:54.000Z</time>
      </trkpt>
      <trkpt lat="42.667862" lon="1.386331">
        <ele>3047</ele>
        <time>2019-08-05T11:03:01.000Z</time>
      </trkpt>
      <trkpt lat="42.667837" lon="1.386326">
        <ele>3045</ele>
        <time>2019-08-05T11:03:10.000Z</time>
      </trkpt>
      <trkpt lat="42.667801" lon="1.386328">
        <ele>3045.54944931287</ele>
        <time>2019-08-05T11:03:20.000Z</time>
      </trkpt>
      <trkpt lat="42.667768" lon="1.386323">
        <ele>3043</ele>
        <time>2019-08-05T11:03:26.000Z</time>
      </trkpt>
      <trkpt lat="42.667733" lon="1.38633">
        <ele>3041</ele>
        <time>2019-08-05T11:03:41.000Z</time>
      </trkpt>
      <trkpt lat="42.667705" lon="1.386312">
        <ele>3040</ele>
        <time>2019-08-05T11:03:47.000Z</time>
      </trkpt>
      <trkpt lat="42.667669" lon="1.386306">
        <ele>3039</ele>
        <time>2019-08-05T11:03:57.000Z</time>
      </trkpt>
      <trkpt lat="42.667637" lon="1.386294">
        <ele>3037</ele>
        <time>2019-08-05T11:04:04.000Z</time>
      </trkpt>
      <trkpt lat="42.667635" lon="1.386246">
        <ele>3035.46666287405</ele>
        <time>2019-08-05T11:04:10.000Z</time>
      </trkpt>
      <trkpt lat="42.66764" lon="1.386204">
        <ele>3034</ele>
        <time>2019-08-05T11:04:21.000Z</time>
      </trkpt>
      <trkpt lat="42.667605" lon="1.386231">
        <ele>3033</ele>
        <time>2019-08-05T11:04:37.000Z</time>
      </trkpt>
      <trkpt lat="42.667568" lon="1.386229">
        <ele>3031.57391701171</ele>
        <time>2019-08-05T11:04:45.000Z</time>
      </trkpt>
      <trkpt lat="42.667539" lon="1.38621">
        <ele>3030</ele>
        <time>2019-08-05T11:04:58.000Z</time>
      </trkpt>
      <trkpt lat="42.667504" lon="1.386201">
        <ele>3029</ele>
        <time>2019-08-05T11:05:15.000Z</time>
      </trkpt>
      <trkpt lat="42.667473" lon="1.386192">
        <ele>3027</ele>
        <time>2019-08-05T11:05:24.000Z</time>
      </trkpt>
      <trkpt lat="42.667437" lon="1.386211">
        <ele>3027</ele>
        <time>2019-08-05T11:05:29.000Z</time>
      </trkpt>
      <trkpt lat="42.667402" lon="1.386205">
        <ele>3025</ele>
        <time>2019-08-05T11:05:34.000Z</time>
      </trkpt>
      <trkpt lat="42.667361" lon="1.386207">
        <ele>3024</ele>
        <time>2019-08-05T11:05:39.000Z</time>
      </trkpt>
      <trkpt lat="42.667323" lon="1.386202">
        <ele>3023</ele>
        <time>2019-08-05T11:05:44.000Z</time>
      </trkpt>
      <trkpt lat="42.667285" lon="1.386217">
        <ele>3022.81308467115</ele>
        <time>2019-08-05T11:05:48.000Z</time>
      </trkpt>
      <trkpt lat="42.667251" lon="1.386203">
        <ele>3021</ele>
        <time>2019-08-05T11:06:12.000Z</time>
      </trkpt>
      <trkpt lat="42.667215" lon="1.386211">
        <ele>3021</ele>
        <time>2019-08-05T11:06:20.000Z</time>
      </trkpt>
      <trkpt lat="42.667179" lon="1.386216">
        <ele>3020</ele>
        <time>2019-08-05T11:06:26.000Z</time>
      </trkpt>
      <trkpt lat="42.667145" lon="1.386202">
        <ele>3019</ele>
        <time>2019-08-05T11:06:35.000Z</time>
      </trkpt>
      <trkpt lat="42.667109" lon="1.386189">
        <ele>3019</ele>
        <time>2019-08-05T11:06:41.000Z</time>
      </trkpt>
      <trkpt lat="42.667085" lon="1.386184">
        <ele>3016</ele>
        <time>2019-08-05T11:06:47.000Z</time>
      </trkpt>
      <trkpt lat="42.66709" lon="1.38614">
        <ele>3014</ele>
        <time>2019-08-05T11:06:57.000Z</time>
      </trkpt>
      <trkpt lat="42.667073" lon="1.386097">
        <ele>3013</ele>
        <time>2019-08-05T11:07:06.000Z</time>
      </trkpt>
      <trkpt lat="42.667044" lon="1.386078">
        <ele>3011</ele>
        <time>2019-08-05T11:07:26.000Z</time>
      </trkpt>
      <trkpt lat="42.667013" lon="1.386071">
        <ele>3009</ele>
        <time>2019-08-05T11:07:32.000Z</time>
      </trkpt>
      <trkpt lat="42.667005" lon="1.386026">
        <ele>3007</ele>
        <time>2019-08-05T11:07:39.000Z</time>
      </trkpt>
      <trkpt lat="42.666974" lon="1.386018">
        <ele>3005</ele>
        <time>2019-08-05T11:08:06.000Z</time>
      </trkpt>
      <trkpt lat="42.666937" lon="1.386021">
        <ele>3003</ele>
        <time>2019-08-05T11:08:45.000Z</time>
      </trkpt>
      <trkpt lat="42.666914" lon="1.386005">
        <ele>3000</ele>
        <time>2019-08-05T11:09:01.000Z</time>
      </trkpt>
      <trkpt lat="42.666877" lon="1.385984">
        <ele>2998</ele>
        <time>2019-08-05T11:09:17.000Z</time>
      </trkpt>
      <trkpt lat="42.666855" lon="1.385969">
        <ele>2996</ele>
        <time>2019-08-05T11:09:41.000Z</time>
      </trkpt>
      <trkpt lat="42.666817" lon="1.385961">
        <ele>2996.54639025613</ele>
        <time>2019-08-05T11:10:05.000Z</time>
      </trkpt>
      <trkpt lat="42.666782" lon="1.385974">
        <ele>2996</ele>
        <time>2019-08-05T11:10:24.000Z</time>
      </trkpt>
      <trkpt lat="42.666748" lon="1.385955">
        <ele>2994</ele>
        <time>2019-08-05T11:11:06.000Z</time>
      </trkpt>
      <trkpt lat="42.666712" lon="1.385947">
        <ele>2995</ele>
        <time>2019-08-05T11:11:28.000Z</time>
      </trkpt>
      <trkpt lat="42.666709" lon="1.385904">
        <ele>2992.51648521676</ele>
        <time>2019-08-05T11:12:07.000Z</time>
      </trkpt>
      <trkpt lat="42.666685" lon="1.3859">
        <ele>2989</ele>
        <time>2019-08-05T11:12:47.000Z</time>
      </trkpt>
      <trkpt lat="42.666653" lon="1.385889">
        <ele>2988</ele>
        <time>2019-08-05T11:13:41.000Z</time>
      </trkpt>
      <trkpt lat="42.666619" lon="1.385869">
        <ele>2986</ele>
        <time>2019-08-05T11:14:12.000Z</time>
      </trkpt>
      <trkpt lat="42.66662" lon="1.385849">
        <ele>2983</ele>
        <time>2019-08-05T11:14:35.000Z</time>
      </trkpt>
      <trkpt lat="42.66659" lon="1.385824">
        <ele>2982</ele>
        <time>2019-08-05T11:15:20.000Z</time>
      </trkpt>
      <trkpt lat="42.666581" lon="1.385778">
        <ele>2981</ele>
        <time>2019-08-05T11:15:28.000Z</time>
      </trkpt>
      <trkpt lat="42.666544" lon="1.385785">
        <ele>2979</ele>
        <time>2019-08-05T11:16:23.000Z</time>
      </trkpt>
      <trkpt lat="42.666532" lon="1.38574">
        <ele>2978</ele>
        <time>2019-08-05T11:17:10.000Z</time>
      </trkpt>
      <trkpt lat="42.666543" lon="1.385714">
        <ele>2975</ele>
        <time>2019-08-05T11:17:26.000Z</time>
      </trkpt>
      <trkpt lat="42.666538" lon="1.385669">
        <ele>2972.52439005354</ele>
        <time>2019-08-05T11:18:25.000Z</time>
      </trkpt>
      <trkpt lat="42.666519" lon="1.385643">
        <ele>2970</ele>
        <time>2019-08-05T11:19:14.000Z</time>
      </trkpt>
      <trkpt lat="42.666492" lon="1.385627">
        <ele>2967</ele>
        <time>2019-08-05T11:19:55.000Z</time>
      </trkpt>
      <trkpt lat="42.666462" lon="1.38561">
        <ele>2964.70000116364</ele>
        <time>2019-08-05T11:20:22.000Z</time>
      </trkpt>
      <trkpt lat="42.666439" lon="1.385578">
        <ele>2963</ele>
        <time>2019-08-05T11:20:43.000Z</time>
      </trkpt>
      <trkpt lat="42.666399" lon="1.385568">
        <ele>2962</ele>
        <time>2019-08-05T11:20:53.000Z</time>
      </trkpt>
      <trkpt lat="42.666361" lon="1.385569">
        <ele>2962</ele>
        <time>2019-08-05T11:21:09.000Z</time>
      </trkpt>
      <trkpt lat="42.66633" lon="1.385582">
        <ele>2959.48148148148</ele>
        <time>2019-08-05T11:22:21.000Z</time>
      </trkpt>
      <trkpt lat="42.666307" lon="1.385577">
        <ele>2957</ele>
        <time>2019-08-05T11:22:53.000Z</time>
      </trkpt>
      <trkpt lat="42.666269" lon="1.38558">
        <ele>2956</ele>
        <time>2019-08-05T11:23:47.000Z</time>
      </trkpt>
      <trkpt lat="42.666234" lon="1.385572">
        <ele>2955</ele>
        <time>2019-08-05T11:23:53.000Z</time>
      </trkpt>
      <trkpt lat="42.666191" lon="1.385561">
        <ele>2954</ele>
        <time>2019-08-05T11:24:05.000Z</time>
      </trkpt>
      <trkpt lat="42.666161" lon="1.385558">
        <ele>2953</ele>
        <time>2019-08-05T11:24:24.000Z</time>
      </trkpt>
      <trkpt lat="42.666123" lon="1.385546">
        <ele>2952</ele>
        <time>2019-08-05T11:24:33.000Z</time>
      </trkpt>
      <trkpt lat="42.6661" lon="1.385539">
        <ele>2949.91743485562</ele>
        <time>2019-08-05T11:24:47.000Z</time>
      </trkpt>
      <trkpt lat="42.666067" lon="1.385521">
        <ele>2948</ele>
        <time>2019-08-05T11:25:07.000Z</time>
      </trkpt>
      <trkpt lat="42.66604" lon="1.385483">
        <ele>2946.56363890246</ele>
        <time>2019-08-05T11:25:22.000Z</time>
      </trkpt>
      <trkpt lat="42.666013" lon="1.385469">
        <ele>2944</ele>
        <time>2019-08-05T11:25:39.000Z</time>
      </trkpt>
      <trkpt lat="42.666016" lon="1.385441">
        <ele>2941</ele>
        <time>2019-08-05T11:26:12.000Z</time>
      </trkpt>
      <trkpt lat="42.665981" lon="1.385436">
        <ele>2940</ele>
        <time>2019-08-05T11:26:19.000Z</time>
      </trkpt>
      <trkpt lat="42.665949" lon="1.38543">
        <ele>2937</ele>
        <time>2019-08-05T11:26:35.000Z</time>
      </trkpt>
      <trkpt lat="42.665921" lon="1.385397">
        <ele>2935</ele>
        <time>2019-08-05T11:27:11.000Z</time>
      </trkpt>
      <trkpt lat="42.665892" lon="1.385383">
        <ele>2934</ele>
        <time>2019-08-05T11:27:23.000Z</time>
      </trkpt>
      <trkpt lat="42.665859" lon="1.385363">
        <ele>2933</ele>
        <time>2019-08-05T11:27:33.000Z</time>
      </trkpt>
      <trkpt lat="42.665826" lon="1.385345">
        <ele>2932</ele>
        <time>2019-08-05T11:27:54.000Z</time>
      </trkpt>
      <trkpt lat="42.665787" lon="1.385338">
        <ele>2930</ele>
        <time>2019-08-05T11:28:00.000Z</time>
      </trkpt>
      <trkpt lat="42.665759" lon="1.385322">
        <ele>2928</ele>
        <time>2019-08-05T11:28:09.000Z</time>
      </trkpt>
      <trkpt lat="42.665738" lon="1.385289">
        <ele>2925</ele>
        <time>2019-08-05T11:28:20.000Z</time>
      </trkpt>
      <trkpt lat="42.665705" lon="1.385272">
        <ele>2924</ele>
        <time>2019-08-05T11:28:32.000Z</time>
      </trkpt>
      <trkpt lat="42.665696" lon="1.385226">
        <ele>2922.44898252397</ele>
        <time>2019-08-05T11:28:41.000Z</time>
      </trkpt>
      <trkpt lat="42.665683" lon="1.385219">
        <ele>2919</ele>
        <time>2019-08-05T11:28:56.000Z</time>
      </trkpt>
      <trkpt lat="42.665651" lon="1.385225">
        <ele>2917</ele>
        <time>2019-08-05T11:29:25.000Z</time>
      </trkpt>
      <trkpt lat="42.665612" lon="1.385223">
        <ele>2917</ele>
        <time>2019-08-05T11:29:40.000Z</time>
      </trkpt>
      <trkpt lat="42.665582" lon="1.385224">
        <ele>2913</ele>
        <time>2019-08-05T11:29:57.000Z</time>
      </trkpt>
      <trkpt lat="42.665555" lon="1.385206">
        <ele>2910</ele>
        <time>2019-08-05T11:31:02.000Z</time>
      </trkpt>
      <trkpt lat="42.665534" lon="1.385196">
        <ele>2908</ele>
        <time>2019-08-05T11:31:19.000Z</time>
      </trkpt>
      <trkpt lat="42.665515" lon="1.385184">
        <ele>2905</ele>
        <time>2019-08-05T11:31:30.000Z</time>
      </trkpt>
      <trkpt lat="42.665508" lon="1.385158">
        <ele>2900.71429151936</ele>
        <time>2019-08-05T11:32:06.000Z</time>
      </trkpt>
      <trkpt lat="42.665515" lon="1.385118">
        <ele>2899</ele>
        <time>2019-08-05T11:32:41.000Z</time>
      </trkpt>
      <trkpt lat="42.665496" lon="1.385102">
        <ele>2896</ele>
        <time>2019-08-05T11:33:26.000Z</time>
      </trkpt>
      <trkpt lat="42.665469" lon="1.385089">
        <ele>2893</ele>
        <time>2019-08-05T11:34:09.000Z</time>
      </trkpt>
      <trkpt lat="42.665442" lon="1.385068">
        <ele>2891</ele>
        <time>2019-08-05T11:35:03.000Z</time>
      </trkpt>
      <trkpt lat="42.665406" lon="1.385057">
        <ele>2888</ele>
        <time>2019-08-05T11:35:33.000Z</time>
      </trkpt>
      <trkpt lat="42.665379" lon="1.385035">
        <ele>2887</ele>
        <time>2019-08-05T11:35:40.000Z</time>
      </trkpt>
      <trkpt lat="42.665368" lon="1.385003">
        <ele>2885</ele>
        <time>2019-08-05T11:36:03.000Z</time>
      </trkpt>
      <trkpt lat="42.665336" lon="1.384996">
        <ele>2882</ele>
        <time>2019-08-05T11:36:40.000Z</time>
      </trkpt>
      <trkpt lat="42.665299" lon="1.384991">
        <ele>2882</ele>
        <time>2019-08-05T11:37:09.000Z</time>
      </trkpt>
      <trkpt lat="42.665266" lon="1.384972">
        <ele>2880.41999897599</ele>
        <time>2019-08-05T11:37:16.000Z</time>
      </trkpt>
      <trkpt lat="42.665231" lon="1.384962">
        <ele>2879</ele>
        <time>2019-08-05T11:37:25.000Z</time>
      </trkpt>
      <trkpt lat="42.6652" lon="1.384958">
        <ele>2876</ele>
        <time>2019-08-05T11:37:33.000Z</time>
      </trkpt>
      <trkpt lat="42.665166" lon="1.384943">
        <ele>2875</ele>
        <time>2019-08-05T11:37:44.000Z</time>
      </trkpt>
      <trkpt lat="42.665136" lon="1.384922">
        <ele>2873</ele>
        <time>2019-08-05T11:37:51.000Z</time>
      </trkpt>
      <trkpt lat="42.665116" lon="1.384886">
        <ele>2870</ele>
        <time>2019-08-05T11:38:09.000Z</time>
      </trkpt>
      <trkpt lat="42.665105" lon="1.384862">
        <ele>2867</ele>
        <time>2019-08-05T11:39:04.000Z</time>
      </trkpt>
      <trkpt lat="42.66507" lon="1.384846">
        <ele>2866</ele>
        <time>2019-08-05T11:40:13.000Z</time>
      </trkpt>
      <trkpt lat="42.665038" lon="1.384827">
        <ele>2867</ele>
        <time>2019-08-05T11:40:25.000Z</time>
      </trkpt>
      <trkpt lat="42.664997" lon="1.384815">
        <ele>2867</ele>
        <time>2019-08-05T11:40:30.000Z</time>
      </trkpt>
      <trkpt lat="42.664959" lon="1.384822">
        <ele>2867</ele>
        <time>2019-08-05T11:40:35.000Z</time>
      </trkpt>
      <trkpt lat="42.664926" lon="1.384828">
        <ele>2865</ele>
        <time>2019-08-05T11:40:42.000Z</time>
      </trkpt>
      <trkpt lat="42.664886" lon="1.384842">
        <ele>2863</ele>
        <time>2019-08-05T11:41:13.000Z</time>
      </trkpt>
      <trkpt lat="42.664845" lon="1.384839">
        <ele>2863</ele>
        <time>2019-08-05T11:41:19.000Z</time>
      </trkpt>
      <trkpt lat="42.664811" lon="1.38487">
        <ele>2862</ele>
        <time>2019-08-05T11:41:25.000Z</time>
      </trkpt>
      <trkpt lat="42.664773" lon="1.384868">
        <ele>2861</ele>
        <time>2019-08-05T11:41:32.000Z</time>
      </trkpt>
      <trkpt lat="42.664741" lon="1.384849">
        <ele>2859</ele>
        <time>2019-08-05T11:41:39.000Z</time>
      </trkpt>
      <trkpt lat="42.664708" lon="1.384855">
        <ele>2857.43299200338</ele>
        <time>2019-08-05T11:41:43.000Z</time>
      </trkpt>
      <trkpt lat="42.664671" lon="1.384877">
        <ele>2857</ele>
        <time>2019-08-05T11:43:10.000Z</time>
      </trkpt>
      <trkpt lat="42.664638" lon="1.384865">
        <ele>2855.47728</ele>
        <time>2019-08-05T11:43:17.000Z</time>
      </trkpt>
      <trkpt lat="42.664625" lon="1.384825">
        <ele>2853.43749333333</ele>
        <time>2019-08-05T11:43:20.000Z</time>
      </trkpt>
      <trkpt lat="42.664614" lon="1.384779">
        <ele>2853</ele>
        <time>2019-08-05T11:43:23.000Z</time>
      </trkpt>
      <trkpt lat="42.664594" lon="1.384755">
        <ele>2849</ele>
        <time>2019-08-05T11:43:28.000Z</time>
      </trkpt>
      <trkpt lat="42.66456" lon="1.38472">
        <ele>2846</ele>
        <time>2019-08-05T11:43:34.000Z</time>
      </trkpt>
      <trkpt lat="42.664527" lon="1.384694">
        <ele>2846</ele>
        <time>2019-08-05T11:43:38.000Z</time>
      </trkpt>
      <trkpt lat="42.664495" lon="1.384673">
        <ele>2845</ele>
        <time>2019-08-05T11:43:43.000Z</time>
      </trkpt>
      <trkpt lat="42.664461" lon="1.384691">
        <ele>2843</ele>
        <time>2019-08-05T11:43:49.000Z</time>
      </trkpt>
      <trkpt lat="42.664439" lon="1.384712">
        <ele>2840</ele>
        <time>2019-08-05T11:44:54.000Z</time>
      </trkpt>
      <trkpt lat="42.66443" lon="1.384745">
        <ele>2836</ele>
        <time>2019-08-05T11:45:03.000Z</time>
      </trkpt>
      <trkpt lat="42.664402" lon="1.384713">
        <ele>2835</ele>
        <time>2019-08-05T11:45:14.000Z</time>
      </trkpt>
      <trkpt lat="42.664365" lon="1.38471">
        <ele>2834</ele>
        <time>2019-08-05T11:45:19.000Z</time>
      </trkpt>
      <trkpt lat="42.664334" lon="1.384708">
        <ele>2832</ele>
        <time>2019-08-05T11:45:23.000Z</time>
      </trkpt>
      <trkpt lat="42.66431" lon="1.384679">
        <ele>2829</ele>
        <time>2019-08-05T11:45:30.000Z</time>
      </trkpt>
      <trkpt lat="42.66431" lon="1.38463">
        <ele>2829</ele>
        <time>2019-08-05T11:45:36.000Z</time>
      </trkpt>
      <trkpt lat="42.664312" lon="1.38458">
        <ele>2828</ele>
        <time>2019-08-05T11:45:40.000Z</time>
      </trkpt>
      <trkpt lat="42.664312" lon="1.38453">
        <ele>2825</ele>
        <time>2019-08-05T11:45:45.000Z</time>
      </trkpt>
      <trkpt lat="42.664283" lon="1.38452">
        <ele>2823</ele>
        <time>2019-08-05T11:45:53.000Z</time>
      </trkpt>
      <trkpt lat="42.664247" lon="1.38454">
        <ele>2821.50574526622</ele>
        <time>2019-08-05T11:45:58.000Z</time>
      </trkpt>
      <trkpt lat="42.664231" lon="1.384546">
        <ele>2820.96086842373</ele>
        <time>2019-08-05T11:46:00.000Z</time>
      </trkpt>
      <trkpt lat="42.660768" lon="1.377902">
        <ele>2558.39990234375</ele>
        <time>2019-08-05T12:16:10.000Z</time>
      </trkpt>
      <trkpt lat="42.660743" lon="1.377917">
        <ele>2556</ele>
        <time>2019-08-05T12:16:36.000Z</time>
      </trkpt>
      <trkpt lat="42.660701" lon="1.377897">
        <ele>2557</ele>
        <time>2019-08-05T12:16:41.000Z</time>
      </trkpt>
      <trkpt lat="42.660665" lon="1.377878">
        <ele>2556</ele>
        <time>2019-08-05T12:16:44.000Z</time>
      </trkpt>
      <trkpt lat="42.660624" lon="1.377858">
        <ele>2556</ele>
        <time>2019-08-05T12:16:47.000Z</time>
      </trkpt>
      <trkpt lat="42.660589" lon="1.377827">
        <ele>2556</ele>
        <time>2019-08-05T12:16:50.000Z</time>
      </trkpt>
      <trkpt lat="42.660554" lon="1.377802">
        <ele>2556</ele>
        <time>2019-08-05T12:16:54.000Z</time>
      </trkpt>
      <trkpt lat="42.660521" lon="1.377776">
        <ele>2556</ele>
        <time>2019-08-05T12:16:58.000Z</time>
      </trkpt>
      <trkpt lat="42.660495" lon="1.377743">
        <ele>2554</ele>
        <time>2019-08-05T12:17:02.000Z</time>
      </trkpt>
      <trkpt lat="42.660472" lon="1.377716">
        <ele>2554</ele>
        <time>2019-08-05T12:17:05.000Z</time>
      </trkpt>
      <trkpt lat="42.660435" lon="1.377684">
        <ele>2552.58253488921</ele>
        <time>2019-08-05T12:17:10.000Z</time>
      </trkpt>
      <trkpt lat="42.660413" lon="1.377652">
        <ele>2551</ele>
        <time>2019-08-05T12:17:13.000Z</time>
      </trkpt>
      <trkpt lat="42.660385" lon="1.37761">
        <ele>2551</ele>
        <time>2019-08-05T12:17:17.000Z</time>
      </trkpt>
      <trkpt lat="42.660357" lon="1.377573">
        <ele>2551</ele>
        <time>2019-08-05T12:17:20.000Z</time>
      </trkpt>
      <trkpt lat="42.660352" lon="1.377511">
        <ele>2548.64705660898</ele>
        <time>2019-08-05T12:17:24.000Z</time>
      </trkpt>
      <trkpt lat="42.660312" lon="1.377485">
        <ele>2550</ele>
        <time>2019-08-05T12:17:28.000Z</time>
      </trkpt>
      <trkpt lat="42.660273" lon="1.377457">
        <ele>2550</ele>
        <time>2019-08-05T12:17:32.000Z</time>
      </trkpt>
      <trkpt lat="42.660253" lon="1.377417">
        <ele>2550</ele>
        <time>2019-08-05T12:17:35.000Z</time>
      </trkpt>
      <trkpt lat="42.660214" lon="1.377393">
        <ele>2551</ele>
        <time>2019-08-05T12:17:39.000Z</time>
      </trkpt>
      <trkpt lat="42.660169" lon="1.377389">
        <ele>2551</ele>
        <time>2019-08-05T12:17:43.000Z</time>
      </trkpt>
      <trkpt lat="42.660137" lon="1.377362">
        <ele>2551</ele>
        <time>2019-08-05T12:17:50.000Z</time>
      </trkpt>
      <trkpt lat="42.660092" lon="1.377337">
        <ele>2551</ele>
        <time>2019-08-05T12:17:54.000Z</time>
      </trkpt>
      <trkpt lat="42.660063" lon="1.377297">
        <ele>2551</ele>
        <time>2019-08-05T12:17:57.000Z</time>
      </trkpt>
      <trkpt lat="42.660036" lon="1.37726">
        <ele>2550</ele>
        <time>2019-08-05T12:18:02.000Z</time>
      </trkpt>
      <trkpt lat="42.660022" lon="1.377214">
        <ele>2550</ele>
        <time>2019-08-05T12:18:08.000Z</time>
      </trkpt>
      <trkpt lat="42.659987" lon="1.37718">
        <ele>2551</ele>
        <time>2019-08-05T12:18:12.000Z</time>
      </trkpt>
      <trkpt lat="42.659949" lon="1.377153">
        <ele>2550</ele>
        <time>2019-08-05T12:18:16.000Z</time>
      </trkpt>
      <trkpt lat="42.659914" lon="1.377151">
        <ele>2550</ele>
        <time>2019-08-05T12:18:19.000Z</time>
      </trkpt>
      <trkpt lat="42.659875" lon="1.377141">
        <ele>2550</ele>
        <time>2019-08-05T12:18:23.000Z</time>
      </trkpt>
      <trkpt lat="42.659854" lon="1.377089">
        <ele>2550</ele>
        <time>2019-08-05T12:18:28.000Z</time>
      </trkpt>
      <trkpt lat="42.659842" lon="1.377041">
        <ele>2548</ele>
        <time>2019-08-05T12:18:31.000Z</time>
      </trkpt>
      <trkpt lat="42.659829" lon="1.376986">
        <ele>2546.24999384615</ele>
        <time>2019-08-05T12:18:34.000Z</time>
      </trkpt>
      <trkpt lat="42.659802" lon="1.376944">
        <ele>2546</ele>
        <time>2019-08-05T12:18:36.000Z</time>
      </trkpt>
      <trkpt lat="42.659774" lon="1.376895">
        <ele>2545</ele>
        <time>2019-08-05T12:18:38.000Z</time>
      </trkpt>
      <trkpt lat="42.65975" lon="1.376842">
        <ele>2544.29906452616</ele>
        <time>2019-08-05T12:18:40.000Z</time>
      </trkpt>
      <trkpt lat="42.659726" lon="1.376793">
        <ele>2544.50381560048</ele>
        <time>2019-08-05T12:18:42.000Z</time>
      </trkpt>
      <trkpt lat="42.659703" lon="1.376751">
        <ele>2545</ele>
        <time>2019-08-05T12:18:44.000Z</time>
      </trkpt>
      <trkpt lat="42.659681" lon="1.376704">
        <ele>2544.27884307692</ele>
        <time>2019-08-05T12:18:46.000Z</time>
      </trkpt>
      <trkpt lat="42.659659" lon="1.376659">
        <ele>2544.70296678368</ele>
        <time>2019-08-05T12:18:48.000Z</time>
      </trkpt>
      <trkpt lat="42.65964" lon="1.376601">
        <ele>2545</ele>
        <time>2019-08-05T12:18:50.000Z</time>
      </trkpt>
      <trkpt lat="42.659631" lon="1.376539">
        <ele>2545</ele>
        <time>2019-08-05T12:18:53.000Z</time>
      </trkpt>
      <trkpt lat="42.659607" lon="1.376485">
        <ele>2545</ele>
        <time>2019-08-05T12:18:57.000Z</time>
      </trkpt>
      <trkpt lat="42.6596" lon="1.376433">
        <ele>2546</ele>
        <time>2019-08-05T12:19:00.000Z</time>
      </trkpt>
      <trkpt lat="42.659581" lon="1.376375">
        <ele>2545.34343120903</ele>
        <time>2019-08-05T12:19:04.000Z</time>
      </trkpt>
      <trkpt lat="42.659557" lon="1.376328">
        <ele>2545</ele>
        <time>2019-08-05T12:19:08.000Z</time>
      </trkpt>
      <trkpt lat="42.659519" lon="1.376311">
        <ele>2545</ele>
        <time>2019-08-05T12:19:11.000Z</time>
      </trkpt>
      <trkpt lat="42.659477" lon="1.37632">
        <ele>2544</ele>
        <time>2019-08-05T12:19:15.000Z</time>
      </trkpt>
      <trkpt lat="42.659442" lon="1.376326">
        <ele>2544</ele>
        <time>2019-08-05T12:19:18.000Z</time>
      </trkpt>
      <trkpt lat="42.659406" lon="1.376322">
        <ele>2544</ele>
        <time>2019-08-05T12:19:23.000Z</time>
      </trkpt>
      <trkpt lat="42.659367" lon="1.376342">
        <ele>2543</ele>
        <time>2019-08-05T12:19:29.000Z</time>
      </trkpt>
      <trkpt lat="42.659333" lon="1.376353">
        <ele>2541</ele>
        <time>2019-08-05T12:19:34.000Z</time>
      </trkpt>
      <trkpt lat="42.659302" lon="1.376386">
        <ele>2540</ele>
        <time>2019-08-05T12:19:44.000Z</time>
      </trkpt>
      <trkpt lat="42.659275" lon="1.376418">
        <ele>2540</ele>
        <time>2019-08-05T12:19:49.000Z</time>
      </trkpt>
      <trkpt lat="42.659243" lon="1.37645">
        <ele>2540</ele>
        <time>2019-08-05T12:19:53.000Z</time>
      </trkpt>
      <trkpt lat="42.659219" lon="1.376407">
        <ele>2540</ele>
        <time>2019-08-05T12:19:58.000Z</time>
      </trkpt>
      <trkpt lat="42.65919" lon="1.376374">
        <ele>2536</ele>
        <time>2019-08-05T12:20:03.000Z</time>
      </trkpt>
      <trkpt lat="42.659157" lon="1.37634">
        <ele>2535.1900032</ele>
        <time>2019-08-05T12:20:07.000Z</time>
      </trkpt>
      <trkpt lat="42.659133" lon="1.376302">
        <ele>2535</ele>
        <time>2019-08-05T12:20:10.000Z</time>
      </trkpt>
      <trkpt lat="42.659125" lon="1.376247">
        <ele>2533.40000204798</ele>
        <time>2019-08-05T12:20:15.000Z</time>
      </trkpt>
      <trkpt lat="42.659097" lon="1.376214">
        <ele>2533</ele>
        <time>2019-08-05T12:20:19.000Z</time>
      </trkpt>
      <trkpt lat="42.659079" lon="1.376168">
        <ele>2532.46753441053</ele>
        <time>2019-08-05T12:20:22.000Z</time>
      </trkpt>
      <trkpt lat="42.659072" lon="1.376122">
        <ele>2529.60605355365</ele>
        <time>2019-08-05T12:20:31.000Z</time>
      </trkpt>
      <trkpt lat="42.659089" lon="1.376065">
        <ele>2529</ele>
        <time>2019-08-05T12:20:34.000Z</time>
      </trkpt>
      <trkpt lat="42.659099" lon="1.376007">
        <ele>2529</ele>
        <time>2019-08-05T12:20:40.000Z</time>
      </trkpt>
      <trkpt lat="42.659068" lon="1.376023">
        <ele>2527</ele>
        <time>2019-08-05T12:21:10.000Z</time>
      </trkpt>
      <trkpt lat="42.659093" lon="1.375999">
        <ele>2525</ele>
        <time>2019-08-05T12:21:41.000Z</time>
      </trkpt>
      <trkpt lat="42.659108" lon="1.375961">
        <ele>2527</ele>
        <time>2019-08-05T12:21:55.000Z</time>
      </trkpt>
      <trkpt lat="42.659145" lon="1.375969">
        <ele>2527</ele>
        <time>2019-08-05T12:22:00.000Z</time>
      </trkpt>
      <trkpt lat="42.659169" lon="1.37593">
        <ele>2528</ele>
        <time>2019-08-05T12:22:13.000Z</time>
      </trkpt>
      <trkpt lat="42.659174" lon="1.375876">
        <ele>2528.77550513956</ele>
        <time>2019-08-05T12:22:22.000Z</time>
      </trkpt>
      <trkpt lat="42.659207" lon="1.375843">
        <ele>2529</ele>
        <time>2019-08-05T12:22:27.000Z</time>
      </trkpt>
      <trkpt lat="42.659246" lon="1.375822">
        <ele>2532</ele>
        <time>2019-08-05T12:22:32.000Z</time>
      </trkpt>
      <trkpt lat="42.659278" lon="1.3758">
        <ele>2534</ele>
        <time>2019-08-05T12:22:37.000Z</time>
      </trkpt>
      <trkpt lat="42.659246" lon="1.375801">
        <ele>2535</ele>
        <time>2019-08-05T12:22:46.000Z</time>
      </trkpt>
      <trkpt lat="42.659205" lon="1.375806">
        <ele>2534</ele>
        <time>2019-08-05T12:22:49.000Z</time>
      </trkpt>
      <trkpt lat="42.659169" lon="1.375817">
        <ele>2533</ele>
        <time>2019-08-05T12:22:52.000Z</time>
      </trkpt>
      <trkpt lat="42.659132" lon="1.375824">
        <ele>2532</ele>
        <time>2019-08-05T12:22:56.000Z</time>
      </trkpt>
      <trkpt lat="42.659108" lon="1.375836">
        <ele>2532</ele>
        <time>2019-08-05T12:22:58.000Z</time>
      </trkpt>
      <trkpt lat="42.659071" lon="1.375843">
        <ele>2533</ele>
        <time>2019-08-05T12:23:01.000Z</time>
      </trkpt>
      <trkpt lat="42.659024" lon="1.375841">
        <ele>2533</ele>
        <time>2019-08-05T12:23:06.000Z</time>
      </trkpt>
      <trkpt lat="42.65898" lon="1.375836">
        <ele>2533</ele>
        <time>2019-08-05T12:23:10.000Z</time>
      </trkpt>
      <trkpt lat="42.658936" lon="1.375856">
        <ele>2533</ele>
        <time>2019-08-05T12:23:14.000Z</time>
      </trkpt>
      <trkpt lat="42.6589" lon="1.375825">
        <ele>2532.69607720108</ele>
        <time>2019-08-05T12:23:18.000Z</time>
      </trkpt>
      <trkpt lat="42.658876" lon="1.375789">
        <ele>2533</ele>
        <time>2019-08-05T12:23:22.000Z</time>
      </trkpt>
      <trkpt lat="42.658844" lon="1.375758">
        <ele>2531.1900032</ele>
        <time>2019-08-05T12:23:26.000Z</time>
      </trkpt>
      <trkpt lat="42.658812" lon="1.375732">
        <ele>2531</ele>
        <time>2019-08-05T12:23:35.000Z</time>
      </trkpt>
      <trkpt lat="42.658775" lon="1.375693">
        <ele>2531</ele>
        <time>2019-08-05T12:23:39.000Z</time>
      </trkpt>
      <trkpt lat="42.658731" lon="1.375686">
        <ele>2528</ele>
        <time>2019-08-05T12:23:44.000Z</time>
      </trkpt>
      <trkpt lat="42.658698" lon="1.375661">
        <ele>2526.31427944484</ele>
        <time>2019-08-05T12:23:47.000Z</time>
      </trkpt>
      <trkpt lat="42.658664" lon="1.375645">
        <ele>2526</ele>
        <time>2019-08-05T12:23:50.000Z</time>
      </trkpt>
      <trkpt lat="42.658623" lon="1.375657">
        <ele>2527</ele>
        <time>2019-08-05T12:23:54.000Z</time>
      </trkpt>
      <trkpt lat="42.658602" lon="1.375608">
        <ele>2527</ele>
        <time>2019-08-05T12:24:01.000Z</time>
      </trkpt>
      <trkpt lat="42.658615" lon="1.375552">
        <ele>2528</ele>
        <time>2019-08-05T12:24:05.000Z</time>
      </trkpt>
      <trkpt lat="42.658606" lon="1.375496">
        <ele>2528</ele>
        <time>2019-08-05T12:24:09.000Z</time>
      </trkpt>
      <trkpt lat="42.658567" lon="1.375496">
        <ele>2528</ele>
        <time>2019-08-05T12:24:20.000Z</time>
      </trkpt>
      <trkpt lat="42.658531" lon="1.375474">
        <ele>2526</ele>
        <time>2019-08-05T12:24:30.000Z</time>
      </trkpt>
      <trkpt lat="42.658496" lon="1.37549">
        <ele>2525</ele>
        <time>2019-08-05T12:24:37.000Z</time>
      </trkpt>
      <trkpt lat="42.65847" lon="1.375537">
        <ele>2524</ele>
        <time>2019-08-05T12:24:42.000Z</time>
      </trkpt>
      <trkpt lat="42.658448" lon="1.375589">
        <ele>2524</ele>
        <time>2019-08-05T12:24:46.000Z</time>
      </trkpt>
      <trkpt lat="42.658414" lon="1.375626">
        <ele>2523.66336319972</ele>
        <time>2019-08-05T12:24:49.000Z</time>
      </trkpt>
      <trkpt lat="42.658389" lon="1.375664">
        <ele>2524</ele>
        <time>2019-08-05T12:24:52.000Z</time>
      </trkpt>
      <trkpt lat="42.658361" lon="1.375712">
        <ele>2524</ele>
        <time>2019-08-05T12:24:55.000Z</time>
      </trkpt>
      <trkpt lat="42.65833" lon="1.375754">
        <ele>2523</ele>
        <time>2019-08-05T12:24:58.000Z</time>
      </trkpt>
      <trkpt lat="42.658306" lon="1.375791">
        <ele>2523</ele>
        <time>2019-08-05T12:25:01.000Z</time>
      </trkpt>
      <trkpt lat="42.65827" lon="1.375843">
        <ele>2523</ele>
        <time>2019-08-05T12:25:04.000Z</time>
      </trkpt>
      <trkpt lat="42.658227" lon="1.375892">
        <ele>2522.27618827029</ele>
        <time>2019-08-05T12:25:06.000Z</time>
      </trkpt>
      <trkpt lat="42.658179" lon="1.375931">
        <ele>2523.41414977245</ele>
        <time>2019-08-05T12:25:08.000Z</time>
      </trkpt>
      <trkpt lat="42.658142" lon="1.375975">
        <ele>2523.33333333333</ele>
        <time>2019-08-05T12:25:10.000Z</time>
      </trkpt>
      <trkpt lat="42.658099" lon="1.376015">
        <ele>2522.27835105962</ele>
        <time>2019-08-05T12:25:12.000Z</time>
      </trkpt>
      <trkpt lat="42.658051" lon="1.376054">
        <ele>2522</ele>
        <time>2019-08-05T12:25:14.000Z</time>
      </trkpt>
      <trkpt lat="42.658015" lon="1.376097">
        <ele>2522</ele>
        <time>2019-08-05T12:25:16.000Z</time>
      </trkpt>
      <trkpt lat="42.657983" lon="1.376145">
        <ele>2522</ele>
        <time>2019-08-05T12:25:18.000Z</time>
      </trkpt>
      <trkpt lat="42.657946" lon="1.376194">
        <ele>2522</ele>
        <time>2019-08-05T12:25:20.000Z</time>
      </trkpt>
      <trkpt lat="42.657904" lon="1.376236">
        <ele>2522</ele>
        <time>2019-08-05T12:25:22.000Z</time>
      </trkpt>
      <trkpt lat="42.657858" lon="1.376267">
        <ele>2522</ele>
        <time>2019-08-05T12:25:24.000Z</time>
      </trkpt>
      <trkpt lat="42.657818" lon="1.376303">
        <ele>2521</ele>
        <time>2019-08-05T12:25:26.000Z</time>
      </trkpt>
      <trkpt lat="42.657787" lon="1.376325">
        <ele>2522</ele>
        <time>2019-08-05T12:25:28.000Z</time>
      </trkpt>
      <trkpt lat="42.657755" lon="1.376343">
        <ele>2523</ele>
        <time>2019-08-05T12:25:30.000Z</time>
      </trkpt>
      <trkpt lat="42.657722" lon="1.37636">
        <ele>2523</ele>
        <time>2019-08-05T12:25:32.000Z</time>
      </trkpt>
      <trkpt lat="42.657675" lon="1.376396">
        <ele>2523</ele>
        <time>2019-08-05T12:25:35.000Z</time>
      </trkpt>
      <trkpt lat="42.657634" lon="1.376414">
        <ele>2523</ele>
        <time>2019-08-05T12:25:38.000Z</time>
      </trkpt>
      <trkpt lat="42.657593" lon="1.376422">
        <ele>2525</ele>
        <time>2019-08-05T12:25:41.000Z</time>
      </trkpt>
      <trkpt lat="42.657548" lon="1.376435">
        <ele>2524</ele>
        <time>2019-08-05T12:25:45.000Z</time>
      </trkpt>
      <trkpt lat="42.657508" lon="1.376449">
        <ele>2523.27835105962</ele>
        <time>2019-08-05T12:25:48.000Z</time>
      </trkpt>
      <trkpt lat="42.657469" lon="1.376463">
        <ele>2522.48542917148</ele>
        <time>2019-08-05T12:25:52.000Z</time>
      </trkpt>
      <trkpt lat="42.65744" lon="1.376477">
        <ele>2521</ele>
        <time>2019-08-05T12:25:55.000Z</time>
      </trkpt>
      <trkpt lat="42.657435" lon="1.376528">
        <ele>2522</ele>
        <time>2019-08-05T12:26:00.000Z</time>
      </trkpt>
      <trkpt lat="42.657438" lon="1.376509">
        <ele>2518</ele>
        <time>2019-08-05T12:26:55.000Z</time>
      </trkpt>
      <trkpt lat="42.657404" lon="1.376483">
        <ele>2517</ele>
        <time>2019-08-05T12:27:04.000Z</time>
      </trkpt>
      <trkpt lat="42.657363" lon="1.376484">
        <ele>2517.8099968</ele>
        <time>2019-08-05T12:27:08.000Z</time>
      </trkpt>
      <trkpt lat="42.657328" lon="1.376493">
        <ele>2518</ele>
        <time>2019-08-05T12:27:11.000Z</time>
      </trkpt>
      <trkpt lat="42.657284" lon="1.376508">
        <ele>2518</ele>
        <time>2019-08-05T12:27:15.000Z</time>
      </trkpt>
      <trkpt lat="42.657245" lon="1.376515">
        <ele>2518</ele>
        <time>2019-08-05T12:27:19.000Z</time>
      </trkpt>
      <trkpt lat="42.657204" lon="1.376515">
        <ele>2518</ele>
        <time>2019-08-05T12:27:23.000Z</time>
      </trkpt>
      <trkpt lat="42.657168" lon="1.376535">
        <ele>2518</ele>
        <time>2019-08-05T12:27:27.000Z</time>
      </trkpt>
      <trkpt lat="42.657148" lon="1.376581">
        <ele>2518</ele>
        <time>2019-08-05T12:27:31.000Z</time>
      </trkpt>
      <trkpt lat="42.657131" lon="1.376631">
        <ele>2517</ele>
        <time>2019-08-05T12:27:36.000Z</time>
      </trkpt>
      <trkpt lat="42.657105" lon="1.376666">
        <ele>2515.45454545455</ele>
        <time>2019-08-05T12:27:40.000Z</time>
      </trkpt>
      <trkpt lat="42.657088" lon="1.376712">
        <ele>2515</ele>
        <time>2019-08-05T12:27:44.000Z</time>
      </trkpt>
      <trkpt lat="42.65711" lon="1.376752">
        <ele>2515</ele>
        <time>2019-08-05T12:27:53.000Z</time>
      </trkpt>
      <trkpt lat="42.657116" lon="1.376807">
        <ele>2515</ele>
        <time>2019-08-05T12:27:57.000Z</time>
      </trkpt>
      <trkpt lat="42.657081" lon="1.376835">
        <ele>2515.29292511378</ele>
        <time>2019-08-05T12:28:00.000Z</time>
      </trkpt>
      <trkpt lat="42.657051" lon="1.376847">
        <ele>2513</ele>
        <time>2019-08-05T12:28:04.000Z</time>
      </trkpt>
      <trkpt lat="42.65703" lon="1.376899">
        <ele>2513</ele>
        <time>2019-08-05T12:28:08.000Z</time>
      </trkpt>
      <trkpt lat="42.657008" lon="1.376955">
        <ele>2514</ele>
        <time>2019-08-05T12:28:12.000Z</time>
      </trkpt>
      <trkpt lat="42.656989" lon="1.376999">
        <ele>2513.33802664551</ele>
        <time>2019-08-05T12:28:15.000Z</time>
      </trkpt>
      <trkpt lat="42.656966" lon="1.377043">
        <ele>2512</ele>
        <time>2019-08-05T12:28:19.000Z</time>
      </trkpt>
      <trkpt lat="42.656943" lon="1.377079">
        <ele>2511.22353401801</ele>
        <time>2019-08-05T12:28:22.000Z</time>
      </trkpt>
      <trkpt lat="42.656915" lon="1.377114">
        <ele>2511</ele>
        <time>2019-08-05T12:28:25.000Z</time>
      </trkpt>
      <trkpt lat="42.656882" lon="1.377139">
        <ele>2511</ele>
        <time>2019-08-05T12:28:29.000Z</time>
      </trkpt>
      <trkpt lat="42.656841" lon="1.377168">
        <ele>2509.25490663588</ele>
        <time>2019-08-05T12:28:33.000Z</time>
      </trkpt>
      <trkpt lat="42.656803" lon="1.377184">
        <ele>2508.3100032</ele>
        <time>2019-08-05T12:28:37.000Z</time>
      </trkpt>
      <trkpt lat="42.656767" lon="1.377218">
        <ele>2508</ele>
        <time>2019-08-05T12:28:40.000Z</time>
      </trkpt>
      <trkpt lat="42.65673" lon="1.377247">
        <ele>2506.20791828251</ele>
        <time>2019-08-05T12:28:43.000Z</time>
      </trkpt>
      <trkpt lat="42.656696" lon="1.377286">
        <ele>2506</ele>
        <time>2019-08-05T12:28:46.000Z</time>
      </trkpt>
      <trkpt lat="42.656668" lon="1.377323">
        <ele>2506</ele>
        <time>2019-08-05T12:28:49.000Z</time>
      </trkpt>
      <trkpt lat="42.656638" lon="1.377358">
        <ele>2506</ele>
        <time>2019-08-05T12:28:52.000Z</time>
      </trkpt>
      <trkpt lat="42.656604" lon="1.377386">
        <ele>2506</ele>
        <time>2019-08-05T12:28:55.000Z</time>
      </trkpt>
      <trkpt lat="42.656575" lon="1.377421">
        <ele>2506</ele>
        <time>2019-08-05T12:28:58.000Z</time>
      </trkpt>
      <trkpt lat="42.656544" lon="1.377448">
        <ele>2506</ele>
        <time>2019-08-05T12:29:01.000Z</time>
      </trkpt>
      <trkpt lat="42.656515" lon="1.377485">
        <ele>2505</ele>
        <time>2019-08-05T12:29:04.000Z</time>
      </trkpt>
      <trkpt lat="42.656484" lon="1.377523">
        <ele>2505</ele>
        <time>2019-08-05T12:29:08.000Z</time>
      </trkpt>
      <trkpt lat="42.656447" lon="1.377514">
        <ele>2504</ele>
        <time>2019-08-05T12:29:11.000Z</time>
      </trkpt>
      <trkpt lat="42.656412" lon="1.377535">
        <ele>2505</ele>
        <time>2019-08-05T12:29:16.000Z</time>
      </trkpt>
      <trkpt lat="42.656404" lon="1.377588">
        <ele>2504</ele>
        <time>2019-08-05T12:29:22.000Z</time>
      </trkpt>
      <trkpt lat="42.656367" lon="1.377628">
        <ele>2502.28972175037</ele>
        <time>2019-08-05T12:29:26.000Z</time>
      </trkpt>
      <trkpt lat="42.656336" lon="1.377634">
        <ele>2501</ele>
        <time>2019-08-05T12:29:30.000Z</time>
      </trkpt>
      <trkpt lat="42.656332" lon="1.377579">
        <ele>2502</ele>
        <time>2019-08-05T12:29:39.000Z</time>
      </trkpt>
      <trkpt lat="42.656364" lon="1.377549">
        <ele>2503</ele>
        <time>2019-08-05T12:29:46.000Z</time>
      </trkpt>
      <trkpt lat="42.656354" lon="1.377508">
        <ele>2501</ele>
        <time>2019-08-05T12:30:06.000Z</time>
      </trkpt>
      <trkpt lat="42.656335" lon="1.37755">
        <ele>2500</ele>
        <time>2019-08-05T12:31:59.000Z</time>
      </trkpt>
      <trkpt lat="42.656327" lon="1.377607">
        <ele>2498.27084</ele>
        <time>2019-08-05T12:32:03.000Z</time>
      </trkpt>
      <trkpt lat="42.656313" lon="1.377656">
        <ele>2498.59632909014</ele>
        <time>2019-08-05T12:32:09.000Z</time>
      </trkpt>
      <trkpt lat="42.656309" lon="1.377703">
        <ele>2499</ele>
        <time>2019-08-05T12:32:13.000Z</time>
      </trkpt>
      <trkpt lat="42.656282" lon="1.37774">
        <ele>2498</ele>
        <time>2019-08-05T12:32:17.000Z</time>
      </trkpt>
      <trkpt lat="42.656255" lon="1.377775">
        <ele>2498</ele>
        <time>2019-08-05T12:32:31.000Z</time>
      </trkpt>
      <trkpt lat="42.65623" lon="1.377813">
        <ele>2497</ele>
        <time>2019-08-05T12:32:34.000Z</time>
      </trkpt>
      <trkpt lat="42.656199" lon="1.377851">
        <ele>2498.5000064</ele>
        <time>2019-08-05T12:32:37.000Z</time>
      </trkpt>
      <trkpt lat="42.656176" lon="1.377896">
        <ele>2499</ele>
        <time>2019-08-05T12:32:40.000Z</time>
      </trkpt>
      <trkpt lat="42.656151" lon="1.377934">
        <ele>2498</ele>
        <time>2019-08-05T12:32:43.000Z</time>
      </trkpt>
      <trkpt lat="42.656124" lon="1.377984">
        <ele>2497</ele>
        <time>2019-08-05T12:32:47.000Z</time>
      </trkpt>
      <trkpt lat="42.6561" lon="1.378035">
        <ele>2497</ele>
        <time>2019-08-05T12:32:50.000Z</time>
      </trkpt>
      <trkpt lat="42.656072" lon="1.37808">
        <ele>2497.72448832987</ele>
        <time>2019-08-05T12:32:54.000Z</time>
      </trkpt>
      <trkpt lat="42.656046" lon="1.378128">
        <ele>2499</ele>
        <time>2019-08-05T12:32:57.000Z</time>
      </trkpt>
      <trkpt lat="42.656025" lon="1.378173">
        <ele>2499</ele>
        <time>2019-08-05T12:33:00.000Z</time>
      </trkpt>
      <trkpt lat="42.656" lon="1.378221">
        <ele>2497.44</ele>
        <time>2019-08-05T12:33:03.000Z</time>
      </trkpt>
      <trkpt lat="42.655972" lon="1.378268">
        <ele>2498</ele>
        <time>2019-08-05T12:33:06.000Z</time>
      </trkpt>
      <trkpt lat="42.65595" lon="1.378319">
        <ele>2496.29999743997</ele>
        <time>2019-08-05T12:33:09.000Z</time>
      </trkpt>
      <trkpt lat="42.655927" lon="1.378354">
        <ele>2496</ele>
        <time>2019-08-05T12:33:12.000Z</time>
      </trkpt>
      <trkpt lat="42.655901" lon="1.378391">
        <ele>2496</ele>
        <time>2019-08-05T12:33:16.000Z</time>
      </trkpt>
      <trkpt lat="42.655907" lon="1.37834">
        <ele>2495</ele>
        <time>2019-08-05T12:33:43.000Z</time>
      </trkpt>
      <trkpt lat="42.65592" lon="1.37839">
        <ele>2494</ele>
        <time>2019-08-05T12:34:02.000Z</time>
      </trkpt>
      <trkpt lat="42.655934" lon="1.378344">
        <ele>2494</ele>
        <time>2019-08-05T12:34:18.000Z</time>
      </trkpt>
      <trkpt lat="42.655911" lon="1.378382">
        <ele>2493.70212968763</ele>
        <time>2019-08-05T12:34:25.000Z</time>
      </trkpt>
      <trkpt lat="42.655913" lon="1.378333">
        <ele>2493</ele>
        <time>2019-08-05T12:34:36.000Z</time>
      </trkpt>
      <trkpt lat="42.655905" lon="1.378374">
        <ele>2495</ele>
        <time>2019-08-05T12:34:42.000Z</time>
      </trkpt>
      <trkpt lat="42.655917" lon="1.378327">
        <ele>2493</ele>
        <time>2019-08-05T12:35:00.000Z</time>
      </trkpt>
      <trkpt lat="42.655892" lon="1.378363">
        <ele>2494.58181479671</ele>
        <time>2019-08-05T12:35:08.000Z</time>
      </trkpt>
      <trkpt lat="42.655902" lon="1.378316">
        <ele>2493.73636501158</ele>
        <time>2019-08-05T12:35:23.000Z</time>
      </trkpt>
      <trkpt lat="42.655905" lon="1.378352">
        <ele>2490</ele>
        <time>2019-08-05T12:38:03.000Z</time>
      </trkpt>
      <trkpt lat="42.655919" lon="1.378307">
        <ele>2490.29411498961</ele>
        <time>2019-08-05T12:38:48.000Z</time>
      </trkpt>
      <trkpt lat="42.655888" lon="1.378339">
        <ele>2489</ele>
        <time>2019-08-05T12:39:59.000Z</time>
      </trkpt>
      <trkpt lat="42.655891" lon="1.37839">
        <ele>2488</ele>
        <time>2019-08-05T12:41:11.000Z</time>
      </trkpt>
      <trkpt lat="42.655862" lon="1.378431">
        <ele>2485.86170647349</ele>
        <time>2019-08-05T12:41:14.000Z</time>
      </trkpt>
      <trkpt lat="42.655843" lon="1.378452">
        <ele>2485</ele>
        <time>2019-08-05T12:41:16.000Z</time>
      </trkpt>
      <trkpt lat="42.655814" lon="1.378501">
        <ele>2486</ele>
        <time>2019-08-05T12:41:20.000Z</time>
      </trkpt>
      <trkpt lat="42.655796" lon="1.378545">
        <ele>2485</ele>
        <time>2019-08-05T12:41:23.000Z</time>
      </trkpt>
      <trkpt lat="42.655773" lon="1.378591">
        <ele>2486</ele>
        <time>2019-08-05T12:41:26.000Z</time>
      </trkpt>
      <trkpt lat="42.655744" lon="1.378623">
        <ele>2486</ele>
        <time>2019-08-05T12:41:29.000Z</time>
      </trkpt>
      <trkpt lat="42.655706" lon="1.378654">
        <ele>2486.71568762784</ele>
        <time>2019-08-05T12:41:33.000Z</time>
      </trkpt>
      <trkpt lat="42.655669" lon="1.378685">
        <ele>2487</ele>
        <time>2019-08-05T12:41:37.000Z</time>
      </trkpt>
      <trkpt lat="42.65565" lon="1.378743">
        <ele>2486</ele>
        <time>2019-08-05T12:41:41.000Z</time>
      </trkpt>
      <trkpt lat="42.65563" lon="1.378793">
        <ele>2486</ele>
        <time>2019-08-05T12:41:44.000Z</time>
      </trkpt>
      <trkpt lat="42.655601" lon="1.378829">
        <ele>2486.7500032</ele>
        <time>2019-08-05T12:41:47.000Z</time>
      </trkpt>
      <trkpt lat="42.655572" lon="1.378853">
        <ele>2487</ele>
        <time>2019-08-05T12:41:51.000Z</time>
      </trkpt>
      <trkpt lat="42.655544" lon="1.378876">
        <ele>2485.6899968</ele>
        <time>2019-08-05T12:41:56.000Z</time>
      </trkpt>
      <trkpt lat="42.655519" lon="1.378895">
        <ele>2488</ele>
        <time>2019-08-05T12:42:05.000Z</time>
      </trkpt>
      <trkpt lat="42.655493" lon="1.378927">
        <ele>2488.43356993886</ele>
        <time>2019-08-05T12:42:12.000Z</time>
      </trkpt>
      <trkpt lat="42.655465" lon="1.378969">
        <ele>2486.37272653223</ele>
        <time>2019-08-05T12:42:18.000Z</time>
      </trkpt>
      <trkpt lat="42.655441" lon="1.378997">
        <ele>2484</ele>
        <time>2019-08-05T12:42:23.000Z</time>
      </trkpt>
      <trkpt lat="42.655436" lon="1.37902">
        <ele>2479.29069611681</ele>
        <time>2019-08-05T12:42:26.000Z</time>
      </trkpt>
      <trkpt lat="42.655416" lon="1.379065">
        <ele>2479</ele>
        <time>2019-08-05T12:42:30.000Z</time>
      </trkpt>
      <trkpt lat="42.655402" lon="1.379118">
        <ele>2476</ele>
        <time>2019-08-05T12:42:34.000Z</time>
      </trkpt>
      <trkpt lat="42.655397" lon="1.379174">
        <ele>2476.1900032</ele>
        <time>2019-08-05T12:42:38.000Z</time>
      </trkpt>
      <trkpt lat="42.655366" lon="1.379216">
        <ele>2475.21839367947</ele>
        <time>2019-08-05T12:42:42.000Z</time>
      </trkpt>
      <trkpt lat="42.655341" lon="1.379249">
        <ele>2476</ele>
        <time>2019-08-05T12:42:51.000Z</time>
      </trkpt>
      <trkpt lat="42.655319" lon="1.37927">
        <ele>2477</ele>
        <time>2019-08-05T12:42:54.000Z</time>
      </trkpt>
      <trkpt lat="42.655299" lon="1.379303">
        <ele>2477.46153629753</ele>
        <time>2019-08-05T12:42:59.000Z</time>
      </trkpt>
      <trkpt lat="42.655283" lon="1.37933">
        <ele>2475</ele>
        <time>2019-08-05T12:43:03.000Z</time>
      </trkpt>
      <trkpt lat="42.655261" lon="1.379364">
        <ele>2472</ele>
        <time>2019-08-05T12:43:11.000Z</time>
      </trkpt>
      <trkpt lat="42.655242" lon="1.379385">
        <ele>2469</ele>
        <time>2019-08-05T12:43:24.000Z</time>
      </trkpt>
      <trkpt lat="42.655213" lon="1.379421">
        <ele>2464</ele>
        <time>2019-08-05T12:43:28.000Z</time>
      </trkpt>
      <trkpt lat="42.65521" lon="1.379433">
        <ele>2465.22034560187</ele>
        <time>2019-08-05T12:43:29.000Z</time>
      </trkpt>
      <trkpt lat="42.655197" lon="1.379482">
        <ele>2466</ele>
        <time>2019-08-05T12:43:33.000Z</time>
      </trkpt>
      <trkpt lat="42.655165" lon="1.379508">
        <ele>2460.25252446892</ele>
        <time>2019-08-05T12:43:36.000Z</time>
      </trkpt>
      <trkpt lat="42.655123" lon="1.379491">
        <ele>2461</ele>
        <time>2019-08-05T12:43:40.000Z</time>
      </trkpt>
      <trkpt lat="42.65509" lon="1.379476">
        <ele>2462</ele>
        <time>2019-08-05T12:43:48.000Z</time>
      </trkpt>
      <trkpt lat="42.655061" lon="1.379514">
        <ele>2461</ele>
        <time>2019-08-05T12:43:54.000Z</time>
      </trkpt>
      <trkpt lat="42.655027" lon="1.379531">
        <ele>2459</ele>
        <time>2019-08-05T12:43:58.000Z</time>
      </trkpt>
      <trkpt lat="42.655005" lon="1.379562">
        <ele>2458</ele>
        <time>2019-08-05T12:44:02.000Z</time>
      </trkpt>
      <trkpt lat="42.654983" lon="1.379595">
        <ele>2455.38333866667</ele>
        <time>2019-08-05T12:44:10.000Z</time>
      </trkpt>
      <trkpt lat="42.654957" lon="1.379626">
        <ele>2453</ele>
        <time>2019-08-05T12:44:18.000Z</time>
      </trkpt>
      <trkpt lat="42.654923" lon="1.379655">
        <ele>2453</ele>
        <time>2019-08-05T12:44:23.000Z</time>
      </trkpt>
      <trkpt lat="42.654883" lon="1.379654">
        <ele>2452</ele>
        <time>2019-08-05T12:44:26.000Z</time>
      </trkpt>
      <trkpt lat="42.654847" lon="1.379671">
        <ele>2450</ele>
        <time>2019-08-05T12:44:32.000Z</time>
      </trkpt>
      <trkpt lat="42.654822" lon="1.379711">
        <ele>2449</ele>
        <time>2019-08-05T12:44:37.000Z</time>
      </trkpt>
      <trkpt lat="42.654809" lon="1.379763">
        <ele>2448.26262234462</ele>
        <time>2019-08-05T12:44:42.000Z</time>
      </trkpt>
      <trkpt lat="42.654793" lon="1.379807">
        <ele>2448</ele>
        <time>2019-08-05T12:44:46.000Z</time>
      </trkpt>
      <trkpt lat="42.654756" lon="1.379829">
        <ele>2446.30303578817</ele>
        <time>2019-08-05T12:44:50.000Z</time>
      </trkpt>
      <trkpt lat="42.654718" lon="1.37984">
        <ele>2445</ele>
        <time>2019-08-05T12:44:54.000Z</time>
      </trkpt>
      <trkpt lat="42.654683" lon="1.379812">
        <ele>2445</ele>
        <time>2019-08-05T12:45:02.000Z</time>
      </trkpt>
      <trkpt lat="42.654684" lon="1.37975">
        <ele>2445</ele>
        <time>2019-08-05T12:45:16.000Z</time>
      </trkpt>
      <trkpt lat="42.654694" lon="1.3797">
        <ele>2445</ele>
        <time>2019-08-05T12:45:19.000Z</time>
      </trkpt>
      <trkpt lat="42.654696" lon="1.379765">
        <ele>2445</ele>
        <time>2019-08-05T12:45:31.000Z</time>
      </trkpt>
      <trkpt lat="42.654695" lon="1.379825">
        <ele>2444</ele>
        <time>2019-08-05T12:45:35.000Z</time>
      </trkpt>
      <trkpt lat="42.654685" lon="1.379885">
        <ele>2444</ele>
        <time>2019-08-05T12:45:39.000Z</time>
      </trkpt>
      <trkpt lat="42.65467" lon="1.379934">
        <ele>2443.28712645426</ele>
        <time>2019-08-05T12:45:43.000Z</time>
      </trkpt>
      <trkpt lat="42.654652" lon="1.379992">
        <ele>2443</ele>
        <time>2019-08-05T12:45:46.000Z</time>
      </trkpt>
      <trkpt lat="42.654632" lon="1.380031">
        <ele>2441.3100032</ele>
        <time>2019-08-05T12:45:49.000Z</time>
      </trkpt>
      <trkpt lat="42.654604" lon="1.380079">
        <ele>2440</ele>
        <time>2019-08-05T12:45:52.000Z</time>
      </trkpt>
      <trkpt lat="42.654579" lon="1.380135">
        <ele>2441</ele>
        <time>2019-08-05T12:45:56.000Z</time>
      </trkpt>
      <trkpt lat="42.654572" lon="1.380186">
        <ele>2440</ele>
        <time>2019-08-05T12:45:59.000Z</time>
      </trkpt>
      <trkpt lat="42.654557" lon="1.38024">
        <ele>2439</ele>
        <time>2019-08-05T12:46:02.000Z</time>
      </trkpt>
      <trkpt lat="42.654528" lon="1.380281">
        <ele>2439</ele>
        <time>2019-08-05T12:46:04.000Z</time>
      </trkpt>
      <trkpt lat="42.654492" lon="1.380316">
        <ele>2436</ele>
        <time>2019-08-05T12:46:06.000Z</time>
      </trkpt>
      <trkpt lat="42.654454" lon="1.38034">
        <ele>2436</ele>
        <time>2019-08-05T12:46:08.000Z</time>
      </trkpt>
      <trkpt lat="42.654418" lon="1.380373">
        <ele>2434.20588050749</ele>
        <time>2019-08-05T12:46:13.000Z</time>
      </trkpt>
      <trkpt lat="42.654393" lon="1.380409">
        <ele>2434</ele>
        <time>2019-08-05T12:46:16.000Z</time>
      </trkpt>
      <trkpt lat="42.654352" lon="1.38042">
        <ele>2434</ele>
        <time>2019-08-05T12:46:20.000Z</time>
      </trkpt>
      <trkpt lat="42.654331" lon="1.380462">
        <ele>2433</ele>
        <time>2019-08-05T12:46:24.000Z</time>
      </trkpt>
      <trkpt lat="42.654311" lon="1.380503">
        <ele>2433</ele>
        <time>2019-08-05T12:46:27.000Z</time>
      </trkpt>
      <trkpt lat="42.654293" lon="1.380564">
        <ele>2432.20201954903</ele>
        <time>2019-08-05T12:46:30.000Z</time>
      </trkpt>
      <trkpt lat="42.654265" lon="1.38058">
        <ele>2431</ele>
        <time>2019-08-05T12:47:23.000Z</time>
      </trkpt>
      <trkpt lat="42.654255" lon="1.380621">
        <ele>2432.27928135703</ele>
        <time>2019-08-05T12:47:35.000Z</time>
      </trkpt>
      <trkpt lat="42.654258" lon="1.380644">
        <ele>2428.24418414277</ele>
        <time>2019-08-05T12:47:49.000Z</time>
      </trkpt>
      <trkpt lat="42.654245" lon="1.380687">
        <ele>2427</ele>
        <time>2019-08-05T12:47:55.000Z</time>
      </trkpt>
      <trkpt lat="42.654221" lon="1.380726">
        <ele>2426</ele>
        <time>2019-08-05T12:47:58.000Z</time>
      </trkpt>
      <trkpt lat="42.654199" lon="1.380766">
        <ele>2426</ele>
        <time>2019-08-05T12:48:01.000Z</time>
      </trkpt>
      <trkpt lat="42.65418" lon="1.380822">
        <ele>2427</ele>
        <time>2019-08-05T12:48:09.000Z</time>
      </trkpt>
      <trkpt lat="42.654166" lon="1.380874">
        <ele>2427</ele>
        <time>2019-08-05T12:48:12.000Z</time>
      </trkpt>
      <trkpt lat="42.654161" lon="1.380926">
        <ele>2425</ele>
        <time>2019-08-05T12:48:15.000Z</time>
      </trkpt>
      <trkpt lat="42.654144" lon="1.38097">
        <ele>2425</ele>
        <time>2019-08-05T12:48:18.000Z</time>
      </trkpt>
      <trkpt lat="42.654107" lon="1.380994">
        <ele>2424</ele>
        <time>2019-08-05T12:48:22.000Z</time>
      </trkpt>
      <trkpt lat="42.654073" lon="1.381024">
        <ele>2424</ele>
        <time>2019-08-05T12:48:26.000Z</time>
      </trkpt>
      <trkpt lat="42.654045" lon="1.381058">
        <ele>2423</ele>
        <time>2019-08-05T12:48:29.000Z</time>
      </trkpt>
      <trkpt lat="42.65401" lon="1.38104">
        <ele>2424</ele>
        <time>2019-08-05T12:48:34.000Z</time>
      </trkpt>
      <trkpt lat="42.65397" lon="1.381062">
        <ele>2424</ele>
        <time>2019-08-05T12:48:39.000Z</time>
      </trkpt>
      <trkpt lat="42.653953" lon="1.381113">
        <ele>2424</ele>
        <time>2019-08-05T12:48:42.000Z</time>
      </trkpt>
      <trkpt lat="42.653939" lon="1.381164">
        <ele>2424</ele>
        <time>2019-08-05T12:48:45.000Z</time>
      </trkpt>
      <trkpt lat="42.653922" lon="1.381215">
        <ele>2424</ele>
        <time>2019-08-05T12:48:49.000Z</time>
      </trkpt>
      <trkpt lat="42.653897" lon="1.381262">
        <ele>2424</ele>
        <time>2019-08-05T12:48:52.000Z</time>
      </trkpt>
      <trkpt lat="42.653871" lon="1.381299">
        <ele>2424</ele>
        <time>2019-08-05T12:48:55.000Z</time>
      </trkpt>
      <trkpt lat="42.653849" lon="1.38135">
        <ele>2423</ele>
        <time>2019-08-05T12:49:00.000Z</time>
      </trkpt>
      <trkpt lat="42.653827" lon="1.381393">
        <ele>2424</ele>
        <time>2019-08-05T12:49:04.000Z</time>
      </trkpt>
      <trkpt lat="42.653819" lon="1.381444">
        <ele>2423.2499968</ele>
        <time>2019-08-05T12:49:10.000Z</time>
      </trkpt>
      <trkpt lat="42.653797" lon="1.381489">
        <ele>2421</ele>
        <time>2019-08-05T12:49:15.000Z</time>
      </trkpt>
      <trkpt lat="42.65377" lon="1.381531">
        <ele>2420</ele>
        <time>2019-08-05T12:49:19.000Z</time>
      </trkpt>
      <trkpt lat="42.653756" lon="1.381571">
        <ele>2419</ele>
        <time>2019-08-05T12:49:22.000Z</time>
      </trkpt>
      <trkpt lat="42.653744" lon="1.381624">
        <ele>2417</ele>
        <time>2019-08-05T12:49:26.000Z</time>
      </trkpt>
      <trkpt lat="42.653738" lon="1.381674">
        <ele>2416.73786178528</ele>
        <time>2019-08-05T12:49:34.000Z</time>
      </trkpt>
      <trkpt lat="42.653723" lon="1.381726">
        <ele>2417</ele>
        <time>2019-08-05T12:49:38.000Z</time>
      </trkpt>
      <trkpt lat="42.653715" lon="1.381774">
        <ele>2417</ele>
        <time>2019-08-05T12:49:42.000Z</time>
      </trkpt>
      <trkpt lat="42.653689" lon="1.381811">
        <ele>2417</ele>
        <time>2019-08-05T12:49:46.000Z</time>
      </trkpt>
      <trkpt lat="42.653665" lon="1.381856">
        <ele>2416</ele>
        <time>2019-08-05T12:49:52.000Z</time>
      </trkpt>
      <trkpt lat="42.653646" lon="1.381898">
        <ele>2413.23595230904</ele>
        <time>2019-08-05T12:49:56.000Z</time>
      </trkpt>
      <trkpt lat="42.653608" lon="1.381936">
        <ele>2412</ele>
        <time>2019-08-05T12:50:01.000Z</time>
      </trkpt>
      <trkpt lat="42.653574" lon="1.381965">
        <ele>2411</ele>
        <time>2019-08-05T12:50:05.000Z</time>
      </trkpt>
      <trkpt lat="42.653554" lon="1.381997">
        <ele>2409</ele>
        <time>2019-08-05T12:50:09.000Z</time>
      </trkpt>
      <trkpt lat="42.65353" lon="1.382039">
        <ele>2408</ele>
        <time>2019-08-05T12:50:15.000Z</time>
      </trkpt>
      <trkpt lat="42.653519" lon="1.382083">
        <ele>2407</ele>
        <time>2019-08-05T12:50:20.000Z</time>
      </trkpt>
      <trkpt lat="42.653496" lon="1.38212">
        <ele>2406</ele>
        <time>2019-08-05T12:50:25.000Z</time>
      </trkpt>
      <trkpt lat="42.653467" lon="1.382142">
        <ele>2403</ele>
        <time>2019-08-05T12:50:29.000Z</time>
      </trkpt>
      <trkpt lat="42.653435" lon="1.382173">
        <ele>2402</ele>
        <time>2019-08-05T12:50:34.000Z</time>
      </trkpt>
      <trkpt lat="42.653421" lon="1.382233">
        <ele>2401</ele>
        <time>2019-08-05T12:50:39.000Z</time>
      </trkpt>
      <trkpt lat="42.653376" lon="1.382266">
        <ele>2399.31148228974</ele>
        <time>2019-08-05T12:50:42.000Z</time>
      </trkpt>
      <trkpt lat="42.653342" lon="1.382293">
        <ele>2398.43410960399</ele>
        <time>2019-08-05T12:50:44.000Z</time>
      </trkpt>
      <trkpt lat="42.653312" lon="1.382319">
        <ele>2398</ele>
        <time>2019-08-05T12:50:46.000Z</time>
      </trkpt>
      <trkpt lat="42.653266" lon="1.38236">
        <ele>2397</ele>
        <time>2019-08-05T12:50:49.000Z</time>
      </trkpt>
      <trkpt lat="42.65322" lon="1.382376">
        <ele>2397</ele>
        <time>2019-08-05T12:50:52.000Z</time>
      </trkpt>
      <trkpt lat="42.653184" lon="1.382396">
        <ele>2396</ele>
        <time>2019-08-05T12:50:56.000Z</time>
      </trkpt>
      <trkpt lat="42.653146" lon="1.382405">
        <ele>2395</ele>
        <time>2019-08-05T12:50:59.000Z</time>
      </trkpt>
      <trkpt lat="42.653105" lon="1.382414">
        <ele>2395</ele>
        <time>2019-08-05T12:51:02.000Z</time>
      </trkpt>
      <trkpt lat="42.653054" lon="1.382418">
        <ele>2395</ele>
        <time>2019-08-05T12:51:05.000Z</time>
      </trkpt>
      <trkpt lat="42.653011" lon="1.382416">
        <ele>2395</ele>
        <time>2019-08-05T12:51:08.000Z</time>
      </trkpt>
      <trkpt lat="42.652972" lon="1.382436">
        <ele>2394.31884541896</ele>
        <time>2019-08-05T12:51:12.000Z</time>
      </trkpt>
      <trkpt lat="42.652938" lon="1.382413">
        <ele>2391</ele>
        <time>2019-08-05T12:51:15.000Z</time>
      </trkpt>
      <trkpt lat="42.652904" lon="1.382401">
        <ele>2390.78217395161</ele>
        <time>2019-08-05T12:51:18.000Z</time>
      </trkpt>
      <trkpt lat="42.652867" lon="1.382406">
        <ele>2391</ele>
        <time>2019-08-05T12:51:21.000Z</time>
      </trkpt>
      <trkpt lat="42.652831" lon="1.382396">
        <ele>2391</ele>
        <time>2019-08-05T12:51:24.000Z</time>
      </trkpt>
      <trkpt lat="42.652785" lon="1.382381">
        <ele>2391</ele>
        <time>2019-08-05T12:51:28.000Z</time>
      </trkpt>
      <trkpt lat="42.652751" lon="1.382349">
        <ele>2391</ele>
        <time>2019-08-05T12:51:31.000Z</time>
      </trkpt>
      <trkpt lat="42.652718" lon="1.382326">
        <ele>2391</ele>
        <time>2019-08-05T12:51:34.000Z</time>
      </trkpt>
      <trkpt lat="42.652676" lon="1.38232">
        <ele>2391</ele>
        <time>2019-08-05T12:51:38.000Z</time>
      </trkpt>
      <trkpt lat="42.652631" lon="1.382312">
        <ele>2390.2499968</ele>
        <time>2019-08-05T12:51:42.000Z</time>
      </trkpt>
      <trkpt lat="42.652592" lon="1.382289">
        <ele>2390.2499968</ele>
        <time>2019-08-05T12:51:46.000Z</time>
      </trkpt>
      <trkpt lat="42.652556" lon="1.382248">
        <ele>2389</ele>
        <time>2019-08-05T12:51:50.000Z</time>
      </trkpt>
      <trkpt lat="42.652516" lon="1.382231">
        <ele>2389</ele>
        <time>2019-08-05T12:51:55.000Z</time>
      </trkpt>
      <trkpt lat="42.652476" lon="1.382215">
        <ele>2388</ele>
        <time>2019-08-05T12:52:03.000Z</time>
      </trkpt>
      <trkpt lat="42.65244" lon="1.382178">
        <ele>2387</ele>
        <time>2019-08-05T12:52:08.000Z</time>
      </trkpt>
      <trkpt lat="42.652411" lon="1.382152">
        <ele>2386</ele>
        <time>2019-08-05T12:52:13.000Z</time>
      </trkpt>
      <trkpt lat="42.652383" lon="1.382119">
        <ele>2385</ele>
        <time>2019-08-05T12:52:19.000Z</time>
      </trkpt>
      <trkpt lat="42.652354" lon="1.382145">
        <ele>2386</ele>
        <time>2019-08-05T12:52:25.000Z</time>
      </trkpt>
      <trkpt lat="42.65233" lon="1.382193">
        <ele>2384.26923076923</ele>
        <time>2019-08-05T12:52:29.000Z</time>
      </trkpt>
      <trkpt lat="42.652296" lon="1.382209">
        <ele>2382</ele>
        <time>2019-08-05T12:52:33.000Z</time>
      </trkpt>
      <trkpt lat="42.652264" lon="1.382248">
        <ele>2382</ele>
        <time>2019-08-05T12:52:39.000Z</time>
      </trkpt>
      <trkpt lat="42.652221" lon="1.382248">
        <ele>2381</ele>
        <time>2019-08-05T12:52:42.000Z</time>
      </trkpt>
      <trkpt lat="42.652181" lon="1.382254">
        <ele>2380</ele>
        <time>2019-08-05T12:52:45.000Z</time>
      </trkpt>
      <trkpt lat="42.652144" lon="1.382245">
        <ele>2380</ele>
        <time>2019-08-05T12:52:47.000Z</time>
      </trkpt>
      <trkpt lat="42.652103" lon="1.382239">
        <ele>2380</ele>
        <time>2019-08-05T12:52:49.000Z</time>
      </trkpt>
      <trkpt lat="42.652067" lon="1.382242">
        <ele>2379</ele>
        <time>2019-08-05T12:52:51.000Z</time>
      </trkpt>
      <trkpt lat="42.652031" lon="1.382242">
        <ele>2379</ele>
        <time>2019-08-05T12:52:53.000Z</time>
      </trkpt>
      <trkpt lat="42.651992" lon="1.382235">
        <ele>2379</ele>
        <time>2019-08-05T12:52:55.000Z</time>
      </trkpt>
      <trkpt lat="42.651945" lon="1.382226">
        <ele>2377.51999385592</ele>
        <time>2019-08-05T12:52:58.000Z</time>
      </trkpt>
      <trkpt lat="42.651915" lon="1.382226">
        <ele>2377</ele>
        <time>2019-08-05T12:53:00.000Z</time>
      </trkpt>
      <trkpt lat="42.651874" lon="1.382211">
        <ele>2375</ele>
        <time>2019-08-05T12:53:02.000Z</time>
      </trkpt>
      <trkpt lat="42.651852" lon="1.382171">
        <ele>2374</ele>
        <time>2019-08-05T12:53:04.000Z</time>
      </trkpt>
      <trkpt lat="42.651832" lon="1.38212">
        <ele>2373</ele>
        <time>2019-08-05T12:53:07.000Z</time>
      </trkpt>
      <trkpt lat="42.651782" lon="1.382125">
        <ele>2373</ele>
        <time>2019-08-05T12:53:10.000Z</time>
      </trkpt>
      <trkpt lat="42.651743" lon="1.38211">
        <ele>2372.25999692796</ele>
        <time>2019-08-05T12:53:12.000Z</time>
      </trkpt>
      <trkpt lat="42.651705" lon="1.382085">
        <ele>2372</ele>
        <time>2019-08-05T12:53:14.000Z</time>
      </trkpt>
      <trkpt lat="42.651673" lon="1.382057">
        <ele>2372.62666825955</ele>
        <time>2019-08-05T12:53:16.000Z</time>
      </trkpt>
      <trkpt lat="42.651632" lon="1.382029">
        <ele>2373</ele>
        <time>2019-08-05T12:53:19.000Z</time>
      </trkpt>
      <trkpt lat="42.651596" lon="1.38201">
        <ele>2373</ele>
        <time>2019-08-05T12:53:22.000Z</time>
      </trkpt>
      <trkpt lat="42.651557" lon="1.381957">
        <ele>2370</ele>
        <time>2019-08-05T12:53:36.000Z</time>
      </trkpt>
      <trkpt lat="42.651527" lon="1.381918">
        <ele>2371</ele>
        <time>2019-08-05T12:53:40.000Z</time>
      </trkpt>
      <trkpt lat="42.65149" lon="1.381898">
        <ele>2371.20618624721</ele>
        <time>2019-08-05T12:53:44.000Z</time>
      </trkpt>
      <trkpt lat="42.651453" lon="1.381875">
        <ele>2372</ele>
        <time>2019-08-05T12:53:49.000Z</time>
      </trkpt>
      <trkpt lat="42.651414" lon="1.38186">
        <ele>2373.63551211809</ele>
        <time>2019-08-05T12:53:54.000Z</time>
      </trkpt>
      <trkpt lat="42.651379" lon="1.381846">
        <ele>2374</ele>
        <time>2019-08-05T12:53:59.000Z</time>
      </trkpt>
      <trkpt lat="42.65134" lon="1.381854">
        <ele>2375</ele>
        <time>2019-08-05T12:54:08.000Z</time>
      </trkpt>
      <trkpt lat="42.651306" lon="1.381883">
        <ele>2375</ele>
        <time>2019-08-05T12:54:12.000Z</time>
      </trkpt>
      <trkpt lat="42.651283" lon="1.38192">
        <ele>2374</ele>
        <time>2019-08-05T12:54:15.000Z</time>
      </trkpt>
      <trkpt lat="42.651248" lon="1.381945">
        <ele>2371.66666666667</ele>
        <time>2019-08-05T12:54:18.000Z</time>
      </trkpt>
      <trkpt lat="42.651212" lon="1.381956">
        <ele>2371</ele>
        <time>2019-08-05T12:54:20.000Z</time>
      </trkpt>
      <trkpt lat="42.651155" lon="1.381951">
        <ele>2370</ele>
        <time>2019-08-05T12:54:22.000Z</time>
      </trkpt>
      <trkpt lat="42.651099" lon="1.381949">
        <ele>2371</ele>
        <time>2019-08-05T12:54:24.000Z</time>
      </trkpt>
      <trkpt lat="42.651054" lon="1.38194">
        <ele>2371</ele>
        <time>2019-08-05T12:54:26.000Z</time>
      </trkpt>
      <trkpt lat="42.651013" lon="1.381944">
        <ele>2371</ele>
        <time>2019-08-05T12:54:28.000Z</time>
      </trkpt>
      <trkpt lat="42.650973" lon="1.381948">
        <ele>2371</ele>
        <time>2019-08-05T12:54:30.000Z</time>
      </trkpt>
      <trkpt lat="42.65093" lon="1.381953">
        <ele>2371</ele>
        <time>2019-08-05T12:54:32.000Z</time>
      </trkpt>
      <trkpt lat="42.650886" lon="1.381953">
        <ele>2371</ele>
        <time>2019-08-05T12:54:34.000Z</time>
      </trkpt>
      <trkpt lat="42.650838" lon="1.381947">
        <ele>2371</ele>
        <time>2019-08-05T12:54:36.000Z</time>
      </trkpt>
      <trkpt lat="42.650798" lon="1.381936">
        <ele>2369.51999385592</ele>
        <time>2019-08-05T12:54:38.000Z</time>
      </trkpt>
      <trkpt lat="42.650766" lon="1.381931">
        <ele>2369</ele>
        <time>2019-08-05T12:54:40.000Z</time>
      </trkpt>
      <trkpt lat="42.650712" lon="1.381921">
        <ele>2370</ele>
        <time>2019-08-05T12:54:43.000Z</time>
      </trkpt>
      <trkpt lat="42.650662" lon="1.381912">
        <ele>2369</ele>
        <time>2019-08-05T12:54:46.000Z</time>
      </trkpt>
      <trkpt lat="42.65061" lon="1.381914">
        <ele>2367.33802664551</ele>
        <time>2019-08-05T12:54:49.000Z</time>
      </trkpt>
      <trkpt lat="42.650565" lon="1.381909">
        <ele>2366</ele>
        <time>2019-08-05T12:54:52.000Z</time>
      </trkpt>
      <trkpt lat="42.650529" lon="1.38191">
        <ele>2365</ele>
        <time>2019-08-05T12:54:55.000Z</time>
      </trkpt>
      <trkpt lat="42.650493" lon="1.381882">
        <ele>2364</ele>
        <time>2019-08-05T12:54:58.000Z</time>
      </trkpt>
      <trkpt lat="42.650451" lon="1.381871">
        <ele>2364</ele>
        <time>2019-08-05T12:55:03.000Z</time>
      </trkpt>
      <trkpt lat="42.650414" lon="1.381858">
        <ele>2364</ele>
        <time>2019-08-05T12:55:06.000Z</time>
      </trkpt>
      <trkpt lat="42.650394" lon="1.381817">
        <ele>2365</ele>
        <time>2019-08-05T12:55:23.000Z</time>
      </trkpt>
      <trkpt lat="42.650368" lon="1.381777">
        <ele>2364</ele>
        <time>2019-08-05T12:55:29.000Z</time>
      </trkpt>
      <trkpt lat="42.650333" lon="1.38175">
        <ele>2364</ele>
        <time>2019-08-05T12:55:33.000Z</time>
      </trkpt>
      <trkpt lat="42.650294" lon="1.38174">
        <ele>2364</ele>
        <time>2019-08-05T12:55:38.000Z</time>
      </trkpt>
      <trkpt lat="42.650263" lon="1.38171">
        <ele>2362</ele>
        <time>2019-08-05T12:55:48.000Z</time>
      </trkpt>
      <trkpt lat="42.650229" lon="1.381679">
        <ele>2361.3699968</ele>
        <time>2019-08-05T12:55:51.000Z</time>
      </trkpt>
      <trkpt lat="42.650207" lon="1.381639">
        <ele>2360</ele>
        <time>2019-08-05T12:55:54.000Z</time>
      </trkpt>
      <trkpt lat="42.650179" lon="1.381604">
        <ele>2361</ele>
        <time>2019-08-05T12:55:57.000Z</time>
      </trkpt>
      <trkpt lat="42.650143" lon="1.381575">
        <ele>2361.7352926413</ele>
        <time>2019-08-05T12:56:01.000Z</time>
      </trkpt>
      <trkpt lat="42.650101" lon="1.381568">
        <ele>2363</ele>
        <time>2019-08-05T12:56:04.000Z</time>
      </trkpt>
      <trkpt lat="42.650063" lon="1.381558">
        <ele>2361.08823271048</ele>
        <time>2019-08-05T12:56:07.000Z</time>
      </trkpt>
      <trkpt lat="42.650027" lon="1.381535">
        <ele>2360</ele>
        <time>2019-08-05T12:56:10.000Z</time>
      </trkpt>
      <trkpt lat="42.649994" lon="1.381496">
        <ele>2361</ele>
        <time>2019-08-05T12:56:13.000Z</time>
      </trkpt>
      <trkpt lat="42.649959" lon="1.381464">
        <ele>2361</ele>
        <time>2019-08-05T12:56:16.000Z</time>
      </trkpt>
      <trkpt lat="42.649923" lon="1.381439">
        <ele>2361.7900032</ele>
        <time>2019-08-05T12:56:19.000Z</time>
      </trkpt>
      <trkpt lat="42.649893" lon="1.381414">
        <ele>2362</ele>
        <time>2019-08-05T12:56:22.000Z</time>
      </trkpt>
      <trkpt lat="42.649869" lon="1.381363">
        <ele>2362</ele>
        <time>2019-08-05T12:56:26.000Z</time>
      </trkpt>
      <trkpt lat="42.649843" lon="1.38133">
        <ele>2362</ele>
        <time>2019-08-05T12:56:29.000Z</time>
      </trkpt>
      <trkpt lat="42.649812" lon="1.381287">
        <ele>2363</ele>
        <time>2019-08-05T12:56:33.000Z</time>
      </trkpt>
      <trkpt lat="42.649779" lon="1.381255">
        <ele>2363</ele>
        <time>2019-08-05T12:56:37.000Z</time>
      </trkpt>
      <trkpt lat="42.649746" lon="1.381228">
        <ele>2364</ele>
        <time>2019-08-05T12:56:40.000Z</time>
      </trkpt>
      <trkpt lat="42.649706" lon="1.38122">
        <ele>2365</ele>
        <time>2019-08-05T12:56:46.000Z</time>
      </trkpt>
      <trkpt lat="42.649674" lon="1.381187">
        <ele>2364.20791828251</ele>
        <time>2019-08-05T12:56:51.000Z</time>
      </trkpt>
      <trkpt lat="42.649646" lon="1.381153">
        <ele>2365</ele>
        <time>2019-08-05T12:56:56.000Z</time>
      </trkpt>
      <trkpt lat="42.649604" lon="1.381137">
        <ele>2366</ele>
        <time>2019-08-05T12:57:01.000Z</time>
      </trkpt>
      <trkpt lat="42.649564" lon="1.38116">
        <ele>2367</ele>
        <time>2019-08-05T12:57:07.000Z</time>
      </trkpt>
      <trkpt lat="42.649526" lon="1.381181">
        <ele>2367</ele>
        <time>2019-08-05T12:57:13.000Z</time>
      </trkpt>
      <trkpt lat="42.649492" lon="1.381164">
        <ele>2369</ele>
        <time>2019-08-05T12:57:19.000Z</time>
      </trkpt>
      <trkpt lat="42.649457" lon="1.381158">
        <ele>2369</ele>
        <time>2019-08-05T12:57:23.000Z</time>
      </trkpt>
      <trkpt lat="42.649422" lon="1.38114">
        <ele>2369</ele>
        <time>2019-08-05T12:57:27.000Z</time>
      </trkpt>
      <trkpt lat="42.649384" lon="1.381119">
        <ele>2370</ele>
        <time>2019-08-05T12:57:31.000Z</time>
      </trkpt>
      <trkpt lat="42.649348" lon="1.381112">
        <ele>2370</ele>
        <time>2019-08-05T12:57:34.000Z</time>
      </trkpt>
      <trkpt lat="42.649306" lon="1.381099">
        <ele>2372</ele>
        <time>2019-08-05T12:57:38.000Z</time>
      </trkpt>
      <trkpt lat="42.649272" lon="1.381075">
        <ele>2368.7499904</ele>
        <time>2019-08-05T12:57:42.000Z</time>
      </trkpt>
      <trkpt lat="42.649252" lon="1.381052">
        <ele>2368</ele>
        <time>2019-08-05T12:57:46.000Z</time>
      </trkpt>
      <trkpt lat="42.649242" lon="1.381005">
        <ele>2365.124992</ele>
        <time>2019-08-05T12:57:50.000Z</time>
      </trkpt>
      <trkpt lat="42.649244" lon="1.380967">
        <ele>2363</ele>
        <time>2019-08-05T12:57:59.000Z</time>
      </trkpt>
      <trkpt lat="42.649233" lon="1.380974">
        <ele>2359.74999703704</ele>
        <time>2019-08-05T12:58:23.000Z</time>
      </trkpt>
      <trkpt lat="42.649197" lon="1.380972">
        <ele>2359</ele>
        <time>2019-08-05T12:58:35.000Z</time>
      </trkpt>
      <trkpt lat="42.649167" lon="1.380943">
        <ele>2359</ele>
        <time>2019-08-05T12:58:38.000Z</time>
      </trkpt>
      <trkpt lat="42.649129" lon="1.380911">
        <ele>2359</ele>
        <time>2019-08-05T12:58:42.000Z</time>
      </trkpt>
      <trkpt lat="42.649095" lon="1.380886">
        <ele>2358</ele>
        <time>2019-08-05T12:58:45.000Z</time>
      </trkpt>
      <trkpt lat="42.649055" lon="1.380858">
        <ele>2357</ele>
        <time>2019-08-05T12:58:49.000Z</time>
      </trkpt>
      <trkpt lat="42.649017" lon="1.380846">
        <ele>2358</ele>
        <time>2019-08-05T12:58:52.000Z</time>
      </trkpt>
      <trkpt lat="42.64898" lon="1.380829">
        <ele>2358.54729513514</ele>
        <time>2019-08-05T12:58:55.000Z</time>
      </trkpt>
      <trkpt lat="42.648944" lon="1.380831">
        <ele>2360</ele>
        <time>2019-08-05T12:59:00.000Z</time>
      </trkpt>
      <trkpt lat="42.648908" lon="1.380819">
        <ele>2360</ele>
        <time>2019-08-05T12:59:04.000Z</time>
      </trkpt>
      <trkpt lat="42.648869" lon="1.380811">
        <ele>2360</ele>
        <time>2019-08-05T12:59:08.000Z</time>
      </trkpt>
      <trkpt lat="42.648826" lon="1.380804">
        <ele>2360</ele>
        <time>2019-08-05T12:59:11.000Z</time>
      </trkpt>
      <trkpt lat="42.648791" lon="1.38079">
        <ele>2360</ele>
        <time>2019-08-05T12:59:14.000Z</time>
      </trkpt>
      <trkpt lat="42.648749" lon="1.380778">
        <ele>2360</ele>
        <time>2019-08-05T12:59:18.000Z</time>
      </trkpt>
      <trkpt lat="42.648712" lon="1.38076">
        <ele>2361</ele>
        <time>2019-08-05T12:59:22.000Z</time>
      </trkpt>
      <trkpt lat="42.648673" lon="1.380755">
        <ele>2361</ele>
        <time>2019-08-05T12:59:25.000Z</time>
      </trkpt>
      <trkpt lat="42.648634" lon="1.380751">
        <ele>2363</ele>
        <time>2019-08-05T12:59:29.000Z</time>
      </trkpt>
      <trkpt lat="42.648592" lon="1.380754">
        <ele>2362.44961401838</ele>
        <time>2019-08-05T12:59:33.000Z</time>
      </trkpt>
      <trkpt lat="42.648554" lon="1.380757">
        <ele>2362</ele>
        <time>2019-08-05T12:59:36.000Z</time>
      </trkpt>
      <trkpt lat="42.648518" lon="1.380747">
        <ele>2362</ele>
        <time>2019-08-05T12:59:39.000Z</time>
      </trkpt>
      <trkpt lat="42.648485" lon="1.380733">
        <ele>2358.4199936</ele>
        <time>2019-08-05T12:59:42.000Z</time>
      </trkpt>
      <trkpt lat="42.648455" lon="1.380717">
        <ele>2362</ele>
        <time>2019-08-05T12:59:45.000Z</time>
      </trkpt>
      <trkpt lat="42.648447" lon="1.380705">
        <ele>2362.7500032</ele>
        <time>2019-08-05T12:59:46.000Z</time>
      </trkpt>
      <trkpt lat="42.648418" lon="1.380673">
        <ele>2362.30392279892</ele>
        <time>2019-08-05T12:59:49.000Z</time>
      </trkpt>
      <trkpt lat="42.648387" lon="1.380633">
        <ele>2358.67605329103</ele>
        <time>2019-08-05T12:59:53.000Z</time>
      </trkpt>
      <trkpt lat="42.648353" lon="1.380606">
        <ele>2359.4200064</ele>
        <time>2019-08-05T12:59:56.000Z</time>
      </trkpt>
      <trkpt lat="42.648326" lon="1.380578">
        <ele>2362.0699904</ele>
        <time>2019-08-05T12:59:58.000Z</time>
      </trkpt>
      <trkpt lat="42.648306" lon="1.380549">
        <ele>2363.7900032</ele>
        <time>2019-08-05T13:00:00.000Z</time>
      </trkpt>
      <trkpt lat="42.648276" lon="1.380512">
        <ele>2362.74699278268</ele>
        <time>2019-08-05T13:00:03.000Z</time>
      </trkpt>
      <trkpt lat="42.648249" lon="1.38048">
        <ele>2361</ele>
        <time>2019-08-05T13:00:06.000Z</time>
      </trkpt>
      <trkpt lat="42.648225" lon="1.38043">
        <ele>2361</ele>
        <time>2019-08-05T13:00:09.000Z</time>
      </trkpt>
      <trkpt lat="42.648199" lon="1.380392">
        <ele>2361</ele>
        <time>2019-08-05T13:00:12.000Z</time>
      </trkpt>
      <trkpt lat="42.648177" lon="1.38035">
        <ele>2360</ele>
        <time>2019-08-05T13:00:15.000Z</time>
      </trkpt>
      <trkpt lat="42.648151" lon="1.380322">
        <ele>2358.24999384615</ele>
        <time>2019-08-05T13:00:18.000Z</time>
      </trkpt>
      <trkpt lat="42.648119" lon="1.380278">
        <ele>2357</ele>
        <time>2019-08-05T13:00:22.000Z</time>
      </trkpt>
      <trkpt lat="42.648084" lon="1.380262">
        <ele>2356.70296678368</ele>
        <time>2019-08-05T13:00:28.000Z</time>
      </trkpt>
      <trkpt lat="42.648116" lon="1.38022">
        <ele>2357</ele>
        <time>2019-08-05T13:00:33.000Z</time>
      </trkpt>
      <trkpt lat="42.648104" lon="1.380168">
        <ele>2357</ele>
        <time>2019-08-05T13:00:38.000Z</time>
      </trkpt>
      <trkpt lat="42.648088" lon="1.380123">
        <ele>2355</ele>
        <time>2019-08-05T13:00:43.000Z</time>
      </trkpt>
      <trkpt lat="42.648063" lon="1.380086">
        <ele>2355</ele>
        <time>2019-08-05T13:00:49.000Z</time>
      </trkpt>
      <trkpt lat="42.648059" lon="1.380039">
        <ele>2354</ele>
        <time>2019-08-05T13:00:54.000Z</time>
      </trkpt>
      <trkpt lat="42.648035" lon="1.38001">
        <ele>2351</ele>
        <time>2019-08-05T13:01:01.000Z</time>
      </trkpt>
      <trkpt lat="42.648021" lon="1.379965">
        <ele>2351</ele>
        <time>2019-08-05T13:01:05.000Z</time>
      </trkpt>
      <trkpt lat="42.647992" lon="1.379923">
        <ele>2351</ele>
        <time>2019-08-05T13:01:09.000Z</time>
      </trkpt>
      <trkpt lat="42.647961" lon="1.379896">
        <ele>2350.30097304552</ele>
        <time>2019-08-05T13:01:14.000Z</time>
      </trkpt>
      <trkpt lat="42.647929" lon="1.379873">
        <ele>2348</ele>
        <time>2019-08-05T13:01:19.000Z</time>
      </trkpt>
      <trkpt lat="42.647905" lon="1.379817">
        <ele>2347</ele>
        <time>2019-08-05T13:01:23.000Z</time>
      </trkpt>
      <trkpt lat="42.647876" lon="1.379794">
        <ele>2346</ele>
        <time>2019-08-05T13:01:27.000Z</time>
      </trkpt>
      <trkpt lat="42.647839" lon="1.379763">
        <ele>2345</ele>
        <time>2019-08-05T13:01:32.000Z</time>
      </trkpt>
      <trkpt lat="42.647798" lon="1.379753">
        <ele>2344</ele>
        <time>2019-08-05T13:01:40.000Z</time>
      </trkpt>
      <trkpt lat="42.647779" lon="1.379738">
        <ele>2341</ele>
        <time>2019-08-05T13:01:47.000Z</time>
      </trkpt>
      <trkpt lat="42.647743" lon="1.379721">
        <ele>2340</ele>
        <time>2019-08-05T13:01:51.000Z</time>
      </trkpt>
      <trkpt lat="42.647712" lon="1.379692">
        <ele>2338</ele>
        <time>2019-08-05T13:01:55.000Z</time>
      </trkpt>
      <trkpt lat="42.647673" lon="1.379671">
        <ele>2337.29729355735</ele>
        <time>2019-08-05T13:02:00.000Z</time>
      </trkpt>
      <trkpt lat="42.647629" lon="1.379654">
        <ele>2336</ele>
        <time>2019-08-05T13:02:04.000Z</time>
      </trkpt>
      <trkpt lat="42.64759" lon="1.379631">
        <ele>2336</ele>
        <time>2019-08-05T13:02:07.000Z</time>
      </trkpt>
      <trkpt lat="42.647552" lon="1.379617">
        <ele>2336</ele>
        <time>2019-08-05T13:02:12.000Z</time>
      </trkpt>
      <trkpt lat="42.647518" lon="1.379599">
        <ele>2336</ele>
        <time>2019-08-05T13:02:15.000Z</time>
      </trkpt>
      <trkpt lat="42.64749" lon="1.37956">
        <ele>2335.24999384615</ele>
        <time>2019-08-05T13:02:18.000Z</time>
      </trkpt>
      <trkpt lat="42.64747" lon="1.379519">
        <ele>2335</ele>
        <time>2019-08-05T13:02:21.000Z</time>
      </trkpt>
      <trkpt lat="42.647432" lon="1.379504">
        <ele>2335</ele>
        <time>2019-08-05T13:02:26.000Z</time>
      </trkpt>
      <trkpt lat="42.64741" lon="1.379541">
        <ele>2337</ele>
        <time>2019-08-05T13:02:31.000Z</time>
      </trkpt>
      <trkpt lat="42.647397" lon="1.379588">
        <ele>2336</ele>
        <time>2019-08-05T13:02:34.000Z</time>
      </trkpt>
      <trkpt lat="42.647357" lon="1.379624">
        <ele>2335.30188861518</ele>
        <time>2019-08-05T13:02:38.000Z</time>
      </trkpt>
      <trkpt lat="42.647317" lon="1.37961">
        <ele>2335</ele>
        <time>2019-08-05T13:02:41.000Z</time>
      </trkpt>
      <trkpt lat="42.647277" lon="1.379587">
        <ele>2335</ele>
        <time>2019-08-05T13:02:44.000Z</time>
      </trkpt>
      <trkpt lat="42.647242" lon="1.379571">
        <ele>2335.75824624084</ele>
        <time>2019-08-05T13:02:47.000Z</time>
      </trkpt>
      <trkpt lat="42.647204" lon="1.379569">
        <ele>2337</ele>
        <time>2019-08-05T13:02:50.000Z</time>
      </trkpt>
      <trkpt lat="42.64717" lon="1.379544">
        <ele>2336.31683268699</ele>
        <time>2019-08-05T13:02:53.000Z</time>
      </trkpt>
      <trkpt lat="42.647147" lon="1.379492">
        <ele>2338.77906769066</ele>
        <time>2019-08-05T13:02:57.000Z</time>
      </trkpt>
      <trkpt lat="42.647133" lon="1.379449">
        <ele>2338.86713987773</ele>
        <time>2019-08-05T13:03:02.000Z</time>
      </trkpt>
      <trkpt lat="42.647096" lon="1.379439">
        <ele>2337.87736224989</ele>
        <time>2019-08-05T13:03:13.000Z</time>
      </trkpt>
      <trkpt lat="42.647074" lon="1.37943">
        <ele>2335</ele>
        <time>2019-08-05T13:03:16.000Z</time>
      </trkpt>
      <trkpt lat="42.64704" lon="1.379421">
        <ele>2335</ele>
        <time>2019-08-05T13:03:22.000Z</time>
      </trkpt>
      <trkpt lat="42.647009" lon="1.379421">
        <ele>2333</ele>
        <time>2019-08-05T13:03:27.000Z</time>
      </trkpt>
      <trkpt lat="42.646972" lon="1.379425">
        <ele>2330</ele>
        <time>2019-08-05T13:03:32.000Z</time>
      </trkpt>
      <trkpt lat="42.646937" lon="1.379399">
        <ele>2329</ele>
        <time>2019-08-05T13:03:35.000Z</time>
      </trkpt>
      <trkpt lat="42.646897" lon="1.379412">
        <ele>2330</ele>
        <time>2019-08-05T13:03:41.000Z</time>
      </trkpt>
      <trkpt lat="42.64687" lon="1.379441">
        <ele>2327</ele>
        <time>2019-08-05T13:03:47.000Z</time>
      </trkpt>
      <trkpt lat="42.646842" lon="1.379462">
        <ele>2325</ele>
        <time>2019-08-05T13:03:51.000Z</time>
      </trkpt>
      <trkpt lat="42.64681" lon="1.379483">
        <ele>2323</ele>
        <time>2019-08-05T13:03:59.000Z</time>
      </trkpt>
      <trkpt lat="42.64677" lon="1.379478">
        <ele>2322</ele>
        <time>2019-08-05T13:04:08.000Z</time>
      </trkpt>
      <trkpt lat="42.64674" lon="1.379449">
        <ele>2320</ele>
        <time>2019-08-05T13:04:12.000Z</time>
      </trkpt>
      <trkpt lat="42.6467" lon="1.379433">
        <ele>2320.8571486621</ele>
        <time>2019-08-05T13:04:18.000Z</time>
      </trkpt>
      <trkpt lat="42.646662" lon="1.379413">
        <ele>2319</ele>
        <time>2019-08-05T13:04:23.000Z</time>
      </trkpt>
      <trkpt lat="42.646628" lon="1.379381">
        <ele>2319</ele>
        <time>2019-08-05T13:04:27.000Z</time>
      </trkpt>
      <trkpt lat="42.64659" lon="1.379401">
        <ele>2317</ele>
        <time>2019-08-05T13:04:37.000Z</time>
      </trkpt>
      <trkpt lat="42.646564" lon="1.379408">
        <ele>2315.31707850085</ele>
        <time>2019-08-05T13:04:41.000Z</time>
      </trkpt>
      <trkpt lat="42.64653" lon="1.379419">
        <ele>2314</ele>
        <time>2019-08-05T13:04:46.000Z</time>
      </trkpt>
      <trkpt lat="42.646488" lon="1.379429">
        <ele>2314</ele>
        <time>2019-08-05T13:04:54.000Z</time>
      </trkpt>
      <trkpt lat="42.646436" lon="1.379458">
        <ele>2313</ele>
        <time>2019-08-05T13:04:58.000Z</time>
      </trkpt>
      <trkpt lat="42.646401" lon="1.37946">
        <ele>2312.22727272727</ele>
        <time>2019-08-05T13:05:01.000Z</time>
      </trkpt>
      <trkpt lat="42.646359" lon="1.37945">
        <ele>2312</ele>
        <time>2019-08-05T13:05:05.000Z</time>
      </trkpt>
      <trkpt lat="42.646314" lon="1.379436">
        <ele>2312</ele>
        <time>2019-08-05T13:05:08.000Z</time>
      </trkpt>
      <trkpt lat="42.646274" lon="1.37942">
        <ele>2311.29125863697</ele>
        <time>2019-08-05T13:05:11.000Z</time>
      </trkpt>
      <trkpt lat="42.646231" lon="1.379407">
        <ele>2310.55224094452</ele>
        <time>2019-08-05T13:05:15.000Z</time>
      </trkpt>
      <trkpt lat="42.646199" lon="1.379404">
        <ele>2312</ele>
        <time>2019-08-05T13:05:20.000Z</time>
      </trkpt>
      <trkpt lat="42.646166" lon="1.379432">
        <ele>2311</ele>
        <time>2019-08-05T13:05:30.000Z</time>
      </trkpt>
      <trkpt lat="42.646144" lon="1.37942">
        <ele>2308</ele>
        <time>2019-08-05T13:05:41.000Z</time>
      </trkpt>
      <trkpt lat="42.646111" lon="1.379417">
        <ele>2306</ele>
        <time>2019-08-05T13:05:52.000Z</time>
      </trkpt>
      <trkpt lat="42.646079" lon="1.379413">
        <ele>2301.62069472848</ele>
        <time>2019-08-05T13:06:02.000Z</time>
      </trkpt>
      <trkpt lat="42.646048" lon="1.379393">
        <ele>2300</ele>
        <time>2019-08-05T13:06:08.000Z</time>
      </trkpt>
      <trkpt lat="42.646029" lon="1.379367">
        <ele>2296.30208</ele>
        <time>2019-08-05T13:06:21.000Z</time>
      </trkpt>
      <trkpt lat="42.645991" lon="1.379341">
        <ele>2296</ele>
        <time>2019-08-05T13:06:28.000Z</time>
      </trkpt>
      <trkpt lat="42.645961" lon="1.379299">
        <ele>2294.39436441977</ele>
        <time>2019-08-05T13:06:32.000Z</time>
      </trkpt>
      <trkpt lat="42.645939" lon="1.379261">
        <ele>2294</ele>
        <time>2019-08-05T13:06:35.000Z</time>
      </trkpt>
      <trkpt lat="42.645923" lon="1.379202">
        <ele>2294</ele>
        <time>2019-08-05T13:06:39.000Z</time>
      </trkpt>
      <trkpt lat="42.64591" lon="1.379139">
        <ele>2292</ele>
        <time>2019-08-05T13:06:46.000Z</time>
      </trkpt>
      <trkpt lat="42.645881" lon="1.379103">
        <ele>2291</ele>
        <time>2019-08-05T13:06:50.000Z</time>
      </trkpt>
      <trkpt lat="42.645849" lon="1.3791">
        <ele>2289.28431237216</ele>
        <time>2019-08-05T13:06:54.000Z</time>
      </trkpt>
      <trkpt lat="42.645805" lon="1.379076">
        <ele>2288</ele>
        <time>2019-08-05T13:06:58.000Z</time>
      </trkpt>
      <trkpt lat="42.645771" lon="1.379046">
        <ele>2288</ele>
        <time>2019-08-05T13:07:01.000Z</time>
      </trkpt>
      <trkpt lat="42.645734" lon="1.379049">
        <ele>2286</ele>
        <time>2019-08-05T13:07:05.000Z</time>
      </trkpt>
      <trkpt lat="42.6457" lon="1.379028">
        <ele>2284</ele>
        <time>2019-08-05T13:07:08.000Z</time>
      </trkpt>
      <trkpt lat="42.645659" lon="1.379">
        <ele>2284</ele>
        <time>2019-08-05T13:07:12.000Z</time>
      </trkpt>
      <trkpt lat="42.645643" lon="1.378935">
        <ele>2283</ele>
        <time>2019-08-05T13:07:15.000Z</time>
      </trkpt>
      <trkpt lat="42.64563" lon="1.378888">
        <ele>2283</ele>
        <time>2019-08-05T13:07:18.000Z</time>
      </trkpt>
      <trkpt lat="42.645597" lon="1.378883">
        <ele>2280.33628599261</ele>
        <time>2019-08-05T13:07:26.000Z</time>
      </trkpt>
      <trkpt lat="42.645557" lon="1.378872">
        <ele>2280</ele>
        <time>2019-08-05T13:07:30.000Z</time>
      </trkpt>
      <trkpt lat="42.64552" lon="1.378869">
        <ele>2277</ele>
        <time>2019-08-05T13:07:34.000Z</time>
      </trkpt>
      <trkpt lat="42.645483" lon="1.378871">
        <ele>2274.2499968</ele>
        <time>2019-08-05T13:07:37.000Z</time>
      </trkpt>
      <trkpt lat="42.645434" lon="1.378853">
        <ele>2273</ele>
        <time>2019-08-05T13:07:40.000Z</time>
      </trkpt>
      <trkpt lat="42.645393" lon="1.378857">
        <ele>2273</ele>
        <time>2019-08-05T13:07:43.000Z</time>
      </trkpt>
      <trkpt lat="42.645348" lon="1.378853">
        <ele>2271</ele>
        <time>2019-08-05T13:07:46.000Z</time>
      </trkpt>
      <trkpt lat="42.645325" lon="1.378854">
        <ele>2270</ele>
        <time>2019-08-05T13:07:49.000Z</time>
      </trkpt>
      <trkpt lat="42.645299" lon="1.3789">
        <ele>2270</ele>
        <time>2019-08-05T13:07:57.000Z</time>
      </trkpt>
      <trkpt lat="42.645254" lon="1.378919">
        <ele>2269</ele>
        <time>2019-08-05T13:08:01.000Z</time>
      </trkpt>
      <trkpt lat="42.645226" lon="1.37894">
        <ele>2266.30693094402</ele>
        <time>2019-08-05T13:08:04.000Z</time>
      </trkpt>
      <trkpt lat="42.645188" lon="1.378945">
        <ele>2266</ele>
        <time>2019-08-05T13:08:07.000Z</time>
      </trkpt>
      <trkpt lat="42.64515" lon="1.378941">
        <ele>2265</ele>
        <time>2019-08-05T13:08:10.000Z</time>
      </trkpt>
      <trkpt lat="42.645118" lon="1.378919">
        <ele>2264</ele>
        <time>2019-08-05T13:08:12.000Z</time>
      </trkpt>
      <trkpt lat="42.645082" lon="1.378913">
        <ele>2264</ele>
        <time>2019-08-05T13:08:15.000Z</time>
      </trkpt>
      <trkpt lat="42.645049" lon="1.378951">
        <ele>2264</ele>
        <time>2019-08-05T13:08:19.000Z</time>
      </trkpt>
      <trkpt lat="42.645012" lon="1.378942">
        <ele>2261</ele>
        <time>2019-08-05T13:08:22.000Z</time>
      </trkpt>
      <trkpt lat="42.644988" lon="1.378947">
        <ele>2260</ele>
        <time>2019-08-05T13:08:25.000Z</time>
      </trkpt>
      <trkpt lat="42.644946" lon="1.378957">
        <ele>2258</ele>
        <time>2019-08-05T13:08:29.000Z</time>
      </trkpt>
      <trkpt lat="42.644919" lon="1.378973">
        <ele>2257</ele>
        <time>2019-08-05T13:08:32.000Z</time>
      </trkpt>
      <trkpt lat="42.644887" lon="1.379014">
        <ele>2256.316672</ele>
        <time>2019-08-05T13:08:36.000Z</time>
      </trkpt>
      <trkpt lat="42.64485" lon="1.378987">
        <ele>2255</ele>
        <time>2019-08-05T13:08:39.000Z</time>
      </trkpt>
      <trkpt lat="42.644819" lon="1.378984">
        <ele>2254</ele>
        <time>2019-08-05T13:08:42.000Z</time>
      </trkpt>
      <trkpt lat="42.644783" lon="1.378995">
        <ele>2254</ele>
        <time>2019-08-05T13:08:48.000Z</time>
      </trkpt>
      <trkpt lat="42.644758" lon="1.379011">
        <ele>2251.67010200446</ele>
        <time>2019-08-05T13:08:54.000Z</time>
      </trkpt>
      <trkpt lat="42.644732" lon="1.379048">
        <ele>2250.29729698563</ele>
        <time>2019-08-05T13:08:59.000Z</time>
      </trkpt>
      <trkpt lat="42.6447" lon="1.379076">
        <ele>2247.91473591252</ele>
        <time>2019-08-05T13:09:03.000Z</time>
      </trkpt>
      <trkpt lat="42.644676" lon="1.379111">
        <ele>2246.30841099135</ele>
        <time>2019-08-05T13:09:06.000Z</time>
      </trkpt>
      <trkpt lat="42.644646" lon="1.379131">
        <ele>2245</ele>
        <time>2019-08-05T13:09:11.000Z</time>
      </trkpt>
      <trkpt lat="42.644618" lon="1.379167">
        <ele>2243.60194609104</ele>
        <time>2019-08-05T13:09:14.000Z</time>
      </trkpt>
      <trkpt lat="42.644584" lon="1.379178">
        <ele>2242.24719553587</ele>
        <time>2019-08-05T13:09:16.000Z</time>
      </trkpt>
      <trkpt lat="42.644556" lon="1.379145">
        <ele>2242</ele>
        <time>2019-08-05T13:09:18.000Z</time>
      </trkpt>
      <trkpt lat="42.644537" lon="1.37908">
        <ele>2242</ele>
        <time>2019-08-05T13:09:21.000Z</time>
      </trkpt>
      <trkpt lat="42.644535" lon="1.379017">
        <ele>2241</ele>
        <time>2019-08-05T13:09:24.000Z</time>
      </trkpt>
      <trkpt lat="42.644512" lon="1.378975">
        <ele>2240</ele>
        <time>2019-08-05T13:09:29.000Z</time>
      </trkpt>
      <trkpt lat="42.644481" lon="1.378973">
        <ele>2237</ele>
        <time>2019-08-05T13:09:35.000Z</time>
      </trkpt>
      <trkpt lat="42.644445" lon="1.378969">
        <ele>2236</ele>
        <time>2019-08-05T13:09:39.000Z</time>
      </trkpt>
      <trkpt lat="42.644409" lon="1.378961">
        <ele>2234.28318664265</ele>
        <time>2019-08-05T13:09:44.000Z</time>
      </trkpt>
      <trkpt lat="42.644372" lon="1.378954">
        <ele>2233</ele>
        <time>2019-08-05T13:09:49.000Z</time>
      </trkpt>
      <trkpt lat="42.644335" lon="1.378969">
        <ele>2232</ele>
        <time>2019-08-05T13:09:54.000Z</time>
      </trkpt>
      <trkpt lat="42.644302" lon="1.378938">
        <ele>2232</ele>
        <time>2019-08-05T13:09:58.000Z</time>
      </trkpt>
      <trkpt lat="42.644271" lon="1.378913">
        <ele>2230.19587764905</ele>
        <time>2019-08-05T13:10:02.000Z</time>
      </trkpt>
      <trkpt lat="42.644231" lon="1.378893">
        <ele>2229</ele>
        <time>2019-08-05T13:10:06.000Z</time>
      </trkpt>
      <trkpt lat="42.644197" lon="1.378888">
        <ele>2226.31372352173</ele>
        <time>2019-08-05T13:10:10.000Z</time>
      </trkpt>
      <trkpt lat="42.644157" lon="1.3789">
        <ele>2225.32203757539</ele>
        <time>2019-08-05T13:10:14.000Z</time>
      </trkpt>
      <trkpt lat="42.644121" lon="1.378896">
        <ele>2224</ele>
        <time>2019-08-05T13:10:17.000Z</time>
      </trkpt>
      <trkpt lat="42.644083" lon="1.37888">
        <ele>2223.67948865221</ele>
        <time>2019-08-05T13:10:20.000Z</time>
      </trkpt>
      <trkpt lat="42.644048" lon="1.378884">
        <ele>2224</ele>
        <time>2019-08-05T13:10:23.000Z</time>
      </trkpt>
      <trkpt lat="42.644004" lon="1.378904">
        <ele>2222</ele>
        <time>2019-08-05T13:10:27.000Z</time>
      </trkpt>
      <trkpt lat="42.643967" lon="1.378936">
        <ele>2221</ele>
        <time>2019-08-05T13:10:30.000Z</time>
      </trkpt>
      <trkpt lat="42.643925" lon="1.378972">
        <ele>2221</ele>
        <time>2019-08-05T13:10:33.000Z</time>
      </trkpt>
      <trkpt lat="42.643882" lon="1.379005">
        <ele>2219.2499968</ele>
        <time>2019-08-05T13:10:36.000Z</time>
      </trkpt>
      <trkpt lat="42.643836" lon="1.379031">
        <ele>2218.29411764706</ele>
        <time>2019-08-05T13:10:39.000Z</time>
      </trkpt>
      <trkpt lat="42.643788" lon="1.379044">
        <ele>2217.1900032</ele>
        <time>2019-08-05T13:10:41.000Z</time>
      </trkpt>
      <trkpt lat="42.64374" lon="1.37905">
        <ele>2217</ele>
        <time>2019-08-05T13:10:43.000Z</time>
      </trkpt>
      <trkpt lat="42.643701" lon="1.379056">
        <ele>2217</ele>
        <time>2019-08-05T13:10:45.000Z</time>
      </trkpt>
      <trkpt lat="42.643661" lon="1.379072">
        <ele>2216</ele>
        <time>2019-08-05T13:10:48.000Z</time>
      </trkpt>
      <trkpt lat="42.643614" lon="1.379086">
        <ele>2215</ele>
        <time>2019-08-05T13:10:51.000Z</time>
      </trkpt>
      <trkpt lat="42.643571" lon="1.379115">
        <ele>2214.22471990911</ele>
        <time>2019-08-05T13:10:55.000Z</time>
      </trkpt>
      <trkpt lat="42.643531" lon="1.379133">
        <ele>2213</ele>
        <time>2019-08-05T13:10:58.000Z</time>
      </trkpt>
      <trkpt lat="42.643494" lon="1.379117">
        <ele>2213</ele>
        <time>2019-08-05T13:11:01.000Z</time>
      </trkpt>
      <trkpt lat="42.643459" lon="1.37911">
        <ele>2212.69696421183</ele>
        <time>2019-08-05T13:11:04.000Z</time>
      </trkpt>
      <trkpt lat="42.643422" lon="1.379101">
        <ele>2213</ele>
        <time>2019-08-05T13:11:06.000Z</time>
      </trkpt>
      <trkpt lat="42.64339" lon="1.379077">
        <ele>2213</ele>
        <time>2019-08-05T13:11:08.000Z</time>
      </trkpt>
      <trkpt lat="42.643345" lon="1.379088">
        <ele>2213</ele>
        <time>2019-08-05T13:11:13.000Z</time>
      </trkpt>
      <trkpt lat="42.643311" lon="1.379076">
        <ele>2211</ele>
        <time>2019-08-05T13:11:16.000Z</time>
      </trkpt>
      <trkpt lat="42.643265" lon="1.379081">
        <ele>2211</ele>
        <time>2019-08-05T13:11:20.000Z</time>
      </trkpt>
      <trkpt lat="42.643231" lon="1.379092">
        <ele>2210</ele>
        <time>2019-08-05T13:11:23.000Z</time>
      </trkpt>
      <trkpt lat="42.643195" lon="1.379099">
        <ele>2209.3100032</ele>
        <time>2019-08-05T13:11:27.000Z</time>
      </trkpt>
      <trkpt lat="42.643153" lon="1.379123">
        <ele>2208.3100032</ele>
        <time>2019-08-05T13:11:31.000Z</time>
      </trkpt>
      <trkpt lat="42.6431" lon="1.379128">
        <ele>2208</ele>
        <time>2019-08-05T13:11:34.000Z</time>
      </trkpt>
      <trkpt lat="42.643054" lon="1.379135">
        <ele>2208</ele>
        <time>2019-08-05T13:11:36.000Z</time>
      </trkpt>
      <trkpt lat="42.643003" lon="1.379126">
        <ele>2208</ele>
        <time>2019-08-05T13:11:38.000Z</time>
      </trkpt>
      <trkpt lat="42.642955" lon="1.379106">
        <ele>2208</ele>
        <time>2019-08-05T13:11:40.000Z</time>
      </trkpt>
      <trkpt lat="42.642907" lon="1.379115">
        <ele>2206.4999936</ele>
        <time>2019-08-05T13:11:42.000Z</time>
      </trkpt>
      <trkpt lat="42.642859" lon="1.379133">
        <ele>2206</ele>
        <time>2019-08-05T13:11:44.000Z</time>
      </trkpt>
      <trkpt lat="42.642814" lon="1.379149">
        <ele>2206</ele>
        <time>2019-08-05T13:11:46.000Z</time>
      </trkpt>
      <trkpt lat="42.642767" lon="1.379169">
        <ele>2205.2499968</ele>
        <time>2019-08-05T13:11:48.000Z</time>
      </trkpt>
      <trkpt lat="42.642722" lon="1.379187">
        <ele>2205</ele>
        <time>2019-08-05T13:11:50.000Z</time>
      </trkpt>
      <trkpt lat="42.642678" lon="1.379202">
        <ele>2205</ele>
        <time>2019-08-05T13:11:52.000Z</time>
      </trkpt>
      <trkpt lat="42.642634" lon="1.37919">
        <ele>2205</ele>
        <time>2019-08-05T13:11:54.000Z</time>
      </trkpt>
      <trkpt lat="42.642591" lon="1.379166">
        <ele>2205</ele>
        <time>2019-08-05T13:11:56.000Z</time>
      </trkpt>
      <trkpt lat="42.64254" lon="1.379143">
        <ele>2205</ele>
        <time>2019-08-05T13:11:58.000Z</time>
      </trkpt>
      <trkpt lat="42.642494" lon="1.379114">
        <ele>2205</ele>
        <time>2019-08-05T13:12:00.000Z</time>
      </trkpt>
      <trkpt lat="42.642457" lon="1.379096">
        <ele>2205</ele>
        <time>2019-08-05T13:12:02.000Z</time>
      </trkpt>
      <trkpt lat="42.642417" lon="1.3791">
        <ele>2205</ele>
        <time>2019-08-05T13:12:04.000Z</time>
      </trkpt>
      <trkpt lat="42.642376" lon="1.379108">
        <ele>2204</ele>
        <time>2019-08-05T13:12:06.000Z</time>
      </trkpt>
      <trkpt lat="42.642334" lon="1.379103">
        <ele>2204</ele>
        <time>2019-08-05T13:12:08.000Z</time>
      </trkpt>
      <trkpt lat="42.642295" lon="1.37911">
        <ele>2205</ele>
        <time>2019-08-05T13:12:10.000Z</time>
      </trkpt>
      <trkpt lat="42.642258" lon="1.379125">
        <ele>2205</ele>
        <time>2019-08-05T13:12:12.000Z</time>
      </trkpt>
      <trkpt lat="42.642221" lon="1.379149">
        <ele>2205</ele>
        <time>2019-08-05T13:12:14.000Z</time>
      </trkpt>
      <trkpt lat="42.642186" lon="1.379172">
        <ele>2205</ele>
        <time>2019-08-05T13:12:16.000Z</time>
      </trkpt>
      <trkpt lat="42.642153" lon="1.379203">
        <ele>2205</ele>
        <time>2019-08-05T13:12:18.000Z</time>
      </trkpt>
      <trkpt lat="42.642117" lon="1.379226">
        <ele>2205</ele>
        <time>2019-08-05T13:12:20.000Z</time>
      </trkpt>
      <trkpt lat="42.642082" lon="1.379246">
        <ele>2204</ele>
        <time>2019-08-05T13:12:22.000Z</time>
      </trkpt>
      <trkpt lat="42.642048" lon="1.3793">
        <ele>2205</ele>
        <time>2019-08-05T13:12:25.000Z</time>
      </trkpt>
      <trkpt lat="42.642029" lon="1.379346">
        <ele>2205</ele>
        <time>2019-08-05T13:12:27.000Z</time>
      </trkpt>
      <trkpt lat="42.642008" lon="1.379412">
        <ele>2205</ele>
        <time>2019-08-05T13:12:30.000Z</time>
      </trkpt>
      <trkpt lat="42.64199" lon="1.379462">
        <ele>2205</ele>
        <time>2019-08-05T13:12:32.000Z</time>
      </trkpt>
      <trkpt lat="42.641973" lon="1.379513">
        <ele>2205</ele>
        <time>2019-08-05T13:12:34.000Z</time>
      </trkpt>
      <trkpt lat="42.641946" lon="1.379559">
        <ele>2204</ele>
        <time>2019-08-05T13:12:51.000Z</time>
      </trkpt>
      <trkpt lat="42.641912" lon="1.379599">
        <ele>2203</ele>
        <time>2019-08-05T13:12:53.000Z</time>
      </trkpt>
      <trkpt lat="42.641871" lon="1.379625">
        <ele>2203</ele>
        <time>2019-08-05T13:12:55.000Z</time>
      </trkpt>
      <trkpt lat="42.641823" lon="1.379642">
        <ele>2204</ele>
        <time>2019-08-05T13:12:57.000Z</time>
      </trkpt>
      <trkpt lat="42.641777" lon="1.379656">
        <ele>2205</ele>
        <time>2019-08-05T13:12:59.000Z</time>
      </trkpt>
      <trkpt lat="42.641735" lon="1.37968">
        <ele>2203.79031741935</ele>
        <time>2019-08-05T13:13:01.000Z</time>
      </trkpt>
      <trkpt lat="42.641694" lon="1.379704">
        <ele>2203</ele>
        <time>2019-08-05T13:13:03.000Z</time>
      </trkpt>
      <trkpt lat="42.64165" lon="1.379726">
        <ele>2203</ele>
        <time>2019-08-05T13:13:06.000Z</time>
      </trkpt>
      <trkpt lat="42.64161" lon="1.379748">
        <ele>2204</ele>
        <time>2019-08-05T13:13:09.000Z</time>
      </trkpt>
      <trkpt lat="42.641566" lon="1.379756">
        <ele>2204</ele>
        <time>2019-08-05T13:13:12.000Z</time>
      </trkpt>
      <trkpt lat="42.641531" lon="1.379771">
        <ele>2203.43835808595</ele>
        <time>2019-08-05T13:13:15.000Z</time>
      </trkpt>
      <trkpt lat="42.641491" lon="1.379777">
        <ele>2202.2499968</ele>
        <time>2019-08-05T13:13:18.000Z</time>
      </trkpt>
      <trkpt lat="42.641449" lon="1.379777">
        <ele>2202</ele>
        <time>2019-08-05T13:13:21.000Z</time>
      </trkpt>
      <trkpt lat="42.641404" lon="1.379769">
        <ele>2201.70296678368</ele>
        <time>2019-08-05T13:13:24.000Z</time>
      </trkpt>
      <trkpt lat="42.641368" lon="1.379759">
        <ele>2202</ele>
        <time>2019-08-05T13:13:27.000Z</time>
      </trkpt>
      <trkpt lat="42.641326" lon="1.379762">
        <ele>2202</ele>
        <time>2019-08-05T13:13:30.000Z</time>
      </trkpt>
      <trkpt lat="42.641283" lon="1.379745">
        <ele>2200.24038153846</ele>
        <time>2019-08-05T13:13:33.000Z</time>
      </trkpt>
      <trkpt lat="42.641242" lon="1.379731">
        <ele>2200</ele>
        <time>2019-08-05T13:13:36.000Z</time>
      </trkpt>
      <trkpt lat="42.641201" lon="1.379738">
        <ele>2199.2970243074</ele>
        <time>2019-08-05T13:13:39.000Z</time>
      </trkpt>
      <trkpt lat="42.641166" lon="1.379762">
        <ele>2200</ele>
        <time>2019-08-05T13:13:42.000Z</time>
      </trkpt>
      <trkpt lat="42.641128" lon="1.379795">
        <ele>2200</ele>
        <time>2019-08-05T13:13:45.000Z</time>
      </trkpt>
      <trkpt lat="42.641091" lon="1.379816">
        <ele>2200</ele>
        <time>2019-08-05T13:13:48.000Z</time>
      </trkpt>
      <trkpt lat="42.641053" lon="1.379828">
        <ele>2201</ele>
        <time>2019-08-05T13:13:51.000Z</time>
      </trkpt>
      <trkpt lat="42.641016" lon="1.379853">
        <ele>2199.23333143702</ele>
        <time>2019-08-05T13:13:54.000Z</time>
      </trkpt>
      <trkpt lat="42.640989" lon="1.379884">
        <ele>2200</ele>
        <time>2019-08-05T13:13:57.000Z</time>
      </trkpt>
      <trkpt lat="42.640957" lon="1.379919">
        <ele>2200</ele>
        <time>2019-08-05T13:14:00.000Z</time>
      </trkpt>
      <trkpt lat="42.640929" lon="1.379903">
        <ele>2198</ele>
        <time>2019-08-05T13:14:42.000Z</time>
      </trkpt>
      <trkpt lat="42.64089" lon="1.37992">
        <ele>2199</ele>
        <time>2019-08-05T13:14:47.000Z</time>
      </trkpt>
      <trkpt lat="42.640845" lon="1.379926">
        <ele>2198</ele>
        <time>2019-08-05T13:14:52.000Z</time>
      </trkpt>
      <trkpt lat="42.640805" lon="1.379939">
        <ele>2198</ele>
        <time>2019-08-05T13:14:58.000Z</time>
      </trkpt>
      <trkpt lat="42.64077" lon="1.379952">
        <ele>2195.2873558145</ele>
        <time>2019-08-05T13:15:03.000Z</time>
      </trkpt>
      <trkpt lat="42.640738" lon="1.379946">
        <ele>2194</ele>
        <time>2019-08-05T13:15:08.000Z</time>
      </trkpt>
      <trkpt lat="42.640726" lon="1.379947">
        <ele>2190</ele>
        <time>2019-08-05T13:15:26.000Z</time>
      </trkpt>
      <trkpt lat="42.640699" lon="1.379979">
        <ele>2190</ele>
        <time>2019-08-05T13:15:37.000Z</time>
      </trkpt>
      <trkpt lat="42.640704" lon="1.380022">
        <ele>2189</ele>
        <time>2019-08-05T13:15:43.000Z</time>
      </trkpt>
      <trkpt lat="42.640701" lon="1.380073">
        <ele>2185.23762451525</ele>
        <time>2019-08-05T13:16:09.000Z</time>
      </trkpt>
      <trkpt lat="42.640671" lon="1.380104">
        <ele>2184</ele>
        <time>2019-08-05T13:16:13.000Z</time>
      </trkpt>
      <trkpt lat="42.640636" lon="1.380135">
        <ele>2184</ele>
        <time>2019-08-05T13:16:16.000Z</time>
      </trkpt>
      <trkpt lat="42.640599" lon="1.380153">
        <ele>2183</ele>
        <time>2019-08-05T13:16:19.000Z</time>
      </trkpt>
      <trkpt lat="42.640554" lon="1.380157">
        <ele>2182</ele>
        <time>2019-08-05T13:16:23.000Z</time>
      </trkpt>
      <trkpt lat="42.640513" lon="1.380172">
        <ele>2182</ele>
        <time>2019-08-05T13:16:29.000Z</time>
      </trkpt>
      <trkpt lat="42.64048" lon="1.380201">
        <ele>2182</ele>
        <time>2019-08-05T13:16:33.000Z</time>
      </trkpt>
      <trkpt lat="42.640454" lon="1.380244">
        <ele>2181</ele>
        <time>2019-08-05T13:16:37.000Z</time>
      </trkpt>
      <trkpt lat="42.640419" lon="1.380267">
        <ele>2180</ele>
        <time>2019-08-05T13:16:41.000Z</time>
      </trkpt>
      <trkpt lat="42.640384" lon="1.380287">
        <ele>2179</ele>
        <time>2019-08-05T13:16:45.000Z</time>
      </trkpt>
      <trkpt lat="42.640353" lon="1.380318">
        <ele>2179</ele>
        <time>2019-08-05T13:16:49.000Z</time>
      </trkpt>
      <trkpt lat="42.640322" lon="1.380345">
        <ele>2178</ele>
        <time>2019-08-05T13:16:53.000Z</time>
      </trkpt>
      <trkpt lat="42.640297" lon="1.380384">
        <ele>2178</ele>
        <time>2019-08-05T13:16:58.000Z</time>
      </trkpt>
      <trkpt lat="42.640279" lon="1.380429">
        <ele>2178</ele>
        <time>2019-08-05T13:17:02.000Z</time>
      </trkpt>
      <trkpt lat="42.640242" lon="1.380404">
        <ele>2179</ele>
        <time>2019-08-05T13:17:07.000Z</time>
      </trkpt>
      <trkpt lat="42.640205" lon="1.380409">
        <ele>2180</ele>
        <time>2019-08-05T13:17:12.000Z</time>
      </trkpt>
      <trkpt lat="42.640171" lon="1.380435">
        <ele>2181</ele>
        <time>2019-08-05T13:17:17.000Z</time>
      </trkpt>
      <trkpt lat="42.640131" lon="1.380445">
        <ele>2181</ele>
        <time>2019-08-05T13:17:20.000Z</time>
      </trkpt>
      <trkpt lat="42.640089" lon="1.380443">
        <ele>2182</ele>
        <time>2019-08-05T13:17:24.000Z</time>
      </trkpt>
      <trkpt lat="42.640055" lon="1.38044">
        <ele>2180</ele>
        <time>2019-08-05T13:17:37.000Z</time>
      </trkpt>
      <trkpt lat="42.640033" lon="1.380492">
        <ele>2178.262496</ele>
        <time>2019-08-05T13:17:47.000Z</time>
      </trkpt>
      <trkpt lat="42.639992" lon="1.380543">
        <ele>2177</ele>
        <time>2019-08-05T13:17:52.000Z</time>
      </trkpt>
      <trkpt lat="42.639958" lon="1.380556">
        <ele>2176</ele>
        <time>2019-08-05T13:17:55.000Z</time>
      </trkpt>
      <trkpt lat="42.63991" lon="1.380544">
        <ele>2176</ele>
        <time>2019-08-05T13:17:59.000Z</time>
      </trkpt>
      <trkpt lat="42.639868" lon="1.380548">
        <ele>2175</ele>
        <time>2019-08-05T13:18:02.000Z</time>
      </trkpt>
      <trkpt lat="42.639828" lon="1.380568">
        <ele>2175</ele>
        <time>2019-08-05T13:18:08.000Z</time>
      </trkpt>
      <trkpt lat="42.639787" lon="1.38057">
        <ele>2174</ele>
        <time>2019-08-05T13:18:15.000Z</time>
      </trkpt>
      <trkpt lat="42.639754" lon="1.380596">
        <ele>2174</ele>
        <time>2019-08-05T13:18:18.000Z</time>
      </trkpt>
      <trkpt lat="42.639717" lon="1.380612">
        <ele>2175</ele>
        <time>2019-08-05T13:18:21.000Z</time>
      </trkpt>
      <trkpt lat="42.639698" lon="1.380646">
        <ele>2176</ele>
        <time>2019-08-05T13:18:24.000Z</time>
      </trkpt>
      <trkpt lat="42.639662" lon="1.38067">
        <ele>2174.2499968</ele>
        <time>2019-08-05T13:18:28.000Z</time>
      </trkpt>
      <trkpt lat="42.639667" lon="1.380666">
        <ele>2173.98936525698</ele>
        <time>2019-08-05T13:18:38.000Z</time>
      </trkpt>
      <trkpt lat="42.635173" lon="1.382728">
        <ele>2113.0168386267</ele>
        <time>2019-08-05T13:30:06.000Z</time>
      </trkpt>
      <trkpt lat="42.635133" lon="1.382786">
        <ele>2114</ele>
        <time>2019-08-05T13:30:16.000Z</time>
      </trkpt>
      <trkpt lat="42.635066" lon="1.382907">
        <ele>2116.59999795202</ele>
        <time>2019-08-05T13:30:25.000Z</time>
      </trkpt>
      <trkpt lat="42.635009" lon="1.382881">
        <ele>2118</ele>
        <time>2019-08-05T13:30:37.000Z</time>
      </trkpt>
      <trkpt lat="42.63492" lon="1.382974">
        <ele>2119.31706784053</ele>
        <time>2019-08-05T13:31:10.000Z</time>
      </trkpt>
      <trkpt lat="42.634808" lon="1.382952">
        <ele>2119</ele>
        <time>2019-08-05T13:31:27.000Z</time>
      </trkpt>
      <trkpt lat="42.634695" lon="1.382961">
        <ele>2122</ele>
        <time>2019-08-05T13:31:44.000Z</time>
      </trkpt>
      <trkpt lat="42.634596" lon="1.38289">
        <ele>2124</ele>
        <time>2019-08-05T13:32:10.000Z</time>
      </trkpt>
      <trkpt lat="42.634488" lon="1.382906">
        <ele>2124</ele>
        <time>2019-08-05T13:32:22.000Z</time>
      </trkpt>
      <trkpt lat="42.634443" lon="1.382777">
        <ele>2121</ele>
        <time>2019-08-05T13:32:49.000Z</time>
      </trkpt>
      <trkpt lat="42.63441" lon="1.382749">
        <ele>2121</ele>
        <time>2019-08-05T13:32:59.000Z</time>
      </trkpt>
      <trkpt lat="42.634303" lon="1.382754">
        <ele>2123</ele>
        <time>2019-08-05T13:33:18.000Z</time>
      </trkpt>
      <trkpt lat="42.63423" lon="1.382714">
        <ele>2125</ele>
        <time>2019-08-05T13:33:30.000Z</time>
      </trkpt>
      <trkpt lat="42.634198" lon="1.382693">
        <ele>2125.37287933354</ele>
        <time>2019-08-05T13:33:35.000Z</time>
      </trkpt>
      <trkpt lat="42.634099" lon="1.382612">
        <ele>2126</ele>
        <time>2019-08-05T13:33:40.000Z</time>
      </trkpt>
      <trkpt lat="42.633997" lon="1.382664">
        <ele>2126.66972380102</ele>
        <time>2019-08-05T13:33:56.000Z</time>
      </trkpt>
      <trkpt lat="42.633946" lon="1.382524">
        <ele>2126</ele>
        <time>2019-08-05T13:34:20.000Z</time>
      </trkpt>
      <trkpt lat="42.633838" lon="1.382488">
        <ele>2129</ele>
        <time>2019-08-05T13:34:37.000Z</time>
      </trkpt>
      <trkpt lat="42.633757" lon="1.382374">
        <ele>2123</ele>
        <time>2019-08-05T13:35:10.000Z</time>
      </trkpt>
      <trkpt lat="42.633647" lon="1.382358">
        <ele>2122</ele>
        <time>2019-08-05T13:35:28.000Z</time>
      </trkpt>
      <trkpt lat="42.633542" lon="1.382288">
        <ele>2122</ele>
        <time>2019-08-05T13:35:37.000Z</time>
      </trkpt>
      <trkpt lat="42.633449" lon="1.382214">
        <ele>2120</ele>
        <time>2019-08-05T13:35:47.000Z</time>
      </trkpt>
      <trkpt lat="42.633419" lon="1.382148">
        <ele>2120</ele>
        <time>2019-08-05T13:36:04.000Z</time>
      </trkpt>
      <trkpt lat="42.633395" lon="1.382111">
        <ele>2119.97948915844</ele>
        <time>2019-08-05T13:36:14.000Z</time>
      </trkpt>
      <trkpt lat="42.633214" lon="1.381776">
        <ele>2117.00048820454</ele>
        <time>2019-08-05T13:37:15.000Z</time>
      </trkpt>
      <trkpt lat="42.63325" lon="1.381939">
        <ele>2115.5798276845</ele>
        <time>2019-08-05T13:37:37.000Z</time>
      </trkpt>
      <trkpt lat="42.63324" lon="1.382085">
        <ele>2116.65789385042</ele>
        <time>2019-08-05T13:37:48.000Z</time>
      </trkpt>
      <trkpt lat="42.633276" lon="1.382228">
        <ele>2118</ele>
        <time>2019-08-05T13:37:58.000Z</time>
      </trkpt>
      <trkpt lat="42.633257" lon="1.382306">
        <ele>2121</ele>
        <time>2019-08-05T13:38:23.000Z</time>
      </trkpt>
      <trkpt lat="42.633152" lon="1.382348">
        <ele>2122.66667140744</ele>
        <time>2019-08-05T13:39:13.000Z</time>
      </trkpt>
      <trkpt lat="42.633042" lon="1.382357">
        <ele>2123</ele>
        <time>2019-08-05T13:39:36.000Z</time>
      </trkpt>
      <trkpt lat="42.632947" lon="1.38236">
        <ele>2123</ele>
        <time>2019-08-05T13:39:52.000Z</time>
      </trkpt>
      <trkpt lat="42.632915" lon="1.382412">
        <ele>2125</ele>
        <time>2019-08-05T13:40:08.000Z</time>
      </trkpt>
      <trkpt lat="42.63285" lon="1.382434">
        <ele>2127</ele>
        <time>2019-08-05T13:40:31.000Z</time>
      </trkpt>
      <trkpt lat="42.632816" lon="1.382448">
        <ele>2126</ele>
        <time>2019-08-05T13:40:39.000Z</time>
      </trkpt>
      <trkpt lat="42.632711" lon="1.382457">
        <ele>2124</ele>
        <time>2019-08-05T13:40:55.000Z</time>
      </trkpt>
      <trkpt lat="42.632609" lon="1.382456">
        <ele>2125.48201558097</ele>
        <time>2019-08-05T13:41:06.000Z</time>
      </trkpt>
      <trkpt lat="42.632571" lon="1.382453">
        <ele>2125</ele>
        <time>2019-08-05T13:41:20.000Z</time>
      </trkpt>
      <trkpt lat="42.632531" lon="1.382454">
        <ele>2125.73394710884</ele>
        <time>2019-08-05T13:41:32.000Z</time>
      </trkpt>
      <trkpt lat="42.632496" lon="1.382498">
        <ele>2126</ele>
        <time>2019-08-05T13:41:43.000Z</time>
      </trkpt>
      <trkpt lat="42.632505" lon="1.382625">
        <ele>2124</ele>
        <time>2019-08-05T13:42:06.000Z</time>
      </trkpt>
      <trkpt lat="42.632514" lon="1.382675">
        <ele>2123</ele>
        <time>2019-08-05T13:42:12.000Z</time>
      </trkpt>
      <trkpt lat="42.632513" lon="1.38272">
        <ele>2121.25286899718</ele>
        <time>2019-08-05T13:42:33.000Z</time>
      </trkpt>
      <trkpt lat="42.632489" lon="1.38268">
        <ele>2120.6034537931</ele>
        <time>2019-08-05T13:42:45.000Z</time>
      </trkpt>
      <trkpt lat="42.632464" lon="1.382651">
        <ele>2119.43795722735</ele>
        <time>2019-08-05T13:42:56.000Z</time>
      </trkpt>
      <trkpt lat="42.632456" lon="1.382603">
        <ele>2118</ele>
        <time>2019-08-05T13:43:00.000Z</time>
      </trkpt>
      <trkpt lat="42.6324" lon="1.382559">
        <ele>2115</ele>
        <time>2019-08-05T13:43:20.000Z</time>
      </trkpt>
      <trkpt lat="42.632368" lon="1.382539">
        <ele>2113</ele>
        <time>2019-08-05T13:43:28.000Z</time>
      </trkpt>
      <trkpt lat="42.632337" lon="1.382495">
        <ele>2110.57142656202</ele>
        <time>2019-08-05T13:43:35.000Z</time>
      </trkpt>
      <trkpt lat="42.632327" lon="1.382452">
        <ele>2107</ele>
        <time>2019-08-05T13:43:43.000Z</time>
      </trkpt>
      <trkpt lat="42.632312" lon="1.382445">
        <ele>2101.75676610662</ele>
        <time>2019-08-05T13:44:01.000Z</time>
      </trkpt>
      <trkpt lat="42.632286" lon="1.382425">
        <ele>2100</ele>
        <time>2019-08-05T13:44:08.000Z</time>
      </trkpt>
      <trkpt lat="42.632267" lon="1.382389">
        <ele>2096</ele>
        <time>2019-08-05T13:44:19.000Z</time>
      </trkpt>
      <trkpt lat="42.632256" lon="1.382337">
        <ele>2094.28181945123</ele>
        <time>2019-08-05T13:44:24.000Z</time>
      </trkpt>
      <trkpt lat="42.632223" lon="1.382319">
        <ele>2092</ele>
        <time>2019-08-05T13:44:31.000Z</time>
      </trkpt>
      <trkpt lat="42.632193" lon="1.382326">
        <ele>2090.32432338934</ele>
        <time>2019-08-05T13:44:37.000Z</time>
      </trkpt>
      <trkpt lat="42.632167" lon="1.382366">
        <ele>2090</ele>
        <time>2019-08-05T13:44:48.000Z</time>
      </trkpt>
      <trkpt lat="42.632134" lon="1.382371">
        <ele>2089.99065210276</ele>
        <time>2019-08-05T13:44:53.000Z</time>
      </trkpt>
      <trkpt lat="42.631055" lon="1.383118">
        <ele>2082.42168897662</ele>
        <time>2019-08-05T13:49:44.000Z</time>
      </trkpt>
      <trkpt lat="42.631036" lon="1.383138">
        <ele>2081.75555018275</ele>
        <time>2019-08-05T13:50:00.000Z</time>
      </trkpt>
      <trkpt lat="42.631002" lon="1.383179">
        <ele>2081</ele>
        <time>2019-08-05T13:50:05.000Z</time>
      </trkpt>
      <trkpt lat="42.630975" lon="1.383219">
        <ele>2080.77999641605</ele>
        <time>2019-08-05T13:50:10.000Z</time>
      </trkpt>
      <trkpt lat="42.630945" lon="1.383257">
        <ele>2081</ele>
        <time>2019-08-05T13:50:15.000Z</time>
      </trkpt>
      <trkpt lat="42.630914" lon="1.383291">
        <ele>2081.78000358405</ele>
        <time>2019-08-05T13:50:19.000Z</time>
      </trkpt>
      <trkpt lat="42.630865" lon="1.383298">
        <ele>2083</ele>
        <time>2019-08-05T13:50:24.000Z</time>
      </trkpt>
      <trkpt lat="42.630802" lon="1.383326">
        <ele>2082</ele>
        <time>2019-08-05T13:50:29.000Z</time>
      </trkpt>
      <trkpt lat="42.630772" lon="1.383352">
        <ele>2083</ele>
        <time>2019-08-05T13:50:32.000Z</time>
      </trkpt>
      <trkpt lat="42.630742" lon="1.383393">
        <ele>2083</ele>
        <time>2019-08-05T13:50:36.000Z</time>
      </trkpt>
      <trkpt lat="42.630704" lon="1.383421">
        <ele>2084</ele>
        <time>2019-08-05T13:50:40.000Z</time>
      </trkpt>
      <trkpt lat="42.630662" lon="1.383445">
        <ele>2084</ele>
        <time>2019-08-05T13:50:44.000Z</time>
      </trkpt>
      <trkpt lat="42.63062" lon="1.383472">
        <ele>2083.46511281777</ele>
        <time>2019-08-05T13:50:48.000Z</time>
      </trkpt>
      <trkpt lat="42.630585" lon="1.383502">
        <ele>2081.45637681906</ele>
        <time>2019-08-05T13:50:52.000Z</time>
      </trkpt>
      <trkpt lat="42.630555" lon="1.383539">
        <ele>2081</ele>
        <time>2019-08-05T13:50:56.000Z</time>
      </trkpt>
      <trkpt lat="42.630521" lon="1.383584">
        <ele>2081</ele>
        <time>2019-08-05T13:51:00.000Z</time>
      </trkpt>
      <trkpt lat="42.630481" lon="1.383651">
        <ele>2081</ele>
        <time>2019-08-05T13:51:07.000Z</time>
      </trkpt>
      <trkpt lat="42.630447" lon="1.383682">
        <ele>2081.28235400416</ele>
        <time>2019-08-05T13:51:11.000Z</time>
      </trkpt>
      <trkpt lat="42.630404" lon="1.383694">
        <ele>2081</ele>
        <time>2019-08-05T13:51:15.000Z</time>
      </trkpt>
      <trkpt lat="42.630365" lon="1.383712">
        <ele>2080</ele>
        <time>2019-08-05T13:51:19.000Z</time>
      </trkpt>
      <trkpt lat="42.630332" lon="1.383734">
        <ele>2080</ele>
        <time>2019-08-05T13:51:22.000Z</time>
      </trkpt>
      <trkpt lat="42.630272" lon="1.383799">
        <ele>2079</ele>
        <time>2019-08-05T13:51:29.000Z</time>
      </trkpt>
      <trkpt lat="42.63024" lon="1.383826">
        <ele>2079</ele>
        <time>2019-08-05T13:51:34.000Z</time>
      </trkpt>
      <trkpt lat="42.630209" lon="1.383856">
        <ele>2079</ele>
        <time>2019-08-05T13:51:38.000Z</time>
      </trkpt>
      <trkpt lat="42.630175" lon="1.383888">
        <ele>2079</ele>
        <time>2019-08-05T13:51:42.000Z</time>
      </trkpt>
      <trkpt lat="42.630137" lon="1.383918">
        <ele>2078.30881882353</ele>
        <time>2019-08-05T13:51:47.000Z</time>
      </trkpt>
      <trkpt lat="42.630095" lon="1.383925">
        <ele>2078</ele>
        <time>2019-08-05T13:51:50.000Z</time>
      </trkpt>
      <trkpt lat="42.630061" lon="1.383954">
        <ele>2078</ele>
        <time>2019-08-05T13:51:53.000Z</time>
      </trkpt>
      <trkpt lat="42.630021" lon="1.383985">
        <ele>2078</ele>
        <time>2019-08-05T13:51:57.000Z</time>
      </trkpt>
      <trkpt lat="42.629987" lon="1.384019">
        <ele>2076.48599181759</ele>
        <time>2019-08-05T13:52:01.000Z</time>
      </trkpt>
      <trkpt lat="42.629954" lon="1.384047">
        <ele>2076</ele>
        <time>2019-08-05T13:52:06.000Z</time>
      </trkpt>
      <trkpt lat="42.629918" lon="1.384058">
        <ele>2076</ele>
        <time>2019-08-05T13:52:10.000Z</time>
      </trkpt>
      <trkpt lat="42.629815" lon="1.384113">
        <ele>2076</ele>
        <time>2019-08-05T13:52:21.000Z</time>
      </trkpt>
      <trkpt lat="42.629742" lon="1.384143">
        <ele>2076.26027493337</ele>
        <time>2019-08-05T13:52:28.000Z</time>
      </trkpt>
      <trkpt lat="42.629724" lon="1.384185">
        <ele>2077</ele>
        <time>2019-08-05T13:52:32.000Z</time>
      </trkpt>
      <trkpt lat="42.629689" lon="1.384193">
        <ele>2076.1900032</ele>
        <time>2019-08-05T13:52:37.000Z</time>
      </trkpt>
      <trkpt lat="42.629618" lon="1.38431">
        <ele>2073</ele>
        <time>2019-08-05T13:52:52.000Z</time>
      </trkpt>
      <trkpt lat="42.629587" lon="1.384347">
        <ele>2073</ele>
        <time>2019-08-05T13:52:56.000Z</time>
      </trkpt>
      <trkpt lat="42.629592" lon="1.384288">
        <ele>2073</ele>
        <time>2019-08-05T13:53:02.000Z</time>
      </trkpt>
      <trkpt lat="42.629609" lon="1.384338">
        <ele>2072.26363498842</ele>
        <time>2019-08-05T13:53:22.000Z</time>
      </trkpt>
      <trkpt lat="42.629605" lon="1.384389">
        <ele>2072</ele>
        <time>2019-08-05T13:53:25.000Z</time>
      </trkpt>
      <trkpt lat="42.629607" lon="1.384442">
        <ele>2074</ele>
        <time>2019-08-05T13:53:31.000Z</time>
      </trkpt>
      <trkpt lat="42.6296" lon="1.384498">
        <ele>2074</ele>
        <time>2019-08-05T13:53:38.000Z</time>
      </trkpt>
      <trkpt lat="42.629585" lon="1.384546">
        <ele>2074</ele>
        <time>2019-08-05T13:53:42.000Z</time>
      </trkpt>
      <trkpt lat="42.62956" lon="1.384599">
        <ele>2074</ele>
        <time>2019-08-05T13:53:48.000Z</time>
      </trkpt>
      <trkpt lat="42.629544" lon="1.384642">
        <ele>2074</ele>
        <time>2019-08-05T13:53:53.000Z</time>
      </trkpt>
      <trkpt lat="42.629525" lon="1.384685">
        <ele>2072</ele>
        <time>2019-08-05T13:53:57.000Z</time>
      </trkpt>
      <trkpt lat="42.629509" lon="1.384734">
        <ele>2072</ele>
        <time>2019-08-05T13:54:01.000Z</time>
      </trkpt>
      <trkpt lat="42.629491" lon="1.384778">
        <ele>2070.25000296296</ele>
        <time>2019-08-05T13:54:05.000Z</time>
      </trkpt>
      <trkpt lat="42.629481" lon="1.384821">
        <ele>2070</ele>
        <time>2019-08-05T13:54:08.000Z</time>
      </trkpt>
      <trkpt lat="42.629458" lon="1.38487">
        <ele>2068</ele>
        <time>2019-08-05T13:54:12.000Z</time>
      </trkpt>
      <trkpt lat="42.629444" lon="1.384924">
        <ele>2069</ele>
        <time>2019-08-05T13:54:20.000Z</time>
      </trkpt>
      <trkpt lat="42.62945" lon="1.38497">
        <ele>2067</ele>
        <time>2019-08-05T13:54:26.000Z</time>
      </trkpt>
      <trkpt lat="42.629459" lon="1.385021">
        <ele>2067</ele>
        <time>2019-08-05T13:54:31.000Z</time>
      </trkpt>
      <trkpt lat="42.629433" lon="1.385059">
        <ele>2067</ele>
        <time>2019-08-05T13:54:54.000Z</time>
      </trkpt>
      <trkpt lat="42.629385" lon="1.385071">
        <ele>2066</ele>
        <time>2019-08-05T13:55:00.000Z</time>
      </trkpt>
      <trkpt lat="42.629338" lon="1.38508">
        <ele>2065</ele>
        <time>2019-08-05T13:55:05.000Z</time>
      </trkpt>
      <trkpt lat="42.629295" lon="1.385096">
        <ele>2065</ele>
        <time>2019-08-05T13:55:09.000Z</time>
      </trkpt>
      <trkpt lat="42.629266" lon="1.385127">
        <ele>2067</ele>
        <time>2019-08-05T13:55:14.000Z</time>
      </trkpt>
      <trkpt lat="42.629242" lon="1.385168">
        <ele>2067</ele>
        <time>2019-08-05T13:55:21.000Z</time>
      </trkpt>
      <trkpt lat="42.629206" lon="1.38519">
        <ele>2068.49999407407</ele>
        <time>2019-08-05T13:55:25.000Z</time>
      </trkpt>
      <trkpt lat="42.629192" lon="1.38524">
        <ele>2069</ele>
        <time>2019-08-05T13:55:30.000Z</time>
      </trkpt>
      <trkpt lat="42.629176" lon="1.385288">
        <ele>2069</ele>
        <time>2019-08-05T13:55:34.000Z</time>
      </trkpt>
      <trkpt lat="42.62916" lon="1.385332">
        <ele>2070</ele>
        <time>2019-08-05T13:55:37.000Z</time>
      </trkpt>
      <trkpt lat="42.629152" lon="1.385389">
        <ele>2070</ele>
        <time>2019-08-05T13:55:41.000Z</time>
      </trkpt>
      <trkpt lat="42.629137" lon="1.385451">
        <ele>2069.43749333333</ele>
        <time>2019-08-05T13:55:46.000Z</time>
      </trkpt>
      <trkpt lat="42.629122" lon="1.385503">
        <ele>2068</ele>
        <time>2019-08-05T13:55:50.000Z</time>
      </trkpt>
      <trkpt lat="42.629108" lon="1.385554">
        <ele>2068</ele>
        <time>2019-08-05T13:55:55.000Z</time>
      </trkpt>
      <trkpt lat="42.629068" lon="1.385679">
        <ele>2067.46000051199</ele>
        <time>2019-08-05T13:56:42.000Z</time>
      </trkpt>
      <trkpt lat="42.62906" lon="1.385726">
        <ele>2067.80412235095</ele>
        <time>2019-08-05T13:56:50.000Z</time>
      </trkpt>
      <trkpt lat="42.629068" lon="1.385774">
        <ele>2067</ele>
        <time>2019-08-05T13:57:01.000Z</time>
      </trkpt>
      <trkpt lat="42.629048" lon="1.385891">
        <ele>2066</ele>
        <time>2019-08-05T13:57:09.000Z</time>
      </trkpt>
      <trkpt lat="42.628998" lon="1.38602">
        <ele>2064</ele>
        <time>2019-08-05T13:57:16.000Z</time>
      </trkpt>
      <trkpt lat="42.628958" lon="1.386159">
        <ele>2062.26363498842</ele>
        <time>2019-08-05T13:57:24.000Z</time>
      </trkpt>
      <trkpt lat="42.628912" lon="1.386291">
        <ele>2061</ele>
        <time>2019-08-05T13:57:33.000Z</time>
      </trkpt>
      <trkpt lat="42.62888" lon="1.386439">
        <ele>2060</ele>
        <time>2019-08-05T13:57:42.000Z</time>
      </trkpt>
      <trkpt lat="42.62886" lon="1.386515">
        <ele>2058.78641198986</ele>
        <time>2019-08-05T13:57:47.000Z</time>
      </trkpt>
      <trkpt lat="42.62883" lon="1.386579">
        <ele>2058</ele>
        <time>2019-08-05T13:57:52.000Z</time>
      </trkpt>
      <trkpt lat="42.628802" lon="1.386617">
        <ele>2056.1900032</ele>
        <time>2019-08-05T13:57:56.000Z</time>
      </trkpt>
      <trkpt lat="42.628784" lon="1.386667">
        <ele>2056</ele>
        <time>2019-08-05T13:57:59.000Z</time>
      </trkpt>
      <trkpt lat="42.628776" lon="1.386728">
        <ele>2056</ele>
        <time>2019-08-05T13:58:03.000Z</time>
      </trkpt>
      <trkpt lat="42.628766" lon="1.386783">
        <ele>2056.73636501158</ele>
        <time>2019-08-05T13:58:07.000Z</time>
      </trkpt>
      <trkpt lat="42.628755" lon="1.386834">
        <ele>2058</ele>
        <time>2019-08-05T13:58:11.000Z</time>
      </trkpt>
      <trkpt lat="42.628743" lon="1.386884">
        <ele>2057</ele>
        <time>2019-08-05T13:58:17.000Z</time>
      </trkpt>
      <trkpt lat="42.628728" lon="1.386941">
        <ele>2056</ele>
        <time>2019-08-05T13:58:22.000Z</time>
      </trkpt>
      <trkpt lat="42.628713" lon="1.38699">
        <ele>2056</ele>
        <time>2019-08-05T13:58:26.000Z</time>
      </trkpt>
      <trkpt lat="42.628706" lon="1.387038">
        <ele>2055</ele>
        <time>2019-08-05T13:58:31.000Z</time>
      </trkpt>
      <trkpt lat="42.628695" lon="1.387095">
        <ele>2054.762496</ele>
        <time>2019-08-05T13:58:38.000Z</time>
      </trkpt>
      <trkpt lat="42.62868" lon="1.387147">
        <ele>2054</ele>
        <time>2019-08-05T13:58:43.000Z</time>
      </trkpt>
      <trkpt lat="42.62865" lon="1.387187">
        <ele>2053</ele>
        <time>2019-08-05T13:58:48.000Z</time>
      </trkpt>
      <trkpt lat="42.628619" lon="1.387223">
        <ele>2052</ele>
        <time>2019-08-05T13:58:53.000Z</time>
      </trkpt>
      <trkpt lat="42.62859" lon="1.387269">
        <ele>2051</ele>
        <time>2019-08-05T13:58:57.000Z</time>
      </trkpt>
      <trkpt lat="42.628563" lon="1.387312">
        <ele>2049.20212968763</ele>
        <time>2019-08-05T13:59:01.000Z</time>
      </trkpt>
      <trkpt lat="42.628542" lon="1.387351">
        <ele>2048</ele>
        <time>2019-08-05T13:59:04.000Z</time>
      </trkpt>
      <trkpt lat="42.62852" lon="1.387399">
        <ele>2048</ele>
        <time>2019-08-05T13:59:09.000Z</time>
      </trkpt>
      <trkpt lat="42.628491" lon="1.387438">
        <ele>2047</ele>
        <time>2019-08-05T13:59:14.000Z</time>
      </trkpt>
      <trkpt lat="42.628462" lon="1.387467">
        <ele>2046</ele>
        <time>2019-08-05T13:59:23.000Z</time>
      </trkpt>
      <trkpt lat="42.628435" lon="1.387504">
        <ele>2045.8099968</ele>
        <time>2019-08-05T13:59:27.000Z</time>
      </trkpt>
      <trkpt lat="42.628421" lon="1.38755">
        <ele>2046</ele>
        <time>2019-08-05T13:59:31.000Z</time>
      </trkpt>
      <trkpt lat="42.6284" lon="1.387593">
        <ele>2045</ele>
        <time>2019-08-05T13:59:36.000Z</time>
      </trkpt>
      <trkpt lat="42.628371" lon="1.387634">
        <ele>2044.19588023383</ele>
        <time>2019-08-05T13:59:41.000Z</time>
      </trkpt>
      <trkpt lat="42.628358" lon="1.387675">
        <ele>2043</ele>
        <time>2019-08-05T13:59:46.000Z</time>
      </trkpt>
      <trkpt lat="42.628344" lon="1.387733">
        <ele>2043</ele>
        <time>2019-08-05T13:59:50.000Z</time>
      </trkpt>
      <trkpt lat="42.628343" lon="1.387798">
        <ele>2043</ele>
        <time>2019-08-05T13:59:55.000Z</time>
      </trkpt>
      <trkpt lat="42.62832" lon="1.387842">
        <ele>2043</ele>
        <time>2019-08-05T13:59:59.000Z</time>
      </trkpt>
      <trkpt lat="42.628294" lon="1.38788">
        <ele>2042.27678857143</ele>
        <time>2019-08-05T14:00:03.000Z</time>
      </trkpt>
      <trkpt lat="42.628263" lon="1.38792">
        <ele>2044</ele>
        <time>2019-08-05T14:00:07.000Z</time>
      </trkpt>
      <trkpt lat="42.628231" lon="1.387944">
        <ele>2043.36220885113</ele>
        <time>2019-08-05T14:00:10.000Z</time>
      </trkpt>
      <trkpt lat="42.628203" lon="1.387982">
        <ele>2043</ele>
        <time>2019-08-05T14:00:14.000Z</time>
      </trkpt>
      <trkpt lat="42.628168" lon="1.387999">
        <ele>2045</ele>
        <time>2019-08-05T14:00:20.000Z</time>
      </trkpt>
      <trkpt lat="42.628138" lon="1.388039">
        <ele>2045</ele>
        <time>2019-08-05T14:00:24.000Z</time>
      </trkpt>
      <trkpt lat="42.628108" lon="1.388076">
        <ele>2046</ele>
        <time>2019-08-05T14:00:28.000Z</time>
      </trkpt>
      <trkpt lat="42.628067" lon="1.388106">
        <ele>2047</ele>
        <time>2019-08-05T14:00:32.000Z</time>
      </trkpt>
      <trkpt lat="42.628044" lon="1.388147">
        <ele>2046</ele>
        <time>2019-08-05T14:00:36.000Z</time>
      </trkpt>
      <trkpt lat="42.62802" lon="1.388193">
        <ele>2046</ele>
        <time>2019-08-05T14:00:45.000Z</time>
      </trkpt>
      <trkpt lat="42.628013" lon="1.388244">
        <ele>2046</ele>
        <time>2019-08-05T14:00:51.000Z</time>
      </trkpt>
      <trkpt lat="42.627976" lon="1.388274">
        <ele>2045</ele>
        <time>2019-08-05T14:00:57.000Z</time>
      </trkpt>
      <trkpt lat="42.627949" lon="1.388307">
        <ele>2044.80412235095</ele>
        <time>2019-08-05T14:01:02.000Z</time>
      </trkpt>
      <trkpt lat="42.627923" lon="1.388343">
        <ele>2044</ele>
        <time>2019-08-05T14:01:07.000Z</time>
      </trkpt>
      <trkpt lat="42.6279" lon="1.388385">
        <ele>2044</ele>
        <time>2019-08-05T14:01:10.000Z</time>
      </trkpt>
      <trkpt lat="42.627881" lon="1.388429">
        <ele>2043</ele>
        <time>2019-08-05T14:01:13.000Z</time>
      </trkpt>
      <trkpt lat="42.627869" lon="1.38848">
        <ele>2043.80411976617</ele>
        <time>2019-08-05T14:01:17.000Z</time>
      </trkpt>
      <trkpt lat="42.627845" lon="1.388524">
        <ele>2044</ele>
        <time>2019-08-05T14:01:20.000Z</time>
      </trkpt>
      <trkpt lat="42.627821" lon="1.388563">
        <ele>2044</ele>
        <time>2019-08-05T14:01:23.000Z</time>
      </trkpt>
      <trkpt lat="42.627801" lon="1.388605">
        <ele>2044</ele>
        <time>2019-08-05T14:01:26.000Z</time>
      </trkpt>
      <trkpt lat="42.627778" lon="1.388644">
        <ele>2044</ele>
        <time>2019-08-05T14:01:29.000Z</time>
      </trkpt>
      <trkpt lat="42.627763" lon="1.38869">
        <ele>2044.79347478261</ele>
        <time>2019-08-05T14:01:32.000Z</time>
      </trkpt>
      <trkpt lat="42.627737" lon="1.388739">
        <ele>2045</ele>
        <time>2019-08-05T14:01:36.000Z</time>
      </trkpt>
      <trkpt lat="42.627711" lon="1.388783">
        <ele>2044.19587764905</ele>
        <time>2019-08-05T14:01:40.000Z</time>
      </trkpt>
      <trkpt lat="42.627683" lon="1.388815">
        <ele>2045.55101747603</ele>
        <time>2019-08-05T14:01:47.000Z</time>
      </trkpt>
      <trkpt lat="42.627687" lon="1.388865">
        <ele>2046.80412235095</ele>
        <time>2019-08-05T14:01:54.000Z</time>
      </trkpt>
      <trkpt lat="42.627662" lon="1.388887">
        <ele>2049</ele>
        <time>2019-08-05T14:01:59.000Z</time>
      </trkpt>
      <trkpt lat="42.627631" lon="1.388902">
        <ele>2051</ele>
        <time>2019-08-05T14:02:12.000Z</time>
      </trkpt>
      <trkpt lat="42.627629" lon="1.388953">
        <ele>2052.63281</ele>
        <time>2019-08-05T14:02:43.000Z</time>
      </trkpt>
      <trkpt lat="42.627615" lon="1.389001">
        <ele>2054</ele>
        <time>2019-08-05T14:02:49.000Z</time>
      </trkpt>
      <trkpt lat="42.627602" lon="1.389048">
        <ele>2054</ele>
        <time>2019-08-05T14:02:54.000Z</time>
      </trkpt>
      <trkpt lat="42.627599" lon="1.389098">
        <ele>2055</ele>
        <time>2019-08-05T14:02:59.000Z</time>
      </trkpt>
      <trkpt lat="42.627584" lon="1.389143">
        <ele>2055</ele>
        <time>2019-08-05T14:03:04.000Z</time>
      </trkpt>
      <trkpt lat="42.627574" lon="1.389196">
        <ele>2056</ele>
        <time>2019-08-05T14:03:22.000Z</time>
      </trkpt>
      <trkpt lat="42.62758" lon="1.389247">
        <ele>2054.23584746172</ele>
        <time>2019-08-05T14:03:29.000Z</time>
      </trkpt>
      <trkpt lat="42.627609" lon="1.389292">
        <ele>2054</ele>
        <time>2019-08-05T14:03:34.000Z</time>
      </trkpt>
      <trkpt lat="42.627645" lon="1.389317">
        <ele>2054</ele>
        <time>2019-08-05T14:03:38.000Z</time>
      </trkpt>
      <trkpt lat="42.627658" lon="1.389363">
        <ele>2053</ele>
        <time>2019-08-05T14:03:54.000Z</time>
      </trkpt>
      <trkpt lat="42.627655" lon="1.389417">
        <ele>2051</ele>
        <time>2019-08-05T14:04:00.000Z</time>
      </trkpt>
      <trkpt lat="42.627651" lon="1.389475">
        <ele>2052</ele>
        <time>2019-08-05T14:04:05.000Z</time>
      </trkpt>
      <trkpt lat="42.627666" lon="1.389518">
        <ele>2050.26027493337</ele>
        <time>2019-08-05T14:04:08.000Z</time>
      </trkpt>
      <trkpt lat="42.627673" lon="1.389577">
        <ele>2049</ele>
        <time>2019-08-05T14:04:12.000Z</time>
      </trkpt>
      <trkpt lat="42.627675" lon="1.389642">
        <ele>2049</ele>
        <time>2019-08-05T14:04:16.000Z</time>
      </trkpt>
      <trkpt lat="42.627677" lon="1.389806">
        <ele>2045</ele>
        <time>2019-08-05T14:04:30.000Z</time>
      </trkpt>
      <trkpt lat="42.627708" lon="1.389923">
        <ele>2043</ele>
        <time>2019-08-05T14:04:41.000Z</time>
      </trkpt>
      <trkpt lat="42.627723" lon="1.390064">
        <ele>2041</ele>
        <time>2019-08-05T14:04:56.000Z</time>
      </trkpt>
      <trkpt lat="42.627766" lon="1.390202">
        <ele>2038</ele>
        <time>2019-08-05T14:05:08.000Z</time>
      </trkpt>
      <trkpt lat="42.627758" lon="1.390254">
        <ele>2037</ele>
        <time>2019-08-05T14:05:14.000Z</time>
      </trkpt>
      <trkpt lat="42.627758" lon="1.390298">
        <ele>2036</ele>
        <time>2019-08-05T14:05:18.000Z</time>
      </trkpt>
      <trkpt lat="42.62776" lon="1.390346">
        <ele>2035</ele>
        <time>2019-08-05T14:05:22.000Z</time>
      </trkpt>
      <trkpt lat="42.62773" lon="1.390388">
        <ele>2035</ele>
        <time>2019-08-05T14:05:26.000Z</time>
      </trkpt>
      <trkpt lat="42.627697" lon="1.3904">
        <ele>2034</ele>
        <time>2019-08-05T14:05:29.000Z</time>
      </trkpt>
      <trkpt lat="42.627661" lon="1.390377">
        <ele>2034</ele>
        <time>2019-08-05T14:05:33.000Z</time>
      </trkpt>
      <trkpt lat="42.627632" lon="1.390339">
        <ele>2032</ele>
        <time>2019-08-05T14:05:41.000Z</time>
      </trkpt>
      <trkpt lat="42.627603" lon="1.390304">
        <ele>2032</ele>
        <time>2019-08-05T14:05:47.000Z</time>
      </trkpt>
      <trkpt lat="42.627575" lon="1.39027">
        <ele>2030.72321142857</ele>
        <time>2019-08-05T14:05:55.000Z</time>
      </trkpt>
      <trkpt lat="42.627538" lon="1.390254">
        <ele>2029</ele>
        <time>2019-08-05T14:06:00.000Z</time>
      </trkpt>
      <trkpt lat="42.627501" lon="1.390258">
        <ele>2027</ele>
        <time>2019-08-05T14:06:05.000Z</time>
      </trkpt>
      <trkpt lat="42.627473" lon="1.390219">
        <ele>2027</ele>
        <time>2019-08-05T14:06:10.000Z</time>
      </trkpt>
      <trkpt lat="42.62744" lon="1.390184">
        <ele>2026</ele>
        <time>2019-08-05T14:06:16.000Z</time>
      </trkpt>
      <trkpt lat="42.62741" lon="1.390149">
        <ele>2023</ele>
        <time>2019-08-05T14:06:23.000Z</time>
      </trkpt>
      <trkpt lat="42.627369" lon="1.390156">
        <ele>2023.25000296296</ele>
        <time>2019-08-05T14:06:29.000Z</time>
      </trkpt>
      <trkpt lat="42.62734" lon="1.390126">
        <ele>2022</ele>
        <time>2019-08-05T14:06:32.000Z</time>
      </trkpt>
      <trkpt lat="42.627325" lon="1.390071">
        <ele>2021</ele>
        <time>2019-08-05T14:06:36.000Z</time>
      </trkpt>
      <trkpt lat="42.627274" lon="1.38997">
        <ele>2018.2894725023</ele>
        <time>2019-08-05T14:06:45.000Z</time>
      </trkpt>
      <trkpt lat="42.627243" lon="1.389944">
        <ele>2017.36719</ele>
        <time>2019-08-05T14:06:50.000Z</time>
      </trkpt>
      <trkpt lat="42.627194" lon="1.38993">
        <ele>2015</ele>
        <time>2019-08-05T14:07:00.000Z</time>
      </trkpt>
      <trkpt lat="42.627133" lon="1.389828">
        <ele>2011.26027949712</ele>
        <time>2019-08-05T14:07:15.000Z</time>
      </trkpt>
      <trkpt lat="42.627102" lon="1.38989">
        <ele>2007</ele>
        <time>2019-08-05T14:07:32.000Z</time>
      </trkpt>
      <trkpt lat="42.627065" lon="1.3899">
        <ele>2006</ele>
        <time>2019-08-05T14:07:35.000Z</time>
      </trkpt>
      <trkpt lat="42.627025" lon="1.3899">
        <ele>2004.22115692308</ele>
        <time>2019-08-05T14:07:39.000Z</time>
      </trkpt>
      <trkpt lat="42.62699" lon="1.389873">
        <ele>2004</ele>
        <time>2019-08-05T14:07:43.000Z</time>
      </trkpt>
      <trkpt lat="42.626951" lon="1.389834">
        <ele>2003</ele>
        <time>2019-08-05T14:07:47.000Z</time>
      </trkpt>
      <trkpt lat="42.626918" lon="1.389791">
        <ele>2002</ele>
        <time>2019-08-05T14:07:51.000Z</time>
      </trkpt>
      <trkpt lat="42.62689" lon="1.389752">
        <ele>2001</ele>
        <time>2019-08-05T14:07:54.000Z</time>
      </trkpt>
      <trkpt lat="42.62686" lon="1.389714">
        <ele>2000</ele>
        <time>2019-08-05T14:07:59.000Z</time>
      </trkpt>
      <trkpt lat="42.62682" lon="1.389707">
        <ele>2000</ele>
        <time>2019-08-05T14:08:03.000Z</time>
      </trkpt>
      <trkpt lat="42.626788" lon="1.389686">
        <ele>1999</ele>
        <time>2019-08-05T14:08:06.000Z</time>
      </trkpt>
      <trkpt lat="42.626754" lon="1.389664">
        <ele>1998.26027493337</ele>
        <time>2019-08-05T14:08:10.000Z</time>
      </trkpt>
      <trkpt lat="42.626728" lon="1.389682">
        <ele>1996</ele>
        <time>2019-08-05T14:08:29.000Z</time>
      </trkpt>
      <trkpt lat="42.626695" lon="1.389654">
        <ele>1996</ele>
        <time>2019-08-05T14:08:33.000Z</time>
      </trkpt>
      <trkpt lat="42.626664" lon="1.389621">
        <ele>1995</ele>
        <time>2019-08-05T14:08:39.000Z</time>
      </trkpt>
      <trkpt lat="42.626654" lon="1.389574">
        <ele>1992.44898252397</ele>
        <time>2019-08-05T14:08:45.000Z</time>
      </trkpt>
      <trkpt lat="42.62665" lon="1.389521">
        <ele>1991</ele>
        <time>2019-08-05T14:08:50.000Z</time>
      </trkpt>
      <trkpt lat="42.626628" lon="1.389482">
        <ele>1990</ele>
        <time>2019-08-05T14:08:55.000Z</time>
      </trkpt>
      <trkpt lat="42.626625" lon="1.389434">
        <ele>1988.21348750917</ele>
        <time>2019-08-05T14:08:59.000Z</time>
      </trkpt>
      <trkpt lat="42.626603" lon="1.389397">
        <ele>1988</ele>
        <time>2019-08-05T14:09:02.000Z</time>
      </trkpt>
      <trkpt lat="42.626574" lon="1.389358">
        <ele>1985</ele>
        <time>2019-08-05T14:09:08.000Z</time>
      </trkpt>
      <trkpt lat="42.626543" lon="1.389312">
        <ele>1985</ele>
        <time>2019-08-05T14:09:11.000Z</time>
      </trkpt>
      <trkpt lat="42.626508" lon="1.389273">
        <ele>1986</ele>
        <time>2019-08-05T14:09:14.000Z</time>
      </trkpt>
      <trkpt lat="42.626486" lon="1.389221">
        <ele>1985</ele>
        <time>2019-08-05T14:09:17.000Z</time>
      </trkpt>
      <trkpt lat="42.626452" lon="1.389199">
        <ele>1985</ele>
        <time>2019-08-05T14:09:21.000Z</time>
      </trkpt>
      <trkpt lat="42.626427" lon="1.389165">
        <ele>1984</ele>
        <time>2019-08-05T14:09:25.000Z</time>
      </trkpt>
      <trkpt lat="42.626405" lon="1.38912">
        <ele>1983</ele>
        <time>2019-08-05T14:09:28.000Z</time>
      </trkpt>
      <trkpt lat="42.626396" lon="1.389063">
        <ele>1982.1900032</ele>
        <time>2019-08-05T14:09:31.000Z</time>
      </trkpt>
      <trkpt lat="42.626386" lon="1.389012">
        <ele>1982</ele>
        <time>2019-08-05T14:09:35.000Z</time>
      </trkpt>
      <trkpt lat="42.626371" lon="1.388957">
        <ele>1981</ele>
        <time>2019-08-05T14:09:41.000Z</time>
      </trkpt>
      <trkpt lat="42.626344" lon="1.388921">
        <ele>1981.22093230934</ele>
        <time>2019-08-05T14:09:46.000Z</time>
      </trkpt>
      <trkpt lat="42.626322" lon="1.388866">
        <ele>1980</ele>
        <time>2019-08-05T14:09:51.000Z</time>
      </trkpt>
      <trkpt lat="42.626304" lon="1.388816">
        <ele>1979.22353401801</ele>
        <time>2019-08-05T14:09:54.000Z</time>
      </trkpt>
      <trkpt lat="42.626293" lon="1.388757">
        <ele>1979</ele>
        <time>2019-08-05T14:09:58.000Z</time>
      </trkpt>
      <trkpt lat="42.626288" lon="1.388705">
        <ele>1977.80411976617</ele>
        <time>2019-08-05T14:10:03.000Z</time>
      </trkpt>
      <trkpt lat="42.626276" lon="1.388652">
        <ele>1978</ele>
        <time>2019-08-05T14:10:08.000Z</time>
      </trkpt>
      <trkpt lat="42.626265" lon="1.388691">
        <ele>1975.27678857143</ele>
        <time>2019-08-05T14:10:23.000Z</time>
      </trkpt>
      <trkpt lat="42.626248" lon="1.388734">
        <ele>1975</ele>
        <time>2019-08-05T14:10:28.000Z</time>
      </trkpt>
      <trkpt lat="42.626246" lon="1.388783">
        <ele>1973</ele>
        <time>2019-08-05T14:10:33.000Z</time>
      </trkpt>
      <trkpt lat="42.626228" lon="1.388825">
        <ele>1973</ele>
        <time>2019-08-05T14:10:37.000Z</time>
      </trkpt>
      <trkpt lat="42.626212" lon="1.388877">
        <ele>1972.19588023383</ele>
        <time>2019-08-05T14:10:41.000Z</time>
      </trkpt>
      <trkpt lat="42.626159" lon="1.388962">
        <ele>1969</ele>
        <time>2019-08-05T14:10:48.000Z</time>
      </trkpt>
      <trkpt lat="42.626199" lon="1.389022">
        <ele>1967</ele>
        <time>2019-08-05T14:10:55.000Z</time>
      </trkpt>
      <trkpt lat="42.626182" lon="1.389067">
        <ele>1967</ele>
        <time>2019-08-05T14:10:59.000Z</time>
      </trkpt>
      <trkpt lat="42.626196" lon="1.389108">
        <ele>1964</ele>
        <time>2019-08-05T14:11:05.000Z</time>
      </trkpt>
      <trkpt lat="42.626127" lon="1.389225">
        <ele>1962</ele>
        <time>2019-08-05T14:11:13.000Z</time>
      </trkpt>
      <trkpt lat="42.626122" lon="1.38928">
        <ele>1961</ele>
        <time>2019-08-05T14:11:20.000Z</time>
      </trkpt>
      <trkpt lat="42.626086" lon="1.389276">
        <ele>1960</ele>
        <time>2019-08-05T14:11:22.000Z</time>
      </trkpt>
      <trkpt lat="42.626033" lon="1.389265">
        <ele>1960</ele>
        <time>2019-08-05T14:11:25.000Z</time>
      </trkpt>
      <trkpt lat="42.625994" lon="1.38922">
        <ele>1959</ele>
        <time>2019-08-05T14:11:29.000Z</time>
      </trkpt>
      <trkpt lat="42.62596" lon="1.389188">
        <ele>1959.80412235095</ele>
        <time>2019-08-05T14:11:32.000Z</time>
      </trkpt>
      <trkpt lat="42.625932" lon="1.38914">
        <ele>1960</ele>
        <time>2019-08-05T14:11:35.000Z</time>
      </trkpt>
      <trkpt lat="42.625896" lon="1.389106">
        <ele>1960</ele>
        <time>2019-08-05T14:11:40.000Z</time>
      </trkpt>
      <trkpt lat="42.625887" lon="1.389142">
        <ele>1957</ele>
        <time>2019-08-05T14:11:46.000Z</time>
      </trkpt>
      <trkpt lat="42.625904" lon="1.389188">
        <ele>1957</ele>
        <time>2019-08-05T14:11:50.000Z</time>
      </trkpt>
      <trkpt lat="42.625914" lon="1.389229">
        <ele>1955</ele>
        <time>2019-08-05T14:11:56.000Z</time>
      </trkpt>
      <trkpt lat="42.625949" lon="1.389243">
        <ele>1953.33333333333</ele>
        <time>2019-08-05T14:12:04.000Z</time>
      </trkpt>
      <trkpt lat="42.625993" lon="1.389357">
        <ele>1951</ele>
        <time>2019-08-05T14:12:13.000Z</time>
      </trkpt>
      <trkpt lat="42.625986" lon="1.389413">
        <ele>1950.1900032</ele>
        <time>2019-08-05T14:12:16.000Z</time>
      </trkpt>
      <trkpt lat="42.625953" lon="1.389442">
        <ele>1950</ele>
        <time>2019-08-05T14:12:18.000Z</time>
      </trkpt>
      <trkpt lat="42.625916" lon="1.389446">
        <ele>1950</ele>
        <time>2019-08-05T14:12:19.000Z</time>
      </trkpt>
      <trkpt lat="42.625878" lon="1.389429">
        <ele>1948.20000269473</ele>
        <time>2019-08-05T14:12:21.000Z</time>
      </trkpt>
      <trkpt lat="42.625842" lon="1.389419">
        <ele>1948</ele>
        <time>2019-08-05T14:12:23.000Z</time>
      </trkpt>
      <trkpt lat="42.625803" lon="1.389396">
        <ele>1948</ele>
        <time>2019-08-05T14:12:26.000Z</time>
      </trkpt>
      <trkpt lat="42.625784" lon="1.389352">
        <ele>1948</ele>
        <time>2019-08-05T14:12:30.000Z</time>
      </trkpt>
      <trkpt lat="42.625784" lon="1.389297">
        <ele>1949</ele>
        <time>2019-08-05T14:12:34.000Z</time>
      </trkpt>
      <trkpt lat="42.625795" lon="1.389248">
        <ele>1949</ele>
        <time>2019-08-05T14:12:38.000Z</time>
      </trkpt>
      <trkpt lat="42.625815" lon="1.389206">
        <ele>1948</ele>
        <time>2019-08-05T14:12:43.000Z</time>
      </trkpt>
      <trkpt lat="42.625804" lon="1.389155">
        <ele>1948</ele>
        <time>2019-08-05T14:12:46.000Z</time>
      </trkpt>
      <trkpt lat="42.625767" lon="1.389107">
        <ele>1946.39097838431</ele>
        <time>2019-08-05T14:12:50.000Z</time>
      </trkpt>
      <trkpt lat="42.625739" lon="1.389068">
        <ele>1946</ele>
        <time>2019-08-05T14:12:53.000Z</time>
      </trkpt>
      <trkpt lat="42.625704" lon="1.389025">
        <ele>1944</ele>
        <time>2019-08-05T14:12:57.000Z</time>
      </trkpt>
      <trkpt lat="42.62567" lon="1.389059">
        <ele>1944</ele>
        <time>2019-08-05T14:13:04.000Z</time>
      </trkpt>
      <trkpt lat="42.625653" lon="1.389206">
        <ele>1942</ele>
        <time>2019-08-05T14:13:17.000Z</time>
      </trkpt>
      <trkpt lat="42.625634" lon="1.389261">
        <ele>1941</ele>
        <time>2019-08-05T14:13:21.000Z</time>
      </trkpt>
      <trkpt lat="42.625656" lon="1.389308">
        <ele>1940.19387955017</ele>
        <time>2019-08-05T14:13:25.000Z</time>
      </trkpt>
      <trkpt lat="42.625665" lon="1.389356">
        <ele>1939</ele>
        <time>2019-08-05T14:13:29.000Z</time>
      </trkpt>
      <trkpt lat="42.625642" lon="1.389393">
        <ele>1939</ele>
        <time>2019-08-05T14:13:42.000Z</time>
      </trkpt>
      <trkpt lat="42.625598" lon="1.389393">
        <ele>1938</ele>
        <time>2019-08-05T14:13:45.000Z</time>
      </trkpt>
      <trkpt lat="42.62556" lon="1.389411">
        <ele>1938</ele>
        <time>2019-08-05T14:13:49.000Z</time>
      </trkpt>
      <trkpt lat="42.625521" lon="1.38942">
        <ele>1937.26363498842</ele>
        <time>2019-08-05T14:13:52.000Z</time>
      </trkpt>
      <trkpt lat="42.625483" lon="1.389403">
        <ele>1935</ele>
        <time>2019-08-05T14:13:57.000Z</time>
      </trkpt>
      <trkpt lat="42.625448" lon="1.389393">
        <ele>1934</ele>
        <time>2019-08-05T14:14:01.000Z</time>
      </trkpt>
      <trkpt lat="42.625418" lon="1.389366">
        <ele>1933</ele>
        <time>2019-08-05T14:14:04.000Z</time>
      </trkpt>
      <trkpt lat="42.62538" lon="1.389338">
        <ele>1933</ele>
        <time>2019-08-05T14:14:09.000Z</time>
      </trkpt>
      <trkpt lat="42.625346" lon="1.389319">
        <ele>1932</ele>
        <time>2019-08-05T14:14:12.000Z</time>
      </trkpt>
      <trkpt lat="42.625322" lon="1.389272">
        <ele>1930.1900032</ele>
        <time>2019-08-05T14:14:18.000Z</time>
      </trkpt>
      <trkpt lat="42.625292" lon="1.389236">
        <ele>1929</ele>
        <time>2019-08-05T14:14:21.000Z</time>
      </trkpt>
      <trkpt lat="42.625268" lon="1.38919">
        <ele>1928.26363498842</ele>
        <time>2019-08-05T14:14:24.000Z</time>
      </trkpt>
      <trkpt lat="42.625258" lon="1.389134">
        <ele>1927</ele>
        <time>2019-08-05T14:14:28.000Z</time>
      </trkpt>
      <trkpt lat="42.625234" lon="1.38909">
        <ele>1926</ele>
        <time>2019-08-05T14:14:32.000Z</time>
      </trkpt>
      <trkpt lat="42.625219" lon="1.389045">
        <ele>1925</ele>
        <time>2019-08-05T14:14:36.000Z</time>
      </trkpt>
      <trkpt lat="42.625195" lon="1.388985">
        <ele>1923.2894725023</ele>
        <time>2019-08-05T14:14:41.000Z</time>
      </trkpt>
      <trkpt lat="42.625186" lon="1.388938">
        <ele>1923</ele>
        <time>2019-08-05T14:14:44.000Z</time>
      </trkpt>
      <trkpt lat="42.625162" lon="1.388898">
        <ele>1922</ele>
        <time>2019-08-05T14:14:49.000Z</time>
      </trkpt>
      <trkpt lat="42.625134" lon="1.388871">
        <ele>1920</ele>
        <time>2019-08-05T14:14:53.000Z</time>
      </trkpt>
      <trkpt lat="42.625121" lon="1.388816">
        <ele>1918</ele>
        <time>2019-08-05T14:14:58.000Z</time>
      </trkpt>
      <trkpt lat="42.625091" lon="1.388791">
        <ele>1918</ele>
        <time>2019-08-05T14:15:01.000Z</time>
      </trkpt>
      <trkpt lat="42.625081" lon="1.388748">
        <ele>1916</ele>
        <time>2019-08-05T14:15:05.000Z</time>
      </trkpt>
      <trkpt lat="42.625062" lon="1.388703">
        <ele>1914.2043024072</ele>
        <time>2019-08-05T14:15:09.000Z</time>
      </trkpt>
      <trkpt lat="42.625043" lon="1.388667">
        <ele>1914</ele>
        <time>2019-08-05T14:15:12.000Z</time>
      </trkpt>
      <trkpt lat="42.625023" lon="1.388613">
        <ele>1911.22115692308</ele>
        <time>2019-08-05T14:15:16.000Z</time>
      </trkpt>
      <trkpt lat="42.625044" lon="1.38857">
        <ele>1911</ele>
        <time>2019-08-05T14:15:19.000Z</time>
      </trkpt>
      <trkpt lat="42.625014" lon="1.388542">
        <ele>1909</ele>
        <time>2019-08-05T14:15:32.000Z</time>
      </trkpt>
      <trkpt lat="42.624979" lon="1.388525">
        <ele>1907</ele>
        <time>2019-08-05T14:15:36.000Z</time>
      </trkpt>
      <trkpt lat="42.625014" lon="1.388494">
        <ele>1908</ele>
        <time>2019-08-05T14:15:44.000Z</time>
      </trkpt>
      <trkpt lat="42.625047" lon="1.388478">
        <ele>1908</ele>
        <time>2019-08-05T14:16:13.000Z</time>
      </trkpt>
      <trkpt lat="42.625064" lon="1.388431">
        <ele>1907</ele>
        <time>2019-08-05T14:16:25.000Z</time>
      </trkpt>
      <trkpt lat="42.625101" lon="1.388398">
        <ele>1907</ele>
        <time>2019-08-05T14:16:34.000Z</time>
      </trkpt>
      <trkpt lat="42.625139" lon="1.388363">
        <ele>1907</ele>
        <time>2019-08-05T14:16:36.000Z</time>
      </trkpt>
      <trkpt lat="42.625173" lon="1.388319">
        <ele>1907</ele>
        <time>2019-08-05T14:16:38.000Z</time>
      </trkpt>
      <trkpt lat="42.625219" lon="1.388292">
        <ele>1910</ele>
        <time>2019-08-05T14:17:47.000Z</time>
      </trkpt>
      <trkpt lat="42.625185" lon="1.388314">
        <ele>1909.37096907387</ele>
        <time>2019-08-05T14:18:26.000Z</time>
      </trkpt>
      <trkpt lat="42.625135" lon="1.388339">
        <ele>1909</ele>
        <time>2019-08-05T14:18:27.000Z</time>
      </trkpt>
      <trkpt lat="42.6251" lon="1.388359">
        <ele>1909.7105274977</ele>
        <time>2019-08-05T14:18:28.000Z</time>
      </trkpt>
      <trkpt lat="42.625061" lon="1.388359">
        <ele>1910</ele>
        <time>2019-08-05T14:18:34.000Z</time>
      </trkpt>
      <trkpt lat="42.625056" lon="1.388336">
        <ele>1909</ele>
        <time>2019-08-05T14:18:38.000Z</time>
      </trkpt>
      <trkpt lat="42.625072" lon="1.388135">
        <ele>1915</ele>
        <time>2019-08-05T14:27:41.000Z</time>
      </trkpt>
      <trkpt lat="42.62504" lon="1.38817">
        <ele>1914</ele>
        <time>2019-08-05T14:28:15.000Z</time>
      </trkpt>
      <trkpt lat="42.625046" lon="1.388226">
        <ele>1914</ele>
        <time>2019-08-05T14:28:20.000Z</time>
      </trkpt>
      <trkpt lat="42.625044" lon="1.388268">
        <ele>1912</ele>
        <time>2019-08-05T14:28:24.000Z</time>
      </trkpt>
      <trkpt lat="42.625035" lon="1.388316">
        <ele>1913</ele>
        <time>2019-08-05T14:28:28.000Z</time>
      </trkpt>
      <trkpt lat="42.625042" lon="1.388373">
        <ele>1912</ele>
        <time>2019-08-05T14:28:33.000Z</time>
      </trkpt>
      <trkpt lat="42.625034" lon="1.388422">
        <ele>1911</ele>
        <time>2019-08-05T14:28:37.000Z</time>
      </trkpt>
      <trkpt lat="42.625016" lon="1.388464">
        <ele>1911</ele>
        <time>2019-08-05T14:28:41.000Z</time>
      </trkpt>
      <trkpt lat="42.624986" lon="1.388502">
        <ele>1910.1900032</ele>
        <time>2019-08-05T14:28:44.000Z</time>
      </trkpt>
      <trkpt lat="42.624958" lon="1.38854">
        <ele>1910</ele>
        <time>2019-08-05T14:28:47.000Z</time>
      </trkpt>
      <trkpt lat="42.624931" lon="1.388591">
        <ele>1909.27678857143</ele>
        <time>2019-08-05T14:28:51.000Z</time>
      </trkpt>
      <trkpt lat="42.624904" lon="1.388633">
        <ele>1908</ele>
        <time>2019-08-05T14:28:55.000Z</time>
      </trkpt>
      <trkpt lat="42.62488" lon="1.388662">
        <ele>1906</ele>
        <time>2019-08-05T14:28:59.000Z</time>
      </trkpt>
      <trkpt lat="42.624844" lon="1.388683">
        <ele>1905</ele>
        <time>2019-08-05T14:29:04.000Z</time>
      </trkpt>
      <trkpt lat="42.624805" lon="1.38871">
        <ele>1905</ele>
        <time>2019-08-05T14:29:09.000Z</time>
      </trkpt>
      <trkpt lat="42.624771" lon="1.388726">
        <ele>1904</ele>
        <time>2019-08-05T14:29:12.000Z</time>
      </trkpt>
      <trkpt lat="42.624734" lon="1.388744">
        <ele>1904</ele>
        <time>2019-08-05T14:29:15.000Z</time>
      </trkpt>
      <trkpt lat="42.624698" lon="1.388762">
        <ele>1904</ele>
        <time>2019-08-05T14:29:19.000Z</time>
      </trkpt>
      <trkpt lat="42.624665" lon="1.388738">
        <ele>1904</ele>
        <time>2019-08-05T14:29:23.000Z</time>
      </trkpt>
      <trkpt lat="42.624635" lon="1.388698">
        <ele>1903</ele>
        <time>2019-08-05T14:29:27.000Z</time>
      </trkpt>
      <trkpt lat="42.624595" lon="1.388674">
        <ele>1902.80411976617</ele>
        <time>2019-08-05T14:29:31.000Z</time>
      </trkpt>
      <trkpt lat="42.624553" lon="1.388675">
        <ele>1903</ele>
        <time>2019-08-05T14:29:35.000Z</time>
      </trkpt>
      <trkpt lat="42.62452" lon="1.388697">
        <ele>1903</ele>
        <time>2019-08-05T14:29:39.000Z</time>
      </trkpt>
      <trkpt lat="42.624483" lon="1.388732">
        <ele>1903</ele>
        <time>2019-08-05T14:29:43.000Z</time>
      </trkpt>
      <trkpt lat="42.624446" lon="1.388749">
        <ele>1903</ele>
        <time>2019-08-05T14:29:46.000Z</time>
      </trkpt>
      <trkpt lat="42.624401" lon="1.388768">
        <ele>1903</ele>
        <time>2019-08-05T14:29:50.000Z</time>
      </trkpt>
      <trkpt lat="42.624363" lon="1.388762">
        <ele>1901</ele>
        <time>2019-08-05T14:30:02.000Z</time>
      </trkpt>
      <trkpt lat="42.624322" lon="1.388753">
        <ele>1900.1900032</ele>
        <time>2019-08-05T14:30:07.000Z</time>
      </trkpt>
      <trkpt lat="42.624207" lon="1.388735">
        <ele>1897.1900032</ele>
        <time>2019-08-05T14:30:16.000Z</time>
      </trkpt>
      <trkpt lat="42.6241" lon="1.38872">
        <ele>1895</ele>
        <time>2019-08-05T14:30:25.000Z</time>
      </trkpt>
      <trkpt lat="42.624014" lon="1.388693">
        <ele>1893</ele>
        <time>2019-08-05T14:30:33.000Z</time>
      </trkpt>
      <trkpt lat="42.623985" lon="1.388677">
        <ele>1891</ele>
        <time>2019-08-05T14:30:37.000Z</time>
      </trkpt>
      <trkpt lat="42.623943" lon="1.388667">
        <ele>1891</ele>
        <time>2019-08-05T14:30:42.000Z</time>
      </trkpt>
      <trkpt lat="42.623913" lon="1.388635">
        <ele>1891</ele>
        <time>2019-08-05T14:30:47.000Z</time>
      </trkpt>
      <trkpt lat="42.623846" lon="1.388596">
        <ele>1889</ele>
        <time>2019-08-05T14:30:55.000Z</time>
      </trkpt>
      <trkpt lat="42.62381" lon="1.388579">
        <ele>1888.21111316542</ele>
        <time>2019-08-05T14:31:00.000Z</time>
      </trkpt>
      <trkpt lat="42.623686" lon="1.388573">
        <ele>1886</ele>
        <time>2019-08-05T14:31:11.000Z</time>
      </trkpt>
      <trkpt lat="42.623573" lon="1.388575">
        <ele>1885</ele>
        <time>2019-08-05T14:31:20.000Z</time>
      </trkpt>
      <trkpt lat="42.623473" lon="1.388524">
        <ele>1883</ele>
        <time>2019-08-05T14:31:30.000Z</time>
      </trkpt>
      <trkpt lat="42.623445" lon="1.38849">
        <ele>1882</ele>
        <time>2019-08-05T14:31:34.000Z</time>
      </trkpt>
      <trkpt lat="42.623347" lon="1.388408">
        <ele>1880</ele>
        <time>2019-08-05T14:31:48.000Z</time>
      </trkpt>
      <trkpt lat="42.623259" lon="1.388324">
        <ele>1878</ele>
        <time>2019-08-05T14:31:57.000Z</time>
      </trkpt>
      <trkpt lat="42.623163" lon="1.388268">
        <ele>1876</ele>
        <time>2019-08-05T14:32:07.000Z</time>
      </trkpt>
      <trkpt lat="42.623053" lon="1.388219">
        <ele>1874</ele>
        <time>2019-08-05T14:32:17.000Z</time>
      </trkpt>
      <trkpt lat="42.622956" lon="1.38814">
        <ele>1872.40658846035</ele>
        <time>2019-08-05T14:32:26.000Z</time>
      </trkpt>
      <trkpt lat="42.622856" lon="1.388084">
        <ele>1872</ele>
        <time>2019-08-05T14:32:35.000Z</time>
      </trkpt>
      <trkpt lat="42.62275" lon="1.38803">
        <ele>1871</ele>
        <time>2019-08-05T14:32:46.000Z</time>
      </trkpt>
      <trkpt lat="42.622661" lon="1.387996">
        <ele>1870</ele>
        <time>2019-08-05T14:32:52.000Z</time>
      </trkpt>
      <trkpt lat="42.622571" lon="1.387909">
        <ele>1870</ele>
        <time>2019-08-05T14:33:00.000Z</time>
      </trkpt>
      <trkpt lat="42.622497" lon="1.387874">
        <ele>1870</ele>
        <time>2019-08-05T14:33:06.000Z</time>
      </trkpt>
      <trkpt lat="42.622459" lon="1.387844">
        <ele>1870</ele>
        <time>2019-08-05T14:33:10.000Z</time>
      </trkpt>
      <trkpt lat="42.622424" lon="1.387812">
        <ele>1871</ele>
        <time>2019-08-05T14:33:13.000Z</time>
      </trkpt>
      <trkpt lat="42.622392" lon="1.387784">
        <ele>1871</ele>
        <time>2019-08-05T14:33:16.000Z</time>
      </trkpt>
      <trkpt lat="42.622363" lon="1.387753">
        <ele>1871</ele>
        <time>2019-08-05T14:33:19.000Z</time>
      </trkpt>
      <trkpt lat="42.62229" lon="1.387634">
        <ele>1871</ele>
        <time>2019-08-05T14:33:28.000Z</time>
      </trkpt>
      <trkpt lat="42.622257" lon="1.3875">
        <ele>1870</ele>
        <time>2019-08-05T14:33:38.000Z</time>
      </trkpt>
      <trkpt lat="42.622225" lon="1.387427">
        <ele>1870</ele>
        <time>2019-08-05T14:33:44.000Z</time>
      </trkpt>
      <trkpt lat="42.622199" lon="1.387371">
        <ele>1870</ele>
        <time>2019-08-05T14:33:47.000Z</time>
      </trkpt>
      <trkpt lat="42.622172" lon="1.387315">
        <ele>1870</ele>
        <time>2019-08-05T14:33:51.000Z</time>
      </trkpt>
      <trkpt lat="42.622152" lon="1.387269">
        <ele>1870</ele>
        <time>2019-08-05T14:33:54.000Z</time>
      </trkpt>
      <trkpt lat="42.622116" lon="1.387231">
        <ele>1869</ele>
        <time>2019-08-05T14:33:58.000Z</time>
      </trkpt>
      <trkpt lat="42.622078" lon="1.387211">
        <ele>1869</ele>
        <time>2019-08-05T14:34:02.000Z</time>
      </trkpt>
      <trkpt lat="42.622038" lon="1.387201">
        <ele>1868</ele>
        <time>2019-08-05T14:34:06.000Z</time>
      </trkpt>
      <trkpt lat="42.622009" lon="1.387172">
        <ele>1868</ele>
        <time>2019-08-05T14:34:10.000Z</time>
      </trkpt>
      <trkpt lat="42.621964" lon="1.387181">
        <ele>1868</ele>
        <time>2019-08-05T14:34:15.000Z</time>
      </trkpt>
      <trkpt lat="42.621919" lon="1.387171">
        <ele>1867</ele>
        <time>2019-08-05T14:34:19.000Z</time>
      </trkpt>
      <trkpt lat="42.621885" lon="1.387161">
        <ele>1866</ele>
        <time>2019-08-05T14:34:22.000Z</time>
      </trkpt>
      <trkpt lat="42.621842" lon="1.387128">
        <ele>1865</ele>
        <time>2019-08-05T14:34:27.000Z</time>
      </trkpt>
      <trkpt lat="42.621803" lon="1.387096">
        <ele>1864.2429959088</ele>
        <time>2019-08-05T14:34:31.000Z</time>
      </trkpt>
      <trkpt lat="42.62177" lon="1.387057">
        <ele>1863</ele>
        <time>2019-08-05T14:34:35.000Z</time>
      </trkpt>
      <trkpt lat="42.621693" lon="1.386959">
        <ele>1861</ele>
        <time>2019-08-05T14:34:44.000Z</time>
      </trkpt>
      <trkpt lat="42.621604" lon="1.386857">
        <ele>1861</ele>
        <time>2019-08-05T14:34:54.000Z</time>
      </trkpt>
      <trkpt lat="42.621568" lon="1.386788">
        <ele>1860</ele>
        <time>2019-08-05T14:35:00.000Z</time>
      </trkpt>
      <trkpt lat="42.621484" lon="1.386732">
        <ele>1859</ele>
        <time>2019-08-05T14:35:07.000Z</time>
      </trkpt>
      <trkpt lat="42.621455" lon="1.386587">
        <ele>1859</ele>
        <time>2019-08-05T14:35:19.000Z</time>
      </trkpt>
      <trkpt lat="42.621528" lon="1.386473">
        <ele>1861</ele>
        <time>2019-08-05T14:35:27.000Z</time>
      </trkpt>
      <trkpt lat="42.621604" lon="1.386409">
        <ele>1862</ele>
        <time>2019-08-05T14:35:35.000Z</time>
      </trkpt>
      <trkpt lat="42.621714" lon="1.386334">
        <ele>1861</ele>
        <time>2019-08-05T14:35:44.000Z</time>
      </trkpt>
      <trkpt lat="42.621828" lon="1.38628">
        <ele>1859</ele>
        <time>2019-08-05T14:35:52.000Z</time>
      </trkpt>
      <trkpt lat="42.621939" lon="1.386261">
        <ele>1858</ele>
        <time>2019-08-05T14:36:00.000Z</time>
      </trkpt>
      <trkpt lat="42.622036" lon="1.386176">
        <ele>1857.30172689655</ele>
        <time>2019-08-05T14:36:08.000Z</time>
      </trkpt>
      <trkpt lat="42.622139" lon="1.386122">
        <ele>1857</ele>
        <time>2019-08-05T14:36:16.000Z</time>
      </trkpt>
      <trkpt lat="42.622248" lon="1.386102">
        <ele>1854.26389333333</ele>
        <time>2019-08-05T14:36:24.000Z</time>
      </trkpt>
      <trkpt lat="42.62236" lon="1.386075">
        <ele>1854</ele>
        <time>2019-08-05T14:36:33.000Z</time>
      </trkpt>
      <trkpt lat="42.622463" lon="1.386035">
        <ele>1852</ele>
        <time>2019-08-05T14:36:40.000Z</time>
      </trkpt>
      <trkpt lat="42.622556" lon="1.385955">
        <ele>1851</ele>
        <time>2019-08-05T14:36:46.000Z</time>
      </trkpt>
      <trkpt lat="42.622656" lon="1.385874">
        <ele>1849.36220242295</ele>
        <time>2019-08-05T14:36:55.000Z</time>
      </trkpt>
      <trkpt lat="42.622753" lon="1.385809">
        <ele>1849</ele>
        <time>2019-08-05T14:37:04.000Z</time>
      </trkpt>
      <trkpt lat="42.62284" lon="1.385721">
        <ele>1848</ele>
        <time>2019-08-05T14:37:12.000Z</time>
      </trkpt>
      <trkpt lat="42.622943" lon="1.385649">
        <ele>1846</ele>
        <time>2019-08-05T14:37:20.000Z</time>
      </trkpt>
      <trkpt lat="42.623049" lon="1.385576">
        <ele>1845</ele>
        <time>2019-08-05T14:37:29.000Z</time>
      </trkpt>
      <trkpt lat="42.623141" lon="1.385488">
        <ele>1845</ele>
        <time>2019-08-05T14:37:35.000Z</time>
      </trkpt>
      <trkpt lat="42.623238" lon="1.385418">
        <ele>1843.2894725023</ele>
        <time>2019-08-05T14:37:43.000Z</time>
      </trkpt>
      <trkpt lat="42.623339" lon="1.385343">
        <ele>1843</ele>
        <time>2019-08-05T14:37:51.000Z</time>
      </trkpt>
      <trkpt lat="42.623364" lon="1.385294">
        <ele>1842</ele>
        <time>2019-08-05T14:37:56.000Z</time>
      </trkpt>
      <trkpt lat="42.623409" lon="1.385162">
        <ele>1840</ele>
        <time>2019-08-05T14:38:05.000Z</time>
      </trkpt>
      <trkpt lat="42.623422" lon="1.385105">
        <ele>1840</ele>
        <time>2019-08-05T14:38:08.000Z</time>
      </trkpt>
      <trkpt lat="42.623433" lon="1.385046">
        <ele>1840</ele>
        <time>2019-08-05T14:38:11.000Z</time>
      </trkpt>
      <trkpt lat="42.623455" lon="1.384986">
        <ele>1839</ele>
        <time>2019-08-05T14:38:14.000Z</time>
      </trkpt>
      <trkpt lat="42.623476" lon="1.38493">
        <ele>1839</ele>
        <time>2019-08-05T14:38:18.000Z</time>
      </trkpt>
      <trkpt lat="42.623498" lon="1.384886">
        <ele>1838.20212968763</ele>
        <time>2019-08-05T14:38:22.000Z</time>
      </trkpt>
      <trkpt lat="42.623518" lon="1.384827">
        <ele>1838</ele>
        <time>2019-08-05T14:38:25.000Z</time>
      </trkpt>
      <trkpt lat="42.623529" lon="1.384774">
        <ele>1837</ele>
        <time>2019-08-05T14:38:28.000Z</time>
      </trkpt>
      <trkpt lat="42.623529" lon="1.384713">
        <ele>1837</ele>
        <time>2019-08-05T14:38:32.000Z</time>
      </trkpt>
      <trkpt lat="42.623514" lon="1.384664">
        <ele>1837</ele>
        <time>2019-08-05T14:38:36.000Z</time>
      </trkpt>
      <trkpt lat="42.6235" lon="1.384606">
        <ele>1836.19387955017</ele>
        <time>2019-08-05T14:38:40.000Z</time>
      </trkpt>
      <trkpt lat="42.62349" lon="1.384547">
        <ele>1836</ele>
        <time>2019-08-05T14:38:44.000Z</time>
      </trkpt>
      <trkpt lat="42.623512" lon="1.3845">
        <ele>1836</ele>
        <time>2019-08-05T14:38:47.000Z</time>
      </trkpt>
      <trkpt lat="42.623531" lon="1.38446">
        <ele>1835</ele>
        <time>2019-08-05T14:38:52.000Z</time>
      </trkpt>
      <trkpt lat="42.623559" lon="1.384414">
        <ele>1834</ele>
        <time>2019-08-05T14:38:56.000Z</time>
      </trkpt>
      <trkpt lat="42.623573" lon="1.384364">
        <ele>1833</ele>
        <time>2019-08-05T14:39:00.000Z</time>
      </trkpt>
      <trkpt lat="42.623601" lon="1.384328">
        <ele>1832.40000379258</ele>
        <time>2019-08-05T14:39:04.000Z</time>
      </trkpt>
      <trkpt lat="42.623597" lon="1.384282">
        <ele>1831</ele>
        <time>2019-08-05T14:39:12.000Z</time>
      </trkpt>
      <trkpt lat="42.623607" lon="1.384239">
        <ele>1830</ele>
        <time>2019-08-05T14:39:16.000Z</time>
      </trkpt>
      <trkpt lat="42.623695" lon="1.384146">
        <ele>1829</ele>
        <time>2019-08-05T14:39:23.000Z</time>
      </trkpt>
      <trkpt lat="42.623712" lon="1.384081">
        <ele>1829</ele>
        <time>2019-08-05T14:39:28.000Z</time>
      </trkpt>
      <trkpt lat="42.623715" lon="1.38402">
        <ele>1828</ele>
        <time>2019-08-05T14:39:32.000Z</time>
      </trkpt>
      <trkpt lat="42.623723" lon="1.38397">
        <ele>1828</ele>
        <time>2019-08-05T14:39:35.000Z</time>
      </trkpt>
      <trkpt lat="42.623726" lon="1.383921">
        <ele>1827</ele>
        <time>2019-08-05T14:39:38.000Z</time>
      </trkpt>
      <trkpt lat="42.62373" lon="1.383859">
        <ele>1827</ele>
        <time>2019-08-05T14:39:42.000Z</time>
      </trkpt>
      <trkpt lat="42.623728" lon="1.383804">
        <ele>1827</ele>
        <time>2019-08-05T14:39:46.000Z</time>
      </trkpt>
      <trkpt lat="42.623719" lon="1.383754">
        <ele>1826</ele>
        <time>2019-08-05T14:39:49.000Z</time>
      </trkpt>
      <trkpt lat="42.623717" lon="1.383699">
        <ele>1826</ele>
        <time>2019-08-05T14:39:52.000Z</time>
      </trkpt>
      <trkpt lat="42.623712" lon="1.383645">
        <ele>1825.19792</ele>
        <time>2019-08-05T14:39:55.000Z</time>
      </trkpt>
      <trkpt lat="42.623705" lon="1.383588">
        <ele>1825</ele>
        <time>2019-08-05T14:39:59.000Z</time>
      </trkpt>
      <trkpt lat="42.623706" lon="1.383436">
        <ele>1823.25688148809</ele>
        <time>2019-08-05T14:40:10.000Z</time>
      </trkpt>
      <trkpt lat="42.62367" lon="1.383278">
        <ele>1822.46000051199</ele>
        <time>2019-08-05T14:40:20.000Z</time>
      </trkpt>
      <trkpt lat="42.623673" lon="1.383126">
        <ele>1822</ele>
        <time>2019-08-05T14:40:38.000Z</time>
      </trkpt>
      <trkpt lat="42.623728" lon="1.382994">
        <ele>1822</ele>
        <time>2019-08-05T14:40:47.000Z</time>
      </trkpt>
      <trkpt lat="42.623778" lon="1.382857">
        <ele>1823</ele>
        <time>2019-08-05T14:40:58.000Z</time>
      </trkpt>
      <trkpt lat="42.623828" lon="1.382706">
        <ele>1823</ele>
        <time>2019-08-05T14:41:08.000Z</time>
      </trkpt>
      <trkpt lat="42.623854" lon="1.38256">
        <ele>1823</ele>
        <time>2019-08-05T14:41:18.000Z</time>
      </trkpt>
      <trkpt lat="42.623865" lon="1.382411">
        <ele>1825</ele>
        <time>2019-08-05T14:41:29.000Z</time>
      </trkpt>
      <trkpt lat="42.623915" lon="1.382268">
        <ele>1826</ele>
        <time>2019-08-05T14:41:37.000Z</time>
      </trkpt>
      <trkpt lat="42.623973" lon="1.382137">
        <ele>1827</ele>
        <time>2019-08-05T14:41:46.000Z</time>
      </trkpt>
      <trkpt lat="42.623988" lon="1.381986">
        <ele>1829</ele>
        <time>2019-08-05T14:42:02.000Z</time>
      </trkpt>
      <trkpt lat="42.624037" lon="1.38192">
        <ele>1831</ele>
        <time>2019-08-05T14:42:13.000Z</time>
      </trkpt>
      <trkpt lat="42.62403" lon="1.381867">
        <ele>1832</ele>
        <time>2019-08-05T14:42:55.000Z</time>
      </trkpt>
      <trkpt lat="42.624052" lon="1.381828">
        <ele>1832</ele>
        <time>2019-08-05T14:43:41.000Z</time>
      </trkpt>
      <trkpt lat="42.624117" lon="1.381697">
        <ele>1835</ele>
        <time>2019-08-05T14:43:57.000Z</time>
      </trkpt>
      <trkpt lat="42.624184" lon="1.381565">
        <ele>1832</ele>
        <time>2019-08-05T14:44:08.000Z</time>
      </trkpt>
      <trkpt lat="42.624239" lon="1.381438">
        <ele>1830</ele>
        <time>2019-08-05T14:44:15.000Z</time>
      </trkpt>
      <trkpt lat="42.624292" lon="1.381307">
        <ele>1828</ele>
        <time>2019-08-05T14:44:21.000Z</time>
      </trkpt>
      <trkpt lat="42.624343" lon="1.381164">
        <ele>1829</ele>
        <time>2019-08-05T14:44:31.000Z</time>
      </trkpt>
      <trkpt lat="42.624398" lon="1.381035">
        <ele>1829</ele>
        <time>2019-08-05T14:44:39.000Z</time>
      </trkpt>
      <trkpt lat="42.624433" lon="1.380895">
        <ele>1829</ele>
        <time>2019-08-05T14:44:46.000Z</time>
      </trkpt>
      <trkpt lat="42.624488" lon="1.38076">
        <ele>1829</ele>
        <time>2019-08-05T14:44:54.000Z</time>
      </trkpt>
      <trkpt lat="42.624517" lon="1.38061">
        <ele>1829</ele>
        <time>2019-08-05T14:45:03.000Z</time>
      </trkpt>
      <trkpt lat="42.624556" lon="1.38047">
        <ele>1830</ele>
        <time>2019-08-05T14:45:12.000Z</time>
      </trkpt>
      <trkpt lat="42.624599" lon="1.380322">
        <ele>1833</ele>
        <time>2019-08-05T14:45:20.000Z</time>
      </trkpt>
      <trkpt lat="42.624606" lon="1.380172">
        <ele>1835</ele>
        <time>2019-08-05T14:45:31.000Z</time>
      </trkpt>
      <trkpt lat="42.624638" lon="1.380032">
        <ele>1836.73636501158</ele>
        <time>2019-08-05T14:45:40.000Z</time>
      </trkpt>
      <trkpt lat="42.624669" lon="1.379885">
        <ele>1839</ele>
        <time>2019-08-05T14:45:53.000Z</time>
      </trkpt>
      <trkpt lat="42.624687" lon="1.379738">
        <ele>1841</ele>
        <time>2019-08-05T14:46:08.000Z</time>
      </trkpt>
      <trkpt lat="42.624739" lon="1.379606">
        <ele>1843</ele>
        <time>2019-08-05T14:46:21.000Z</time>
      </trkpt>
      <trkpt lat="42.624745" lon="1.379538">
        <ele>1843</ele>
        <time>2019-08-05T14:46:27.000Z</time>
      </trkpt>
      <trkpt lat="42.624755" lon="1.379478">
        <ele>1841</ele>
        <time>2019-08-05T14:46:31.000Z</time>
      </trkpt>
      <trkpt lat="42.624771" lon="1.379422">
        <ele>1841</ele>
        <time>2019-08-05T14:46:35.000Z</time>
      </trkpt>
      <trkpt lat="42.624793" lon="1.379361">
        <ele>1839.26027949712</ele>
        <time>2019-08-05T14:46:41.000Z</time>
      </trkpt>
      <trkpt lat="42.624849" lon="1.379241">
        <ele>1835</ele>
        <time>2019-08-05T14:46:56.000Z</time>
      </trkpt>
      <trkpt lat="42.6249" lon="1.379092">
        <ele>1834</ele>
        <time>2019-08-05T14:47:05.000Z</time>
      </trkpt>
      <trkpt lat="42.624908" lon="1.378931">
        <ele>1834</ele>
        <time>2019-08-05T14:47:16.000Z</time>
      </trkpt>
      <trkpt lat="42.624964" lon="1.378792">
        <ele>1834</ele>
        <time>2019-08-05T14:47:24.000Z</time>
      </trkpt>
      <trkpt lat="42.624963" lon="1.378633">
        <ele>1836</ele>
        <time>2019-08-05T14:47:38.000Z</time>
      </trkpt>
      <trkpt lat="42.624983" lon="1.378489">
        <ele>1837</ele>
        <time>2019-08-05T14:47:48.000Z</time>
      </trkpt>
      <trkpt lat="42.624958" lon="1.378339">
        <ele>1839</ele>
        <time>2019-08-05T14:48:03.000Z</time>
      </trkpt>
      <trkpt lat="42.624944" lon="1.378185">
        <ele>1841</ele>
        <time>2019-08-05T14:48:17.000Z</time>
      </trkpt>
      <trkpt lat="42.624913" lon="1.378037">
        <ele>1843</ele>
        <time>2019-08-05T14:48:34.000Z</time>
      </trkpt>
      <trkpt lat="42.624924" lon="1.377884">
        <ele>1844</ele>
        <time>2019-08-05T14:48:47.000Z</time>
      </trkpt>
      <trkpt lat="42.624916" lon="1.377727">
        <ele>1846</ele>
        <time>2019-08-05T14:49:03.000Z</time>
      </trkpt>
      <trkpt lat="42.624913" lon="1.377575">
        <ele>1847</ele>
        <time>2019-08-05T14:49:13.000Z</time>
      </trkpt>
      <trkpt lat="42.624871" lon="1.377434">
        <ele>1848.79787031237</ele>
        <time>2019-08-05T14:49:25.000Z</time>
      </trkpt>
      <trkpt lat="42.624808" lon="1.377313">
        <ele>1850</ele>
        <time>2019-08-05T14:49:36.000Z</time>
      </trkpt>
      <trkpt lat="42.624813" lon="1.377154">
        <ele>1850</ele>
        <time>2019-08-05T14:49:47.000Z</time>
      </trkpt>
      <trkpt lat="42.624878" lon="1.377023">
        <ele>1850.73972050288</ele>
        <time>2019-08-05T14:49:55.000Z</time>
      </trkpt>
      <trkpt lat="42.624904" lon="1.376868">
        <ele>1850</ele>
        <time>2019-08-05T14:50:03.000Z</time>
      </trkpt>
      <trkpt lat="42.624959" lon="1.376727">
        <ele>1851</ele>
        <time>2019-08-05T14:50:12.000Z</time>
      </trkpt>
      <trkpt lat="42.625012" lon="1.376589">
        <ele>1852</ele>
        <time>2019-08-05T14:50:20.000Z</time>
      </trkpt>
      <trkpt lat="42.625009" lon="1.376431">
        <ele>1852.55813538132</ele>
        <time>2019-08-05T14:50:29.000Z</time>
      </trkpt>
      <trkpt lat="42.625015" lon="1.376279">
        <ele>1853</ele>
        <time>2019-08-05T14:50:38.000Z</time>
      </trkpt>
      <trkpt lat="42.625005" lon="1.376128">
        <ele>1853</ele>
        <time>2019-08-05T14:50:48.000Z</time>
      </trkpt>
      <trkpt lat="42.625023" lon="1.375982">
        <ele>1852</ele>
        <time>2019-08-05T14:50:57.000Z</time>
      </trkpt>
      <trkpt lat="42.625001" lon="1.375828">
        <ele>1852</ele>
        <time>2019-08-05T14:51:05.000Z</time>
      </trkpt>
      <trkpt lat="42.624992" lon="1.375666">
        <ele>1853</ele>
        <time>2019-08-05T14:51:15.000Z</time>
      </trkpt>
      <trkpt lat="42.62503" lon="1.375525">
        <ele>1854</ele>
        <time>2019-08-05T14:51:24.000Z</time>
      </trkpt>
      <trkpt lat="42.625053" lon="1.37538">
        <ele>1854</ele>
        <time>2019-08-05T14:51:31.000Z</time>
      </trkpt>
      <trkpt lat="42.625052" lon="1.375231">
        <ele>1854</ele>
        <time>2019-08-05T14:51:40.000Z</time>
      </trkpt>
      <trkpt lat="42.625046" lon="1.375068">
        <ele>1855</ele>
        <time>2019-08-05T14:51:49.000Z</time>
      </trkpt>
      <trkpt lat="42.625019" lon="1.374916">
        <ele>1853</ele>
        <time>2019-08-05T14:52:01.000Z</time>
      </trkpt>
      <trkpt lat="42.624997" lon="1.374772">
        <ele>1853</ele>
        <time>2019-08-05T14:52:09.000Z</time>
      </trkpt>
      <trkpt lat="42.624994" lon="1.374618">
        <ele>1852</ele>
        <time>2019-08-05T14:52:19.000Z</time>
      </trkpt>
      <trkpt lat="42.625001" lon="1.374465">
        <ele>1852</ele>
        <time>2019-08-05T14:52:27.000Z</time>
      </trkpt>
      <trkpt lat="42.625028" lon="1.374309">
        <ele>1853.80807819611</ele>
        <time>2019-08-05T14:52:33.000Z</time>
      </trkpt>
      <trkpt lat="42.625041" lon="1.374173">
        <ele>1854</ele>
        <time>2019-08-05T14:52:40.000Z</time>
      </trkpt>
      <trkpt lat="42.625023" lon="1.374017">
        <ele>1853.19192180389</ele>
        <time>2019-08-05T14:52:49.000Z</time>
      </trkpt>
      <trkpt lat="42.625041" lon="1.373858">
        <ele>1854</ele>
        <time>2019-08-05T14:52:59.000Z</time>
      </trkpt>
      <trkpt lat="42.625025" lon="1.373704">
        <ele>1853</ele>
        <time>2019-08-05T14:53:11.000Z</time>
      </trkpt>
      <trkpt lat="42.625006" lon="1.373553">
        <ele>1853</ele>
        <time>2019-08-05T14:53:22.000Z</time>
      </trkpt>
      <trkpt lat="42.624951" lon="1.373423">
        <ele>1852</ele>
        <time>2019-08-05T14:53:29.000Z</time>
      </trkpt>
      <trkpt lat="42.624883" lon="1.373291">
        <ele>1852.57042285261</ele>
        <time>2019-08-05T14:53:38.000Z</time>
      </trkpt>
      <trkpt lat="42.624871" lon="1.373136">
        <ele>1853</ele>
        <time>2019-08-05T14:53:46.000Z</time>
      </trkpt>
      <trkpt lat="42.624825" lon="1.37299">
        <ele>1854</ele>
        <time>2019-08-05T14:53:57.000Z</time>
      </trkpt>
      <trkpt lat="42.624781" lon="1.372832">
        <ele>1853</ele>
        <time>2019-08-05T14:54:05.000Z</time>
      </trkpt>
      <trkpt lat="42.624776" lon="1.372668">
        <ele>1853</ele>
        <time>2019-08-05T14:54:12.000Z</time>
      </trkpt>
      <trkpt lat="42.624818" lon="1.372524">
        <ele>1853</ele>
        <time>2019-08-05T14:54:21.000Z</time>
      </trkpt>
      <trkpt lat="42.624818" lon="1.372364">
        <ele>1852</ele>
        <time>2019-08-05T14:54:31.000Z</time>
      </trkpt>
      <trkpt lat="42.624796" lon="1.372219">
        <ele>1851</ele>
        <time>2019-08-05T14:54:39.000Z</time>
      </trkpt>
      <trkpt lat="42.624812" lon="1.372076">
        <ele>1848</ele>
        <time>2019-08-05T14:54:48.000Z</time>
      </trkpt>
      <trkpt lat="42.624812" lon="1.371934">
        <ele>1845</ele>
        <time>2019-08-05T14:54:58.000Z</time>
      </trkpt>
      <trkpt lat="42.624824" lon="1.371883">
        <ele>1845</ele>
        <time>2019-08-05T14:55:04.000Z</time>
      </trkpt>
      <trkpt lat="42.624929" lon="1.371841">
        <ele>1845</ele>
        <time>2019-08-05T14:55:18.000Z</time>
      </trkpt>
      <trkpt lat="42.625019" lon="1.371758">
        <ele>1842</ele>
        <time>2019-08-05T14:55:29.000Z</time>
      </trkpt>
      <trkpt lat="42.625079" lon="1.371668">
        <ele>1836</ele>
        <time>2019-08-05T14:55:57.000Z</time>
      </trkpt>
      <trkpt lat="42.625091" lon="1.371595">
        <ele>1835</ele>
        <time>2019-08-05T14:56:05.000Z</time>
      </trkpt>
      <trkpt lat="42.625152" lon="1.371487">
        <ele>1830</ele>
        <time>2019-08-05T14:56:22.000Z</time>
      </trkpt>
      <trkpt lat="42.625247" lon="1.371443">
        <ele>1825</ele>
        <time>2019-08-05T14:56:48.000Z</time>
      </trkpt>
      <trkpt lat="42.625313" lon="1.371328">
        <ele>1821</ele>
        <time>2019-08-05T14:57:08.000Z</time>
      </trkpt>
      <trkpt lat="42.625384" lon="1.371228">
        <ele>1816</ele>
        <time>2019-08-05T14:57:29.000Z</time>
      </trkpt>
      <trkpt lat="42.625491" lon="1.371219">
        <ele>1813</ele>
        <time>2019-08-05T14:57:50.000Z</time>
      </trkpt>
      <trkpt lat="42.625549" lon="1.37122">
        <ele>1811.62294359577</ele>
        <time>2019-08-05T14:58:05.000Z</time>
      </trkpt>
      <trkpt lat="42.625576" lon="1.371221">
        <ele>1809</ele>
        <time>2019-08-05T14:58:14.000Z</time>
      </trkpt>
      <trkpt lat="42.6257" lon="1.371206">
        <ele>1807</ele>
        <time>2019-08-05T14:58:26.000Z</time>
      </trkpt>
      <trkpt lat="42.625796" lon="1.371282">
        <ele>1805</ele>
        <time>2019-08-05T14:58:41.000Z</time>
      </trkpt>
      <trkpt lat="42.625838" lon="1.371155">
        <ele>1800</ele>
        <time>2019-08-05T14:59:04.000Z</time>
      </trkpt>
      <trkpt lat="42.625783" lon="1.37103">
        <ele>1802</ele>
        <time>2019-08-05T14:59:27.000Z</time>
      </trkpt>
      <trkpt lat="42.62569" lon="1.370945">
        <ele>1801</ele>
        <time>2019-08-05T14:59:38.000Z</time>
      </trkpt>
      <trkpt lat="42.625597" lon="1.370857">
        <ele>1803</ele>
        <time>2019-08-05T15:00:01.000Z</time>
      </trkpt>
      <trkpt lat="42.625572" lon="1.370729">
        <ele>1803</ele>
        <time>2019-08-05T15:00:31.000Z</time>
      </trkpt>
      <trkpt lat="42.625558" lon="1.370684">
        <ele>1802</ele>
        <time>2019-08-05T15:00:38.000Z</time>
      </trkpt>
      <trkpt lat="42.625574" lon="1.370645">
        <ele>1800</ele>
        <time>2019-08-05T15:00:43.000Z</time>
      </trkpt>
      <trkpt lat="42.625596" lon="1.370617">
        <ele>1797</ele>
        <time>2019-08-05T15:01:34.000Z</time>
      </trkpt>
      <trkpt lat="42.625628" lon="1.370572">
        <ele>1797</ele>
        <time>2019-08-05T15:02:15.000Z</time>
      </trkpt>
      <trkpt lat="42.625638" lon="1.370525">
        <ele>1795</ele>
        <time>2019-08-05T15:02:29.000Z</time>
      </trkpt>
      <trkpt lat="42.625656" lon="1.370474">
        <ele>1794</ele>
        <time>2019-08-05T15:02:40.000Z</time>
      </trkpt>
      <trkpt lat="42.62568" lon="1.370425">
        <ele>1794</ele>
        <time>2019-08-05T15:03:00.000Z</time>
      </trkpt>
      <trkpt lat="42.625649" lon="1.370401">
        <ele>1794</ele>
        <time>2019-08-05T15:03:24.000Z</time>
      </trkpt>
      <trkpt lat="42.625701" lon="1.370327">
        <ele>1794</ele>
        <time>2019-08-05T15:03:44.000Z</time>
      </trkpt>
      <trkpt lat="42.625736" lon="1.370313">
        <ele>1793.21111316542</ele>
        <time>2019-08-05T15:03:56.000Z</time>
      </trkpt>
      <trkpt lat="42.625785" lon="1.370302">
        <ele>1792</ele>
        <time>2019-08-05T15:04:15.000Z</time>
      </trkpt>
      <trkpt lat="42.625754" lon="1.370313">
        <ele>1790</ele>
        <time>2019-08-05T15:04:54.000Z</time>
      </trkpt>
      <trkpt lat="42.625789" lon="1.370305">
        <ele>1789</ele>
        <time>2019-08-05T15:05:40.000Z</time>
      </trkpt>
      <trkpt lat="42.625813" lon="1.370166">
        <ele>1793</ele>
        <time>2019-08-05T15:06:10.000Z</time>
      </trkpt>
      <trkpt lat="42.625884" lon="1.370061">
        <ele>1790</ele>
        <time>2019-08-05T15:06:45.000Z</time>
      </trkpt>
      <trkpt lat="42.625944" lon="1.370063">
        <ele>1790</ele>
        <time>2019-08-05T15:07:23.000Z</time>
      </trkpt>
      <trkpt lat="42.625911" lon="1.369939">
        <ele>1792</ele>
        <time>2019-08-05T15:07:51.000Z</time>
      </trkpt>
      <trkpt lat="42.625925" lon="1.369874">
        <ele>1791</ele>
        <time>2019-08-05T15:08:07.000Z</time>
      </trkpt>
      <trkpt lat="42.625957" lon="1.369792">
        <ele>1792</ele>
        <time>2019-08-05T15:08:21.000Z</time>
      </trkpt>
      <trkpt lat="42.625968" lon="1.369742">
        <ele>1792</ele>
        <time>2019-08-05T15:08:32.000Z</time>
      </trkpt>
      <trkpt lat="42.625987" lon="1.369645">
        <ele>1792</ele>
        <time>2019-08-05T15:09:01.000Z</time>
      </trkpt>
      <trkpt lat="42.62603" lon="1.369612">
        <ele>1791</ele>
        <time>2019-08-05T15:09:21.000Z</time>
      </trkpt>
      <trkpt lat="42.626056" lon="1.369485">
        <ele>1792</ele>
        <time>2019-08-05T15:09:59.000Z</time>
      </trkpt>
      <trkpt lat="42.626055" lon="1.36941">
        <ele>1793</ele>
        <time>2019-08-05T15:10:21.000Z</time>
      </trkpt>
      <trkpt lat="42.626161" lon="1.369404">
        <ele>1790</ele>
        <time>2019-08-05T15:11:55.000Z</time>
      </trkpt>
      <trkpt lat="42.626184" lon="1.369427">
        <ele>1787</ele>
        <time>2019-08-05T15:12:35.000Z</time>
      </trkpt>
      <trkpt lat="42.62627" lon="1.369504">
        <ele>1783</ele>
        <time>2019-08-05T15:13:56.000Z</time>
      </trkpt>
      <trkpt lat="42.626383" lon="1.369492">
        <ele>1779</ele>
        <time>2019-08-05T15:15:25.000Z</time>
      </trkpt>
      <trkpt lat="42.626272" lon="1.369501">
        <ele>1778</ele>
        <time>2019-08-05T15:16:08.000Z</time>
      </trkpt>
      <trkpt lat="42.626228" lon="1.369441">
        <ele>1769</ele>
        <time>2019-08-05T15:21:00.000Z</time>
      </trkpt>
      <trkpt lat="42.626327" lon="1.369384">
        <ele>1767</ele>
        <time>2019-08-05T15:22:40.000Z</time>
      </trkpt>
      <trkpt lat="42.62631" lon="1.369408">
        <ele>1763</ele>
        <time>2019-08-05T15:23:57.000Z</time>
      </trkpt>
      <trkpt lat="42.62634" lon="1.369383">
        <ele>1760</ele>
        <time>2019-08-05T15:24:22.000Z</time>
      </trkpt>
      <trkpt lat="42.626372" lon="1.369412">
        <ele>1758</ele>
        <time>2019-08-05T15:24:41.000Z</time>
      </trkpt>
      <trkpt lat="42.626425" lon="1.36954">
        <ele>1756</ele>
        <time>2019-08-05T15:24:58.000Z</time>
      </trkpt>
      <trkpt lat="42.626369" lon="1.369527">
        <ele>1755</ele>
        <time>2019-08-05T15:25:19.000Z</time>
      </trkpt>
      <trkpt lat="42.626402" lon="1.369668">
        <ele>1753</ele>
        <time>2019-08-05T15:26:17.000Z</time>
      </trkpt>
      <trkpt lat="42.626416" lon="1.36977">
        <ele>1743</ele>
        <time>2019-08-05T15:29:35.000Z</time>
      </trkpt>
      <trkpt lat="42.626476" lon="1.369794">
        <ele>1733</ele>
        <time>2019-08-05T15:30:47.000Z</time>
      </trkpt>
      <trkpt lat="42.626562" lon="1.36988">
        <ele>1728</ele>
        <time>2019-08-05T15:31:22.000Z</time>
      </trkpt>
      <trkpt lat="42.626658" lon="1.369908">
        <ele>1721</ele>
        <time>2019-08-05T15:32:07.000Z</time>
      </trkpt>
      <trkpt lat="42.626767" lon="1.369926">
        <ele>1719</ele>
        <time>2019-08-05T15:32:18.000Z</time>
      </trkpt>
      <trkpt lat="42.626863" lon="1.369998">
        <ele>1717</ele>
        <time>2019-08-05T15:32:34.000Z</time>
      </trkpt>
      <trkpt lat="42.626968" lon="1.370038">
        <ele>1716</ele>
        <time>2019-08-05T15:32:45.000Z</time>
      </trkpt>
      <trkpt lat="42.626953" lon="1.369904">
        <ele>1711</ele>
        <time>2019-08-05T15:33:34.000Z</time>
      </trkpt>
      <trkpt lat="42.627056" lon="1.369867">
        <ele>1707.26363498842</ele>
        <time>2019-08-05T15:34:01.000Z</time>
      </trkpt>
      <trkpt lat="42.627113" lon="1.36973">
        <ele>1707</ele>
        <time>2019-08-05T15:34:17.000Z</time>
      </trkpt>
      <trkpt lat="42.627141" lon="1.36959">
        <ele>1704</ele>
        <time>2019-08-05T15:34:22.000Z</time>
      </trkpt>
      <trkpt lat="42.627129" lon="1.36941">
        <ele>1702.25000296296</ele>
        <time>2019-08-05T15:34:27.000Z</time>
      </trkpt>
      <trkpt lat="42.627142" lon="1.369232">
        <ele>1702</ele>
        <time>2019-08-05T15:34:31.000Z</time>
      </trkpt>
      <trkpt lat="42.6272" lon="1.369054">
        <ele>1701</ele>
        <time>2019-08-05T15:34:35.000Z</time>
      </trkpt>
      <trkpt lat="42.627251" lon="1.368902">
        <ele>1699.30159084906</ele>
        <time>2019-08-05T15:34:39.000Z</time>
      </trkpt>
      <trkpt lat="42.627319" lon="1.368769">
        <ele>1699</ele>
        <time>2019-08-05T15:34:43.000Z</time>
      </trkpt>
      <trkpt lat="42.627398" lon="1.368639">
        <ele>1697</ele>
        <time>2019-08-05T15:34:47.000Z</time>
      </trkpt>
      <trkpt lat="42.627454" lon="1.368505">
        <ele>1696.1900032</ele>
        <time>2019-08-05T15:34:51.000Z</time>
      </trkpt>
      <trkpt lat="42.627493" lon="1.368369">
        <ele>1695.26760893472</ele>
        <time>2019-08-05T15:34:56.000Z</time>
      </trkpt>
      <trkpt lat="42.627566" lon="1.368224">
        <ele>1695.21348750917</ele>
        <time>2019-08-05T15:35:01.000Z</time>
      </trkpt>
      <trkpt lat="42.627644" lon="1.368079">
        <ele>1696</ele>
        <time>2019-08-05T15:35:06.000Z</time>
      </trkpt>
      <trkpt lat="42.62772" lon="1.367958">
        <ele>1694</ele>
        <time>2019-08-05T15:35:11.000Z</time>
      </trkpt>
      <trkpt lat="42.627792" lon="1.367817">
        <ele>1693</ele>
        <time>2019-08-05T15:35:17.000Z</time>
      </trkpt>
      <trkpt lat="42.627776" lon="1.367666">
        <ele>1693</ele>
        <time>2019-08-05T15:35:22.000Z</time>
      </trkpt>
      <trkpt lat="42.627736" lon="1.367473">
        <ele>1692</ele>
        <time>2019-08-05T15:35:26.000Z</time>
      </trkpt>
      <trkpt lat="42.62768" lon="1.367315">
        <ele>1692</ele>
        <time>2019-08-05T15:35:29.000Z</time>
      </trkpt>
      <trkpt lat="42.627622" lon="1.367181">
        <ele>1690</ele>
        <time>2019-08-05T15:35:35.000Z</time>
      </trkpt>
      <trkpt lat="42.627616" lon="1.367025">
        <ele>1688.362496</ele>
        <time>2019-08-05T15:35:43.000Z</time>
      </trkpt>
      <trkpt lat="42.627606" lon="1.366869">
        <ele>1687</ele>
        <time>2019-08-05T15:35:50.000Z</time>
      </trkpt>
      <trkpt lat="42.627616" lon="1.366723">
        <ele>1687</ele>
        <time>2019-08-05T15:35:57.000Z</time>
      </trkpt>
      <trkpt lat="42.627615" lon="1.366569">
        <ele>1686</ele>
        <time>2019-08-05T15:36:05.000Z</time>
      </trkpt>
      <trkpt lat="42.62757" lon="1.366424">
        <ele>1684.29565691643</ele>
        <time>2019-08-05T15:36:13.000Z</time>
      </trkpt>
      <trkpt lat="42.627567" lon="1.366267">
        <ele>1684</ele>
        <time>2019-08-05T15:36:21.000Z</time>
      </trkpt>
      <trkpt lat="42.627595" lon="1.366122">
        <ele>1682</ele>
        <time>2019-08-05T15:36:31.000Z</time>
      </trkpt>
      <trkpt lat="42.62763" lon="1.36597">
        <ele>1681</ele>
        <time>2019-08-05T15:36:38.000Z</time>
      </trkpt>
      <trkpt lat="42.627624" lon="1.365816">
        <ele>1681</ele>
        <time>2019-08-05T15:36:44.000Z</time>
      </trkpt>
      <trkpt lat="42.6276" lon="1.36567">
        <ele>1679.79347478261</ele>
        <time>2019-08-05T15:36:50.000Z</time>
      </trkpt>
      <trkpt lat="42.627567" lon="1.365522">
        <ele>1679</ele>
        <time>2019-08-05T15:36:58.000Z</time>
      </trkpt>
      <trkpt lat="42.62758" lon="1.365369">
        <ele>1679</ele>
        <time>2019-08-05T15:37:08.000Z</time>
      </trkpt>
      <trkpt lat="42.627588" lon="1.365317">
        <ele>1678</ele>
        <time>2019-08-05T15:37:11.000Z</time>
      </trkpt>
      <trkpt lat="42.627594" lon="1.365167">
        <ele>1677</ele>
        <time>2019-08-05T15:37:21.000Z</time>
      </trkpt>
      <trkpt lat="42.627588" lon="1.365006">
        <ele>1675</ele>
        <time>2019-08-05T15:37:27.000Z</time>
      </trkpt>
      <trkpt lat="42.627555" lon="1.364825">
        <ele>1674</ele>
        <time>2019-08-05T15:37:32.000Z</time>
      </trkpt>
      <trkpt lat="42.627497" lon="1.364651">
        <ele>1674</ele>
        <time>2019-08-05T15:37:36.000Z</time>
      </trkpt>
      <trkpt lat="42.627478" lon="1.364476">
        <ele>1672</ele>
        <time>2019-08-05T15:37:41.000Z</time>
      </trkpt>
      <trkpt lat="42.627493" lon="1.364318">
        <ele>1671</ele>
        <time>2019-08-05T15:37:47.000Z</time>
      </trkpt>
      <trkpt lat="42.627503" lon="1.364165">
        <ele>1669.1900032</ele>
        <time>2019-08-05T15:37:51.000Z</time>
      </trkpt>
      <trkpt lat="42.627513" lon="1.36401">
        <ele>1669</ele>
        <time>2019-08-05T15:37:57.000Z</time>
      </trkpt>
      <trkpt lat="42.62757" lon="1.363847">
        <ele>1668</ele>
        <time>2019-08-05T15:38:03.000Z</time>
      </trkpt>
      <trkpt lat="42.627622" lon="1.36371">
        <ele>1667</ele>
        <time>2019-08-05T15:38:08.000Z</time>
      </trkpt>
      <trkpt lat="42.627689" lon="1.36356">
        <ele>1666</ele>
        <time>2019-08-05T15:38:12.000Z</time>
      </trkpt>
      <trkpt lat="42.627748" lon="1.36342">
        <ele>1665.36220242295</ele>
        <time>2019-08-05T15:38:17.000Z</time>
      </trkpt>
      <trkpt lat="42.627811" lon="1.363286">
        <ele>1665</ele>
        <time>2019-08-05T15:38:23.000Z</time>
      </trkpt>
      <trkpt lat="42.627818" lon="1.363132">
        <ele>1664</ele>
        <time>2019-08-05T15:38:29.000Z</time>
      </trkpt>
      <trkpt lat="42.627863" lon="1.362988">
        <ele>1664</ele>
        <time>2019-08-05T15:38:35.000Z</time>
      </trkpt>
      <trkpt lat="42.627901" lon="1.362819">
        <ele>1664</ele>
        <time>2019-08-05T15:38:43.000Z</time>
      </trkpt>
      <trkpt lat="42.627899" lon="1.362686">
        <ele>1664</ele>
        <time>2019-08-05T15:38:49.000Z</time>
      </trkpt>
      <trkpt lat="42.627898" lon="1.362624">
        <ele>1664</ele>
        <time>2019-08-05T15:38:52.000Z</time>
      </trkpt>
      <trkpt lat="42.627902" lon="1.362458">
        <ele>1663</ele>
        <time>2019-08-05T15:38:59.000Z</time>
      </trkpt>
      <trkpt lat="42.627912" lon="1.362299">
        <ele>1663</ele>
        <time>2019-08-05T15:39:07.000Z</time>
      </trkpt>
      <trkpt lat="42.627922" lon="1.36215">
        <ele>1663</ele>
        <time>2019-08-05T15:39:15.000Z</time>
      </trkpt>
      <trkpt lat="42.627934" lon="1.361995">
        <ele>1662</ele>
        <time>2019-08-05T15:39:23.000Z</time>
      </trkpt>
      <trkpt lat="42.627951" lon="1.361844">
        <ele>1662</ele>
        <time>2019-08-05T15:39:30.000Z</time>
      </trkpt>
      <trkpt lat="42.628009" lon="1.361716">
        <ele>1661</ele>
        <time>2019-08-05T15:39:37.000Z</time>
      </trkpt>
      <trkpt lat="42.62802" lon="1.361554">
        <ele>1661</ele>
        <time>2019-08-05T15:39:46.000Z</time>
      </trkpt>
      <trkpt lat="42.62805" lon="1.361412">
        <ele>1658.21839367947</ele>
        <time>2019-08-05T15:39:56.000Z</time>
      </trkpt>
      <trkpt lat="42.628085" lon="1.361253">
        <ele>1658</ele>
        <time>2019-08-05T15:40:05.000Z</time>
      </trkpt>
      <trkpt lat="42.628085" lon="1.361087">
        <ele>1658</ele>
        <time>2019-08-05T15:40:11.000Z</time>
      </trkpt>
      <trkpt lat="42.628063" lon="1.360934">
        <ele>1657</ele>
        <time>2019-08-05T15:40:20.000Z</time>
      </trkpt>
      <trkpt lat="42.62804" lon="1.36077">
        <ele>1657</ele>
        <time>2019-08-05T15:40:28.000Z</time>
      </trkpt>
      <trkpt lat="42.628055" lon="1.360617">
        <ele>1656</ele>
        <time>2019-08-05T15:40:35.000Z</time>
      </trkpt>
      <trkpt lat="42.628042" lon="1.360455">
        <ele>1655</ele>
        <time>2019-08-05T15:40:43.000Z</time>
      </trkpt>
      <trkpt lat="42.628037" lon="1.360301">
        <ele>1653</ele>
        <time>2019-08-05T15:40:51.000Z</time>
      </trkpt>
      <trkpt lat="42.628046" lon="1.360143">
        <ele>1653</ele>
        <time>2019-08-05T15:40:59.000Z</time>
      </trkpt>
      <trkpt lat="42.628071" lon="1.359997">
        <ele>1652.72463176641</ele>
        <time>2019-08-05T15:41:06.000Z</time>
      </trkpt>
      <trkpt lat="42.62809" lon="1.35985">
        <ele>1651.1900032</ele>
        <time>2019-08-05T15:41:12.000Z</time>
      </trkpt>
      <trkpt lat="42.628097" lon="1.359704">
        <ele>1652.20000269473</ele>
        <time>2019-08-05T15:41:19.000Z</time>
      </trkpt>
      <trkpt lat="42.628072" lon="1.359555">
        <ele>1652</ele>
        <time>2019-08-05T15:41:26.000Z</time>
      </trkpt>
      <trkpt lat="42.628051" lon="1.359395">
        <ele>1652</ele>
        <time>2019-08-05T15:41:33.000Z</time>
      </trkpt>
      <trkpt lat="42.628036" lon="1.359332">
        <ele>1652</ele>
        <time>2019-08-05T15:41:36.000Z</time>
      </trkpt>
      <trkpt lat="42.628013" lon="1.35918">
        <ele>1652</ele>
        <time>2019-08-05T15:41:44.000Z</time>
      </trkpt>
      <trkpt lat="42.628016" lon="1.359019">
        <ele>1652</ele>
        <time>2019-08-05T15:41:53.000Z</time>
      </trkpt>
      <trkpt lat="42.628007" lon="1.358865">
        <ele>1652</ele>
        <time>2019-08-05T15:42:03.000Z</time>
      </trkpt>
      <trkpt lat="42.627987" lon="1.358719">
        <ele>1653</ele>
        <time>2019-08-05T15:42:11.000Z</time>
      </trkpt>
      <trkpt lat="42.62795" lon="1.358576">
        <ele>1651</ele>
        <time>2019-08-05T15:42:18.000Z</time>
      </trkpt>
      <trkpt lat="42.627896" lon="1.358446">
        <ele>1652</ele>
        <time>2019-08-05T15:42:26.000Z</time>
      </trkpt>
      <trkpt lat="42.627832" lon="1.358319">
        <ele>1651.1900032</ele>
        <time>2019-08-05T15:42:35.000Z</time>
      </trkpt>
      <trkpt lat="42.627741" lon="1.358228">
        <ele>1651</ele>
        <time>2019-08-05T15:42:42.000Z</time>
      </trkpt>
      <trkpt lat="42.627674" lon="1.358103">
        <ele>1651</ele>
        <time>2019-08-05T15:42:52.000Z</time>
      </trkpt>
      <trkpt lat="42.627588" lon="1.358002">
        <ele>1651.20000269473</ele>
        <time>2019-08-05T15:43:00.000Z</time>
      </trkpt>
      <trkpt lat="42.627517" lon="1.357878">
        <ele>1651</ele>
        <time>2019-08-05T15:43:08.000Z</time>
      </trkpt>
      <trkpt lat="42.627464" lon="1.357731">
        <ele>1651</ele>
        <time>2019-08-05T15:43:17.000Z</time>
      </trkpt>
      <trkpt lat="42.62742" lon="1.357585">
        <ele>1651</ele>
        <time>2019-08-05T15:43:24.000Z</time>
      </trkpt>
      <trkpt lat="42.627358" lon="1.357448">
        <ele>1651</ele>
        <time>2019-08-05T15:43:30.000Z</time>
      </trkpt>
      <trkpt lat="42.627371" lon="1.357296">
        <ele>1652</ele>
        <time>2019-08-05T15:43:40.000Z</time>
      </trkpt>
      <trkpt lat="42.627372" lon="1.357138">
        <ele>1652</ele>
        <time>2019-08-05T15:43:47.000Z</time>
      </trkpt>
      <trkpt lat="42.627336" lon="1.35699">
        <ele>1652</ele>
        <time>2019-08-05T15:43:56.000Z</time>
      </trkpt>
      <trkpt lat="42.627266" lon="1.356871">
        <ele>1652</ele>
        <time>2019-08-05T15:44:03.000Z</time>
      </trkpt>
      <trkpt lat="42.627214" lon="1.356732">
        <ele>1652</ele>
        <time>2019-08-05T15:44:11.000Z</time>
      </trkpt>
      <trkpt lat="42.627161" lon="1.356603">
        <ele>1652</ele>
        <time>2019-08-05T15:44:19.000Z</time>
      </trkpt>
      <trkpt lat="42.627115" lon="1.356471">
        <ele>1653.79999730527</ele>
        <time>2019-08-05T15:44:26.000Z</time>
      </trkpt>
      <trkpt lat="42.62704" lon="1.356327">
        <ele>1654</ele>
        <time>2019-08-05T15:44:33.000Z</time>
      </trkpt>
      <trkpt lat="42.62698" lon="1.3562">
        <ele>1654.71681335735</ele>
        <time>2019-08-05T15:44:41.000Z</time>
      </trkpt>
      <trkpt lat="42.62693" lon="1.356053">
        <ele>1655</ele>
        <time>2019-08-05T15:44:50.000Z</time>
      </trkpt>
      <trkpt lat="42.626908" lon="1.3559">
        <ele>1655</ele>
        <time>2019-08-05T15:44:58.000Z</time>
      </trkpt>
      <trkpt lat="42.626835" lon="1.355785">
        <ele>1655</ele>
        <time>2019-08-05T15:45:10.000Z</time>
      </trkpt>
      <trkpt lat="42.626737" lon="1.355695">
        <ele>1655</ele>
        <time>2019-08-05T15:45:19.000Z</time>
      </trkpt>
      <trkpt lat="42.62668" lon="1.355553">
        <ele>1656</ele>
        <time>2019-08-05T15:45:28.000Z</time>
      </trkpt>
      <trkpt lat="42.626637" lon="1.355407">
        <ele>1656</ele>
        <time>2019-08-05T15:45:37.000Z</time>
      </trkpt>
      <trkpt lat="42.626539" lon="1.355296">
        <ele>1656</ele>
        <time>2019-08-05T15:45:44.000Z</time>
      </trkpt>
      <trkpt lat="42.626473" lon="1.35515">
        <ele>1657</ele>
        <time>2019-08-05T15:45:50.000Z</time>
      </trkpt>
      <trkpt lat="42.626434" lon="1.355008">
        <ele>1658</ele>
        <time>2019-08-05T15:45:58.000Z</time>
      </trkpt>
      <trkpt lat="42.626415" lon="1.354863">
        <ele>1658</ele>
        <time>2019-08-05T15:46:05.000Z</time>
      </trkpt>
      <trkpt lat="42.626407" lon="1.354717">
        <ele>1658</ele>
        <time>2019-08-05T15:46:13.000Z</time>
      </trkpt>
      <trkpt lat="42.626406" lon="1.35457">
        <ele>1657.44520523926</ele>
        <time>2019-08-05T15:46:21.000Z</time>
      </trkpt>
      <trkpt lat="42.626388" lon="1.354425">
        <ele>1657</ele>
        <time>2019-08-05T15:46:28.000Z</time>
      </trkpt>
      <trkpt lat="42.626345" lon="1.354274">
        <ele>1657</ele>
        <time>2019-08-05T15:46:37.000Z</time>
      </trkpt>
      <trkpt lat="42.626262" lon="1.354155">
        <ele>1656</ele>
        <time>2019-08-05T15:46:47.000Z</time>
      </trkpt>
      <trkpt lat="42.626229" lon="1.354015">
        <ele>1654</ele>
        <time>2019-08-05T15:46:56.000Z</time>
      </trkpt>
      <trkpt lat="42.626182" lon="1.353866">
        <ele>1654</ele>
        <time>2019-08-05T15:47:02.000Z</time>
      </trkpt>
      <trkpt lat="42.626167" lon="1.353714">
        <ele>1653.39844</ele>
        <time>2019-08-05T15:47:09.000Z</time>
      </trkpt>
      <trkpt lat="42.626148" lon="1.353567">
        <ele>1653</ele>
        <time>2019-08-05T15:47:16.000Z</time>
      </trkpt>
      <trkpt lat="42.626117" lon="1.353421">
        <ele>1652</ele>
        <time>2019-08-05T15:47:22.000Z</time>
      </trkpt>
      <trkpt lat="42.626086" lon="1.353271">
        <ele>1652</ele>
        <time>2019-08-05T15:47:28.000Z</time>
      </trkpt>
      <trkpt lat="42.626078" lon="1.353194">
        <ele>1651</ele>
        <time>2019-08-05T15:47:33.000Z</time>
      </trkpt>
      <trkpt lat="42.626073" lon="1.353147">
        <ele>1651</ele>
        <time>2019-08-05T15:47:36.000Z</time>
      </trkpt>
      <trkpt lat="42.626079" lon="1.353094">
        <ele>1651</ele>
        <time>2019-08-05T15:47:41.000Z</time>
      </trkpt>
      <trkpt lat="42.62607" lon="1.353042">
        <ele>1651</ele>
        <time>2019-08-05T15:47:45.000Z</time>
      </trkpt>
      <trkpt lat="42.626059" lon="1.352995">
        <ele>1650.26760893472</ele>
        <time>2019-08-05T15:47:48.000Z</time>
      </trkpt>
      <trkpt lat="42.626048" lon="1.352939">
        <ele>1650</ele>
        <time>2019-08-05T15:47:52.000Z</time>
      </trkpt>
      <trkpt lat="42.62604" lon="1.352886">
        <ele>1650</ele>
        <time>2019-08-05T15:47:56.000Z</time>
      </trkpt>
      <trkpt lat="42.626012" lon="1.352839">
        <ele>1650</ele>
        <time>2019-08-05T15:48:00.000Z</time>
      </trkpt>
      <trkpt lat="42.625938" lon="1.35274">
        <ele>1651</ele>
        <time>2019-08-05T15:48:09.000Z</time>
      </trkpt>
      <trkpt lat="42.625909" lon="1.352704">
        <ele>1651</ele>
        <time>2019-08-05T15:48:12.000Z</time>
      </trkpt>
      <trkpt lat="42.625874" lon="1.352688">
        <ele>1651</ele>
        <time>2019-08-05T15:48:15.000Z</time>
      </trkpt>
      <trkpt lat="42.625839" lon="1.352664">
        <ele>1652</ele>
        <time>2019-08-05T15:48:18.000Z</time>
      </trkpt>
      <trkpt lat="42.625806" lon="1.352641">
        <ele>1652</ele>
        <time>2019-08-05T15:48:21.000Z</time>
      </trkpt>
      <trkpt lat="42.625765" lon="1.352634">
        <ele>1651</ele>
        <time>2019-08-05T15:48:24.000Z</time>
      </trkpt>
      <trkpt lat="42.625722" lon="1.352624">
        <ele>1651</ele>
        <time>2019-08-05T15:48:27.000Z</time>
      </trkpt>
      <trkpt lat="42.625683" lon="1.352614">
        <ele>1651</ele>
        <time>2019-08-05T15:48:30.000Z</time>
      </trkpt>
      <trkpt lat="42.625643" lon="1.352611">
        <ele>1651</ele>
        <time>2019-08-05T15:48:38.000Z</time>
      </trkpt>
      <trkpt lat="42.625601" lon="1.352612">
        <ele>1650.19192180389</ele>
        <time>2019-08-05T15:48:41.000Z</time>
      </trkpt>
      <trkpt lat="42.625551" lon="1.352611">
        <ele>1650</ele>
        <time>2019-08-05T15:48:44.000Z</time>
      </trkpt>
      <trkpt lat="42.625513" lon="1.352599">
        <ele>1650.80612044983</ele>
        <time>2019-08-05T15:48:47.000Z</time>
      </trkpt>
      <trkpt lat="42.625464" lon="1.352592">
        <ele>1651</ele>
        <time>2019-08-05T15:48:50.000Z</time>
      </trkpt>
      <trkpt lat="42.625419" lon="1.352579">
        <ele>1651</ele>
        <time>2019-08-05T15:48:53.000Z</time>
      </trkpt>
      <trkpt lat="42.625369" lon="1.352585">
        <ele>1651</ele>
        <time>2019-08-05T15:48:56.000Z</time>
      </trkpt>
      <trkpt lat="42.625322" lon="1.352574">
        <ele>1651.72321142857</ele>
        <time>2019-08-05T15:49:00.000Z</time>
      </trkpt>
      <trkpt lat="42.625285" lon="1.352566">
        <ele>1652</ele>
        <time>2019-08-05T15:49:03.000Z</time>
      </trkpt>
      <trkpt lat="42.62525" lon="1.352555">
        <ele>1652</ele>
        <time>2019-08-05T15:49:06.000Z</time>
      </trkpt>
      <trkpt lat="42.625207" lon="1.352554">
        <ele>1652</ele>
        <time>2019-08-05T15:49:09.000Z</time>
      </trkpt>
      <trkpt lat="42.625172" lon="1.352542">
        <ele>1652</ele>
        <time>2019-08-05T15:49:12.000Z</time>
      </trkpt>
      <trkpt lat="42.625134" lon="1.352528">
        <ele>1652</ele>
        <time>2019-08-05T15:49:15.000Z</time>
      </trkpt>
      <trkpt lat="42.625094" lon="1.352518">
        <ele>1652.72972474314</ele>
        <time>2019-08-05T15:49:18.000Z</time>
      </trkpt>
      <trkpt lat="42.625047" lon="1.352509">
        <ele>1653</ele>
        <time>2019-08-05T15:49:21.000Z</time>
      </trkpt>
      <trkpt lat="42.625012" lon="1.352495">
        <ele>1653</ele>
        <time>2019-08-05T15:49:24.000Z</time>
      </trkpt>
      <trkpt lat="42.624919" lon="1.352395">
        <ele>1654</ele>
        <time>2019-08-05T15:49:34.000Z</time>
      </trkpt>
      <trkpt lat="42.624849" lon="1.35227">
        <ele>1655.60464770145</ele>
        <time>2019-08-05T15:49:41.000Z</time>
      </trkpt>
      <trkpt lat="42.624796" lon="1.352132">
        <ele>1656.1900032</ele>
        <time>2019-08-05T15:49:50.000Z</time>
      </trkpt>
      <trkpt lat="42.624754" lon="1.351975">
        <ele>1656</ele>
        <time>2019-08-05T15:49:59.000Z</time>
      </trkpt>
      <trkpt lat="42.624684" lon="1.351854">
        <ele>1657</ele>
        <time>2019-08-05T15:50:09.000Z</time>
      </trkpt>
      <trkpt lat="42.624597" lon="1.35177">
        <ele>1659</ele>
        <time>2019-08-05T15:50:17.000Z</time>
      </trkpt>
      <trkpt lat="42.624548" lon="1.351724">
        <ele>1659</ele>
        <time>2019-08-05T15:50:21.000Z</time>
      </trkpt>
      <trkpt lat="42.624512" lon="1.351692">
        <ele>1659.74311851191</ele>
        <time>2019-08-05T15:50:24.000Z</time>
      </trkpt>
      <trkpt lat="42.624486" lon="1.351658">
        <ele>1660</ele>
        <time>2019-08-05T15:50:27.000Z</time>
      </trkpt>
      <trkpt lat="42.624451" lon="1.351631">
        <ele>1660</ele>
        <time>2019-08-05T15:50:30.000Z</time>
      </trkpt>
      <trkpt lat="42.624423" lon="1.351597">
        <ele>1661</ele>
        <time>2019-08-05T15:50:33.000Z</time>
      </trkpt>
      <trkpt lat="42.624384" lon="1.351569">
        <ele>1661</ele>
        <time>2019-08-05T15:50:37.000Z</time>
      </trkpt>
      <trkpt lat="42.624346" lon="1.351541">
        <ele>1661</ele>
        <time>2019-08-05T15:50:41.000Z</time>
      </trkpt>
      <trkpt lat="42.624311" lon="1.351518">
        <ele>1661</ele>
        <time>2019-08-05T15:50:44.000Z</time>
      </trkpt>
      <trkpt lat="42.624273" lon="1.351476">
        <ele>1661.1900032</ele>
        <time>2019-08-05T15:50:48.000Z</time>
      </trkpt>
      <trkpt lat="42.624232" lon="1.351446">
        <ele>1662</ele>
        <time>2019-08-05T15:50:51.000Z</time>
      </trkpt>
      <trkpt lat="42.624206" lon="1.351402">
        <ele>1662.74999703704</ele>
        <time>2019-08-05T15:50:54.000Z</time>
      </trkpt>
      <trkpt lat="42.624173" lon="1.351363">
        <ele>1663</ele>
        <time>2019-08-05T15:50:57.000Z</time>
      </trkpt>
      <trkpt lat="42.624144" lon="1.351328">
        <ele>1663</ele>
        <time>2019-08-05T15:51:00.000Z</time>
      </trkpt>
      <trkpt lat="42.624118" lon="1.351294">
        <ele>1663.80807819611</ele>
        <time>2019-08-05T15:51:03.000Z</time>
      </trkpt>
      <trkpt lat="42.624094" lon="1.35125">
        <ele>1664</ele>
        <time>2019-08-05T15:51:06.000Z</time>
      </trkpt>
      <trkpt lat="42.62406" lon="1.35122">
        <ele>1664</ele>
        <time>2019-08-05T15:51:09.000Z</time>
      </trkpt>
      <trkpt lat="42.624022" lon="1.351208">
        <ele>1664</ele>
        <time>2019-08-05T15:51:12.000Z</time>
      </trkpt>
      <trkpt lat="42.623988" lon="1.35119">
        <ele>1664</ele>
        <time>2019-08-05T15:51:15.000Z</time>
      </trkpt>
      <trkpt lat="42.623946" lon="1.351162">
        <ele>1664</ele>
        <time>2019-08-05T15:51:19.000Z</time>
      </trkpt>
      <trkpt lat="42.62391" lon="1.351143">
        <ele>1665</ele>
        <time>2019-08-05T15:51:22.000Z</time>
      </trkpt>
      <trkpt lat="42.623867" lon="1.351121">
        <ele>1665</ele>
        <time>2019-08-05T15:51:26.000Z</time>
      </trkpt>
      <trkpt lat="42.623826" lon="1.351096">
        <ele>1665</ele>
        <time>2019-08-05T15:51:29.000Z</time>
      </trkpt>
      <trkpt lat="42.62379" lon="1.351073">
        <ele>1665</ele>
        <time>2019-08-05T15:51:31.000Z</time>
      </trkpt>
      <trkpt lat="42.623755" lon="1.351044">
        <ele>1666</ele>
        <time>2019-08-05T15:51:33.000Z</time>
      </trkpt>
      <trkpt lat="42.623696" lon="1.351007">
        <ele>1666</ele>
        <time>2019-08-05T15:51:37.000Z</time>
      </trkpt>
      <trkpt lat="42.623656" lon="1.350982">
        <ele>1667</ele>
        <time>2019-08-05T15:51:40.000Z</time>
      </trkpt>
      <trkpt lat="42.623616" lon="1.350964">
        <ele>1667</ele>
        <time>2019-08-05T15:51:43.000Z</time>
      </trkpt>
      <trkpt lat="42.623572" lon="1.350947">
        <ele>1668</ele>
        <time>2019-08-05T15:51:46.000Z</time>
      </trkpt>
      <trkpt lat="42.623535" lon="1.350945">
        <ele>1668</ele>
        <time>2019-08-05T15:51:49.000Z</time>
      </trkpt>
      <trkpt lat="42.623493" lon="1.350947">
        <ele>1668</ele>
        <time>2019-08-05T15:51:52.000Z</time>
      </trkpt>
      <trkpt lat="42.623448" lon="1.35095">
        <ele>1668</ele>
        <time>2019-08-05T15:51:55.000Z</time>
      </trkpt>
      <trkpt lat="42.62341" lon="1.35095">
        <ele>1668.79411949251</ele>
        <time>2019-08-05T15:51:58.000Z</time>
      </trkpt>
      <trkpt lat="42.62337" lon="1.350944">
        <ele>1668</ele>
        <time>2019-08-05T15:52:01.000Z</time>
      </trkpt>
      <trkpt lat="42.623323" lon="1.350934">
        <ele>1668</ele>
        <time>2019-08-05T15:52:04.000Z</time>
      </trkpt>
      <trkpt lat="42.623278" lon="1.350926">
        <ele>1668</ele>
        <time>2019-08-05T15:52:07.000Z</time>
      </trkpt>
      <trkpt lat="42.623238" lon="1.350916">
        <ele>1668</ele>
        <time>2019-08-05T15:52:10.000Z</time>
      </trkpt>
      <trkpt lat="42.623198" lon="1.350889">
        <ele>1669</ele>
        <time>2019-08-05T15:52:13.000Z</time>
      </trkpt>
      <trkpt lat="42.623158" lon="1.350858">
        <ele>1669</ele>
        <time>2019-08-05T15:52:17.000Z</time>
      </trkpt>
      <trkpt lat="42.623119" lon="1.35083">
        <ele>1669</ele>
        <time>2019-08-05T15:52:20.000Z</time>
      </trkpt>
      <trkpt lat="42.623088" lon="1.350806">
        <ele>1670</ele>
        <time>2019-08-05T15:52:23.000Z</time>
      </trkpt>
      <trkpt lat="42.623045" lon="1.350779">
        <ele>1670</ele>
        <time>2019-08-05T15:52:26.000Z</time>
      </trkpt>
      <trkpt lat="42.623007" lon="1.350767">
        <ele>1669</ele>
        <time>2019-08-05T15:52:29.000Z</time>
      </trkpt>
      <trkpt lat="42.622966" lon="1.350737">
        <ele>1669</ele>
        <time>2019-08-05T15:52:33.000Z</time>
      </trkpt>
      <trkpt lat="42.622927" lon="1.350714">
        <ele>1669.8099968</ele>
        <time>2019-08-05T15:52:36.000Z</time>
      </trkpt>
      <trkpt lat="42.622895" lon="1.350684">
        <ele>1670</ele>
        <time>2019-08-05T15:52:39.000Z</time>
      </trkpt>
      <trkpt lat="42.622857" lon="1.350661">
        <ele>1671</ele>
        <time>2019-08-05T15:52:42.000Z</time>
      </trkpt>
      <trkpt lat="42.622819" lon="1.350635">
        <ele>1671</ele>
        <time>2019-08-05T15:52:46.000Z</time>
      </trkpt>
      <trkpt lat="42.622786" lon="1.350578">
        <ele>1671.80197957063</ele>
        <time>2019-08-05T15:52:50.000Z</time>
      </trkpt>
      <trkpt lat="42.622752" lon="1.350538">
        <ele>1672</ele>
        <time>2019-08-05T15:52:53.000Z</time>
      </trkpt>
      <trkpt lat="42.622721" lon="1.350502">
        <ele>1672</ele>
        <time>2019-08-05T15:52:56.000Z</time>
      </trkpt>
      <trkpt lat="42.622692" lon="1.350471">
        <ele>1672</ele>
        <time>2019-08-05T15:52:59.000Z</time>
      </trkpt>
      <trkpt lat="42.622678" lon="1.350425">
        <ele>1672</ele>
        <time>2019-08-05T15:53:02.000Z</time>
      </trkpt>
      <trkpt lat="42.622646" lon="1.350382">
        <ele>1672</ele>
        <time>2019-08-05T15:53:07.000Z</time>
      </trkpt>
      <trkpt lat="42.622615" lon="1.35035">
        <ele>1672</ele>
        <time>2019-08-05T15:53:12.000Z</time>
      </trkpt>
      <trkpt lat="42.622577" lon="1.350315">
        <ele>1673</ele>
        <time>2019-08-05T15:53:17.000Z</time>
      </trkpt>
      <trkpt lat="42.622541" lon="1.350269">
        <ele>1674</ele>
        <time>2019-08-05T15:53:21.000Z</time>
      </trkpt>
      <trkpt lat="42.622442" lon="1.350194">
        <ele>1674.27143066121</ele>
        <time>2019-08-05T15:53:30.000Z</time>
      </trkpt>
      <trkpt lat="42.622417" lon="1.350159">
        <ele>1674</ele>
        <time>2019-08-05T15:53:32.000Z</time>
      </trkpt>
      <trkpt lat="42.622327" lon="1.350062">
        <ele>1675</ele>
        <time>2019-08-05T15:53:40.000Z</time>
      </trkpt>
      <trkpt lat="42.62227" lon="1.349928">
        <ele>1676</ele>
        <time>2019-08-05T15:53:49.000Z</time>
      </trkpt>
      <trkpt lat="42.622301" lon="1.349769">
        <ele>1676</ele>
        <time>2019-08-05T15:53:55.000Z</time>
      </trkpt>
      <trkpt lat="42.622348" lon="1.349614">
        <ele>1678</ele>
        <time>2019-08-05T15:54:03.000Z</time>
      </trkpt>
      <trkpt lat="42.622395" lon="1.349482">
        <ele>1679.8099968</ele>
        <time>2019-08-05T15:54:13.000Z</time>
      </trkpt>
      <trkpt lat="42.622428" lon="1.349466">
        <ele>1680</ele>
        <time>2019-08-05T15:54:24.000Z</time>
      </trkpt>
      <trkpt lat="42.622432" lon="1.349412">
        <ele>1680</ele>
        <time>2019-08-05T15:54:27.000Z</time>
      </trkpt>
      <trkpt lat="42.622438" lon="1.349356">
        <ele>1680.72321142857</ele>
        <time>2019-08-05T15:54:30.000Z</time>
      </trkpt>
      <trkpt lat="42.622429" lon="1.349303">
        <ele>1680</ele>
        <time>2019-08-05T15:54:34.000Z</time>
      </trkpt>
      <trkpt lat="42.622427" lon="1.349242">
        <ele>1680.80612044983</ele>
        <time>2019-08-05T15:54:38.000Z</time>
      </trkpt>
      <trkpt lat="42.622421" lon="1.349189">
        <ele>1681</ele>
        <time>2019-08-05T15:54:41.000Z</time>
      </trkpt>
      <trkpt lat="42.622411" lon="1.349137">
        <ele>1681</ele>
        <time>2019-08-05T15:54:44.000Z</time>
      </trkpt>
      <trkpt lat="42.622412" lon="1.34908">
        <ele>1681</ele>
        <time>2019-08-05T15:54:47.000Z</time>
      </trkpt>
      <trkpt lat="42.622407" lon="1.349031">
        <ele>1682</ele>
        <time>2019-08-05T15:54:50.000Z</time>
      </trkpt>
      <trkpt lat="42.622388" lon="1.348988">
        <ele>1683</ele>
        <time>2019-08-05T15:54:54.000Z</time>
      </trkpt>
      <trkpt lat="42.622365" lon="1.348948">
        <ele>1683</ele>
        <time>2019-08-05T15:54:58.000Z</time>
      </trkpt>
      <trkpt lat="42.622337" lon="1.348898">
        <ele>1683.72321142857</ele>
        <time>2019-08-05T15:55:02.000Z</time>
      </trkpt>
      <trkpt lat="42.622306" lon="1.348868">
        <ele>1684</ele>
        <time>2019-08-05T15:55:05.000Z</time>
      </trkpt>
      <trkpt lat="42.622281" lon="1.348824">
        <ele>1684</ele>
        <time>2019-08-05T15:55:08.000Z</time>
      </trkpt>
      <trkpt lat="42.622258" lon="1.348784">
        <ele>1684</ele>
        <time>2019-08-05T15:55:11.000Z</time>
      </trkpt>
      <trkpt lat="42.622226" lon="1.348736">
        <ele>1684</ele>
        <time>2019-08-05T15:55:15.000Z</time>
      </trkpt>
      <trkpt lat="42.622201" lon="1.348681">
        <ele>1684</ele>
        <time>2019-08-05T15:55:19.000Z</time>
      </trkpt>
      <trkpt lat="42.622181" lon="1.348624">
        <ele>1684.59558588235</ele>
        <time>2019-08-05T15:55:23.000Z</time>
      </trkpt>
      <trkpt lat="42.622168" lon="1.34858">
        <ele>1685</ele>
        <time>2019-08-05T15:55:26.000Z</time>
      </trkpt>
      <trkpt lat="42.62215" lon="1.348525">
        <ele>1685</ele>
        <time>2019-08-05T15:55:30.000Z</time>
      </trkpt>
      <trkpt lat="42.622136" lon="1.348469">
        <ele>1686</ele>
        <time>2019-08-05T15:55:33.000Z</time>
      </trkpt>
      <trkpt lat="42.622134" lon="1.348312">
        <ele>1687</ele>
        <time>2019-08-05T15:55:41.000Z</time>
      </trkpt>
      <trkpt lat="42.622129" lon="1.348207">
        <ele>1688</ele>
        <time>2019-08-05T15:55:47.000Z</time>
      </trkpt>
      <trkpt lat="42.62213" lon="1.348051">
        <ele>1688</ele>
        <time>2019-08-05T15:55:55.000Z</time>
      </trkpt>
      <trkpt lat="42.622141" lon="1.347898">
        <ele>1689</ele>
        <time>2019-08-05T15:56:05.000Z</time>
      </trkpt>
      <trkpt lat="42.622136" lon="1.347739">
        <ele>1690</ele>
        <time>2019-08-05T15:56:14.000Z</time>
      </trkpt>
      <trkpt lat="42.622132" lon="1.347588">
        <ele>1691</ele>
        <time>2019-08-05T15:56:23.000Z</time>
      </trkpt>
      <trkpt lat="42.622128" lon="1.347428">
        <ele>1692</ele>
        <time>2019-08-05T15:56:31.000Z</time>
      </trkpt>
      <trkpt lat="42.622148" lon="1.34728">
        <ele>1693.41326367347</ele>
        <time>2019-08-05T15:56:39.000Z</time>
      </trkpt>
      <trkpt lat="42.62215" lon="1.347189">
        <ele>1694</ele>
        <time>2019-08-05T15:56:44.000Z</time>
      </trkpt>
      <trkpt lat="42.622159" lon="1.347139">
        <ele>1694</ele>
        <time>2019-08-05T15:56:47.000Z</time>
      </trkpt>
      <trkpt lat="42.622175" lon="1.347084">
        <ele>1695</ele>
        <time>2019-08-05T15:56:50.000Z</time>
      </trkpt>
      <trkpt lat="42.622174" lon="1.347023">
        <ele>1694.80807819611</ele>
        <time>2019-08-05T15:56:53.000Z</time>
      </trkpt>
      <trkpt lat="42.622174" lon="1.34697">
        <ele>1695</ele>
        <time>2019-08-05T15:56:56.000Z</time>
      </trkpt>
      <trkpt lat="42.622166" lon="1.346915">
        <ele>1695.73239106528</ele>
        <time>2019-08-05T15:56:59.000Z</time>
      </trkpt>
      <trkpt lat="42.622166" lon="1.346865">
        <ele>1696</ele>
        <time>2019-08-05T15:57:02.000Z</time>
      </trkpt>
      <trkpt lat="42.62216" lon="1.346813">
        <ele>1696</ele>
        <time>2019-08-05T15:57:05.000Z</time>
      </trkpt>
      <trkpt lat="42.622152" lon="1.346759">
        <ele>1696</ele>
        <time>2019-08-05T15:57:08.000Z</time>
      </trkpt>
      <trkpt lat="42.62214" lon="1.346705">
        <ele>1696.59200057344</ele>
        <time>2019-08-05T15:57:11.000Z</time>
      </trkpt>
      <trkpt lat="42.622117" lon="1.346655">
        <ele>1697</ele>
        <time>2019-08-05T15:57:15.000Z</time>
      </trkpt>
      <trkpt lat="42.622085" lon="1.346608">
        <ele>1697</ele>
        <time>2019-08-05T15:57:20.000Z</time>
      </trkpt>
      <trkpt lat="42.622062" lon="1.346566">
        <ele>1697</ele>
        <time>2019-08-05T15:57:23.000Z</time>
      </trkpt>
      <trkpt lat="42.622037" lon="1.346529">
        <ele>1698</ele>
        <time>2019-08-05T15:57:30.000Z</time>
      </trkpt>
      <trkpt lat="42.622005" lon="1.346488">
        <ele>1698</ele>
        <time>2019-08-05T15:57:34.000Z</time>
      </trkpt>
      <trkpt lat="42.621982" lon="1.346446">
        <ele>1698</ele>
        <time>2019-08-05T15:57:38.000Z</time>
      </trkpt>
      <trkpt lat="42.62196" lon="1.346401">
        <ele>1699</ele>
        <time>2019-08-05T15:57:41.000Z</time>
      </trkpt>
      <trkpt lat="42.621946" lon="1.34635">
        <ele>1699</ele>
        <time>2019-08-05T15:57:44.000Z</time>
      </trkpt>
      <trkpt lat="42.621922" lon="1.346307">
        <ele>1699</ele>
        <time>2019-08-05T15:57:47.000Z</time>
      </trkpt>
      <trkpt lat="42.621877" lon="1.346257">
        <ele>1700</ele>
        <time>2019-08-05T15:57:52.000Z</time>
      </trkpt>
      <trkpt lat="42.621847" lon="1.346224">
        <ele>1700</ele>
        <time>2019-08-05T15:57:56.000Z</time>
      </trkpt>
      <trkpt lat="42.621812" lon="1.346183">
        <ele>1700</ele>
        <time>2019-08-05T15:57:59.000Z</time>
      </trkpt>
      <trkpt lat="42.621788" lon="1.346132">
        <ele>1700</ele>
        <time>2019-08-05T15:58:02.000Z</time>
      </trkpt>
      <trkpt lat="42.621767" lon="1.34609">
        <ele>1700</ele>
        <time>2019-08-05T15:58:05.000Z</time>
      </trkpt>
      <trkpt lat="42.621751" lon="1.346043">
        <ele>1701</ele>
        <time>2019-08-05T15:58:08.000Z</time>
      </trkpt>
      <trkpt lat="42.62173" lon="1.345999">
        <ele>1701</ele>
        <time>2019-08-05T15:58:11.000Z</time>
      </trkpt>
      <trkpt lat="42.621706" lon="1.345948">
        <ele>1701</ele>
        <time>2019-08-05T15:58:14.000Z</time>
      </trkpt>
      <trkpt lat="42.621677" lon="1.345919">
        <ele>1701</ele>
        <time>2019-08-05T15:58:17.000Z</time>
      </trkpt>
      <trkpt lat="42.621619" lon="1.345804">
        <ele>1703</ele>
        <time>2019-08-05T15:58:25.000Z</time>
      </trkpt>
      <trkpt lat="42.621592" lon="1.345762">
        <ele>1703</ele>
        <time>2019-08-05T15:58:28.000Z</time>
      </trkpt>
      <trkpt lat="42.621548" lon="1.345612">
        <ele>1703</ele>
        <time>2019-08-05T15:58:37.000Z</time>
      </trkpt>
      <trkpt lat="42.621478" lon="1.34548">
        <ele>1703</ele>
        <time>2019-08-05T15:58:46.000Z</time>
      </trkpt>
      <trkpt lat="42.621422" lon="1.345345">
        <ele>1704</ele>
        <time>2019-08-05T15:58:55.000Z</time>
      </trkpt>
      <trkpt lat="42.62139" lon="1.345268">
        <ele>1705</ele>
        <time>2019-08-05T15:58:59.000Z</time>
      </trkpt>
      <trkpt lat="42.621381" lon="1.345218">
        <ele>1705</ele>
        <time>2019-08-05T15:59:02.000Z</time>
      </trkpt>
      <trkpt lat="42.621351" lon="1.345065">
        <ele>1706</ele>
        <time>2019-08-05T15:59:11.000Z</time>
      </trkpt>
      <trkpt lat="42.621347" lon="1.344998">
        <ele>1706</ele>
        <time>2019-08-05T15:59:14.000Z</time>
      </trkpt>
      <trkpt lat="42.62134" lon="1.344931">
        <ele>1707</ele>
        <time>2019-08-05T15:59:17.000Z</time>
      </trkpt>
      <trkpt lat="42.621334" lon="1.344882">
        <ele>1707.7956975928</ele>
        <time>2019-08-05T15:59:19.000Z</time>
      </trkpt>
      <trkpt lat="42.621334" lon="1.344829">
        <ele>1708</ele>
        <time>2019-08-05T15:59:21.000Z</time>
      </trkpt>
      <trkpt lat="42.621319" lon="1.34477">
        <ele>1708</ele>
        <time>2019-08-05T15:59:24.000Z</time>
      </trkpt>
      <trkpt lat="42.621306" lon="1.344716">
        <ele>1708</ele>
        <time>2019-08-05T15:59:27.000Z</time>
      </trkpt>
      <trkpt lat="42.621282" lon="1.344674">
        <ele>1708</ele>
        <time>2019-08-05T15:59:30.000Z</time>
      </trkpt>
      <trkpt lat="42.621262" lon="1.344615">
        <ele>1708.72972474314</ele>
        <time>2019-08-05T15:59:34.000Z</time>
      </trkpt>
      <trkpt lat="42.62124" lon="1.344572">
        <ele>1709</ele>
        <time>2019-08-05T15:59:37.000Z</time>
      </trkpt>
      <trkpt lat="42.621214" lon="1.344532">
        <ele>1709</ele>
        <time>2019-08-05T15:59:40.000Z</time>
      </trkpt>
      <trkpt lat="42.621185" lon="1.344495">
        <ele>1709</ele>
        <time>2019-08-05T15:59:43.000Z</time>
      </trkpt>
      <trkpt lat="42.621158" lon="1.344457">
        <ele>1709</ele>
        <time>2019-08-05T15:59:46.000Z</time>
      </trkpt>
      <trkpt lat="42.621129" lon="1.344415">
        <ele>1709</ele>
        <time>2019-08-05T15:59:49.000Z</time>
      </trkpt>
      <trkpt lat="42.621114" lon="1.344353">
        <ele>1709</ele>
        <time>2019-08-05T15:59:52.000Z</time>
      </trkpt>
      <trkpt lat="42.621094" lon="1.344305">
        <ele>1709</ele>
        <time>2019-08-05T15:59:55.000Z</time>
      </trkpt>
      <trkpt lat="42.621068" lon="1.344263">
        <ele>1709</ele>
        <time>2019-08-05T15:59:58.000Z</time>
      </trkpt>
      <trkpt lat="42.621047" lon="1.344215">
        <ele>1710</ele>
        <time>2019-08-05T16:00:01.000Z</time>
      </trkpt>
      <trkpt lat="42.621033" lon="1.344153">
        <ele>1709</ele>
        <time>2019-08-05T16:00:04.000Z</time>
      </trkpt>
      <trkpt lat="42.621024" lon="1.344089">
        <ele>1709</ele>
        <time>2019-08-05T16:00:07.000Z</time>
      </trkpt>
      <trkpt lat="42.621006" lon="1.344042">
        <ele>1709</ele>
        <time>2019-08-05T16:00:10.000Z</time>
      </trkpt>
      <trkpt lat="42.620985" lon="1.343992">
        <ele>1709</ele>
        <time>2019-08-05T16:00:13.000Z</time>
      </trkpt>
      <trkpt lat="42.620981" lon="1.34394">
        <ele>1710</ele>
        <time>2019-08-05T16:00:16.000Z</time>
      </trkpt>
      <trkpt lat="42.620984" lon="1.343883">
        <ele>1710</ele>
        <time>2019-08-05T16:00:19.000Z</time>
      </trkpt>
      <trkpt lat="42.620983" lon="1.343828">
        <ele>1710</ele>
        <time>2019-08-05T16:00:22.000Z</time>
      </trkpt>
      <trkpt lat="42.620979" lon="1.343771">
        <ele>1710</ele>
        <time>2019-08-05T16:00:25.000Z</time>
      </trkpt>
      <trkpt lat="42.620991" lon="1.34369">
        <ele>1710</ele>
        <time>2019-08-05T16:00:29.000Z</time>
      </trkpt>
      <trkpt lat="42.621001" lon="1.343623">
        <ele>1709.75701314703</ele>
        <time>2019-08-05T16:00:32.000Z</time>
      </trkpt>
      <trkpt lat="42.621007" lon="1.343565">
        <ele>1710</ele>
        <time>2019-08-05T16:00:35.000Z</time>
      </trkpt>
      <trkpt lat="42.621021" lon="1.343515">
        <ele>1710</ele>
        <time>2019-08-05T16:00:38.000Z</time>
      </trkpt>
      <trkpt lat="42.621033" lon="1.343466">
        <ele>1711</ele>
        <time>2019-08-05T16:00:42.000Z</time>
      </trkpt>
      <trkpt lat="42.621047" lon="1.343416">
        <ele>1711</ele>
        <time>2019-08-05T16:00:46.000Z</time>
      </trkpt>
      <trkpt lat="42.621056" lon="1.343353">
        <ele>1712</ele>
        <time>2019-08-05T16:00:49.000Z</time>
      </trkpt>
      <trkpt lat="42.621062" lon="1.343294">
        <ele>1712</ele>
        <time>2019-08-05T16:00:52.000Z</time>
      </trkpt>
      <trkpt lat="42.621073" lon="1.343233">
        <ele>1712</ele>
        <time>2019-08-05T16:00:55.000Z</time>
      </trkpt>
      <trkpt lat="42.621086" lon="1.343173">
        <ele>1711.42553288064</ele>
        <time>2019-08-05T16:00:58.000Z</time>
      </trkpt>
      <trkpt lat="42.621095" lon="1.343119">
        <ele>1711</ele>
        <time>2019-08-05T16:01:01.000Z</time>
      </trkpt>
      <trkpt lat="42.621103" lon="1.343064">
        <ele>1710.24298685297</ele>
        <time>2019-08-05T16:01:04.000Z</time>
      </trkpt>
      <trkpt lat="42.621107" lon="1.34301">
        <ele>1710</ele>
        <time>2019-08-05T16:01:07.000Z</time>
      </trkpt>
      <trkpt lat="42.621095" lon="1.342957">
        <ele>1709</ele>
        <time>2019-08-05T16:01:11.000Z</time>
      </trkpt>
      <trkpt lat="42.621089" lon="1.342896">
        <ele>1709</ele>
        <time>2019-08-05T16:01:15.000Z</time>
      </trkpt>
      <trkpt lat="42.621095" lon="1.342838">
        <ele>1709</ele>
        <time>2019-08-05T16:01:19.000Z</time>
      </trkpt>
      <trkpt lat="42.621081" lon="1.34278">
        <ele>1708</ele>
        <time>2019-08-05T16:01:23.000Z</time>
      </trkpt>
      <trkpt lat="42.621071" lon="1.342711">
        <ele>1708</ele>
        <time>2019-08-05T16:01:26.000Z</time>
      </trkpt>
      <trkpt lat="42.621061" lon="1.342655">
        <ele>1708</ele>
        <time>2019-08-05T16:01:28.000Z</time>
      </trkpt>
      <trkpt lat="42.621033" lon="1.342623">
        <ele>1708</ele>
        <time>2019-08-05T16:01:31.000Z</time>
      </trkpt>
      <trkpt lat="42.620997" lon="1.342612">
        <ele>1708</ele>
        <time>2019-08-05T16:01:34.000Z</time>
      </trkpt>
      <trkpt lat="42.62095" lon="1.3426">
        <ele>1707</ele>
        <time>2019-08-05T16:01:38.000Z</time>
      </trkpt>
      <trkpt lat="42.620907" lon="1.342585">
        <ele>1706</ele>
        <time>2019-08-05T16:01:42.000Z</time>
      </trkpt>
      <trkpt lat="42.620871" lon="1.342562">
        <ele>1706</ele>
        <time>2019-08-05T16:01:45.000Z</time>
      </trkpt>
      <trkpt lat="42.620846" lon="1.342519">
        <ele>1705</ele>
        <time>2019-08-05T16:01:48.000Z</time>
      </trkpt>
      <trkpt lat="42.620833" lon="1.342473">
        <ele>1705</ele>
        <time>2019-08-05T16:01:50.000Z</time>
      </trkpt>
      <trkpt lat="42.620817" lon="1.342416">
        <ele>1704</ele>
        <time>2019-08-05T16:01:53.000Z</time>
      </trkpt>
      <trkpt lat="42.620798" lon="1.342366">
        <ele>1704</ele>
        <time>2019-08-05T16:01:56.000Z</time>
      </trkpt>
      <trkpt lat="42.620791" lon="1.342318">
        <ele>1703</ele>
        <time>2019-08-05T16:02:00.000Z</time>
      </trkpt>
      <trkpt lat="42.620772" lon="1.342273">
        <ele>1703</ele>
        <time>2019-08-05T16:02:05.000Z</time>
      </trkpt>
      <trkpt lat="42.620759" lon="1.342231">
        <ele>1701</ele>
        <time>2019-08-05T16:02:10.000Z</time>
      </trkpt>
      <trkpt lat="42.620749" lon="1.342185">
        <ele>1700</ele>
        <time>2019-08-05T16:02:13.000Z</time>
      </trkpt>
      <trkpt lat="42.620736" lon="1.342124">
        <ele>1699</ele>
        <time>2019-08-05T16:02:17.000Z</time>
      </trkpt>
      <trkpt lat="42.620725" lon="1.34207">
        <ele>1699</ele>
        <time>2019-08-05T16:02:20.000Z</time>
      </trkpt>
      <trkpt lat="42.620717" lon="1.342023">
        <ele>1698</ele>
        <time>2019-08-05T16:02:23.000Z</time>
      </trkpt>
      <trkpt lat="42.620711" lon="1.341961">
        <ele>1697</ele>
        <time>2019-08-05T16:02:27.000Z</time>
      </trkpt>
      <trkpt lat="42.620693" lon="1.341904">
        <ele>1697</ele>
        <time>2019-08-05T16:02:31.000Z</time>
      </trkpt>
      <trkpt lat="42.620704" lon="1.341853">
        <ele>1697</ele>
        <time>2019-08-05T16:02:35.000Z</time>
      </trkpt>
      <trkpt lat="42.62069" lon="1.341692">
        <ele>1693.20430521911</ele>
        <time>2019-08-05T16:02:48.000Z</time>
      </trkpt>
      <trkpt lat="42.620646" lon="1.3416">
        <ele>1693</ele>
        <time>2019-08-05T16:02:53.000Z</time>
      </trkpt>
      <trkpt lat="42.620611" lon="1.341563">
        <ele>1693.79999730527</ele>
        <time>2019-08-05T16:02:56.000Z</time>
      </trkpt>
      <trkpt lat="42.620576" lon="1.341532">
        <ele>1693</ele>
        <time>2019-08-05T16:03:01.000Z</time>
      </trkpt>
      <trkpt lat="42.620542" lon="1.341395">
        <ele>1689.39230822248</ele>
        <time>2019-08-05T16:03:13.000Z</time>
      </trkpt>
      <trkpt lat="42.620442" lon="1.341342">
        <ele>1687</ele>
        <time>2019-08-05T16:03:24.000Z</time>
      </trkpt>
      <trkpt lat="42.620334" lon="1.341313">
        <ele>1685</ele>
        <time>2019-08-05T16:03:36.000Z</time>
      </trkpt>
      <trkpt lat="42.62028" lon="1.341183">
        <ele>1682.19192180389</ele>
        <time>2019-08-05T16:03:48.000Z</time>
      </trkpt>
      <trkpt lat="42.620258" lon="1.34115">
        <ele>1680</ele>
        <time>2019-08-05T16:03:56.000Z</time>
      </trkpt>
      <trkpt lat="42.620252" lon="1.341093">
        <ele>1679.44138028443</ele>
        <time>2019-08-05T16:04:00.000Z</time>
      </trkpt>
      <trkpt lat="42.620266" lon="1.341014">
        <ele>1677.78651249083</ele>
        <time>2019-08-05T16:04:07.000Z</time>
      </trkpt>
      <trkpt lat="42.620292" lon="1.340963">
        <ele>1678</ele>
        <time>2019-08-05T16:04:11.000Z</time>
      </trkpt>
      <trkpt lat="42.620276" lon="1.340901">
        <ele>1677.1900032</ele>
        <time>2019-08-05T16:04:18.000Z</time>
      </trkpt>
      <trkpt lat="42.620245" lon="1.340761">
        <ele>1673.21358801014</ele>
        <time>2019-08-05T16:04:27.000Z</time>
      </trkpt>
      <trkpt lat="42.62026" lon="1.340697">
        <ele>1672.1900032</ele>
        <time>2019-08-05T16:04:31.000Z</time>
      </trkpt>
      <trkpt lat="42.62029" lon="1.340659">
        <ele>1671</ele>
        <time>2019-08-05T16:04:34.000Z</time>
      </trkpt>
      <trkpt lat="42.620322" lon="1.340627">
        <ele>1671</ele>
        <time>2019-08-05T16:04:37.000Z</time>
      </trkpt>
      <trkpt lat="42.620321" lon="1.340591">
        <ele>1667.28318664265</ele>
        <time>2019-08-05T16:04:49.000Z</time>
      </trkpt>
      <trkpt lat="42.620334" lon="1.340522">
        <ele>1665</ele>
        <time>2019-08-05T16:04:58.000Z</time>
      </trkpt>
      <trkpt lat="42.620291" lon="1.340387">
        <ele>1664</ele>
        <time>2019-08-05T16:05:07.000Z</time>
      </trkpt>
      <trkpt lat="42.620263" lon="1.340312">
        <ele>1663</ele>
        <time>2019-08-05T16:05:12.000Z</time>
      </trkpt>
      <trkpt lat="42.620201" lon="1.340187">
        <ele>1662</ele>
        <time>2019-08-05T16:05:22.000Z</time>
      </trkpt>
      <trkpt lat="42.620162" lon="1.340023">
        <ele>1661</ele>
        <time>2019-08-05T16:05:33.000Z</time>
      </trkpt>
      <trkpt lat="42.620122" lon="1.339871">
        <ele>1660</ele>
        <time>2019-08-05T16:05:43.000Z</time>
      </trkpt>
      <trkpt lat="42.620075" lon="1.339728">
        <ele>1659</ele>
        <time>2019-08-05T16:05:51.000Z</time>
      </trkpt>
      <trkpt lat="42.620053" lon="1.339627">
        <ele>1659</ele>
        <time>2019-08-05T16:05:57.000Z</time>
      </trkpt>
      <trkpt lat="42.620054" lon="1.33947">
        <ele>1659</ele>
        <time>2019-08-05T16:06:07.000Z</time>
      </trkpt>
      <trkpt lat="42.620055" lon="1.339373">
        <ele>1657</ele>
        <time>2019-08-05T16:06:12.000Z</time>
      </trkpt>
      <trkpt lat="42.620057" lon="1.339311">
        <ele>1657</ele>
        <time>2019-08-05T16:06:16.000Z</time>
      </trkpt>
      <trkpt lat="42.620059" lon="1.33923">
        <ele>1656</ele>
        <time>2019-08-05T16:06:22.000Z</time>
      </trkpt>
      <trkpt lat="42.62008" lon="1.339127">
        <ele>1655</ele>
        <time>2019-08-05T16:06:27.000Z</time>
      </trkpt>
      <trkpt lat="42.620088" lon="1.33907">
        <ele>1655</ele>
        <time>2019-08-05T16:06:31.000Z</time>
      </trkpt>
      <trkpt lat="42.620065" lon="1.338973">
        <ele>1654</ele>
        <time>2019-08-05T16:06:37.000Z</time>
      </trkpt>
      <trkpt lat="42.620079" lon="1.338807">
        <ele>1651.43356486869</ele>
        <time>2019-08-05T16:06:47.000Z</time>
      </trkpt>
      <trkpt lat="42.620131" lon="1.338801">
        <ele>1650</ele>
        <time>2019-08-05T16:06:51.000Z</time>
      </trkpt>
      <trkpt lat="42.620179" lon="1.338774">
        <ele>1650</ele>
        <time>2019-08-05T16:06:58.000Z</time>
      </trkpt>
      <trkpt lat="42.620194" lon="1.338735">
        <ele>1648</ele>
        <time>2019-08-05T16:07:08.000Z</time>
      </trkpt>
      <trkpt lat="42.620189" lon="1.338676">
        <ele>1647</ele>
        <time>2019-08-05T16:07:13.000Z</time>
      </trkpt>
      <trkpt lat="42.620189" lon="1.338627">
        <ele>1647</ele>
        <time>2019-08-05T16:07:16.000Z</time>
      </trkpt>
      <trkpt lat="42.6202" lon="1.338572">
        <ele>1647</ele>
        <time>2019-08-05T16:07:19.000Z</time>
      </trkpt>
      <trkpt lat="42.620225" lon="1.338483">
        <ele>1646</ele>
        <time>2019-08-05T16:07:26.000Z</time>
      </trkpt>
      <trkpt lat="42.62022" lon="1.338414">
        <ele>1645</ele>
        <time>2019-08-05T16:07:30.000Z</time>
      </trkpt>
      <trkpt lat="42.620201" lon="1.338262">
        <ele>1644</ele>
        <time>2019-08-05T16:07:38.000Z</time>
      </trkpt>
      <trkpt lat="42.620197" lon="1.338098">
        <ele>1642</ele>
        <time>2019-08-05T16:07:46.000Z</time>
      </trkpt>
      <trkpt lat="42.620181" lon="1.337951">
        <ele>1640</ele>
        <time>2019-08-05T16:07:54.000Z</time>
      </trkpt>
      <trkpt lat="42.620185" lon="1.337795">
        <ele>1638.1900032</ele>
        <time>2019-08-05T16:08:05.000Z</time>
      </trkpt>
      <trkpt lat="42.62016" lon="1.337642">
        <ele>1637</ele>
        <time>2019-08-05T16:08:12.000Z</time>
      </trkpt>
      <trkpt lat="42.620123" lon="1.337495">
        <ele>1635.21839367947</ele>
        <time>2019-08-05T16:08:19.000Z</time>
      </trkpt>
      <trkpt lat="42.620079" lon="1.337352">
        <ele>1634</ele>
        <time>2019-08-05T16:08:27.000Z</time>
      </trkpt>
      <trkpt lat="42.620134" lon="1.337227">
        <ele>1632</ele>
        <time>2019-08-05T16:08:37.000Z</time>
      </trkpt>
      <trkpt lat="42.620111" lon="1.337082">
        <ele>1631</ele>
        <time>2019-08-05T16:08:46.000Z</time>
      </trkpt>
      <trkpt lat="42.620058" lon="1.336947">
        <ele>1630</ele>
        <time>2019-08-05T16:08:55.000Z</time>
      </trkpt>
      <trkpt lat="42.619994" lon="1.336811">
        <ele>1629</ele>
        <time>2019-08-05T16:09:02.000Z</time>
      </trkpt>
      <trkpt lat="42.619966" lon="1.336667">
        <ele>1628</ele>
        <time>2019-08-05T16:09:08.000Z</time>
      </trkpt>
      <trkpt lat="42.61991" lon="1.336528">
        <ele>1628</ele>
        <time>2019-08-05T16:09:18.000Z</time>
      </trkpt>
      <trkpt lat="42.619834" lon="1.336414">
        <ele>1627</ele>
        <time>2019-08-05T16:09:29.000Z</time>
      </trkpt>
      <trkpt lat="42.619779" lon="1.336341">
        <ele>1626</ele>
        <time>2019-08-05T16:09:34.000Z</time>
      </trkpt>
      <trkpt lat="42.61971" lon="1.3362">
        <ele>1626</ele>
        <time>2019-08-05T16:09:44.000Z</time>
      </trkpt>
      <trkpt lat="42.619664" lon="1.336106">
        <ele>1626</ele>
        <time>2019-08-05T16:09:51.000Z</time>
      </trkpt>
      <trkpt lat="42.619649" lon="1.336036">
        <ele>1626</ele>
        <time>2019-08-05T16:09:54.000Z</time>
      </trkpt>
      <trkpt lat="42.619639" lon="1.335989">
        <ele>1626</ele>
        <time>2019-08-05T16:09:56.000Z</time>
      </trkpt>
      <trkpt lat="42.619636" lon="1.335931">
        <ele>1626</ele>
        <time>2019-08-05T16:09:59.000Z</time>
      </trkpt>
      <trkpt lat="42.619628" lon="1.33587">
        <ele>1626</ele>
        <time>2019-08-05T16:10:03.000Z</time>
      </trkpt>
      <trkpt lat="42.619614" lon="1.335821">
        <ele>1626</ele>
        <time>2019-08-05T16:10:06.000Z</time>
      </trkpt>
      <trkpt lat="42.619594" lon="1.335767">
        <ele>1625.26363498842</ele>
        <time>2019-08-05T16:10:11.000Z</time>
      </trkpt>
      <trkpt lat="42.619574" lon="1.335722">
        <ele>1623.43356993886</ele>
        <time>2019-08-05T16:10:16.000Z</time>
      </trkpt>
      <trkpt lat="42.619558" lon="1.335662">
        <ele>1622.22353401801</ele>
        <time>2019-08-05T16:10:20.000Z</time>
      </trkpt>
      <trkpt lat="42.61953" lon="1.335625">
        <ele>1622</ele>
        <time>2019-08-05T16:10:24.000Z</time>
      </trkpt>
      <trkpt lat="42.619525" lon="1.335567">
        <ele>1622</ele>
        <time>2019-08-05T16:10:28.000Z</time>
      </trkpt>
      <trkpt lat="42.619514" lon="1.335513">
        <ele>1621</ele>
        <time>2019-08-05T16:10:33.000Z</time>
      </trkpt>
      <trkpt lat="42.619502" lon="1.335462">
        <ele>1621</ele>
        <time>2019-08-05T16:10:38.000Z</time>
      </trkpt>
      <trkpt lat="42.619452" lon="1.335356">
        <ele>1619</ele>
        <time>2019-08-05T16:10:45.000Z</time>
      </trkpt>
      <trkpt lat="42.619436" lon="1.335298">
        <ele>1619</ele>
        <time>2019-08-05T16:10:48.000Z</time>
      </trkpt>
      <trkpt lat="42.619418" lon="1.33525">
        <ele>1617.23584746172</ele>
        <time>2019-08-05T16:10:51.000Z</time>
      </trkpt>
      <trkpt lat="42.619412" lon="1.335193">
        <ele>1616</ele>
        <time>2019-08-05T16:10:54.000Z</time>
      </trkpt>
      <trkpt lat="42.619416" lon="1.335138">
        <ele>1616</ele>
        <time>2019-08-05T16:10:57.000Z</time>
      </trkpt>
      <trkpt lat="42.619413" lon="1.335082">
        <ele>1616</ele>
        <time>2019-08-05T16:11:01.000Z</time>
      </trkpt>
      <trkpt lat="42.619417" lon="1.335022">
        <ele>1615</ele>
        <time>2019-08-05T16:11:05.000Z</time>
      </trkpt>
      <trkpt lat="42.619401" lon="1.334964">
        <ele>1615</ele>
        <time>2019-08-05T16:11:09.000Z</time>
      </trkpt>
      <trkpt lat="42.619387" lon="1.334913">
        <ele>1615</ele>
        <time>2019-08-05T16:11:13.000Z</time>
      </trkpt>
      <trkpt lat="42.619357" lon="1.33488">
        <ele>1614.1900032</ele>
        <time>2019-08-05T16:11:17.000Z</time>
      </trkpt>
      <trkpt lat="42.619325" lon="1.334847">
        <ele>1614</ele>
        <time>2019-08-05T16:11:20.000Z</time>
      </trkpt>
      <trkpt lat="42.619299" lon="1.334807">
        <ele>1613</ele>
        <time>2019-08-05T16:11:23.000Z</time>
      </trkpt>
      <trkpt lat="42.619271" lon="1.334752">
        <ele>1613</ele>
        <time>2019-08-05T16:11:27.000Z</time>
      </trkpt>
      <trkpt lat="42.61925" lon="1.334701">
        <ele>1613</ele>
        <time>2019-08-05T16:11:31.000Z</time>
      </trkpt>
      <trkpt lat="42.619244" lon="1.334651">
        <ele>1613</ele>
        <time>2019-08-05T16:11:42.000Z</time>
      </trkpt>
      <trkpt lat="42.619251" lon="1.334591">
        <ele>1610.25000296296</ele>
        <time>2019-08-05T16:11:47.000Z</time>
      </trkpt>
      <trkpt lat="42.619269" lon="1.334534">
        <ele>1610</ele>
        <time>2019-08-05T16:11:51.000Z</time>
      </trkpt>
      <trkpt lat="42.619278" lon="1.334479">
        <ele>1610</ele>
        <time>2019-08-05T16:11:54.000Z</time>
      </trkpt>
      <trkpt lat="42.619283" lon="1.334427">
        <ele>1609.45587764706</ele>
        <time>2019-08-05T16:11:57.000Z</time>
      </trkpt>
      <trkpt lat="42.61929" lon="1.334375">
        <ele>1609</ele>
        <time>2019-08-05T16:12:00.000Z</time>
      </trkpt>
      <trkpt lat="42.6193" lon="1.334319">
        <ele>1609</ele>
        <time>2019-08-05T16:12:04.000Z</time>
      </trkpt>
      <trkpt lat="42.619313" lon="1.33427">
        <ele>1609</ele>
        <time>2019-08-05T16:12:08.000Z</time>
      </trkpt>
      <trkpt lat="42.619338" lon="1.334232">
        <ele>1608</ele>
        <time>2019-08-05T16:12:15.000Z</time>
      </trkpt>
      <trkpt lat="42.61932" lon="1.334182">
        <ele>1608</ele>
        <time>2019-08-05T16:14:02.000Z</time>
      </trkpt>
      <trkpt lat="42.619308" lon="1.334121">
        <ele>1608</ele>
        <time>2019-08-05T16:14:06.000Z</time>
      </trkpt>
      <trkpt lat="42.619309" lon="1.334058">
        <ele>1607</ele>
        <time>2019-08-05T16:14:09.000Z</time>
      </trkpt>
      <trkpt lat="42.619292" lon="1.334007">
        <ele>1607</ele>
        <time>2019-08-05T16:14:13.000Z</time>
      </trkpt>
      <trkpt lat="42.619283" lon="1.333952">
        <ele>1607</ele>
        <time>2019-08-05T16:14:17.000Z</time>
      </trkpt>
      <trkpt lat="42.619269" lon="1.333888">
        <ele>1607</ele>
        <time>2019-08-05T16:14:22.000Z</time>
      </trkpt>
      <trkpt lat="42.619259" lon="1.333837">
        <ele>1607</ele>
        <time>2019-08-05T16:14:25.000Z</time>
      </trkpt>
      <trkpt lat="42.619245" lon="1.333779">
        <ele>1606</ele>
        <time>2019-08-05T16:14:28.000Z</time>
      </trkpt>
      <trkpt lat="42.619232" lon="1.333718">
        <ele>1606.77646934811</ele>
        <time>2019-08-05T16:14:31.000Z</time>
      </trkpt>
      <trkpt lat="42.619223" lon="1.333656">
        <ele>1607</ele>
        <time>2019-08-05T16:14:34.000Z</time>
      </trkpt>
      <trkpt lat="42.61921" lon="1.333598">
        <ele>1607</ele>
        <time>2019-08-05T16:14:38.000Z</time>
      </trkpt>
      <trkpt lat="42.619204" lon="1.333545">
        <ele>1606.20588050749</ele>
        <time>2019-08-05T16:14:41.000Z</time>
      </trkpt>
      <trkpt lat="42.619205" lon="1.333489">
        <ele>1606</ele>
        <time>2019-08-05T16:14:45.000Z</time>
      </trkpt>
      <trkpt lat="42.619201" lon="1.333439">
        <ele>1606</ele>
        <time>2019-08-05T16:14:48.000Z</time>
      </trkpt>
      <trkpt lat="42.619202" lon="1.333378">
        <ele>1606</ele>
        <time>2019-08-05T16:14:52.000Z</time>
      </trkpt>
      <trkpt lat="42.619199" lon="1.333328">
        <ele>1606</ele>
        <time>2019-08-05T16:14:56.000Z</time>
      </trkpt>
      <trkpt lat="42.619198" lon="1.333274">
        <ele>1605</ele>
        <time>2019-08-05T16:15:00.000Z</time>
      </trkpt>
      <trkpt lat="42.61919" lon="1.333224">
        <ele>1605</ele>
        <time>2019-08-05T16:15:03.000Z</time>
      </trkpt>
      <trkpt lat="42.619188" lon="1.333174">
        <ele>1605</ele>
        <time>2019-08-05T16:15:06.000Z</time>
      </trkpt>
      <trkpt lat="42.619192" lon="1.333118">
        <ele>1605</ele>
        <time>2019-08-05T16:15:10.000Z</time>
      </trkpt>
      <trkpt lat="42.619186" lon="1.333052">
        <ele>1605</ele>
        <time>2019-08-05T16:15:14.000Z</time>
      </trkpt>
      <trkpt lat="42.619184" lon="1.332986">
        <ele>1604.1900032</ele>
        <time>2019-08-05T16:15:17.000Z</time>
      </trkpt>
      <trkpt lat="42.619182" lon="1.332928">
        <ele>1603</ele>
        <time>2019-08-05T16:15:20.000Z</time>
      </trkpt>
      <trkpt lat="42.61918" lon="1.332877">
        <ele>1602.1900032</ele>
        <time>2019-08-05T16:15:23.000Z</time>
      </trkpt>
      <trkpt lat="42.619182" lon="1.332816">
        <ele>1602</ele>
        <time>2019-08-05T16:15:27.000Z</time>
      </trkpt>
      <trkpt lat="42.619178" lon="1.332762">
        <ele>1602</ele>
        <time>2019-08-05T16:15:30.000Z</time>
      </trkpt>
      <trkpt lat="42.619164" lon="1.332696">
        <ele>1601.20000269473</ele>
        <time>2019-08-05T16:15:34.000Z</time>
      </trkpt>
      <trkpt lat="42.61915" lon="1.332637">
        <ele>1601</ele>
        <time>2019-08-05T16:15:37.000Z</time>
      </trkpt>
      <trkpt lat="42.61915" lon="1.332572">
        <ele>1601</ele>
        <time>2019-08-05T16:15:41.000Z</time>
      </trkpt>
      <trkpt lat="42.619162" lon="1.332505">
        <ele>1601</ele>
        <time>2019-08-05T16:15:45.000Z</time>
      </trkpt>
      <trkpt lat="42.619168" lon="1.332452">
        <ele>1600.43971785724</ele>
        <time>2019-08-05T16:15:48.000Z</time>
      </trkpt>
      <trkpt lat="42.619182" lon="1.332399">
        <ele>1600</ele>
        <time>2019-08-05T16:15:52.000Z</time>
      </trkpt>
      <trkpt lat="42.619187" lon="1.332339">
        <ele>1599</ele>
        <time>2019-08-05T16:15:56.000Z</time>
      </trkpt>
      <trkpt lat="42.619191" lon="1.332258">
        <ele>1597.48599181759</ele>
        <time>2019-08-05T16:16:01.000Z</time>
      </trkpt>
      <trkpt lat="42.61919" lon="1.332129">
        <ele>1597</ele>
        <time>2019-08-05T16:16:09.000Z</time>
      </trkpt>
      <trkpt lat="42.619177" lon="1.332078">
        <ele>1597</ele>
        <time>2019-08-05T16:16:12.000Z</time>
      </trkpt>
      <trkpt lat="42.619163" lon="1.332033">
        <ele>1597</ele>
        <time>2019-08-05T16:16:15.000Z</time>
      </trkpt>
      <trkpt lat="42.61914" lon="1.331988">
        <ele>1597</ele>
        <time>2019-08-05T16:16:18.000Z</time>
      </trkpt>
      <trkpt lat="42.619108" lon="1.331949">
        <ele>1598</ele>
        <time>2019-08-05T16:16:21.000Z</time>
      </trkpt>
      <trkpt lat="42.619075" lon="1.331906">
        <ele>1598</ele>
        <time>2019-08-05T16:16:25.000Z</time>
      </trkpt>
      <trkpt lat="42.619047" lon="1.33187">
        <ele>1598</ele>
        <time>2019-08-05T16:16:28.000Z</time>
      </trkpt>
      <trkpt lat="42.619016" lon="1.331838">
        <ele>1597.19802042937</ele>
        <time>2019-08-05T16:16:31.000Z</time>
      </trkpt>
      <trkpt lat="42.618988" lon="1.331804">
        <ele>1597</ele>
        <time>2019-08-05T16:16:34.000Z</time>
      </trkpt>
      <trkpt lat="42.618953" lon="1.331755">
        <ele>1596</ele>
        <time>2019-08-05T16:16:38.000Z</time>
      </trkpt>
      <trkpt lat="42.618932" lon="1.331711">
        <ele>1596.72973315805</ele>
        <time>2019-08-05T16:16:41.000Z</time>
      </trkpt>
      <trkpt lat="42.618905" lon="1.331673">
        <ele>1597</ele>
        <time>2019-08-05T16:16:44.000Z</time>
      </trkpt>
      <trkpt lat="42.618873" lon="1.331633">
        <ele>1596</ele>
        <time>2019-08-05T16:16:47.000Z</time>
      </trkpt>
      <trkpt lat="42.61884" lon="1.331603">
        <ele>1595</ele>
        <time>2019-08-05T16:16:50.000Z</time>
      </trkpt>
      <trkpt lat="42.618806" lon="1.331577">
        <ele>1595</ele>
        <time>2019-08-05T16:16:53.000Z</time>
      </trkpt>
      <trkpt lat="42.618772" lon="1.331553">
        <ele>1595</ele>
        <time>2019-08-05T16:16:56.000Z</time>
      </trkpt>
      <trkpt lat="42.618742" lon="1.331524">
        <ele>1595</ele>
        <time>2019-08-05T16:16:59.000Z</time>
      </trkpt>
      <trkpt lat="42.618711" lon="1.331489">
        <ele>1594</ele>
        <time>2019-08-05T16:17:03.000Z</time>
      </trkpt>
      <trkpt lat="42.618679" lon="1.331453">
        <ele>1594</ele>
        <time>2019-08-05T16:17:07.000Z</time>
      </trkpt>
      <trkpt lat="42.618655" lon="1.331415">
        <ele>1593.22857212517</ele>
        <time>2019-08-05T16:17:10.000Z</time>
      </trkpt>
      <trkpt lat="42.618652" lon="1.331361">
        <ele>1593</ele>
        <time>2019-08-05T16:17:15.000Z</time>
      </trkpt>
      <trkpt lat="42.618647" lon="1.331265">
        <ele>1591</ele>
        <time>2019-08-05T16:17:24.000Z</time>
      </trkpt>
      <trkpt lat="42.618639" lon="1.331208">
        <ele>1590</ele>
        <time>2019-08-05T16:17:28.000Z</time>
      </trkpt>
      <trkpt lat="42.618635" lon="1.331145">
        <ele>1589.20212968763</ele>
        <time>2019-08-05T16:17:32.000Z</time>
      </trkpt>
      <trkpt lat="42.618653" lon="1.331062">
        <ele>1586</ele>
        <time>2019-08-05T16:17:38.000Z</time>
      </trkpt>
      <trkpt lat="42.618733" lon="1.330966">
        <ele>1583.28318664265</ele>
        <time>2019-08-05T16:17:48.000Z</time>
      </trkpt>
      <trkpt lat="42.618793" lon="1.330866">
        <ele>1583</ele>
        <time>2019-08-05T16:17:57.000Z</time>
      </trkpt>
      <trkpt lat="42.618753" lon="1.330747">
        <ele>1579</ele>
        <time>2019-08-05T16:18:13.000Z</time>
      </trkpt>
      <trkpt lat="42.61872" lon="1.330702">
        <ele>1578</ele>
        <time>2019-08-05T16:18:19.000Z</time>
      </trkpt>
      <trkpt lat="42.618692" lon="1.330673">
        <ele>1577</ele>
        <time>2019-08-05T16:18:23.000Z</time>
      </trkpt>
      <trkpt lat="42.618659" lon="1.330633">
        <ele>1576</ele>
        <time>2019-08-05T16:18:28.000Z</time>
      </trkpt>
      <trkpt lat="42.618648" lon="1.330583">
        <ele>1575.22353065189</ele>
        <time>2019-08-05T16:18:33.000Z</time>
      </trkpt>
      <trkpt lat="42.618628" lon="1.330534">
        <ele>1575</ele>
        <time>2019-08-05T16:18:37.000Z</time>
      </trkpt>
      <trkpt lat="42.618616" lon="1.330387">
        <ele>1574</ele>
        <time>2019-08-05T16:18:48.000Z</time>
      </trkpt>
      <trkpt lat="42.618564" lon="1.330253">
        <ele>1572</ele>
        <time>2019-08-05T16:18:55.000Z</time>
      </trkpt>
      <trkpt lat="42.618549" lon="1.33018">
        <ele>1572</ele>
        <time>2019-08-05T16:19:00.000Z</time>
      </trkpt>
      <trkpt lat="42.618522" lon="1.330134">
        <ele>1571</ele>
        <time>2019-08-05T16:19:04.000Z</time>
      </trkpt>
      <trkpt lat="42.618492" lon="1.329992">
        <ele>1569</ele>
        <time>2019-08-05T16:19:13.000Z</time>
      </trkpt>
      <trkpt lat="42.618531" lon="1.329845">
        <ele>1567</ele>
        <time>2019-08-05T16:19:22.000Z</time>
      </trkpt>
      <trkpt lat="42.618616" lon="1.329743">
        <ele>1565</ele>
        <time>2019-08-05T16:19:32.000Z</time>
      </trkpt>
      <trkpt lat="42.61869" lon="1.329656">
        <ele>1560</ele>
        <time>2019-08-05T16:19:53.000Z</time>
      </trkpt>
      <trkpt lat="42.618747" lon="1.329528">
        <ele>1558</ele>
        <time>2019-08-05T16:20:02.000Z</time>
      </trkpt>
      <trkpt lat="42.618786" lon="1.329375">
        <ele>1555</ele>
        <time>2019-08-05T16:20:15.000Z</time>
      </trkpt>
      <trkpt lat="42.618826" lon="1.329231">
        <ele>1552</ele>
        <time>2019-08-05T16:20:26.000Z</time>
      </trkpt>
      <trkpt lat="42.618915" lon="1.329135">
        <ele>1550</ele>
        <time>2019-08-05T16:20:36.000Z</time>
      </trkpt>
      <trkpt lat="42.618969" lon="1.328999">
        <ele>1547.25688148809</ele>
        <time>2019-08-05T16:20:47.000Z</time>
      </trkpt>
      <trkpt lat="42.619021" lon="1.328867">
        <ele>1544</ele>
        <time>2019-08-05T16:20:58.000Z</time>
      </trkpt>
      <trkpt lat="42.619018" lon="1.328699">
        <ele>1541</ele>
        <time>2019-08-05T16:21:15.000Z</time>
      </trkpt>
      <trkpt lat="42.618947" lon="1.328595">
        <ele>1540</ele>
        <time>2019-08-05T16:21:26.000Z</time>
      </trkpt>
      <trkpt lat="42.618912" lon="1.328563">
        <ele>1538.19792</ele>
        <time>2019-08-05T16:21:30.000Z</time>
      </trkpt>
      <trkpt lat="42.618809" lon="1.328521">
        <ele>1537</ele>
        <time>2019-08-05T16:21:41.000Z</time>
      </trkpt>
      <trkpt lat="42.618705" lon="1.328454">
        <ele>1537</ele>
        <time>2019-08-05T16:21:48.000Z</time>
      </trkpt>
      <trkpt lat="42.618612" lon="1.328375">
        <ele>1536</ele>
        <time>2019-08-05T16:21:59.000Z</time>
      </trkpt>
      <trkpt lat="42.618559" lon="1.328295">
        <ele>1534</ele>
        <time>2019-08-05T16:22:08.000Z</time>
      </trkpt>
      <trkpt lat="42.618537" lon="1.328257">
        <ele>1533</ele>
        <time>2019-08-05T16:22:13.000Z</time>
      </trkpt>
      <trkpt lat="42.618539" lon="1.328204">
        <ele>1533</ele>
        <time>2019-08-05T16:22:16.000Z</time>
      </trkpt>
      <trkpt lat="42.61854" lon="1.328152">
        <ele>1532</ele>
        <time>2019-08-05T16:22:20.000Z</time>
      </trkpt>
      <trkpt lat="42.618534" lon="1.328098">
        <ele>1531</ele>
        <time>2019-08-05T16:22:24.000Z</time>
      </trkpt>
      <trkpt lat="42.618509" lon="1.327955">
        <ele>1529</ele>
        <time>2019-08-05T16:22:34.000Z</time>
      </trkpt>
      <trkpt lat="42.618497" lon="1.327801">
        <ele>1527</ele>
        <time>2019-08-05T16:22:44.000Z</time>
      </trkpt>
      <trkpt lat="42.61848" lon="1.32766">
        <ele>1526</ele>
        <time>2019-08-05T16:22:55.000Z</time>
      </trkpt>
      <trkpt lat="42.61844" lon="1.327514">
        <ele>1523</ele>
        <time>2019-08-05T16:23:09.000Z</time>
      </trkpt>
      <trkpt lat="42.618418" lon="1.327367">
        <ele>1521</ele>
        <time>2019-08-05T16:23:19.000Z</time>
      </trkpt>
      <trkpt lat="42.618395" lon="1.327227">
        <ele>1517</ele>
        <time>2019-08-05T16:23:35.000Z</time>
      </trkpt>
      <trkpt lat="42.618373" lon="1.327138">
        <ele>1516</ele>
        <time>2019-08-05T16:23:41.000Z</time>
      </trkpt>
      <trkpt lat="42.618371" lon="1.327075">
        <ele>1516</ele>
        <time>2019-08-05T16:23:44.000Z</time>
      </trkpt>
      <trkpt lat="42.618371" lon="1.327018">
        <ele>1514.23170941105</ele>
        <time>2019-08-05T16:23:48.000Z</time>
      </trkpt>
      <trkpt lat="42.618364" lon="1.326967">
        <ele>1513</ele>
        <time>2019-08-05T16:23:52.000Z</time>
      </trkpt>
      <trkpt lat="42.618355" lon="1.326813">
        <ele>1511</ele>
        <time>2019-08-05T16:24:07.000Z</time>
      </trkpt>
      <trkpt lat="42.618368" lon="1.326664">
        <ele>1509</ele>
        <time>2019-08-05T16:24:18.000Z</time>
      </trkpt>
      <trkpt lat="42.618346" lon="1.326573">
        <ele>1508</ele>
        <time>2019-08-05T16:24:24.000Z</time>
      </trkpt>
      <trkpt lat="42.618314" lon="1.326412">
        <ele>1506</ele>
        <time>2019-08-05T16:24:33.000Z</time>
      </trkpt>
      <trkpt lat="42.618303" lon="1.326255">
        <ele>1504</ele>
        <time>2019-08-05T16:24:45.000Z</time>
      </trkpt>
      <trkpt lat="42.618282" lon="1.326108">
        <ele>1503</ele>
        <time>2019-08-05T16:24:56.000Z</time>
      </trkpt>
      <trkpt lat="42.618235" lon="1.325974">
        <ele>1501</ele>
        <time>2019-08-05T16:25:04.000Z</time>
      </trkpt>
      <trkpt lat="42.618235" lon="1.325823">
        <ele>1499</ele>
        <time>2019-08-05T16:25:13.000Z</time>
      </trkpt>
      <trkpt lat="42.618303" lon="1.325695">
        <ele>1498</ele>
        <time>2019-08-05T16:25:22.000Z</time>
      </trkpt>
      <trkpt lat="42.618352" lon="1.325565">
        <ele>1495.29565691643</ele>
        <time>2019-08-05T16:25:31.000Z</time>
      </trkpt>
      <trkpt lat="42.618314" lon="1.325414">
        <ele>1493.1900032</ele>
        <time>2019-08-05T16:25:40.000Z</time>
      </trkpt>
      <trkpt lat="42.618302" lon="1.325269">
        <ele>1491</ele>
        <time>2019-08-05T16:25:51.000Z</time>
      </trkpt>
      <trkpt lat="42.618302" lon="1.325115">
        <ele>1490</ele>
        <time>2019-08-05T16:26:02.000Z</time>
      </trkpt>
      <trkpt lat="42.6183" lon="1.324967">
        <ele>1487</ele>
        <time>2019-08-05T16:26:12.000Z</time>
      </trkpt>
      <trkpt lat="42.618234" lon="1.32484">
        <ele>1485</ele>
        <time>2019-08-05T16:26:23.000Z</time>
      </trkpt>
      <trkpt lat="42.618202" lon="1.3247">
        <ele>1485</ele>
        <time>2019-08-05T16:26:33.000Z</time>
      </trkpt>
      <trkpt lat="42.618134" lon="1.324579">
        <ele>1483</ele>
        <time>2019-08-05T16:26:43.000Z</time>
      </trkpt>
      <trkpt lat="42.618054" lon="1.324473">
        <ele>1481</ele>
        <time>2019-08-05T16:26:51.000Z</time>
      </trkpt>
      <trkpt lat="42.617977" lon="1.324367">
        <ele>1479</ele>
        <time>2019-08-05T16:27:02.000Z</time>
      </trkpt>
      <trkpt lat="42.617908" lon="1.324247">
        <ele>1477</ele>
        <time>2019-08-05T16:27:12.000Z</time>
      </trkpt>
      <trkpt lat="42.617872" lon="1.324091">
        <ele>1475</ele>
        <time>2019-08-05T16:27:22.000Z</time>
      </trkpt>
      <trkpt lat="42.617853" lon="1.324046">
        <ele>1475</ele>
        <time>2019-08-05T16:27:26.000Z</time>
      </trkpt>
      <trkpt lat="42.617812" lon="1.323905">
        <ele>1473</ele>
        <time>2019-08-05T16:27:38.000Z</time>
      </trkpt>
      <trkpt lat="42.617798" lon="1.323859">
        <ele>1474</ele>
        <time>2019-08-05T16:27:41.000Z</time>
      </trkpt>
      <trkpt lat="42.617764" lon="1.323816">
        <ele>1471.19192180389</ele>
        <time>2019-08-05T16:27:45.000Z</time>
      </trkpt>
      <trkpt lat="42.617731" lon="1.323793">
        <ele>1471</ele>
        <time>2019-08-05T16:27:48.000Z</time>
      </trkpt>
      <trkpt lat="42.617693" lon="1.323764">
        <ele>1472</ele>
        <time>2019-08-05T16:27:52.000Z</time>
      </trkpt>
      <trkpt lat="42.617658" lon="1.323738">
        <ele>1472</ele>
        <time>2019-08-05T16:27:56.000Z</time>
      </trkpt>
      <trkpt lat="42.617622" lon="1.323718">
        <ele>1471</ele>
        <time>2019-08-05T16:28:00.000Z</time>
      </trkpt>
      <trkpt lat="42.617592" lon="1.323684">
        <ele>1470.21348750917</ele>
        <time>2019-08-05T16:28:05.000Z</time>
      </trkpt>
      <trkpt lat="42.617585" lon="1.323633">
        <ele>1470</ele>
        <time>2019-08-05T16:28:23.000Z</time>
      </trkpt>
      <trkpt lat="42.617567" lon="1.323587">
        <ele>1470</ele>
        <time>2019-08-05T16:28:35.000Z</time>
      </trkpt>
      <trkpt lat="42.617539" lon="1.323543">
        <ele>1470</ele>
        <time>2019-08-05T16:28:43.000Z</time>
      </trkpt>
      <trkpt lat="42.617505" lon="1.323513">
        <ele>1470</ele>
        <time>2019-08-05T16:28:47.000Z</time>
      </trkpt>
      <trkpt lat="42.617471" lon="1.323479">
        <ele>1469</ele>
        <time>2019-08-05T16:28:59.000Z</time>
      </trkpt>
      <trkpt lat="42.617431" lon="1.323452">
        <ele>1469</ele>
        <time>2019-08-05T16:29:06.000Z</time>
      </trkpt>
      <trkpt lat="42.617393" lon="1.323435">
        <ele>1469</ele>
        <time>2019-08-05T16:29:10.000Z</time>
      </trkpt>
      <trkpt lat="42.617353" lon="1.323428">
        <ele>1469</ele>
        <time>2019-08-05T16:29:15.000Z</time>
      </trkpt>
      <trkpt lat="42.617302" lon="1.323422">
        <ele>1469.213597783</ele>
        <time>2019-08-05T16:29:22.000Z</time>
      </trkpt>
      <trkpt lat="42.617261" lon="1.323401">
        <ele>1469</ele>
        <time>2019-08-05T16:29:26.000Z</time>
      </trkpt>
      <trkpt lat="42.6172" lon="1.323272">
        <ele>1469</ele>
        <time>2019-08-05T16:29:34.000Z</time>
      </trkpt>
      <trkpt lat="42.617136" lon="1.323175">
        <ele>1468</ele>
        <time>2019-08-05T16:29:43.000Z</time>
      </trkpt>
      <trkpt lat="42.617089" lon="1.323108">
        <ele>1467</ele>
        <time>2019-08-05T16:29:48.000Z</time>
      </trkpt>
      <trkpt lat="42.617055" lon="1.323091">
        <ele>1467</ele>
        <time>2019-08-05T16:29:51.000Z</time>
      </trkpt>
      <trkpt lat="42.61701" lon="1.323092">
        <ele>1466</ele>
        <time>2019-08-05T16:29:56.000Z</time>
      </trkpt>
      <trkpt lat="42.616969" lon="1.323102">
        <ele>1465</ele>
        <time>2019-08-05T16:29:59.000Z</time>
      </trkpt>
      <trkpt lat="42.616906" lon="1.323062">
        <ele>1465</ele>
        <time>2019-08-05T16:30:07.000Z</time>
      </trkpt>
      <trkpt lat="42.616869" lon="1.323012">
        <ele>1464</ele>
        <time>2019-08-05T16:30:13.000Z</time>
      </trkpt>
      <trkpt lat="42.616851" lon="1.322969">
        <ele>1464</ele>
        <time>2019-08-05T16:30:16.000Z</time>
      </trkpt>
      <trkpt lat="42.616816" lon="1.322953">
        <ele>1464</ele>
        <time>2019-08-05T16:30:20.000Z</time>
      </trkpt>
      <trkpt lat="42.616777" lon="1.322943">
        <ele>1464</ele>
        <time>2019-08-05T16:30:25.000Z</time>
      </trkpt>
      <trkpt lat="42.616727" lon="1.322914">
        <ele>1464</ele>
        <time>2019-08-05T16:30:30.000Z</time>
      </trkpt>
      <trkpt lat="42.616691" lon="1.322872">
        <ele>1463</ele>
        <time>2019-08-05T16:30:35.000Z</time>
      </trkpt>
      <trkpt lat="42.616654" lon="1.322835">
        <ele>1462</ele>
        <time>2019-08-05T16:30:40.000Z</time>
      </trkpt>
      <trkpt lat="42.616626" lon="1.322804">
        <ele>1461</ele>
        <time>2019-08-05T16:30:46.000Z</time>
      </trkpt>
      <trkpt lat="42.616565" lon="1.322673">
        <ele>1457.19192180389</ele>
        <time>2019-08-05T16:31:01.000Z</time>
      </trkpt>
      <trkpt lat="42.616608" lon="1.322538">
        <ele>1455</ele>
        <time>2019-08-05T16:31:13.000Z</time>
      </trkpt>
      <trkpt lat="42.616634" lon="1.322512">
        <ele>1453</ele>
        <time>2019-08-05T16:31:25.000Z</time>
      </trkpt>
      <trkpt lat="42.616606" lon="1.322484">
        <ele>1450</ele>
        <time>2019-08-05T16:31:34.000Z</time>
      </trkpt>
      <trkpt lat="42.616503" lon="1.322425">
        <ele>1447</ele>
        <time>2019-08-05T16:31:50.000Z</time>
      </trkpt>
      <trkpt lat="42.61647" lon="1.322383">
        <ele>1445.45255113005</ele>
        <time>2019-08-05T16:31:55.000Z</time>
      </trkpt>
      <trkpt lat="42.616425" lon="1.322332">
        <ele>1444</ele>
        <time>2019-08-05T16:32:03.000Z</time>
      </trkpt>
      <trkpt lat="42.616389" lon="1.3223">
        <ele>1442.26027493337</ele>
        <time>2019-08-05T16:32:08.000Z</time>
      </trkpt>
      <trkpt lat="42.616351" lon="1.322307">
        <ele>1442</ele>
        <time>2019-08-05T16:32:11.000Z</time>
      </trkpt>
      <trkpt lat="42.616312" lon="1.322306">
        <ele>1442</ele>
        <time>2019-08-05T16:32:14.000Z</time>
      </trkpt>
      <trkpt lat="42.616275" lon="1.322306">
        <ele>1442</ele>
        <time>2019-08-05T16:32:17.000Z</time>
      </trkpt>
      <trkpt lat="42.616237" lon="1.322283">
        <ele>1442</ele>
        <time>2019-08-05T16:32:20.000Z</time>
      </trkpt>
      <trkpt lat="42.616188" lon="1.322278">
        <ele>1442</ele>
        <time>2019-08-05T16:32:24.000Z</time>
      </trkpt>
      <trkpt lat="42.616149" lon="1.322274">
        <ele>1441</ele>
        <time>2019-08-05T16:32:27.000Z</time>
      </trkpt>
      <trkpt lat="42.61611" lon="1.322274">
        <ele>1441</ele>
        <time>2019-08-05T16:32:30.000Z</time>
      </trkpt>
      <trkpt lat="42.616073" lon="1.32227">
        <ele>1441</ele>
        <time>2019-08-05T16:32:33.000Z</time>
      </trkpt>
      <trkpt lat="42.616031" lon="1.322259">
        <ele>1441</ele>
        <time>2019-08-05T16:32:37.000Z</time>
      </trkpt>
      <trkpt lat="42.615992" lon="1.32225">
        <ele>1439.21348750917</ele>
        <time>2019-08-05T16:32:41.000Z</time>
      </trkpt>
      <trkpt lat="42.615947" lon="1.322245">
        <ele>1440</ele>
        <time>2019-08-05T16:32:45.000Z</time>
      </trkpt>
      <trkpt lat="42.61591" lon="1.322241">
        <ele>1440</ele>
        <time>2019-08-05T16:32:48.000Z</time>
      </trkpt>
      <trkpt lat="42.615873" lon="1.32224">
        <ele>1440</ele>
        <time>2019-08-05T16:32:51.000Z</time>
      </trkpt>
      <trkpt lat="42.615836" lon="1.322242">
        <ele>1440</ele>
        <time>2019-08-05T16:32:54.000Z</time>
      </trkpt>
      <trkpt lat="42.615789" lon="1.322246">
        <ele>1440</ele>
        <time>2019-08-05T16:32:57.000Z</time>
      </trkpt>
      <trkpt lat="42.615752" lon="1.322243">
        <ele>1440</ele>
        <time>2019-08-05T16:33:00.000Z</time>
      </trkpt>
      <trkpt lat="42.615714" lon="1.322214">
        <ele>1440</ele>
        <time>2019-08-05T16:33:05.000Z</time>
      </trkpt>
      <trkpt lat="42.615677" lon="1.322206">
        <ele>1440</ele>
        <time>2019-08-05T16:33:08.000Z</time>
      </trkpt>
      <trkpt lat="42.615631" lon="1.3222">
        <ele>1439</ele>
        <time>2019-08-05T16:33:12.000Z</time>
      </trkpt>
      <trkpt lat="42.615593" lon="1.322203">
        <ele>1438.8099968</ele>
        <time>2019-08-05T16:33:15.000Z</time>
      </trkpt>
      <trkpt lat="42.615555" lon="1.322203">
        <ele>1438.28318664265</ele>
        <time>2019-08-05T16:33:18.000Z</time>
      </trkpt>
      <trkpt lat="42.615513" lon="1.322206">
        <ele>1438</ele>
        <time>2019-08-05T16:33:22.000Z</time>
      </trkpt>
      <trkpt lat="42.615476" lon="1.322212">
        <ele>1438</ele>
        <time>2019-08-05T16:33:25.000Z</time>
      </trkpt>
      <trkpt lat="42.615425" lon="1.322215">
        <ele>1438</ele>
        <time>2019-08-05T16:33:29.000Z</time>
      </trkpt>
      <trkpt lat="42.615377" lon="1.322224">
        <ele>1438</ele>
        <time>2019-08-05T16:33:33.000Z</time>
      </trkpt>
      <trkpt lat="42.615332" lon="1.322228">
        <ele>1438</ele>
        <time>2019-08-05T16:33:37.000Z</time>
      </trkpt>
      <trkpt lat="42.615283" lon="1.322231">
        <ele>1438</ele>
        <time>2019-08-05T16:33:42.000Z</time>
      </trkpt>
      <trkpt lat="42.61524" lon="1.322233">
        <ele>1437.1900032</ele>
        <time>2019-08-05T16:33:46.000Z</time>
      </trkpt>
      <trkpt lat="42.615194" lon="1.322228">
        <ele>1438</ele>
        <time>2019-08-05T16:33:50.000Z</time>
      </trkpt>
      <trkpt lat="42.615152" lon="1.322222">
        <ele>1437</ele>
        <time>2019-08-05T16:33:54.000Z</time>
      </trkpt>
      <trkpt lat="42.615111" lon="1.322218">
        <ele>1437</ele>
        <time>2019-08-05T16:33:57.000Z</time>
      </trkpt>
      <trkpt lat="42.615065" lon="1.322213">
        <ele>1437</ele>
        <time>2019-08-05T16:34:01.000Z</time>
      </trkpt>
      <trkpt lat="42.615026" lon="1.322202">
        <ele>1437</ele>
        <time>2019-08-05T16:34:04.000Z</time>
      </trkpt>
      <trkpt lat="42.614986" lon="1.322216">
        <ele>1437</ele>
        <time>2019-08-05T16:34:08.000Z</time>
      </trkpt>
      <trkpt lat="42.614939" lon="1.322224">
        <ele>1437</ele>
        <time>2019-08-05T16:34:12.000Z</time>
      </trkpt>
      <trkpt lat="42.614896" lon="1.322246">
        <ele>1436.1900032</ele>
        <time>2019-08-05T16:34:16.000Z</time>
      </trkpt>
      <trkpt lat="42.614856" lon="1.322253">
        <ele>1436</ele>
        <time>2019-08-05T16:34:20.000Z</time>
      </trkpt>
      <trkpt lat="42.614815" lon="1.322268">
        <ele>1436</ele>
        <time>2019-08-05T16:34:24.000Z</time>
      </trkpt>
      <trkpt lat="42.614774" lon="1.322293">
        <ele>1435</ele>
        <time>2019-08-05T16:34:29.000Z</time>
      </trkpt>
      <trkpt lat="42.614736" lon="1.322296">
        <ele>1435</ele>
        <time>2019-08-05T16:34:33.000Z</time>
      </trkpt>
      <trkpt lat="42.614696" lon="1.3223">
        <ele>1434</ele>
        <time>2019-08-05T16:34:37.000Z</time>
      </trkpt>
      <trkpt lat="42.614651" lon="1.322305">
        <ele>1434</ele>
        <time>2019-08-05T16:34:41.000Z</time>
      </trkpt>
      <trkpt lat="42.614613" lon="1.32231">
        <ele>1433</ele>
        <time>2019-08-05T16:34:44.000Z</time>
      </trkpt>
      <trkpt lat="42.614566" lon="1.322313">
        <ele>1433</ele>
        <time>2019-08-05T16:34:48.000Z</time>
      </trkpt>
      <trkpt lat="42.614529" lon="1.322317">
        <ele>1433</ele>
        <time>2019-08-05T16:34:51.000Z</time>
      </trkpt>
      <trkpt lat="42.614481" lon="1.322308">
        <ele>1433</ele>
        <time>2019-08-05T16:34:55.000Z</time>
      </trkpt>
      <trkpt lat="42.614447" lon="1.322292">
        <ele>1433</ele>
        <time>2019-08-05T16:34:58.000Z</time>
      </trkpt>
      <trkpt lat="42.614406" lon="1.322268">
        <ele>1432</ele>
        <time>2019-08-05T16:35:02.000Z</time>
      </trkpt>
      <trkpt lat="42.614372" lon="1.322251">
        <ele>1433</ele>
        <time>2019-08-05T16:35:05.000Z</time>
      </trkpt>
      <trkpt lat="42.614335" lon="1.322234">
        <ele>1432</ele>
        <time>2019-08-05T16:35:08.000Z</time>
      </trkpt>
      <trkpt lat="42.614291" lon="1.32222">
        <ele>1432</ele>
        <time>2019-08-05T16:35:12.000Z</time>
      </trkpt>
      <trkpt lat="42.614257" lon="1.3222">
        <ele>1432</ele>
        <time>2019-08-05T16:35:15.000Z</time>
      </trkpt>
      <trkpt lat="42.614226" lon="1.322159">
        <ele>1432</ele>
        <time>2019-08-05T16:35:26.000Z</time>
      </trkpt>
      <trkpt lat="42.614183" lon="1.322148">
        <ele>1432</ele>
        <time>2019-08-05T16:35:30.000Z</time>
      </trkpt>
      <trkpt lat="42.614145" lon="1.322142">
        <ele>1432</ele>
        <time>2019-08-05T16:35:33.000Z</time>
      </trkpt>
      <trkpt lat="42.6141" lon="1.322127">
        <ele>1432</ele>
        <time>2019-08-05T16:35:37.000Z</time>
      </trkpt>
      <trkpt lat="42.614057" lon="1.322115">
        <ele>1431</ele>
        <time>2019-08-05T16:35:41.000Z</time>
      </trkpt>
      <trkpt lat="42.614017" lon="1.322101">
        <ele>1430</ele>
        <time>2019-08-05T16:35:45.000Z</time>
      </trkpt>
      <trkpt lat="42.61398" lon="1.322081">
        <ele>1430</ele>
        <time>2019-08-05T16:35:49.000Z</time>
      </trkpt>
      <trkpt lat="42.613944" lon="1.322073">
        <ele>1429</ele>
        <time>2019-08-05T16:35:53.000Z</time>
      </trkpt>
      <trkpt lat="42.613905" lon="1.322065">
        <ele>1429</ele>
        <time>2019-08-05T16:35:57.000Z</time>
      </trkpt>
      <trkpt lat="42.61387" lon="1.322056">
        <ele>1428</ele>
        <time>2019-08-05T16:36:00.000Z</time>
      </trkpt>
      <trkpt lat="42.61383" lon="1.322039">
        <ele>1428</ele>
        <time>2019-08-05T16:36:04.000Z</time>
      </trkpt>
      <trkpt lat="42.613791" lon="1.322031">
        <ele>1428</ele>
        <time>2019-08-05T16:36:08.000Z</time>
      </trkpt>
      <trkpt lat="42.613755" lon="1.322014">
        <ele>1428</ele>
        <time>2019-08-05T16:36:11.000Z</time>
      </trkpt>
      <trkpt lat="42.613716" lon="1.322001">
        <ele>1427</ele>
        <time>2019-08-05T16:36:14.000Z</time>
      </trkpt>
      <trkpt lat="42.613671" lon="1.321982">
        <ele>1427</ele>
        <time>2019-08-05T16:36:18.000Z</time>
      </trkpt>
      <trkpt lat="42.613633" lon="1.321973">
        <ele>1427</ele>
        <time>2019-08-05T16:36:21.000Z</time>
      </trkpt>
      <trkpt lat="42.613597" lon="1.321965">
        <ele>1426</ele>
        <time>2019-08-05T16:36:24.000Z</time>
      </trkpt>
      <trkpt lat="42.613566" lon="1.321937">
        <ele>1426</ele>
        <time>2019-08-05T16:36:27.000Z</time>
      </trkpt>
      <trkpt lat="42.613527" lon="1.321901">
        <ele>1426</ele>
        <time>2019-08-05T16:36:31.000Z</time>
      </trkpt>
      <trkpt lat="42.613491" lon="1.321877">
        <ele>1426</ele>
        <time>2019-08-05T16:36:35.000Z</time>
      </trkpt>
      <trkpt lat="42.613466" lon="1.321844">
        <ele>1425</ele>
        <time>2019-08-05T16:36:38.000Z</time>
      </trkpt>
      <trkpt lat="42.613439" lon="1.321801">
        <ele>1425</ele>
        <time>2019-08-05T16:36:41.000Z</time>
      </trkpt>
      <trkpt lat="42.613415" lon="1.321764">
        <ele>1424</ele>
        <time>2019-08-05T16:36:44.000Z</time>
      </trkpt>
      <trkpt lat="42.613386" lon="1.321713">
        <ele>1424</ele>
        <time>2019-08-05T16:36:48.000Z</time>
      </trkpt>
      <trkpt lat="42.61336" lon="1.321658">
        <ele>1424</ele>
        <time>2019-08-05T16:36:52.000Z</time>
      </trkpt>
      <trkpt lat="42.613344" lon="1.321599">
        <ele>1424</ele>
        <time>2019-08-05T16:36:56.000Z</time>
      </trkpt>
      <trkpt lat="42.613333" lon="1.321539">
        <ele>1424</ele>
        <time>2019-08-05T16:37:00.000Z</time>
      </trkpt>
      <trkpt lat="42.61333" lon="1.321488">
        <ele>1424</ele>
        <time>2019-08-05T16:37:03.000Z</time>
      </trkpt>
      <trkpt lat="42.613333" lon="1.321433">
        <ele>1424</ele>
        <time>2019-08-05T16:37:06.000Z</time>
      </trkpt>
      <trkpt lat="42.61333" lon="1.321375">
        <ele>1423</ele>
        <time>2019-08-05T16:37:10.000Z</time>
      </trkpt>
      <trkpt lat="42.613328" lon="1.321322">
        <ele>1423</ele>
        <time>2019-08-05T16:37:13.000Z</time>
      </trkpt>
      <trkpt lat="42.613318" lon="1.321272">
        <ele>1423</ele>
        <time>2019-08-05T16:37:16.000Z</time>
      </trkpt>
      <trkpt lat="42.613296" lon="1.321214">
        <ele>1422.1900032</ele>
        <time>2019-08-05T16:37:20.000Z</time>
      </trkpt>
      <trkpt lat="42.613266" lon="1.32117">
        <ele>1422</ele>
        <time>2019-08-05T16:37:24.000Z</time>
      </trkpt>
      <trkpt lat="42.613238" lon="1.321135">
        <ele>1421</ele>
        <time>2019-08-05T16:37:27.000Z</time>
      </trkpt>
      <trkpt lat="42.613204" lon="1.321098">
        <ele>1421</ele>
        <time>2019-08-05T16:37:31.000Z</time>
      </trkpt>
      <trkpt lat="42.613169" lon="1.32106">
        <ele>1420.20652521739</ele>
        <time>2019-08-05T16:37:35.000Z</time>
      </trkpt>
      <trkpt lat="42.61314" lon="1.321034">
        <ele>1420</ele>
        <time>2019-08-05T16:37:38.000Z</time>
      </trkpt>
      <trkpt lat="42.61311" lon="1.321004">
        <ele>1420</ele>
        <time>2019-08-05T16:37:41.000Z</time>
      </trkpt>
      <trkpt lat="42.61308" lon="1.320968">
        <ele>1421</ele>
        <time>2019-08-05T16:37:44.000Z</time>
      </trkpt>
      <trkpt lat="42.613044" lon="1.320932">
        <ele>1420</ele>
        <time>2019-08-05T16:37:48.000Z</time>
      </trkpt>
      <trkpt lat="42.613008" lon="1.320897">
        <ele>1420</ele>
        <time>2019-08-05T16:37:52.000Z</time>
      </trkpt>
      <trkpt lat="42.612984" lon="1.32086">
        <ele>1420</ele>
        <time>2019-08-05T16:37:55.000Z</time>
      </trkpt>
      <trkpt lat="42.612958" lon="1.320821">
        <ele>1420</ele>
        <time>2019-08-05T16:37:58.000Z</time>
      </trkpt>
      <trkpt lat="42.612921" lon="1.320784">
        <ele>1420</ele>
        <time>2019-08-05T16:38:02.000Z</time>
      </trkpt>
      <trkpt lat="42.612879" lon="1.320732">
        <ele>1419.20212968763</ele>
        <time>2019-08-05T16:38:07.000Z</time>
      </trkpt>
      <trkpt lat="42.612852" lon="1.320682">
        <ele>1418</ele>
        <time>2019-08-05T16:38:11.000Z</time>
      </trkpt>
      <trkpt lat="42.612816" lon="1.320648">
        <ele>1418</ele>
        <time>2019-08-05T16:38:15.000Z</time>
      </trkpt>
      <trkpt lat="42.612774" lon="1.320622">
        <ele>1418</ele>
        <time>2019-08-05T16:38:20.000Z</time>
      </trkpt>
      <trkpt lat="42.612744" lon="1.320593">
        <ele>1418</ele>
        <time>2019-08-05T16:38:23.000Z</time>
      </trkpt>
      <trkpt lat="42.612708" lon="1.320557">
        <ele>1418</ele>
        <time>2019-08-05T16:38:27.000Z</time>
      </trkpt>
      <trkpt lat="42.612676" lon="1.320532">
        <ele>1418</ele>
        <time>2019-08-05T16:38:30.000Z</time>
      </trkpt>
      <trkpt lat="42.61264" lon="1.320503">
        <ele>1418</ele>
        <time>2019-08-05T16:38:34.000Z</time>
      </trkpt>
      <trkpt lat="42.612601" lon="1.32047">
        <ele>1417.20588050749</ele>
        <time>2019-08-05T16:38:38.000Z</time>
      </trkpt>
      <trkpt lat="42.612563" lon="1.320438">
        <ele>1417</ele>
        <time>2019-08-05T16:38:42.000Z</time>
      </trkpt>
      <trkpt lat="42.612527" lon="1.320404">
        <ele>1417</ele>
        <time>2019-08-05T16:38:46.000Z</time>
      </trkpt>
      <trkpt lat="42.612488" lon="1.320376">
        <ele>1417</ele>
        <time>2019-08-05T16:38:50.000Z</time>
      </trkpt>
      <trkpt lat="42.612446" lon="1.32036">
        <ele>1416.1900032</ele>
        <time>2019-08-05T16:38:54.000Z</time>
      </trkpt>
      <trkpt lat="42.612402" lon="1.320344">
        <ele>1416</ele>
        <time>2019-08-05T16:38:58.000Z</time>
      </trkpt>
      <trkpt lat="42.612361" lon="1.320324">
        <ele>1416</ele>
        <time>2019-08-05T16:39:02.000Z</time>
      </trkpt>
      <trkpt lat="42.612316" lon="1.320306">
        <ele>1415</ele>
        <time>2019-08-05T16:39:06.000Z</time>
      </trkpt>
      <trkpt lat="42.612272" lon="1.320302">
        <ele>1415</ele>
        <time>2019-08-05T16:39:10.000Z</time>
      </trkpt>
      <trkpt lat="42.612225" lon="1.320295">
        <ele>1415</ele>
        <time>2019-08-05T16:39:14.000Z</time>
      </trkpt>
      <trkpt lat="42.61218" lon="1.320285">
        <ele>1415</ele>
        <time>2019-08-05T16:39:18.000Z</time>
      </trkpt>
      <trkpt lat="42.612136" lon="1.320276">
        <ele>1415</ele>
        <time>2019-08-05T16:39:22.000Z</time>
      </trkpt>
      <trkpt lat="42.612094" lon="1.320263">
        <ele>1415</ele>
        <time>2019-08-05T16:39:26.000Z</time>
      </trkpt>
      <trkpt lat="42.612055" lon="1.320269">
        <ele>1414</ele>
        <time>2019-08-05T16:39:30.000Z</time>
      </trkpt>
      <trkpt lat="42.61201" lon="1.320288">
        <ele>1414</ele>
        <time>2019-08-05T16:39:34.000Z</time>
      </trkpt>
      <trkpt lat="42.611967" lon="1.320305">
        <ele>1414</ele>
        <time>2019-08-05T16:39:38.000Z</time>
      </trkpt>
      <trkpt lat="42.611927" lon="1.320308">
        <ele>1415</ele>
        <time>2019-08-05T16:39:41.000Z</time>
      </trkpt>
      <trkpt lat="42.611875" lon="1.320302">
        <ele>1415</ele>
        <time>2019-08-05T16:39:45.000Z</time>
      </trkpt>
      <trkpt lat="42.611837" lon="1.3203">
        <ele>1415</ele>
        <time>2019-08-05T16:39:48.000Z</time>
      </trkpt>
      <trkpt lat="42.611791" lon="1.320294">
        <ele>1414.1900032</ele>
        <time>2019-08-05T16:39:52.000Z</time>
      </trkpt>
      <trkpt lat="42.611746" lon="1.320298">
        <ele>1414</ele>
        <time>2019-08-05T16:39:56.000Z</time>
      </trkpt>
      <trkpt lat="42.611705" lon="1.320302">
        <ele>1414</ele>
        <time>2019-08-05T16:39:59.000Z</time>
      </trkpt>
      <trkpt lat="42.61166" lon="1.320302">
        <ele>1414</ele>
        <time>2019-08-05T16:40:03.000Z</time>
      </trkpt>
      <trkpt lat="42.61162" lon="1.320307">
        <ele>1414</ele>
        <time>2019-08-05T16:40:07.000Z</time>
      </trkpt>
      <trkpt lat="42.611576" lon="1.320294">
        <ele>1413</ele>
        <time>2019-08-05T16:40:10.000Z</time>
      </trkpt>
      <trkpt lat="42.611542" lon="1.320276">
        <ele>1413</ele>
        <time>2019-08-05T16:40:12.000Z</time>
      </trkpt>
      <trkpt lat="42.611507" lon="1.320233">
        <ele>1413</ele>
        <time>2019-08-05T16:40:14.000Z</time>
      </trkpt>
      <trkpt lat="42.611471" lon="1.320238">
        <ele>1413</ele>
        <time>2019-08-05T16:40:17.000Z</time>
      </trkpt>
      <trkpt lat="42.611423" lon="1.320225">
        <ele>1413</ele>
        <time>2019-08-05T16:40:21.000Z</time>
      </trkpt>
      <trkpt lat="42.611384" lon="1.320216">
        <ele>1413</ele>
        <time>2019-08-05T16:40:25.000Z</time>
      </trkpt>
      <trkpt lat="42.611342" lon="1.320194">
        <ele>1413</ele>
        <time>2019-08-05T16:40:29.000Z</time>
      </trkpt>
      <trkpt lat="42.6113" lon="1.320165">
        <ele>1414</ele>
        <time>2019-08-05T16:40:33.000Z</time>
      </trkpt>
      <trkpt lat="42.611265" lon="1.320148">
        <ele>1413</ele>
        <time>2019-08-05T16:40:36.000Z</time>
      </trkpt>
      <trkpt lat="42.61123" lon="1.32012">
        <ele>1413</ele>
        <time>2019-08-05T16:40:39.000Z</time>
      </trkpt>
      <trkpt lat="42.611187" lon="1.320086">
        <ele>1413</ele>
        <time>2019-08-05T16:40:43.000Z</time>
      </trkpt>
      <trkpt lat="42.611151" lon="1.320052">
        <ele>1413</ele>
        <time>2019-08-05T16:40:46.000Z</time>
      </trkpt>
      <trkpt lat="42.611117" lon="1.320025">
        <ele>1413.26363498842</ele>
        <time>2019-08-05T16:40:49.000Z</time>
      </trkpt>
      <trkpt lat="42.611079" lon="1.32">
        <ele>1413</ele>
        <time>2019-08-05T16:40:53.000Z</time>
      </trkpt>
      <trkpt lat="42.61104" lon="1.319982">
        <ele>1414</ele>
        <time>2019-08-05T16:40:57.000Z</time>
      </trkpt>
      <trkpt lat="42.610997" lon="1.319975">
        <ele>1414</ele>
        <time>2019-08-05T16:41:01.000Z</time>
      </trkpt>
      <trkpt lat="42.610955" lon="1.31996">
        <ele>1413</ele>
        <time>2019-08-05T16:41:05.000Z</time>
      </trkpt>
      <trkpt lat="42.61092" lon="1.319937">
        <ele>1413</ele>
        <time>2019-08-05T16:41:08.000Z</time>
      </trkpt>
      <trkpt lat="42.610879" lon="1.319916">
        <ele>1413</ele>
        <time>2019-08-05T16:41:12.000Z</time>
      </trkpt>
      <trkpt lat="42.610838" lon="1.319876">
        <ele>1413</ele>
        <time>2019-08-05T16:41:16.000Z</time>
      </trkpt>
      <trkpt lat="42.610806" lon="1.319845">
        <ele>1413</ele>
        <time>2019-08-05T16:41:19.000Z</time>
      </trkpt>
      <trkpt lat="42.610773" lon="1.319826">
        <ele>1413</ele>
        <time>2019-08-05T16:41:22.000Z</time>
      </trkpt>
      <trkpt lat="42.610738" lon="1.319798">
        <ele>1413</ele>
        <time>2019-08-05T16:41:25.000Z</time>
      </trkpt>
      <trkpt lat="42.610693" lon="1.319782">
        <ele>1413</ele>
        <time>2019-08-05T16:41:29.000Z</time>
      </trkpt>
      <trkpt lat="42.610649" lon="1.319774">
        <ele>1414</ele>
        <time>2019-08-05T16:41:33.000Z</time>
      </trkpt>
      <trkpt lat="42.610606" lon="1.319755">
        <ele>1414</ele>
        <time>2019-08-05T16:41:37.000Z</time>
      </trkpt>
      <trkpt lat="42.61056" lon="1.319752">
        <ele>1414</ele>
        <time>2019-08-05T16:41:42.000Z</time>
      </trkpt>
      <trkpt lat="42.610521" lon="1.319754">
        <ele>1414</ele>
        <time>2019-08-05T16:41:45.000Z</time>
      </trkpt>
      <trkpt lat="42.610483" lon="1.319747">
        <ele>1414</ele>
        <time>2019-08-05T16:41:49.000Z</time>
      </trkpt>
      <trkpt lat="42.610447" lon="1.319749">
        <ele>1414</ele>
        <time>2019-08-05T16:41:52.000Z</time>
      </trkpt>
      <trkpt lat="42.610408" lon="1.31977">
        <ele>1415</ele>
        <time>2019-08-05T16:41:55.000Z</time>
      </trkpt>
      <trkpt lat="42.61037" lon="1.319808">
        <ele>1415</ele>
        <time>2019-08-05T16:41:58.000Z</time>
      </trkpt>
      <trkpt lat="42.610325" lon="1.319813">
        <ele>1415</ele>
        <time>2019-08-05T16:42:02.000Z</time>
      </trkpt>
      <trkpt lat="42.610285" lon="1.319811">
        <ele>1415</ele>
        <time>2019-08-05T16:42:05.000Z</time>
      </trkpt>
      <trkpt lat="42.610247" lon="1.319809">
        <ele>1415</ele>
        <time>2019-08-05T16:42:08.000Z</time>
      </trkpt>
      <trkpt lat="42.61021" lon="1.319802">
        <ele>1415</ele>
        <time>2019-08-05T16:42:11.000Z</time>
      </trkpt>
      <trkpt lat="42.610166" lon="1.319804">
        <ele>1415</ele>
        <time>2019-08-05T16:42:15.000Z</time>
      </trkpt>
      <trkpt lat="42.610129" lon="1.319785">
        <ele>1415</ele>
        <time>2019-08-05T16:42:18.000Z</time>
      </trkpt>
      <trkpt lat="42.610092" lon="1.319758">
        <ele>1414</ele>
        <time>2019-08-05T16:42:22.000Z</time>
      </trkpt>
      <trkpt lat="42.610053" lon="1.319739">
        <ele>1414</ele>
        <time>2019-08-05T16:42:25.000Z</time>
      </trkpt>
      <trkpt lat="42.610017" lon="1.319711">
        <ele>1414</ele>
        <time>2019-08-05T16:42:28.000Z</time>
      </trkpt>
      <trkpt lat="42.609984" lon="1.319685">
        <ele>1414</ele>
        <time>2019-08-05T16:42:31.000Z</time>
      </trkpt>
      <trkpt lat="42.609948" lon="1.319647">
        <ele>1413</ele>
        <time>2019-08-05T16:42:35.000Z</time>
      </trkpt>
      <trkpt lat="42.609915" lon="1.319614">
        <ele>1412.20879399105</ele>
        <time>2019-08-05T16:42:39.000Z</time>
      </trkpt>
      <trkpt lat="42.609886" lon="1.319574">
        <ele>1412</ele>
        <time>2019-08-05T16:42:43.000Z</time>
      </trkpt>
      <trkpt lat="42.609865" lon="1.31953">
        <ele>1412</ele>
        <time>2019-08-05T16:42:46.000Z</time>
      </trkpt>
      <trkpt lat="42.60984" lon="1.319493">
        <ele>1412</ele>
        <time>2019-08-05T16:42:49.000Z</time>
      </trkpt>
      <trkpt lat="42.609809" lon="1.31945">
        <ele>1412</ele>
        <time>2019-08-05T16:42:53.000Z</time>
      </trkpt>
      <trkpt lat="42.609795" lon="1.319402">
        <ele>1412</ele>
        <time>2019-08-05T16:42:56.000Z</time>
      </trkpt>
      <trkpt lat="42.609778" lon="1.319356">
        <ele>1410</ele>
        <time>2019-08-05T16:42:59.000Z</time>
      </trkpt>
      <trkpt lat="42.609749" lon="1.319309">
        <ele>1410</ele>
        <time>2019-08-05T16:43:03.000Z</time>
      </trkpt>
      <trkpt lat="42.609716" lon="1.319267">
        <ele>1409</ele>
        <time>2019-08-05T16:43:07.000Z</time>
      </trkpt>
      <trkpt lat="42.609678" lon="1.319239">
        <ele>1409</ele>
        <time>2019-08-05T16:43:11.000Z</time>
      </trkpt>
      <trkpt lat="42.609638" lon="1.31922">
        <ele>1408.26027949712</ele>
        <time>2019-08-05T16:43:15.000Z</time>
      </trkpt>
      <trkpt lat="42.609596" lon="1.319208">
        <ele>1408</ele>
        <time>2019-08-05T16:43:19.000Z</time>
      </trkpt>
      <trkpt lat="42.609556" lon="1.3192">
        <ele>1408</ele>
        <time>2019-08-05T16:43:23.000Z</time>
      </trkpt>
      <trkpt lat="42.609517" lon="1.319202">
        <ele>1408</ele>
        <time>2019-08-05T16:43:26.000Z</time>
      </trkpt>
      <trkpt lat="42.609471" lon="1.31921">
        <ele>1407.20212968763</ele>
        <time>2019-08-05T16:43:30.000Z</time>
      </trkpt>
      <trkpt lat="42.609435" lon="1.319207">
        <ele>1407</ele>
        <time>2019-08-05T16:43:33.000Z</time>
      </trkpt>
      <trkpt lat="42.609396" lon="1.319205">
        <ele>1407</ele>
        <time>2019-08-05T16:43:36.000Z</time>
      </trkpt>
      <trkpt lat="42.609361" lon="1.31919">
        <ele>1407</ele>
        <time>2019-08-05T16:43:39.000Z</time>
      </trkpt>
      <trkpt lat="42.609325" lon="1.319172">
        <ele>1407</ele>
        <time>2019-08-05T16:43:42.000Z</time>
      </trkpt>
      <trkpt lat="42.609289" lon="1.319153">
        <ele>1406</ele>
        <time>2019-08-05T16:43:45.000Z</time>
      </trkpt>
      <trkpt lat="42.609256" lon="1.319116">
        <ele>1406</ele>
        <time>2019-08-05T16:43:48.000Z</time>
      </trkpt>
      <trkpt lat="42.609217" lon="1.319083">
        <ele>1406</ele>
        <time>2019-08-05T16:43:52.000Z</time>
      </trkpt>
      <trkpt lat="42.609182" lon="1.319061">
        <ele>1405</ele>
        <time>2019-08-05T16:43:55.000Z</time>
      </trkpt>
      <trkpt lat="42.609145" lon="1.319046">
        <ele>1405</ele>
        <time>2019-08-05T16:43:58.000Z</time>
      </trkpt>
      <trkpt lat="42.609101" lon="1.319032">
        <ele>1403</ele>
        <time>2019-08-05T16:44:02.000Z</time>
      </trkpt>
      <trkpt lat="42.609073" lon="1.318993">
        <ele>1403</ele>
        <time>2019-08-05T16:44:05.000Z</time>
      </trkpt>
      <trkpt lat="42.609035" lon="1.318958">
        <ele>1402.37008032736</ele>
        <time>2019-08-05T16:44:09.000Z</time>
      </trkpt>
      <trkpt lat="42.608996" lon="1.318936">
        <ele>1402</ele>
        <time>2019-08-05T16:44:14.000Z</time>
      </trkpt>
      <trkpt lat="42.608952" lon="1.318914">
        <ele>1401</ele>
        <time>2019-08-05T16:44:18.000Z</time>
      </trkpt>
      <trkpt lat="42.608912" lon="1.3189">
        <ele>1400</ele>
        <time>2019-08-05T16:44:22.000Z</time>
      </trkpt>
      <trkpt lat="42.608869" lon="1.318902">
        <ele>1400</ele>
        <time>2019-08-05T16:44:26.000Z</time>
      </trkpt>
      <trkpt lat="42.608826" lon="1.318908">
        <ele>1400</ele>
        <time>2019-08-05T16:44:30.000Z</time>
      </trkpt>
      <trkpt lat="42.608783" lon="1.318917">
        <ele>1399</ele>
        <time>2019-08-05T16:44:34.000Z</time>
      </trkpt>
      <trkpt lat="42.608743" lon="1.318921">
        <ele>1398</ele>
        <time>2019-08-05T16:44:39.000Z</time>
      </trkpt>
      <trkpt lat="42.608708" lon="1.31893">
        <ele>1397</ele>
        <time>2019-08-05T16:44:43.000Z</time>
      </trkpt>
      <trkpt lat="42.608664" lon="1.318962">
        <ele>1397</ele>
        <time>2019-08-05T16:44:47.000Z</time>
      </trkpt>
      <trkpt lat="42.608631" lon="1.318986">
        <ele>1397</ele>
        <time>2019-08-05T16:44:50.000Z</time>
      </trkpt>
      <trkpt lat="42.6086" lon="1.31902">
        <ele>1396</ele>
        <time>2019-08-05T16:44:54.000Z</time>
      </trkpt>
      <trkpt lat="42.60856" lon="1.319053">
        <ele>1395.26363498842</ele>
        <time>2019-08-05T16:44:59.000Z</time>
      </trkpt>
      <trkpt lat="42.608519" lon="1.31907">
        <ele>1395</ele>
        <time>2019-08-05T16:45:02.000Z</time>
      </trkpt>
      <trkpt lat="42.608489" lon="1.3191">
        <ele>1394</ele>
        <time>2019-08-05T16:45:06.000Z</time>
      </trkpt>
      <trkpt lat="42.608463" lon="1.319144">
        <ele>1394</ele>
        <time>2019-08-05T16:45:10.000Z</time>
      </trkpt>
      <trkpt lat="42.608442" lon="1.319186">
        <ele>1393</ele>
        <time>2019-08-05T16:45:14.000Z</time>
      </trkpt>
      <trkpt lat="42.608413" lon="1.319218">
        <ele>1393</ele>
        <time>2019-08-05T16:45:20.000Z</time>
      </trkpt>
      <trkpt lat="42.608391" lon="1.319261">
        <ele>1393</ele>
        <time>2019-08-05T16:45:24.000Z</time>
      </trkpt>
      <trkpt lat="42.608379" lon="1.319317">
        <ele>1391.1900032</ele>
        <time>2019-08-05T16:45:29.000Z</time>
      </trkpt>
      <trkpt lat="42.608369" lon="1.319368">
        <ele>1392</ele>
        <time>2019-08-05T16:45:33.000Z</time>
      </trkpt>
      <trkpt lat="42.608354" lon="1.319422">
        <ele>1391</ele>
        <time>2019-08-05T16:45:37.000Z</time>
      </trkpt>
      <trkpt lat="42.608318" lon="1.319462">
        <ele>1391</ele>
        <time>2019-08-05T16:45:40.000Z</time>
      </trkpt>
      <trkpt lat="42.608275" lon="1.319503">
        <ele>1391</ele>
        <time>2019-08-05T16:45:43.000Z</time>
      </trkpt>
      <trkpt lat="42.608243" lon="1.319544">
        <ele>1391</ele>
        <time>2019-08-05T16:45:46.000Z</time>
      </trkpt>
      <trkpt lat="42.608206" lon="1.319574">
        <ele>1391</ele>
        <time>2019-08-05T16:45:49.000Z</time>
      </trkpt>
      <trkpt lat="42.608171" lon="1.319615">
        <ele>1391</ele>
        <time>2019-08-05T16:45:52.000Z</time>
      </trkpt>
      <trkpt lat="42.608138" lon="1.319646">
        <ele>1391</ele>
        <time>2019-08-05T16:45:55.000Z</time>
      </trkpt>
      <trkpt lat="42.608098" lon="1.319678">
        <ele>1391</ele>
        <time>2019-08-05T16:45:59.000Z</time>
      </trkpt>
      <trkpt lat="42.608062" lon="1.31969">
        <ele>1391</ele>
        <time>2019-08-05T16:46:02.000Z</time>
      </trkpt>
      <trkpt lat="42.608026" lon="1.319697">
        <ele>1391</ele>
        <time>2019-08-05T16:46:05.000Z</time>
      </trkpt>
      <trkpt lat="42.607987" lon="1.31971">
        <ele>1391</ele>
        <time>2019-08-05T16:46:08.000Z</time>
      </trkpt>
      <trkpt lat="42.607948" lon="1.319712">
        <ele>1391</ele>
        <time>2019-08-05T16:46:11.000Z</time>
      </trkpt>
      <trkpt lat="42.607904" lon="1.31971">
        <ele>1390.1900032</ele>
        <time>2019-08-05T16:46:14.000Z</time>
      </trkpt>
      <trkpt lat="42.607865" lon="1.319711">
        <ele>1390</ele>
        <time>2019-08-05T16:46:17.000Z</time>
      </trkpt>
      <trkpt lat="42.607827" lon="1.319716">
        <ele>1389.26363498842</ele>
        <time>2019-08-05T16:46:20.000Z</time>
      </trkpt>
      <trkpt lat="42.607789" lon="1.319719">
        <ele>1389</ele>
        <time>2019-08-05T16:46:23.000Z</time>
      </trkpt>
      <trkpt lat="42.607744" lon="1.319725">
        <ele>1389</ele>
        <time>2019-08-05T16:46:27.000Z</time>
      </trkpt>
      <trkpt lat="42.607697" lon="1.319741">
        <ele>1389</ele>
        <time>2019-08-05T16:46:31.000Z</time>
      </trkpt>
      <trkpt lat="42.607653" lon="1.319747">
        <ele>1388</ele>
        <time>2019-08-05T16:46:35.000Z</time>
      </trkpt>
      <trkpt lat="42.607619" lon="1.319762">
        <ele>1388</ele>
        <time>2019-08-05T16:46:38.000Z</time>
      </trkpt>
      <trkpt lat="42.607582" lon="1.319765">
        <ele>1388</ele>
        <time>2019-08-05T16:46:41.000Z</time>
      </trkpt>
      <trkpt lat="42.607539" lon="1.319775">
        <ele>1388</ele>
        <time>2019-08-05T16:46:45.000Z</time>
      </trkpt>
      <trkpt lat="42.607492" lon="1.319771">
        <ele>1387</ele>
        <time>2019-08-05T16:46:49.000Z</time>
      </trkpt>
      <trkpt lat="42.607456" lon="1.319764">
        <ele>1387</ele>
        <time>2019-08-05T16:46:52.000Z</time>
      </trkpt>
      <trkpt lat="42.607408" lon="1.31975">
        <ele>1385</ele>
        <time>2019-08-05T16:46:56.000Z</time>
      </trkpt>
      <trkpt lat="42.607361" lon="1.319737">
        <ele>1385</ele>
        <time>2019-08-05T16:47:00.000Z</time>
      </trkpt>
      <trkpt lat="42.607323" lon="1.319729">
        <ele>1385</ele>
        <time>2019-08-05T16:47:03.000Z</time>
      </trkpt>
      <trkpt lat="42.607286" lon="1.319706">
        <ele>1384</ele>
        <time>2019-08-05T16:47:07.000Z</time>
      </trkpt>
      <trkpt lat="42.60725" lon="1.319698">
        <ele>1384</ele>
        <time>2019-08-05T16:47:11.000Z</time>
      </trkpt>
      <trkpt lat="42.607214" lon="1.319684">
        <ele>1384</ele>
        <time>2019-08-05T16:47:14.000Z</time>
      </trkpt>
      <trkpt lat="42.607179" lon="1.319662">
        <ele>1384</ele>
        <time>2019-08-05T16:47:17.000Z</time>
      </trkpt>
      <trkpt lat="42.607146" lon="1.319644">
        <ele>1383</ele>
        <time>2019-08-05T16:47:20.000Z</time>
      </trkpt>
      <trkpt lat="42.607119" lon="1.319601">
        <ele>1383</ele>
        <time>2019-08-05T16:47:26.000Z</time>
      </trkpt>
      <trkpt lat="42.607098" lon="1.31957">
        <ele>1381</ele>
        <time>2019-08-05T16:48:45.000Z</time>
      </trkpt>
      <trkpt lat="42.607101" lon="1.319563">
        <ele>1372.30004882813</ele>
        <time>2019-08-05T16:49:25.000Z</time>
      </trkpt>
    </trkseg>
  </trk>
</gpx>
